<?xml version="1.0" encoding="UTF-8" standalone="no" ?>
<gpx xmlns="http://www.topografix.com/GPX/1/1" xmlns:xsi="http://www.w3.org/2001/XMLSchema-instance" xsi:schemaLocation="http://www.topografix.com/GPX/1/1 http://www.topografix.com/GPX/1/1/gpx.xsd" version="1.1" creator="VisuGPX - https://www.visugpx.com">
  <metadata>
    <name>lundi 2015 07 06</name>
    <desc><![CDATA[rando du lundi]]></desc>
  </metadata>
  <trk>
    <name><![CDATA[06/07/2015 20:18]]></name>
    <desc><![CDATA[]]></desc>
    <trkseg>
      <trkpt lat="48.85739" lon="2.34733">
        <ele>86.6</ele>
        <time>2015-07-06T18:18:18.224Z</time>
      </trkpt>
      <trkpt lat="48.85743" lon="2.34727">
        <ele>87.3</ele>
        <time>2015-07-06T18:19:03.141Z</time>
      </trkpt>
      <trkpt lat="48.85743" lon="2.34727">
        <ele>87.4</ele>
        <time>2015-07-06T18:19:04.163Z</time>
      </trkpt>
      <trkpt lat="48.85743" lon="2.34727">
        <ele>87.4</ele>
        <time>2015-07-06T18:21:26.177Z</time>
      </trkpt>
      <trkpt lat="48.85739" lon="2.34732">
        <ele>89.7</ele>
        <time>2015-07-06T18:21:27.153Z</time>
      </trkpt>
      <trkpt lat="48.85739" lon="2.34733">
        <ele>89.1</ele>
        <time>2015-07-06T18:21:29.137Z</time>
      </trkpt>
      <trkpt lat="48.85739" lon="2.34734">
        <ele>88.9</ele>
        <time>2015-07-06T18:21:30.158Z</time>
      </trkpt>
      <trkpt lat="48.85739" lon="2.34734">
        <ele>88.6</ele>
        <time>2015-07-06T18:21:31.218Z</time>
      </trkpt>
      <trkpt lat="48.85738" lon="2.34734">
        <ele>88.6</ele>
        <time>2015-07-06T18:21:32.214Z</time>
      </trkpt>
      <trkpt lat="48.85737" lon="2.34722">
        <ele>88.4</ele>
        <time>2015-07-06T18:21:38.152Z</time>
      </trkpt>
      <trkpt lat="48.85737" lon="2.34719">
        <ele>88.2</ele>
        <time>2015-07-06T18:21:39.153Z</time>
      </trkpt>
      <trkpt lat="48.85738" lon="2.34708">
        <ele>87.4</ele>
        <time>2015-07-06T18:21:42.184Z</time>
      </trkpt>
      <trkpt lat="48.85737" lon="2.34705">
        <ele>87.5</ele>
        <time>2015-07-06T18:21:43.220Z</time>
      </trkpt>
      <trkpt lat="48.85731" lon="2.34698">
        <ele>87.5</ele>
        <time>2015-07-06T18:21:46.177Z</time>
      </trkpt>
      <trkpt lat="48.85728" lon="2.34696">
        <ele>87.5</ele>
        <time>2015-07-06T18:21:47.146Z</time>
      </trkpt>
      <trkpt lat="48.8572" lon="2.34693">
        <ele>86.9</ele>
        <time>2015-07-06T18:21:51.192Z</time>
      </trkpt>
      <trkpt lat="48.85717" lon="2.34691">
        <ele>86.8</ele>
        <time>2015-07-06T18:21:52.184Z</time>
      </trkpt>
      <trkpt lat="48.85711" lon="2.34687">
        <ele>86.3</ele>
        <time>2015-07-06T18:21:55.254Z</time>
      </trkpt>
      <trkpt lat="48.85709" lon="2.34686">
        <ele>86.4</ele>
        <time>2015-07-06T18:21:56.153Z</time>
      </trkpt>
      <trkpt lat="48.85701" lon="2.34681">
        <ele>85.8</ele>
        <time>2015-07-06T18:21:59.181Z</time>
      </trkpt>
      <trkpt lat="48.85699" lon="2.3468">
        <ele>85.7</ele>
        <time>2015-07-06T18:22:00.218Z</time>
      </trkpt>
      <trkpt lat="48.85691" lon="2.34674">
        <ele>85.5</ele>
        <time>2015-07-06T18:22:03.193Z</time>
      </trkpt>
      <trkpt lat="48.85688" lon="2.34672">
        <ele>85.5</ele>
        <time>2015-07-06T18:22:04.200Z</time>
      </trkpt>
      <trkpt lat="48.85682" lon="2.34668">
        <ele>85.5</ele>
        <time>2015-07-06T18:22:06.135Z</time>
      </trkpt>
      <trkpt lat="48.85679" lon="2.34667">
        <ele>85.3</ele>
        <time>2015-07-06T18:22:07.294Z</time>
      </trkpt>
      <trkpt lat="48.85673" lon="2.34663">
        <ele>85.2</ele>
        <time>2015-07-06T18:22:09.119Z</time>
      </trkpt>
      <trkpt lat="48.8567" lon="2.34662">
        <ele>85.2</ele>
        <time>2015-07-06T18:22:10.168Z</time>
      </trkpt>
      <trkpt lat="48.85663" lon="2.34658">
        <ele>85</ele>
        <time>2015-07-06T18:22:12.170Z</time>
      </trkpt>
      <trkpt lat="48.8566" lon="2.34655">
        <ele>84.9</ele>
        <time>2015-07-06T18:22:13.185Z</time>
      </trkpt>
      <trkpt lat="48.85653" lon="2.34651">
        <ele>84.6</ele>
        <time>2015-07-06T18:22:15.203Z</time>
      </trkpt>
      <trkpt lat="48.8565" lon="2.34648">
        <ele>84.8</ele>
        <time>2015-07-06T18:22:16.166Z</time>
      </trkpt>
      <trkpt lat="48.85643" lon="2.34644">
        <ele>85.1</ele>
        <time>2015-07-06T18:22:18.302Z</time>
      </trkpt>
      <trkpt lat="48.85641" lon="2.34643">
        <ele>85.1</ele>
        <time>2015-07-06T18:22:19.313Z</time>
      </trkpt>
      <trkpt lat="48.85633" lon="2.3464">
        <ele>85.1</ele>
        <time>2015-07-06T18:22:22.245Z</time>
      </trkpt>
      <trkpt lat="48.85631" lon="2.34638">
        <ele>85.1</ele>
        <time>2015-07-06T18:22:23.259Z</time>
      </trkpt>
      <trkpt lat="48.85627" lon="2.34627">
        <ele>84.4</ele>
        <time>2015-07-06T18:22:27.229Z</time>
      </trkpt>
      <trkpt lat="48.85627" lon="2.34624">
        <ele>84.3</ele>
        <time>2015-07-06T18:22:28.137Z</time>
      </trkpt>
      <trkpt lat="48.85629" lon="2.34613">
        <ele>84.2</ele>
        <time>2015-07-06T18:22:31.246Z</time>
      </trkpt>
      <trkpt lat="48.85631" lon="2.34608">
        <ele>83.9</ele>
        <time>2015-07-06T18:22:32.183Z</time>
      </trkpt>
      <trkpt lat="48.85635" lon="2.34599">
        <ele>83.8</ele>
        <time>2015-07-06T18:22:34.188Z</time>
      </trkpt>
      <trkpt lat="48.85637" lon="2.34594">
        <ele>83.8</ele>
        <time>2015-07-06T18:22:35.244Z</time>
      </trkpt>
      <trkpt lat="48.85641" lon="2.34584">
        <ele>83.8</ele>
        <time>2015-07-06T18:22:37.220Z</time>
      </trkpt>
      <trkpt lat="48.85644" lon="2.34579">
        <ele>83.9</ele>
        <time>2015-07-06T18:22:38.125Z</time>
      </trkpt>
      <trkpt lat="48.85648" lon="2.3457">
        <ele>84.1</ele>
        <time>2015-07-06T18:22:40.166Z</time>
      </trkpt>
      <trkpt lat="48.85651" lon="2.34566">
        <ele>84.2</ele>
        <time>2015-07-06T18:22:41.100Z</time>
      </trkpt>
      <trkpt lat="48.85656" lon="2.34555">
        <ele>84.1</ele>
        <time>2015-07-06T18:22:43.785Z</time>
      </trkpt>
      <trkpt lat="48.85658" lon="2.34549">
        <ele>83.9</ele>
        <time>2015-07-06T18:22:44.188Z</time>
      </trkpt>
      <trkpt lat="48.8566" lon="2.34536">
        <ele>83.9</ele>
        <time>2015-07-06T18:22:46.100Z</time>
      </trkpt>
      <trkpt lat="48.85661" lon="2.34529">
        <ele>83.9</ele>
        <time>2015-07-06T18:22:47.132Z</time>
      </trkpt>
      <trkpt lat="48.85663" lon="2.34523">
        <ele>83.8</ele>
        <time>2015-07-06T18:22:48.892Z</time>
      </trkpt>
      <trkpt lat="48.85664" lon="2.34516">
        <ele>83.7</ele>
        <time>2015-07-06T18:22:49.175Z</time>
      </trkpt>
      <trkpt lat="48.85665" lon="2.3451">
        <ele>83.6</ele>
        <time>2015-07-06T18:22:50.201Z</time>
      </trkpt>
      <trkpt lat="48.85667" lon="2.34503">
        <ele>83.6</ele>
        <time>2015-07-06T18:22:51.205Z</time>
      </trkpt>
      <trkpt lat="48.85669" lon="2.34496">
        <ele>83.4</ele>
        <time>2015-07-06T18:22:52.141Z</time>
      </trkpt>
      <trkpt lat="48.85671" lon="2.34489">
        <ele>83.2</ele>
        <time>2015-07-06T18:22:53.143Z</time>
      </trkpt>
      <trkpt lat="48.85672" lon="2.34482">
        <ele>83.2</ele>
        <time>2015-07-06T18:22:54.146Z</time>
      </trkpt>
      <trkpt lat="48.85674" lon="2.34475">
        <ele>83.3</ele>
        <time>2015-07-06T18:22:55.162Z</time>
      </trkpt>
      <trkpt lat="48.85676" lon="2.34468">
        <ele>83.1</ele>
        <time>2015-07-06T18:22:56.174Z</time>
      </trkpt>
      <trkpt lat="48.85677" lon="2.34461">
        <ele>82.8</ele>
        <time>2015-07-06T18:22:57.184Z</time>
      </trkpt>
      <trkpt lat="48.85679" lon="2.34454">
        <ele>82.8</ele>
        <time>2015-07-06T18:22:58.190Z</time>
      </trkpt>
      <trkpt lat="48.8568" lon="2.34446">
        <ele>82.7</ele>
        <time>2015-07-06T18:22:59.097Z</time>
      </trkpt>
      <trkpt lat="48.85681" lon="2.34439">
        <ele>82.6</ele>
        <time>2015-07-06T18:23:00.094Z</time>
      </trkpt>
      <trkpt lat="48.85682" lon="2.34431">
        <ele>82.7</ele>
        <time>2015-07-06T18:23:01.181Z</time>
      </trkpt>
      <trkpt lat="48.85683" lon="2.34423">
        <ele>82.7</ele>
        <time>2015-07-06T18:23:02.192Z</time>
      </trkpt>
      <trkpt lat="48.85685" lon="2.34416">
        <ele>82.6</ele>
        <time>2015-07-06T18:23:03.204Z</time>
      </trkpt>
      <trkpt lat="48.85686" lon="2.34409">
        <ele>82.4</ele>
        <time>2015-07-06T18:23:04.143Z</time>
      </trkpt>
      <trkpt lat="48.85688" lon="2.34401">
        <ele>82.4</ele>
        <time>2015-07-06T18:23:05.088Z</time>
      </trkpt>
      <trkpt lat="48.85689" lon="2.34394">
        <ele>82.4</ele>
        <time>2015-07-06T18:23:06.121Z</time>
      </trkpt>
      <trkpt lat="48.8569" lon="2.34386">
        <ele>82.2</ele>
        <time>2015-07-06T18:23:07.154Z</time>
      </trkpt>
      <trkpt lat="48.8569" lon="2.34379">
        <ele>82.2</ele>
        <time>2015-07-06T18:23:08.163Z</time>
      </trkpt>
      <trkpt lat="48.8569" lon="2.34372">
        <ele>82.3</ele>
        <time>2015-07-06T18:23:09.187Z</time>
      </trkpt>
      <trkpt lat="48.85691" lon="2.34359">
        <ele>82.1</ele>
        <time>2015-07-06T18:23:11.127Z</time>
      </trkpt>
      <trkpt lat="48.85689" lon="2.34352">
        <ele>81.2</ele>
        <time>2015-07-06T18:23:12.124Z</time>
      </trkpt>
      <trkpt lat="48.85684" lon="2.34342">
        <ele>80.2</ele>
        <time>2015-07-06T18:23:14.173Z</time>
      </trkpt>
      <trkpt lat="48.85681" lon="2.34339">
        <ele>80.2</ele>
        <time>2015-07-06T18:23:15.187Z</time>
      </trkpt>
      <trkpt lat="48.85672" lon="2.34334">
        <ele>79.8</ele>
        <time>2015-07-06T18:23:17.220Z</time>
      </trkpt>
      <trkpt lat="48.85668" lon="2.34332">
        <ele>79.6</ele>
        <time>2015-07-06T18:23:18.138Z</time>
      </trkpt>
      <trkpt lat="48.85663" lon="2.34329">
        <ele>79.5</ele>
        <time>2015-07-06T18:23:19.199Z</time>
      </trkpt>
      <trkpt lat="48.85659" lon="2.34326">
        <ele>79.7</ele>
        <time>2015-07-06T18:23:20.218Z</time>
      </trkpt>
      <trkpt lat="48.85655" lon="2.34323">
        <ele>79.7</ele>
        <time>2015-07-06T18:23:21.137Z</time>
      </trkpt>
      <trkpt lat="48.8565" lon="2.3432">
        <ele>79.5</ele>
        <time>2015-07-06T18:23:22.144Z</time>
      </trkpt>
      <trkpt lat="48.85645" lon="2.34318">
        <ele>79.3</ele>
        <time>2015-07-06T18:23:23.150Z</time>
      </trkpt>
      <trkpt lat="48.8564" lon="2.34315">
        <ele>79.3</ele>
        <time>2015-07-06T18:23:24.160Z</time>
      </trkpt>
      <trkpt lat="48.85636" lon="2.34313">
        <ele>79.2</ele>
        <time>2015-07-06T18:23:25.194Z</time>
      </trkpt>
      <trkpt lat="48.8563" lon="2.34311">
        <ele>79.2</ele>
        <time>2015-07-06T18:23:26.179Z</time>
      </trkpt>
      <trkpt lat="48.85625" lon="2.34309">
        <ele>79</ele>
        <time>2015-07-06T18:23:27.266Z</time>
      </trkpt>
      <trkpt lat="48.8562" lon="2.34307">
        <ele>79</ele>
        <time>2015-07-06T18:23:28.144Z</time>
      </trkpt>
      <trkpt lat="48.85615" lon="2.34305">
        <ele>79</ele>
        <time>2015-07-06T18:23:29.153Z</time>
      </trkpt>
      <trkpt lat="48.8561" lon="2.34302">
        <ele>79</ele>
        <time>2015-07-06T18:23:30.162Z</time>
      </trkpt>
      <trkpt lat="48.85605" lon="2.34299">
        <ele>79.1</ele>
        <time>2015-07-06T18:23:31.226Z</time>
      </trkpt>
      <trkpt lat="48.85601" lon="2.34296">
        <ele>79.3</ele>
        <time>2015-07-06T18:23:32.123Z</time>
      </trkpt>
      <trkpt lat="48.85596" lon="2.34293">
        <ele>79.4</ele>
        <time>2015-07-06T18:23:33.133Z</time>
      </trkpt>
      <trkpt lat="48.85592" lon="2.3429">
        <ele>79.6</ele>
        <time>2015-07-06T18:23:34.138Z</time>
      </trkpt>
      <trkpt lat="48.85587" lon="2.34287">
        <ele>79.7</ele>
        <time>2015-07-06T18:23:35.141Z</time>
      </trkpt>
      <trkpt lat="48.85583" lon="2.34285">
        <ele>79.6</ele>
        <time>2015-07-06T18:23:36.150Z</time>
      </trkpt>
      <trkpt lat="48.85577" lon="2.34278">
        <ele>80.2</ele>
        <time>2015-07-06T18:23:38.170Z</time>
      </trkpt>
      <trkpt lat="48.85576" lon="2.34272">
        <ele>80.6</ele>
        <time>2015-07-06T18:23:39.181Z</time>
      </trkpt>
      <trkpt lat="48.85576" lon="2.34264">
        <ele>80.8</ele>
        <time>2015-07-06T18:23:40.129Z</time>
      </trkpt>
      <trkpt lat="48.85576" lon="2.34258">
        <ele>80.9</ele>
        <time>2015-07-06T18:23:41.132Z</time>
      </trkpt>
      <trkpt lat="48.8558" lon="2.34248">
        <ele>80.8</ele>
        <time>2015-07-06T18:23:43.184Z</time>
      </trkpt>
      <trkpt lat="48.85582" lon="2.34244">
        <ele>80.8</ele>
        <time>2015-07-06T18:23:44.202Z</time>
      </trkpt>
      <trkpt lat="48.85587" lon="2.34235">
        <ele>80.5</ele>
        <time>2015-07-06T18:23:46.142Z</time>
      </trkpt>
      <trkpt lat="48.8559" lon="2.34231">
        <ele>80.5</ele>
        <time>2015-07-06T18:23:47.157Z</time>
      </trkpt>
      <trkpt lat="48.85596" lon="2.34222">
        <ele>80.3</ele>
        <time>2015-07-06T18:23:49.216Z</time>
      </trkpt>
      <trkpt lat="48.856" lon="2.34218">
        <ele>80.1</ele>
        <time>2015-07-06T18:23:50.216Z</time>
      </trkpt>
      <trkpt lat="48.85604" lon="2.34213">
        <ele>79.9</ele>
        <time>2015-07-06T18:23:51.150Z</time>
      </trkpt>
      <trkpt lat="48.85608" lon="2.3421">
        <ele>79.9</ele>
        <time>2015-07-06T18:23:52.172Z</time>
      </trkpt>
      <trkpt lat="48.85613" lon="2.34206">
        <ele>79.8</ele>
        <time>2015-07-06T18:23:53.183Z</time>
      </trkpt>
      <trkpt lat="48.85617" lon="2.34201">
        <ele>79.6</ele>
        <time>2015-07-06T18:23:54.198Z</time>
      </trkpt>
      <trkpt lat="48.85621" lon="2.34196">
        <ele>79.4</ele>
        <time>2015-07-06T18:23:55.222Z</time>
      </trkpt>
      <trkpt lat="48.85625" lon="2.34191">
        <ele>79.4</ele>
        <time>2015-07-06T18:23:56.128Z</time>
      </trkpt>
      <trkpt lat="48.85629" lon="2.34185">
        <ele>79.4</ele>
        <time>2015-07-06T18:23:57.169Z</time>
      </trkpt>
      <trkpt lat="48.85633" lon="2.34181">
        <ele>79.4</ele>
        <time>2015-07-06T18:23:58.179Z</time>
      </trkpt>
      <trkpt lat="48.85637" lon="2.34176">
        <ele>79.4</ele>
        <time>2015-07-06T18:23:59.190Z</time>
      </trkpt>
      <trkpt lat="48.85643" lon="2.34171">
        <ele>78.1</ele>
        <time>2015-07-06T18:24:00.235Z</time>
      </trkpt>
      <trkpt lat="48.85648" lon="2.34168">
        <ele>77.3</ele>
        <time>2015-07-06T18:24:01.256Z</time>
      </trkpt>
      <trkpt lat="48.85652" lon="2.34165">
        <ele>77.2</ele>
        <time>2015-07-06T18:24:02.168Z</time>
      </trkpt>
      <trkpt lat="48.85658" lon="2.34159">
        <ele>77.2</ele>
        <time>2015-07-06T18:24:04.116Z</time>
      </trkpt>
      <trkpt lat="48.8566" lon="2.34156">
        <ele>77.3</ele>
        <time>2015-07-06T18:24:05.132Z</time>
      </trkpt>
      <trkpt lat="48.85664" lon="2.3415">
        <ele>77</ele>
        <time>2015-07-06T18:24:07.190Z</time>
      </trkpt>
      <trkpt lat="48.85667" lon="2.34147">
        <ele>76.7</ele>
        <time>2015-07-06T18:24:08.193Z</time>
      </trkpt>
      <trkpt lat="48.8567" lon="2.34137">
        <ele>76.9</ele>
        <time>2015-07-06T18:24:10.125Z</time>
      </trkpt>
      <trkpt lat="48.85671" lon="2.34132">
        <ele>77.1</ele>
        <time>2015-07-06T18:24:11.220Z</time>
      </trkpt>
      <trkpt lat="48.85672" lon="2.3412">
        <ele>78.4</ele>
        <time>2015-07-06T18:24:14.185Z</time>
      </trkpt>
      <trkpt lat="48.85671" lon="2.34117">
        <ele>78.7</ele>
        <time>2015-07-06T18:24:15.159Z</time>
      </trkpt>
      <trkpt lat="48.85666" lon="2.34111">
        <ele>79</ele>
        <time>2015-07-06T18:24:18.228Z</time>
      </trkpt>
      <trkpt lat="48.85664" lon="2.34108">
        <ele>79.3</ele>
        <time>2015-07-06T18:24:19.300Z</time>
      </trkpt>
      <trkpt lat="48.85657" lon="2.34102">
        <ele>79.5</ele>
        <time>2015-07-06T18:24:22.220Z</time>
      </trkpt>
      <trkpt lat="48.85655" lon="2.34101">
        <ele>79.4</ele>
        <time>2015-07-06T18:24:23.239Z</time>
      </trkpt>
      <trkpt lat="48.85648" lon="2.34093">
        <ele>79.7</ele>
        <time>2015-07-06T18:24:27.232Z</time>
      </trkpt>
      <trkpt lat="48.85646" lon="2.34092">
        <ele>79.7</ele>
        <time>2015-07-06T18:24:28.213Z</time>
      </trkpt>
      <trkpt lat="48.85639" lon="2.34084">
        <ele>80.6</ele>
        <time>2015-07-06T18:24:31.260Z</time>
      </trkpt>
      <trkpt lat="48.85637" lon="2.34082">
        <ele>80.5</ele>
        <time>2015-07-06T18:24:32.198Z</time>
      </trkpt>
      <trkpt lat="48.85629" lon="2.34075">
        <ele>80.5</ele>
        <time>2015-07-06T18:24:35.195Z</time>
      </trkpt>
      <trkpt lat="48.85628" lon="2.34074">
        <ele>80.5</ele>
        <time>2015-07-06T18:24:36.208Z</time>
      </trkpt>
      <trkpt lat="48.85623" lon="2.34066">
        <ele>81.1</ele>
        <time>2015-07-06T18:24:39.200Z</time>
      </trkpt>
      <trkpt lat="48.85622" lon="2.34062">
        <ele>81.3</ele>
        <time>2015-07-06T18:24:40.215Z</time>
      </trkpt>
      <trkpt lat="48.85621" lon="2.34054">
        <ele>81.7</ele>
        <time>2015-07-06T18:24:42.280Z</time>
      </trkpt>
      <trkpt lat="48.8562" lon="2.34049">
        <ele>82.2</ele>
        <time>2015-07-06T18:24:43.266Z</time>
      </trkpt>
      <trkpt lat="48.8562" lon="2.34036">
        <ele>83.1</ele>
        <time>2015-07-06T18:24:46.188Z</time>
      </trkpt>
      <trkpt lat="48.85622" lon="2.34032">
        <ele>83.4</ele>
        <time>2015-07-06T18:24:47.201Z</time>
      </trkpt>
      <trkpt lat="48.85625" lon="2.34024">
        <ele>83.8</ele>
        <time>2015-07-06T18:24:49.219Z</time>
      </trkpt>
      <trkpt lat="48.85627" lon="2.34019">
        <ele>83.9</ele>
        <time>2015-07-06T18:24:50.122Z</time>
      </trkpt>
      <trkpt lat="48.85631" lon="2.3401">
        <ele>84.3</ele>
        <time>2015-07-06T18:24:52.268Z</time>
      </trkpt>
      <trkpt lat="48.85634" lon="2.34006">
        <ele>84.4</ele>
        <time>2015-07-06T18:24:53.172Z</time>
      </trkpt>
      <trkpt lat="48.85637" lon="2.34001">
        <ele>84.5</ele>
        <time>2015-07-06T18:24:54.197Z</time>
      </trkpt>
      <trkpt lat="48.8564" lon="2.33995">
        <ele>84.7</ele>
        <time>2015-07-06T18:24:55.269Z</time>
      </trkpt>
      <trkpt lat="48.85643" lon="2.33989">
        <ele>84.4</ele>
        <time>2015-07-06T18:24:56.130Z</time>
      </trkpt>
      <trkpt lat="48.85645" lon="2.33983">
        <ele>84.3</ele>
        <time>2015-07-06T18:24:57.171Z</time>
      </trkpt>
      <trkpt lat="48.85647" lon="2.33976">
        <ele>84.3</ele>
        <time>2015-07-06T18:24:58.170Z</time>
      </trkpt>
      <trkpt lat="48.85649" lon="2.33969">
        <ele>84.4</ele>
        <time>2015-07-06T18:24:59.172Z</time>
      </trkpt>
      <trkpt lat="48.85655" lon="2.33962">
        <ele>83.7</ele>
        <time>2015-07-06T18:25:00.188Z</time>
      </trkpt>
      <trkpt lat="48.85658" lon="2.33956">
        <ele>83.8</ele>
        <time>2015-07-06T18:25:01.189Z</time>
      </trkpt>
      <trkpt lat="48.85661" lon="2.3395">
        <ele>83.8</ele>
        <time>2015-07-06T18:25:02.205Z</time>
      </trkpt>
      <trkpt lat="48.85665" lon="2.33945">
        <ele>83.9</ele>
        <time>2015-07-06T18:25:03.124Z</time>
      </trkpt>
      <trkpt lat="48.85668" lon="2.33939">
        <ele>83.9</ele>
        <time>2015-07-06T18:25:04.143Z</time>
      </trkpt>
      <trkpt lat="48.85671" lon="2.33933">
        <ele>84</ele>
        <time>2015-07-06T18:25:05.392Z</time>
      </trkpt>
      <trkpt lat="48.85675" lon="2.33927">
        <ele>84</ele>
        <time>2015-07-06T18:25:06.177Z</time>
      </trkpt>
      <trkpt lat="48.85678" lon="2.3392">
        <ele>83.9</ele>
        <time>2015-07-06T18:25:07.185Z</time>
      </trkpt>
      <trkpt lat="48.85682" lon="2.33914">
        <ele>84</ele>
        <time>2015-07-06T18:25:08.123Z</time>
      </trkpt>
      <trkpt lat="48.85686" lon="2.33908">
        <ele>84</ele>
        <time>2015-07-06T18:25:09.150Z</time>
      </trkpt>
      <trkpt lat="48.85689" lon="2.33902">
        <ele>84</ele>
        <time>2015-07-06T18:25:10.223Z</time>
      </trkpt>
      <trkpt lat="48.85692" lon="2.33896">
        <ele>84</ele>
        <time>2015-07-06T18:25:11.167Z</time>
      </trkpt>
      <trkpt lat="48.85696" lon="2.33889">
        <ele>84</ele>
        <time>2015-07-06T18:25:12.149Z</time>
      </trkpt>
      <trkpt lat="48.85699" lon="2.33883">
        <ele>83.9</ele>
        <time>2015-07-06T18:25:13.168Z</time>
      </trkpt>
      <trkpt lat="48.85702" lon="2.33876">
        <ele>83.8</ele>
        <time>2015-07-06T18:25:14.178Z</time>
      </trkpt>
      <trkpt lat="48.85705" lon="2.3387">
        <ele>83.7</ele>
        <time>2015-07-06T18:25:15.178Z</time>
      </trkpt>
      <trkpt lat="48.85709" lon="2.33863">
        <ele>83.1</ele>
        <time>2015-07-06T18:25:16.195Z</time>
      </trkpt>
      <trkpt lat="48.85713" lon="2.33857">
        <ele>82.8</ele>
        <time>2015-07-06T18:25:17.239Z</time>
      </trkpt>
      <trkpt lat="48.85717" lon="2.33851">
        <ele>82.6</ele>
        <time>2015-07-06T18:25:18.110Z</time>
      </trkpt>
      <trkpt lat="48.8572" lon="2.33844">
        <ele>82.5</ele>
        <time>2015-07-06T18:25:19.180Z</time>
      </trkpt>
      <trkpt lat="48.85722" lon="2.33835">
        <ele>82.5</ele>
        <time>2015-07-06T18:25:20.186Z</time>
      </trkpt>
      <trkpt lat="48.85726" lon="2.33829">
        <ele>82.2</ele>
        <time>2015-07-06T18:25:21.188Z</time>
      </trkpt>
      <trkpt lat="48.85732" lon="2.33823">
        <ele>82.3</ele>
        <time>2015-07-06T18:25:22.198Z</time>
      </trkpt>
      <trkpt lat="48.85735" lon="2.33817">
        <ele>82.2</ele>
        <time>2015-07-06T18:25:23.215Z</time>
      </trkpt>
      <trkpt lat="48.85739" lon="2.33812">
        <ele>82.4</ele>
        <time>2015-07-06T18:25:24.144Z</time>
      </trkpt>
      <trkpt lat="48.85742" lon="2.33806">
        <ele>82.6</ele>
        <time>2015-07-06T18:25:25.278Z</time>
      </trkpt>
      <trkpt lat="48.85746" lon="2.338">
        <ele>82.7</ele>
        <time>2015-07-06T18:25:26.139Z</time>
      </trkpt>
      <trkpt lat="48.85748" lon="2.33793">
        <ele>82.8</ele>
        <time>2015-07-06T18:25:27.148Z</time>
      </trkpt>
      <trkpt lat="48.8575" lon="2.33786">
        <ele>82.7</ele>
        <time>2015-07-06T18:25:28.162Z</time>
      </trkpt>
      <trkpt lat="48.85752" lon="2.33779">
        <ele>82.6</ele>
        <time>2015-07-06T18:25:29.170Z</time>
      </trkpt>
      <trkpt lat="48.85754" lon="2.33772">
        <ele>82.6</ele>
        <time>2015-07-06T18:25:30.192Z</time>
      </trkpt>
      <trkpt lat="48.85755" lon="2.33765">
        <ele>82.6</ele>
        <time>2015-07-06T18:25:31.228Z</time>
      </trkpt>
      <trkpt lat="48.85757" lon="2.33758">
        <ele>82.8</ele>
        <time>2015-07-06T18:25:32.140Z</time>
      </trkpt>
      <trkpt lat="48.85759" lon="2.33752">
        <ele>83.2</ele>
        <time>2015-07-06T18:25:33.149Z</time>
      </trkpt>
      <trkpt lat="48.85762" lon="2.3374">
        <ele>83.5</ele>
        <time>2015-07-06T18:25:35.131Z</time>
      </trkpt>
      <trkpt lat="48.85763" lon="2.33734">
        <ele>83.7</ele>
        <time>2015-07-06T18:25:36.187Z</time>
      </trkpt>
      <trkpt lat="48.85765" lon="2.33722">
        <ele>83.9</ele>
        <time>2015-07-06T18:25:38.174Z</time>
      </trkpt>
      <trkpt lat="48.85767" lon="2.33716">
        <ele>84.2</ele>
        <time>2015-07-06T18:25:39.201Z</time>
      </trkpt>
      <trkpt lat="48.8577" lon="2.33705">
        <ele>84.4</ele>
        <time>2015-07-06T18:25:41.152Z</time>
      </trkpt>
      <trkpt lat="48.85771" lon="2.33699">
        <ele>84.3</ele>
        <time>2015-07-06T18:25:42.224Z</time>
      </trkpt>
      <trkpt lat="48.85773" lon="2.33693">
        <ele>84</ele>
        <time>2015-07-06T18:25:43.224Z</time>
      </trkpt>
      <trkpt lat="48.85775" lon="2.33686">
        <ele>84.1</ele>
        <time>2015-07-06T18:25:44.195Z</time>
      </trkpt>
      <trkpt lat="48.85777" lon="2.3368">
        <ele>83.9</ele>
        <time>2015-07-06T18:25:45.208Z</time>
      </trkpt>
      <trkpt lat="48.85779" lon="2.33674">
        <ele>83.6</ele>
        <time>2015-07-06T18:25:46.183Z</time>
      </trkpt>
      <trkpt lat="48.85781" lon="2.33667">
        <ele>83.6</ele>
        <time>2015-07-06T18:25:47.251Z</time>
      </trkpt>
      <trkpt lat="48.85782" lon="2.33661">
        <ele>83.3</ele>
        <time>2015-07-06T18:25:48.224Z</time>
      </trkpt>
      <trkpt lat="48.85783" lon="2.33654">
        <ele>83.2</ele>
        <time>2015-07-06T18:25:49.225Z</time>
      </trkpt>
      <trkpt lat="48.85785" lon="2.33647">
        <ele>83.2</ele>
        <time>2015-07-06T18:25:50.230Z</time>
      </trkpt>
      <trkpt lat="48.85787" lon="2.33635">
        <ele>83.1</ele>
        <time>2015-07-06T18:25:52.194Z</time>
      </trkpt>
      <trkpt lat="48.85787" lon="2.33629">
        <ele>82.9</ele>
        <time>2015-07-06T18:25:53.272Z</time>
      </trkpt>
      <trkpt lat="48.85788" lon="2.33617">
        <ele>82.6</ele>
        <time>2015-07-06T18:25:55.203Z</time>
      </trkpt>
      <trkpt lat="48.85788" lon="2.33612">
        <ele>82.4</ele>
        <time>2015-07-06T18:25:56.274Z</time>
      </trkpt>
      <trkpt lat="48.85788" lon="2.33602">
        <ele>82.1</ele>
        <time>2015-07-06T18:25:58.177Z</time>
      </trkpt>
      <trkpt lat="48.85788" lon="2.33597">
        <ele>81.9</ele>
        <time>2015-07-06T18:25:59.180Z</time>
      </trkpt>
      <trkpt lat="48.85787" lon="2.33587">
        <ele>81.7</ele>
        <time>2015-07-06T18:26:01.268Z</time>
      </trkpt>
      <trkpt lat="48.85787" lon="2.33582">
        <ele>81.6</ele>
        <time>2015-07-06T18:26:02.159Z</time>
      </trkpt>
      <trkpt lat="48.85786" lon="2.33571">
        <ele>82</ele>
        <time>2015-07-06T18:26:04.147Z</time>
      </trkpt>
      <trkpt lat="48.85786" lon="2.33565">
        <ele>82.2</ele>
        <time>2015-07-06T18:26:05.140Z</time>
      </trkpt>
      <trkpt lat="48.85785" lon="2.33553">
        <ele>82.4</ele>
        <time>2015-07-06T18:26:07.218Z</time>
      </trkpt>
      <trkpt lat="48.85784" lon="2.33547">
        <ele>82.4</ele>
        <time>2015-07-06T18:26:08.162Z</time>
      </trkpt>
      <trkpt lat="48.85784" lon="2.33535">
        <ele>82.4</ele>
        <time>2015-07-06T18:26:10.189Z</time>
      </trkpt>
      <trkpt lat="48.85783" lon="2.33528">
        <ele>82.5</ele>
        <time>2015-07-06T18:26:11.198Z</time>
      </trkpt>
      <trkpt lat="48.85782" lon="2.33521">
        <ele>82.7</ele>
        <time>2015-07-06T18:26:12.226Z</time>
      </trkpt>
      <trkpt lat="48.85782" lon="2.33514">
        <ele>82.9</ele>
        <time>2015-07-06T18:26:13.198Z</time>
      </trkpt>
      <trkpt lat="48.85781" lon="2.33502">
        <ele>83.4</ele>
        <time>2015-07-06T18:26:15.208Z</time>
      </trkpt>
      <trkpt lat="48.85782" lon="2.33495">
        <ele>83.6</ele>
        <time>2015-07-06T18:26:16.217Z</time>
      </trkpt>
      <trkpt lat="48.85782" lon="2.33489">
        <ele>83.7</ele>
        <time>2015-07-06T18:26:17.138Z</time>
      </trkpt>
      <trkpt lat="48.85783" lon="2.33482">
        <ele>83.9</ele>
        <time>2015-07-06T18:26:18.143Z</time>
      </trkpt>
      <trkpt lat="48.85786" lon="2.33469">
        <ele>83.9</ele>
        <time>2015-07-06T18:26:20.132Z</time>
      </trkpt>
      <trkpt lat="48.85786" lon="2.33463">
        <ele>83.9</ele>
        <time>2015-07-06T18:26:21.188Z</time>
      </trkpt>
      <trkpt lat="48.85788" lon="2.33456">
        <ele>83.8</ele>
        <time>2015-07-06T18:26:22.199Z</time>
      </trkpt>
      <trkpt lat="48.85789" lon="2.33449">
        <ele>84</ele>
        <time>2015-07-06T18:26:23.174Z</time>
      </trkpt>
      <trkpt lat="48.85792" lon="2.33437">
        <ele>83.9</ele>
        <time>2015-07-06T18:26:25.183Z</time>
      </trkpt>
      <trkpt lat="48.85793" lon="2.3343">
        <ele>83.6</ele>
        <time>2015-07-06T18:26:26.226Z</time>
      </trkpt>
      <trkpt lat="48.85796" lon="2.33418">
        <ele>83.5</ele>
        <time>2015-07-06T18:26:28.243Z</time>
      </trkpt>
      <trkpt lat="48.85798" lon="2.33412">
        <ele>83.5</ele>
        <time>2015-07-06T18:26:29.168Z</time>
      </trkpt>
      <trkpt lat="48.858" lon="2.33405">
        <ele>83.5</ele>
        <time>2015-07-06T18:26:30.164Z</time>
      </trkpt>
      <trkpt lat="48.85802" lon="2.33398">
        <ele>83.7</ele>
        <time>2015-07-06T18:26:31.196Z</time>
      </trkpt>
      <trkpt lat="48.85804" lon="2.33392">
        <ele>83.8</ele>
        <time>2015-07-06T18:26:32.232Z</time>
      </trkpt>
      <trkpt lat="48.85806" lon="2.33385">
        <ele>83.9</ele>
        <time>2015-07-06T18:26:33.238Z</time>
      </trkpt>
      <trkpt lat="48.85808" lon="2.33379">
        <ele>84</ele>
        <time>2015-07-06T18:26:34.156Z</time>
      </trkpt>
      <trkpt lat="48.8581" lon="2.33372">
        <ele>83.9</ele>
        <time>2015-07-06T18:26:35.191Z</time>
      </trkpt>
      <trkpt lat="48.85812" lon="2.33365">
        <ele>84</ele>
        <time>2015-07-06T18:26:36.205Z</time>
      </trkpt>
      <trkpt lat="48.85815" lon="2.33358">
        <ele>84.1</ele>
        <time>2015-07-06T18:26:37.214Z</time>
      </trkpt>
      <trkpt lat="48.85816" lon="2.33351">
        <ele>84</ele>
        <time>2015-07-06T18:26:38.242Z</time>
      </trkpt>
      <trkpt lat="48.85818" lon="2.33344">
        <ele>84</ele>
        <time>2015-07-06T18:26:39.183Z</time>
      </trkpt>
      <trkpt lat="48.8582" lon="2.33337">
        <ele>83.9</ele>
        <time>2015-07-06T18:26:39.021Z</time>
      </trkpt>
      <trkpt lat="48.85822" lon="2.33331">
        <ele>84</ele>
        <time>2015-07-06T18:26:40.145Z</time>
      </trkpt>
      <trkpt lat="48.85824" lon="2.33323">
        <ele>83.9</ele>
        <time>2015-07-06T18:26:41.064Z</time>
      </trkpt>
      <trkpt lat="48.85827" lon="2.33316">
        <ele>83.5</ele>
        <time>2015-07-06T18:26:42.072Z</time>
      </trkpt>
      <trkpt lat="48.85829" lon="2.3331">
        <ele>83.7</ele>
        <time>2015-07-06T18:26:42.985Z</time>
      </trkpt>
      <trkpt lat="48.85831" lon="2.33303">
        <ele>83.7</ele>
        <time>2015-07-06T18:26:44.046Z</time>
      </trkpt>
      <trkpt lat="48.85834" lon="2.33296">
        <ele>83.5</ele>
        <time>2015-07-06T18:26:45.068Z</time>
      </trkpt>
      <trkpt lat="48.85836" lon="2.3329">
        <ele>83.5</ele>
        <time>2015-07-06T18:26:46.079Z</time>
      </trkpt>
      <trkpt lat="48.85839" lon="2.33284">
        <ele>83.2</ele>
        <time>2015-07-06T18:26:46.985Z</time>
      </trkpt>
      <trkpt lat="48.85841" lon="2.33278">
        <ele>83.2</ele>
        <time>2015-07-06T18:26:48.024Z</time>
      </trkpt>
      <trkpt lat="48.85844" lon="2.33272">
        <ele>83</ele>
        <time>2015-07-06T18:26:49.019Z</time>
      </trkpt>
      <trkpt lat="48.85847" lon="2.33267">
        <ele>83</ele>
        <time>2015-07-06T18:26:50.052Z</time>
      </trkpt>
      <trkpt lat="48.85849" lon="2.33261">
        <ele>83.1</ele>
        <time>2015-07-06T18:26:51.049Z</time>
      </trkpt>
      <trkpt lat="48.85852" lon="2.33255">
        <ele>82.8</ele>
        <time>2015-07-06T18:26:52.055Z</time>
      </trkpt>
      <trkpt lat="48.85855" lon="2.33242">
        <ele>82.9</ele>
        <time>2015-07-06T18:26:54.022Z</time>
      </trkpt>
      <trkpt lat="48.85857" lon="2.33236">
        <ele>82.9</ele>
        <time>2015-07-06T18:26:55.025Z</time>
      </trkpt>
      <trkpt lat="48.85858" lon="2.3323">
        <ele>83</ele>
        <time>2015-07-06T18:26:55.980Z</time>
      </trkpt>
      <trkpt lat="48.8586" lon="2.33223">
        <ele>83.2</ele>
        <time>2015-07-06T18:26:57.005Z</time>
      </trkpt>
      <trkpt lat="48.85862" lon="2.33217">
        <ele>83.2</ele>
        <time>2015-07-06T18:26:58.016Z</time>
      </trkpt>
      <trkpt lat="48.85863" lon="2.3321">
        <ele>83.1</ele>
        <time>2015-07-06T18:26:59.035Z</time>
      </trkpt>
      <trkpt lat="48.85865" lon="2.33204">
        <ele>83.1</ele>
        <time>2015-07-06T18:27:00.080Z</time>
      </trkpt>
      <trkpt lat="48.85867" lon="2.33198">
        <ele>83.2</ele>
        <time>2015-07-06T18:27:00.987Z</time>
      </trkpt>
      <trkpt lat="48.85869" lon="2.33191">
        <ele>83.2</ele>
        <time>2015-07-06T18:27:02.001Z</time>
      </trkpt>
      <trkpt lat="48.85871" lon="2.33186">
        <ele>83.1</ele>
        <time>2015-07-06T18:27:03.006Z</time>
      </trkpt>
      <trkpt lat="48.85874" lon="2.3318">
        <ele>83.2</ele>
        <time>2015-07-06T18:27:04.027Z</time>
      </trkpt>
      <trkpt lat="48.85876" lon="2.33174">
        <ele>83.2</ele>
        <time>2015-07-06T18:27:05.039Z</time>
      </trkpt>
      <trkpt lat="48.85878" lon="2.33167">
        <ele>83.3</ele>
        <time>2015-07-06T18:27:06.049Z</time>
      </trkpt>
      <trkpt lat="48.8588" lon="2.3316">
        <ele>83.3</ele>
        <time>2015-07-06T18:27:06.971Z</time>
      </trkpt>
      <trkpt lat="48.85881" lon="2.33152">
        <ele>83.2</ele>
        <time>2015-07-06T18:27:07.969Z</time>
      </trkpt>
      <trkpt lat="48.85883" lon="2.33145">
        <ele>83.4</ele>
        <time>2015-07-06T18:27:08.976Z</time>
      </trkpt>
      <trkpt lat="48.85885" lon="2.33137">
        <ele>83.5</ele>
        <time>2015-07-06T18:27:10.024Z</time>
      </trkpt>
      <trkpt lat="48.85887" lon="2.3313">
        <ele>83.6</ele>
        <time>2015-07-06T18:27:10.988Z</time>
      </trkpt>
      <trkpt lat="48.85889" lon="2.33123">
        <ele>83.8</ele>
        <time>2015-07-06T18:27:12.014Z</time>
      </trkpt>
      <trkpt lat="48.85891" lon="2.33115">
        <ele>83.9</ele>
        <time>2015-07-06T18:27:13.032Z</time>
      </trkpt>
      <trkpt lat="48.85893" lon="2.33108">
        <ele>83.9</ele>
        <time>2015-07-06T18:27:13.982Z</time>
      </trkpt>
      <trkpt lat="48.85896" lon="2.331">
        <ele>83.8</ele>
        <time>2015-07-06T18:27:14.976Z</time>
      </trkpt>
      <trkpt lat="48.85898" lon="2.33093">
        <ele>83.9</ele>
        <time>2015-07-06T18:27:15.992Z</time>
      </trkpt>
      <trkpt lat="48.859" lon="2.33085">
        <ele>83.9</ele>
        <time>2015-07-06T18:27:17.016Z</time>
      </trkpt>
      <trkpt lat="48.85902" lon="2.33078">
        <ele>83.9</ele>
        <time>2015-07-06T18:27:18.042Z</time>
      </trkpt>
      <trkpt lat="48.85904" lon="2.3307">
        <ele>83.9</ele>
        <time>2015-07-06T18:27:18.974Z</time>
      </trkpt>
      <trkpt lat="48.85906" lon="2.33063">
        <ele>83.8</ele>
        <time>2015-07-06T18:27:19.972Z</time>
      </trkpt>
      <trkpt lat="48.85908" lon="2.33055">
        <ele>83.9</ele>
        <time>2015-07-06T18:27:20.974Z</time>
      </trkpt>
      <trkpt lat="48.85909" lon="2.33048">
        <ele>83.9</ele>
        <time>2015-07-06T18:27:21.984Z</time>
      </trkpt>
      <trkpt lat="48.85911" lon="2.33041">
        <ele>83.5</ele>
        <time>2015-07-06T18:27:22.990Z</time>
      </trkpt>
      <trkpt lat="48.85913" lon="2.33034">
        <ele>83.6</ele>
        <time>2015-07-06T18:27:24.017Z</time>
      </trkpt>
      <trkpt lat="48.85915" lon="2.33028">
        <ele>83.6</ele>
        <time>2015-07-06T18:27:25.035Z</time>
      </trkpt>
      <trkpt lat="48.85917" lon="2.33021">
        <ele>83.7</ele>
        <time>2015-07-06T18:27:26.040Z</time>
      </trkpt>
      <trkpt lat="48.85919" lon="2.33014">
        <ele>83.9</ele>
        <time>2015-07-06T18:27:27.051Z</time>
      </trkpt>
      <trkpt lat="48.85921" lon="2.33007">
        <ele>84.1</ele>
        <time>2015-07-06T18:27:28.062Z</time>
      </trkpt>
      <trkpt lat="48.85923" lon="2.33">
        <ele>84.1</ele>
        <time>2015-07-06T18:27:29.061Z</time>
      </trkpt>
      <trkpt lat="48.85925" lon="2.32994">
        <ele>84.1</ele>
        <time>2015-07-06T18:27:30.085Z</time>
      </trkpt>
      <trkpt lat="48.85927" lon="2.32987">
        <ele>84.2</ele>
        <time>2015-07-06T18:27:30.985Z</time>
      </trkpt>
      <trkpt lat="48.8593" lon="2.32975">
        <ele>84.1</ele>
        <time>2015-07-06T18:27:33.002Z</time>
      </trkpt>
      <trkpt lat="48.85931" lon="2.32968">
        <ele>84</ele>
        <time>2015-07-06T18:27:34.015Z</time>
      </trkpt>
      <trkpt lat="48.85933" lon="2.32963">
        <ele>84</ele>
        <time>2015-07-06T18:27:35.054Z</time>
      </trkpt>
      <trkpt lat="48.85937" lon="2.32958">
        <ele>84</ele>
        <time>2015-07-06T18:27:36.063Z</time>
      </trkpt>
      <trkpt lat="48.85942" lon="2.32947">
        <ele>84.1</ele>
        <time>2015-07-06T18:27:39.018Z</time>
      </trkpt>
      <trkpt lat="48.85943" lon="2.32944">
        <ele>84.2</ele>
        <time>2015-07-06T18:27:40.049Z</time>
      </trkpt>
      <trkpt lat="48.85949" lon="2.32934">
        <ele>84.2</ele>
        <time>2015-07-06T18:27:45.064Z</time>
      </trkpt>
      <trkpt lat="48.8595" lon="2.32934">
        <ele>84.3</ele>
        <time>2015-07-06T18:27:46.004Z</time>
      </trkpt>
      <trkpt lat="48.85956" lon="2.3293">
        <ele>84.8</ele>
        <time>2015-07-06T18:27:56.072Z</time>
      </trkpt>
      <trkpt lat="48.85958" lon="2.32927">
        <ele>84.9</ele>
        <time>2015-07-06T18:27:57.041Z</time>
      </trkpt>
      <trkpt lat="48.85963" lon="2.32918">
        <ele>84.9</ele>
        <time>2015-07-06T18:28:01.970Z</time>
      </trkpt>
      <trkpt lat="48.85964" lon="2.32916">
        <ele>85</ele>
        <time>2015-07-06T18:28:02.990Z</time>
      </trkpt>
      <trkpt lat="48.85968" lon="2.32915">
        <ele>84.3</ele>
        <time>2015-07-06T18:28:20.045Z</time>
      </trkpt>
      <trkpt lat="48.85968" lon="2.32915">
        <ele>84.3</ele>
        <time>2015-07-06T18:28:21.045Z</time>
      </trkpt>
      <trkpt lat="48.85968" lon="2.32915">
        <ele>84.4</ele>
        <time>2015-07-06T18:28:22.082Z</time>
      </trkpt>
      <trkpt lat="48.85968" lon="2.32915">
        <ele>84.3</ele>
        <time>2015-07-06T18:28:23.001Z</time>
      </trkpt>
      <trkpt lat="48.85968" lon="2.32915">
        <ele>84.3</ele>
        <time>2015-07-06T18:28:24.016Z</time>
      </trkpt>
      <trkpt lat="48.85969" lon="2.32916">
        <ele>84.5</ele>
        <time>2015-07-06T18:28:34.993Z</time>
      </trkpt>
      <trkpt lat="48.8597" lon="2.32916">
        <ele>84.4</ele>
        <time>2015-07-06T18:28:36.016Z</time>
      </trkpt>
      <trkpt lat="48.85971" lon="2.32905">
        <ele>83.7</ele>
        <time>2015-07-06T18:28:40.989Z</time>
      </trkpt>
      <trkpt lat="48.85972" lon="2.32901">
        <ele>83.6</ele>
        <time>2015-07-06T18:28:42.036Z</time>
      </trkpt>
      <trkpt lat="48.85974" lon="2.32892">
        <ele>83.2</ele>
        <time>2015-07-06T18:28:44.050Z</time>
      </trkpt>
      <trkpt lat="48.85975" lon="2.32888">
        <ele>83.2</ele>
        <time>2015-07-06T18:28:45.053Z</time>
      </trkpt>
      <trkpt lat="48.85978" lon="2.3288">
        <ele>83.3</ele>
        <time>2015-07-06T18:28:46.989Z</time>
      </trkpt>
      <trkpt lat="48.85979" lon="2.32875">
        <ele>83.3</ele>
        <time>2015-07-06T18:28:48.077Z</time>
      </trkpt>
      <trkpt lat="48.85982" lon="2.32865">
        <ele>83.4</ele>
        <time>2015-07-06T18:28:49.993Z</time>
      </trkpt>
      <trkpt lat="48.85983" lon="2.3286">
        <ele>83.4</ele>
        <time>2015-07-06T18:28:51.002Z</time>
      </trkpt>
      <trkpt lat="48.85986" lon="2.3285">
        <ele>83.5</ele>
        <time>2015-07-06T18:28:53.013Z</time>
      </trkpt>
      <trkpt lat="48.85987" lon="2.32846">
        <ele>83.5</ele>
        <time>2015-07-06T18:28:54.014Z</time>
      </trkpt>
      <trkpt lat="48.85991" lon="2.32837">
        <ele>83.4</ele>
        <time>2015-07-06T18:28:56.035Z</time>
      </trkpt>
      <trkpt lat="48.85993" lon="2.32832">
        <ele>83.5</ele>
        <time>2015-07-06T18:28:57.049Z</time>
      </trkpt>
      <trkpt lat="48.85996" lon="2.32823">
        <ele>83.3</ele>
        <time>2015-07-06T18:28:58.977Z</time>
      </trkpt>
      <trkpt lat="48.85997" lon="2.32819">
        <ele>83.5</ele>
        <time>2015-07-06T18:29:00.063Z</time>
      </trkpt>
      <trkpt lat="48.86001" lon="2.3281">
        <ele>83.5</ele>
        <time>2015-07-06T18:29:03.015Z</time>
      </trkpt>
      <trkpt lat="48.86001" lon="2.32806">
        <ele>83.6</ele>
        <time>2015-07-06T18:29:04.031Z</time>
      </trkpt>
      <trkpt lat="48.86003" lon="2.32793">
        <ele>84.1</ele>
        <time>2015-07-06T18:29:09.021Z</time>
      </trkpt>
      <trkpt lat="48.86005" lon="2.32791">
        <ele>84.1</ele>
        <time>2015-07-06T18:29:10.048Z</time>
      </trkpt>
      <trkpt lat="48.8601" lon="2.32782">
        <ele>82.8</ele>
        <time>2015-07-06T18:29:13.016Z</time>
      </trkpt>
      <trkpt lat="48.86012" lon="2.32777">
        <ele>82.6</ele>
        <time>2015-07-06T18:29:14.031Z</time>
      </trkpt>
      <trkpt lat="48.86017" lon="2.32767">
        <ele>82.4</ele>
        <time>2015-07-06T18:29:16.065Z</time>
      </trkpt>
      <trkpt lat="48.8602" lon="2.32761">
        <ele>82</ele>
        <time>2015-07-06T18:29:17.004Z</time>
      </trkpt>
      <trkpt lat="48.86023" lon="2.32755">
        <ele>81.8</ele>
        <time>2015-07-06T18:29:18.368Z</time>
      </trkpt>
      <trkpt lat="48.86027" lon="2.32749">
        <ele>81.6</ele>
        <time>2015-07-06T18:29:19.012Z</time>
      </trkpt>
      <trkpt lat="48.86031" lon="2.32742">
        <ele>81.4</ele>
        <time>2015-07-06T18:29:20.035Z</time>
      </trkpt>
      <trkpt lat="48.86034" lon="2.32734">
        <ele>80.8</ele>
        <time>2015-07-06T18:29:21.029Z</time>
      </trkpt>
      <trkpt lat="48.86038" lon="2.32725">
        <ele>80.6</ele>
        <time>2015-07-06T18:29:22.037Z</time>
      </trkpt>
      <trkpt lat="48.86042" lon="2.32717">
        <ele>80.4</ele>
        <time>2015-07-06T18:29:23.053Z</time>
      </trkpt>
      <trkpt lat="48.86045" lon="2.32709">
        <ele>80.3</ele>
        <time>2015-07-06T18:29:24.073Z</time>
      </trkpt>
      <trkpt lat="48.86049" lon="2.327">
        <ele>80.1</ele>
        <time>2015-07-06T18:29:24.969Z</time>
      </trkpt>
      <trkpt lat="48.86052" lon="2.32691">
        <ele>80</ele>
        <time>2015-07-06T18:29:25.972Z</time>
      </trkpt>
      <trkpt lat="48.86055" lon="2.32683">
        <ele>79.8</ele>
        <time>2015-07-06T18:29:26.972Z</time>
      </trkpt>
      <trkpt lat="48.86058" lon="2.32674">
        <ele>79.6</ele>
        <time>2015-07-06T18:29:27.981Z</time>
      </trkpt>
      <trkpt lat="48.86061" lon="2.32666">
        <ele>79.2</ele>
        <time>2015-07-06T18:29:28.995Z</time>
      </trkpt>
      <trkpt lat="48.86064" lon="2.32657">
        <ele>78.8</ele>
        <time>2015-07-06T18:29:30.034Z</time>
      </trkpt>
      <trkpt lat="48.86066" lon="2.32648">
        <ele>78.5</ele>
        <time>2015-07-06T18:29:31.020Z</time>
      </trkpt>
      <trkpt lat="48.86069" lon="2.32639">
        <ele>78.4</ele>
        <time>2015-07-06T18:29:32.035Z</time>
      </trkpt>
      <trkpt lat="48.86071" lon="2.32631">
        <ele>78.2</ele>
        <time>2015-07-06T18:29:33.044Z</time>
      </trkpt>
      <trkpt lat="48.86072" lon="2.32623">
        <ele>78</ele>
        <time>2015-07-06T18:29:33.968Z</time>
      </trkpt>
      <trkpt lat="48.86074" lon="2.32615">
        <ele>78.1</ele>
        <time>2015-07-06T18:29:34.973Z</time>
      </trkpt>
      <trkpt lat="48.86076" lon="2.32607">
        <ele>78.1</ele>
        <time>2015-07-06T18:29:36.017Z</time>
      </trkpt>
      <trkpt lat="48.86078" lon="2.326">
        <ele>78.1</ele>
        <time>2015-07-06T18:29:37.008Z</time>
      </trkpt>
      <trkpt lat="48.8608" lon="2.32588">
        <ele>78.3</ele>
        <time>2015-07-06T18:29:39.019Z</time>
      </trkpt>
      <trkpt lat="48.86083" lon="2.32582">
        <ele>78.3</ele>
        <time>2015-07-06T18:29:40.032Z</time>
      </trkpt>
      <trkpt lat="48.86088" lon="2.32573">
        <ele>77.9</ele>
        <time>2015-07-06T18:29:42.068Z</time>
      </trkpt>
      <trkpt lat="48.86093" lon="2.32567">
        <ele>77.8</ele>
        <time>2015-07-06T18:29:43.000Z</time>
      </trkpt>
      <trkpt lat="48.86096" lon="2.32561">
        <ele>77.6</ele>
        <time>2015-07-06T18:29:43.988Z</time>
      </trkpt>
      <trkpt lat="48.86098" lon="2.32552">
        <ele>77.5</ele>
        <time>2015-07-06T18:29:44.981Z</time>
      </trkpt>
      <trkpt lat="48.861" lon="2.32542">
        <ele>77.4</ele>
        <time>2015-07-06T18:29:45.993Z</time>
      </trkpt>
      <trkpt lat="48.86102" lon="2.32533">
        <ele>77</ele>
        <time>2015-07-06T18:29:47.009Z</time>
      </trkpt>
      <trkpt lat="48.86103" lon="2.32525">
        <ele>76.4</ele>
        <time>2015-07-06T18:29:48.040Z</time>
      </trkpt>
      <trkpt lat="48.86105" lon="2.32517">
        <ele>76.2</ele>
        <time>2015-07-06T18:29:49.043Z</time>
      </trkpt>
      <trkpt lat="48.86107" lon="2.32509">
        <ele>75.9</ele>
        <time>2015-07-06T18:29:49.961Z</time>
      </trkpt>
      <trkpt lat="48.86109" lon="2.32501">
        <ele>75.6</ele>
        <time>2015-07-06T18:29:50.971Z</time>
      </trkpt>
      <trkpt lat="48.86111" lon="2.32493">
        <ele>75.4</ele>
        <time>2015-07-06T18:29:51.998Z</time>
      </trkpt>
      <trkpt lat="48.86113" lon="2.32485">
        <ele>75.5</ele>
        <time>2015-07-06T18:29:53.040Z</time>
      </trkpt>
      <trkpt lat="48.86115" lon="2.32477">
        <ele>75.7</ele>
        <time>2015-07-06T18:29:54.058Z</time>
      </trkpt>
      <trkpt lat="48.86118" lon="2.32469">
        <ele>75.7</ele>
        <time>2015-07-06T18:29:54.942Z</time>
      </trkpt>
      <trkpt lat="48.86119" lon="2.32461">
        <ele>75.6</ele>
        <time>2015-07-06T18:29:56.047Z</time>
      </trkpt>
      <trkpt lat="48.86121" lon="2.32452">
        <ele>75.6</ele>
        <time>2015-07-06T18:29:57.006Z</time>
      </trkpt>
      <trkpt lat="48.86123" lon="2.32445">
        <ele>75.6</ele>
        <time>2015-07-06T18:29:57.986Z</time>
      </trkpt>
      <trkpt lat="48.86125" lon="2.32437">
        <ele>76.1</ele>
        <time>2015-07-06T18:29:58.993Z</time>
      </trkpt>
      <trkpt lat="48.86127" lon="2.3243">
        <ele>76.1</ele>
        <time>2015-07-06T18:30:00.057Z</time>
      </trkpt>
      <trkpt lat="48.86129" lon="2.32423">
        <ele>76.1</ele>
        <time>2015-07-06T18:30:00.982Z</time>
      </trkpt>
      <trkpt lat="48.86131" lon="2.32415">
        <ele>76</ele>
        <time>2015-07-06T18:30:01.969Z</time>
      </trkpt>
      <trkpt lat="48.86133" lon="2.32407">
        <ele>75.8</ele>
        <time>2015-07-06T18:30:02.980Z</time>
      </trkpt>
      <trkpt lat="48.86136" lon="2.32398">
        <ele>75.8</ele>
        <time>2015-07-06T18:30:03.989Z</time>
      </trkpt>
      <trkpt lat="48.86138" lon="2.3239">
        <ele>75.7</ele>
        <time>2015-07-06T18:30:04.995Z</time>
      </trkpt>
      <trkpt lat="48.8614" lon="2.32382">
        <ele>75.8</ele>
        <time>2015-07-06T18:30:06.037Z</time>
      </trkpt>
      <trkpt lat="48.86142" lon="2.32375">
        <ele>75.8</ele>
        <time>2015-07-06T18:30:07.062Z</time>
      </trkpt>
      <trkpt lat="48.86143" lon="2.32368">
        <ele>75.8</ele>
        <time>2015-07-06T18:30:07.976Z</time>
      </trkpt>
      <trkpt lat="48.86145" lon="2.3236">
        <ele>75.7</ele>
        <time>2015-07-06T18:30:08.980Z</time>
      </trkpt>
      <trkpt lat="48.86146" lon="2.32352">
        <ele>75.8</ele>
        <time>2015-07-06T18:30:10.009Z</time>
      </trkpt>
      <trkpt lat="48.86148" lon="2.32345">
        <ele>75.9</ele>
        <time>2015-07-06T18:30:11.021Z</time>
      </trkpt>
      <trkpt lat="48.86151" lon="2.32338">
        <ele>76</ele>
        <time>2015-07-06T18:30:12.048Z</time>
      </trkpt>
      <trkpt lat="48.86154" lon="2.32332">
        <ele>76.1</ele>
        <time>2015-07-06T18:30:13.061Z</time>
      </trkpt>
      <trkpt lat="48.86156" lon="2.32325">
        <ele>76.1</ele>
        <time>2015-07-06T18:30:13.979Z</time>
      </trkpt>
      <trkpt lat="48.86158" lon="2.32318">
        <ele>76</ele>
        <time>2015-07-06T18:30:14.980Z</time>
      </trkpt>
      <trkpt lat="48.8616" lon="2.32312">
        <ele>76</ele>
        <time>2015-07-06T18:30:15.991Z</time>
      </trkpt>
      <trkpt lat="48.86163" lon="2.32305">
        <ele>75.9</ele>
        <time>2015-07-06T18:30:17.001Z</time>
      </trkpt>
      <trkpt lat="48.86165" lon="2.32297">
        <ele>76</ele>
        <time>2015-07-06T18:30:18.041Z</time>
      </trkpt>
      <trkpt lat="48.86167" lon="2.3229">
        <ele>75.9</ele>
        <time>2015-07-06T18:30:19.038Z</time>
      </trkpt>
      <trkpt lat="48.86169" lon="2.32282">
        <ele>76.2</ele>
        <time>2015-07-06T18:30:20.066Z</time>
      </trkpt>
      <trkpt lat="48.86171" lon="2.32275">
        <ele>76.1</ele>
        <time>2015-07-06T18:30:20.982Z</time>
      </trkpt>
      <trkpt lat="48.86173" lon="2.32268">
        <ele>76.1</ele>
        <time>2015-07-06T18:30:21.980Z</time>
      </trkpt>
      <trkpt lat="48.86175" lon="2.32261">
        <ele>76.3</ele>
        <time>2015-07-06T18:30:22.984Z</time>
      </trkpt>
      <trkpt lat="48.86178" lon="2.32254">
        <ele>76.3</ele>
        <time>2015-07-06T18:30:24.017Z</time>
      </trkpt>
      <trkpt lat="48.86181" lon="2.32246">
        <ele>76.4</ele>
        <time>2015-07-06T18:30:25.032Z</time>
      </trkpt>
      <trkpt lat="48.86184" lon="2.32239">
        <ele>76.5</ele>
        <time>2015-07-06T18:30:26.043Z</time>
      </trkpt>
      <trkpt lat="48.86187" lon="2.32231">
        <ele>76.9</ele>
        <time>2015-07-06T18:30:27.051Z</time>
      </trkpt>
      <trkpt lat="48.8619" lon="2.32223">
        <ele>76.8</ele>
        <time>2015-07-06T18:30:27.984Z</time>
      </trkpt>
      <trkpt lat="48.86192" lon="2.32215">
        <ele>76.7</ele>
        <time>2015-07-06T18:30:28.985Z</time>
      </trkpt>
      <trkpt lat="48.86195" lon="2.32207">
        <ele>76.9</ele>
        <time>2015-07-06T18:30:30.079Z</time>
      </trkpt>
      <trkpt lat="48.86197" lon="2.32199">
        <ele>76.8</ele>
        <time>2015-07-06T18:30:31.211Z</time>
      </trkpt>
      <trkpt lat="48.86199" lon="2.3219">
        <ele>76.9</ele>
        <time>2015-07-06T18:30:31.981Z</time>
      </trkpt>
      <trkpt lat="48.86202" lon="2.32182">
        <ele>77</ele>
        <time>2015-07-06T18:30:32.985Z</time>
      </trkpt>
      <trkpt lat="48.86204" lon="2.32173">
        <ele>77.2</ele>
        <time>2015-07-06T18:30:33.996Z</time>
      </trkpt>
      <trkpt lat="48.86206" lon="2.32165">
        <ele>77.2</ele>
        <time>2015-07-06T18:30:35.006Z</time>
      </trkpt>
      <trkpt lat="48.86209" lon="2.32157">
        <ele>77.2</ele>
        <time>2015-07-06T18:30:36.015Z</time>
      </trkpt>
      <trkpt lat="48.86211" lon="2.32149">
        <ele>77.1</ele>
        <time>2015-07-06T18:30:37.026Z</time>
      </trkpt>
      <trkpt lat="48.86214" lon="2.32141">
        <ele>77.2</ele>
        <time>2015-07-06T18:30:37.956Z</time>
      </trkpt>
      <trkpt lat="48.86217" lon="2.32133">
        <ele>77.3</ele>
        <time>2015-07-06T18:30:39.021Z</time>
      </trkpt>
      <trkpt lat="48.86219" lon="2.32125">
        <ele>77.3</ele>
        <time>2015-07-06T18:30:40.045Z</time>
      </trkpt>
      <trkpt lat="48.86221" lon="2.32117">
        <ele>77.4</ele>
        <time>2015-07-06T18:30:41.048Z</time>
      </trkpt>
      <trkpt lat="48.86224" lon="2.32109">
        <ele>77.4</ele>
        <time>2015-07-06T18:30:42.101Z</time>
      </trkpt>
      <trkpt lat="48.86226" lon="2.321">
        <ele>77.4</ele>
        <time>2015-07-06T18:30:43.034Z</time>
      </trkpt>
      <trkpt lat="48.86228" lon="2.32092">
        <ele>77.6</ele>
        <time>2015-07-06T18:30:44.052Z</time>
      </trkpt>
      <trkpt lat="48.8623" lon="2.32084">
        <ele>77.6</ele>
        <time>2015-07-06T18:30:45.029Z</time>
      </trkpt>
      <trkpt lat="48.86233" lon="2.32076">
        <ele>77.7</ele>
        <time>2015-07-06T18:30:45.975Z</time>
      </trkpt>
      <trkpt lat="48.86235" lon="2.32068">
        <ele>77.7</ele>
        <time>2015-07-06T18:30:46.969Z</time>
      </trkpt>
      <trkpt lat="48.86238" lon="2.3206">
        <ele>77.7</ele>
        <time>2015-07-06T18:30:48.063Z</time>
      </trkpt>
      <trkpt lat="48.8624" lon="2.32052">
        <ele>77.7</ele>
        <time>2015-07-06T18:30:48.952Z</time>
      </trkpt>
      <trkpt lat="48.86243" lon="2.32044">
        <ele>77.6</ele>
        <time>2015-07-06T18:30:49.972Z</time>
      </trkpt>
      <trkpt lat="48.86245" lon="2.32037">
        <ele>77.5</ele>
        <time>2015-07-06T18:30:50.987Z</time>
      </trkpt>
      <trkpt lat="48.86247" lon="2.32029">
        <ele>77.1</ele>
        <time>2015-07-06T18:30:52.010Z</time>
      </trkpt>
      <trkpt lat="48.8625" lon="2.32021">
        <ele>77.1</ele>
        <time>2015-07-06T18:30:53.024Z</time>
      </trkpt>
      <trkpt lat="48.86252" lon="2.32013">
        <ele>77.2</ele>
        <time>2015-07-06T18:30:54.047Z</time>
      </trkpt>
      <trkpt lat="48.86255" lon="2.32005">
        <ele>77.2</ele>
        <time>2015-07-06T18:30:55.055Z</time>
      </trkpt>
      <trkpt lat="48.86257" lon="2.31997">
        <ele>76.8</ele>
        <time>2015-07-06T18:30:56.047Z</time>
      </trkpt>
      <trkpt lat="48.86259" lon="2.31988">
        <ele>76.3</ele>
        <time>2015-07-06T18:30:56.995Z</time>
      </trkpt>
      <trkpt lat="48.86261" lon="2.3198">
        <ele>76</ele>
        <time>2015-07-06T18:30:58.042Z</time>
      </trkpt>
      <trkpt lat="48.86264" lon="2.31972">
        <ele>75.9</ele>
        <time>2015-07-06T18:30:59.047Z</time>
      </trkpt>
      <trkpt lat="48.86266" lon="2.31963">
        <ele>76</ele>
        <time>2015-07-06T18:31:00.072Z</time>
      </trkpt>
      <trkpt lat="48.86269" lon="2.31955">
        <ele>75.9</ele>
        <time>2015-07-06T18:31:00.971Z</time>
      </trkpt>
      <trkpt lat="48.86272" lon="2.31947">
        <ele>75.8</ele>
        <time>2015-07-06T18:31:01.971Z</time>
      </trkpt>
      <trkpt lat="48.86275" lon="2.31939">
        <ele>75.7</ele>
        <time>2015-07-06T18:31:02.979Z</time>
      </trkpt>
      <trkpt lat="48.86297" lon="2.31868">
        <ele>75.7</ele>
        <time>2015-07-06T18:31:12.016Z</time>
      </trkpt>
      <trkpt lat="48.86299" lon="2.31862">
        <ele>75.5</ele>
        <time>2015-07-06T18:31:13.036Z</time>
      </trkpt>
      <trkpt lat="48.86301" lon="2.31856">
        <ele>75.7</ele>
        <time>2015-07-06T18:31:13.950Z</time>
      </trkpt>
      <trkpt lat="48.86303" lon="2.31848">
        <ele>75.2</ele>
        <time>2015-07-06T18:31:14.986Z</time>
      </trkpt>
      <trkpt lat="48.86306" lon="2.31839">
        <ele>76.2</ele>
        <time>2015-07-06T18:31:16.017Z</time>
      </trkpt>
      <trkpt lat="48.86308" lon="2.31831">
        <ele>77</ele>
        <time>2015-07-06T18:31:17.157Z</time>
      </trkpt>
      <trkpt lat="48.8631" lon="2.31825">
        <ele>77.2</ele>
        <time>2015-07-06T18:31:18.032Z</time>
      </trkpt>
      <trkpt lat="48.86312" lon="2.31818">
        <ele>77.3</ele>
        <time>2015-07-06T18:31:19.032Z</time>
      </trkpt>
      <trkpt lat="48.86314" lon="2.3181">
        <ele>76.6</ele>
        <time>2015-07-06T18:31:20.085Z</time>
      </trkpt>
      <trkpt lat="48.86315" lon="2.31802">
        <ele>76.8</ele>
        <time>2015-07-06T18:31:20.946Z</time>
      </trkpt>
      <trkpt lat="48.86316" lon="2.31794">
        <ele>76.4</ele>
        <time>2015-07-06T18:31:21.989Z</time>
      </trkpt>
      <trkpt lat="48.86318" lon="2.31786">
        <ele>76.5</ele>
        <time>2015-07-06T18:31:22.868Z</time>
      </trkpt>
      <trkpt lat="48.86319" lon="2.31779">
        <ele>76.6</ele>
        <time>2015-07-06T18:31:24.040Z</time>
      </trkpt>
      <trkpt lat="48.86319" lon="2.3177">
        <ele>77</ele>
        <time>2015-07-06T18:31:25.053Z</time>
      </trkpt>
      <trkpt lat="48.86319" lon="2.31762">
        <ele>77.8</ele>
        <time>2015-07-06T18:31:26.013Z</time>
      </trkpt>
      <trkpt lat="48.86318" lon="2.31753">
        <ele>77.9</ele>
        <time>2015-07-06T18:31:27.008Z</time>
      </trkpt>
      <trkpt lat="48.86317" lon="2.31745">
        <ele>78</ele>
        <time>2015-07-06T18:31:27.987Z</time>
      </trkpt>
      <trkpt lat="48.86317" lon="2.31737">
        <ele>77.9</ele>
        <time>2015-07-06T18:31:28.996Z</time>
      </trkpt>
      <trkpt lat="48.86317" lon="2.31729">
        <ele>77.7</ele>
        <time>2015-07-06T18:31:30.037Z</time>
      </trkpt>
      <trkpt lat="48.86317" lon="2.3172">
        <ele>77.5</ele>
        <time>2015-07-06T18:31:31.039Z</time>
      </trkpt>
      <trkpt lat="48.86317" lon="2.31712">
        <ele>77.2</ele>
        <time>2015-07-06T18:31:32.047Z</time>
      </trkpt>
      <trkpt lat="48.86317" lon="2.31704">
        <ele>77.1</ele>
        <time>2015-07-06T18:31:32.942Z</time>
      </trkpt>
      <trkpt lat="48.86317" lon="2.31697">
        <ele>76.8</ele>
        <time>2015-07-06T18:31:33.952Z</time>
      </trkpt>
      <trkpt lat="48.86316" lon="2.31689">
        <ele>76.5</ele>
        <time>2015-07-06T18:31:34.957Z</time>
      </trkpt>
      <trkpt lat="48.86316" lon="2.31682">
        <ele>76.2</ele>
        <time>2015-07-06T18:31:36.039Z</time>
      </trkpt>
      <trkpt lat="48.86316" lon="2.31675">
        <ele>76.2</ele>
        <time>2015-07-06T18:31:37.052Z</time>
      </trkpt>
      <trkpt lat="48.86316" lon="2.31668">
        <ele>76.1</ele>
        <time>2015-07-06T18:31:38.074Z</time>
      </trkpt>
      <trkpt lat="48.86315" lon="2.31661">
        <ele>76.2</ele>
        <time>2015-07-06T18:31:38.972Z</time>
      </trkpt>
      <trkpt lat="48.86315" lon="2.31654">
        <ele>76.1</ele>
        <time>2015-07-06T18:31:40.000Z</time>
      </trkpt>
      <trkpt lat="48.86314" lon="2.31647">
        <ele>76.5</ele>
        <time>2015-07-06T18:31:41.024Z</time>
      </trkpt>
      <trkpt lat="48.86313" lon="2.3164">
        <ele>77.2</ele>
        <time>2015-07-06T18:31:42.069Z</time>
      </trkpt>
      <trkpt lat="48.86312" lon="2.31633">
        <ele>78</ele>
        <time>2015-07-06T18:31:42.979Z</time>
      </trkpt>
      <trkpt lat="48.86312" lon="2.31626">
        <ele>78.7</ele>
        <time>2015-07-06T18:31:43.980Z</time>
      </trkpt>
      <trkpt lat="48.86312" lon="2.31612">
        <ele>79.1</ele>
        <time>2015-07-06T18:31:46.003Z</time>
      </trkpt>
      <trkpt lat="48.86312" lon="2.31606">
        <ele>79.1</ele>
        <time>2015-07-06T18:31:47.014Z</time>
      </trkpt>
      <trkpt lat="48.86311" lon="2.31594">
        <ele>79.6</ele>
        <time>2015-07-06T18:31:49.039Z</time>
      </trkpt>
      <trkpt lat="48.8631" lon="2.31587">
        <ele>80</ele>
        <time>2015-07-06T18:31:50.056Z</time>
      </trkpt>
      <trkpt lat="48.86309" lon="2.31575">
        <ele>80.6</ele>
        <time>2015-07-06T18:31:52.013Z</time>
      </trkpt>
      <trkpt lat="48.86309" lon="2.31569">
        <ele>80.6</ele>
        <time>2015-07-06T18:31:53.035Z</time>
      </trkpt>
      <trkpt lat="48.86309" lon="2.31555">
        <ele>80.6</ele>
        <time>2015-07-06T18:31:54.985Z</time>
      </trkpt>
      <trkpt lat="48.86309" lon="2.31548">
        <ele>80.7</ele>
        <time>2015-07-06T18:31:56.085Z</time>
      </trkpt>
      <trkpt lat="48.86309" lon="2.31541">
        <ele>80.5</ele>
        <time>2015-07-06T18:31:57.058Z</time>
      </trkpt>
      <trkpt lat="48.86309" lon="2.31534">
        <ele>80.4</ele>
        <time>2015-07-06T18:31:58.070Z</time>
      </trkpt>
      <trkpt lat="48.86309" lon="2.31522">
        <ele>79.5</ele>
        <time>2015-07-06T18:32:00.313Z</time>
      </trkpt>
      <trkpt lat="48.8631" lon="2.31515">
        <ele>79.1</ele>
        <time>2015-07-06T18:32:00.985Z</time>
      </trkpt>
      <trkpt lat="48.8631" lon="2.31508">
        <ele>78.9</ele>
        <time>2015-07-06T18:32:02.000Z</time>
      </trkpt>
      <trkpt lat="48.8631" lon="2.31501">
        <ele>79.1</ele>
        <time>2015-07-06T18:32:03.065Z</time>
      </trkpt>
      <trkpt lat="48.86309" lon="2.31487">
        <ele>79.1</ele>
        <time>2015-07-06T18:32:05.052Z</time>
      </trkpt>
      <trkpt lat="48.86309" lon="2.31481">
        <ele>79.1</ele>
        <time>2015-07-06T18:32:06.068Z</time>
      </trkpt>
      <trkpt lat="48.86309" lon="2.31468">
        <ele>78.9</ele>
        <time>2015-07-06T18:32:07.983Z</time>
      </trkpt>
      <trkpt lat="48.86309" lon="2.31462">
        <ele>79</ele>
        <time>2015-07-06T18:32:09.009Z</time>
      </trkpt>
      <trkpt lat="48.86309" lon="2.31448">
        <ele>80.1</ele>
        <time>2015-07-06T18:32:11.057Z</time>
      </trkpt>
      <trkpt lat="48.86309" lon="2.31441">
        <ele>80.6</ele>
        <time>2015-07-06T18:32:12.072Z</time>
      </trkpt>
      <trkpt lat="48.86309" lon="2.31429">
        <ele>80.6</ele>
        <time>2015-07-06T18:32:13.991Z</time>
      </trkpt>
      <trkpt lat="48.86309" lon="2.31422">
        <ele>80.8</ele>
        <time>2015-07-06T18:32:15.015Z</time>
      </trkpt>
      <trkpt lat="48.86309" lon="2.31409">
        <ele>80.7</ele>
        <time>2015-07-06T18:32:17.049Z</time>
      </trkpt>
      <trkpt lat="48.86308" lon="2.31403">
        <ele>80.7</ele>
        <time>2015-07-06T18:32:18.088Z</time>
      </trkpt>
      <trkpt lat="48.86307" lon="2.3139">
        <ele>80.9</ele>
        <time>2015-07-06T18:32:19.994Z</time>
      </trkpt>
      <trkpt lat="48.86308" lon="2.31384">
        <ele>80.9</ele>
        <time>2015-07-06T18:32:21.014Z</time>
      </trkpt>
      <trkpt lat="48.86308" lon="2.31378">
        <ele>80.8</ele>
        <time>2015-07-06T18:32:22.032Z</time>
      </trkpt>
      <trkpt lat="48.86311" lon="2.31313">
        <ele>80.2</ele>
        <time>2015-07-06T18:32:32.038Z</time>
      </trkpt>
      <trkpt lat="48.8631" lon="2.31305">
        <ele>80</ele>
        <time>2015-07-06T18:32:33.049Z</time>
      </trkpt>
      <trkpt lat="48.8631" lon="2.31298">
        <ele>79.1</ele>
        <time>2015-07-06T18:32:33.961Z</time>
      </trkpt>
      <trkpt lat="48.8631" lon="2.3129">
        <ele>78.7</ele>
        <time>2015-07-06T18:32:34.981Z</time>
      </trkpt>
      <trkpt lat="48.86309" lon="2.3128">
        <ele>78.8</ele>
        <time>2015-07-06T18:32:36.023Z</time>
      </trkpt>
      <trkpt lat="48.8631" lon="2.31272">
        <ele>78.7</ele>
        <time>2015-07-06T18:32:37.034Z</time>
      </trkpt>
      <trkpt lat="48.8631" lon="2.31264">
        <ele>78.4</ele>
        <time>2015-07-06T18:32:37.972Z</time>
      </trkpt>
      <trkpt lat="48.8631" lon="2.31256">
        <ele>78.6</ele>
        <time>2015-07-06T18:32:38.947Z</time>
      </trkpt>
      <trkpt lat="48.86309" lon="2.31249">
        <ele>78.1</ele>
        <time>2015-07-06T18:32:40.010Z</time>
      </trkpt>
      <trkpt lat="48.86306" lon="2.31239">
        <ele>79.7</ele>
        <time>2015-07-06T18:32:40.999Z</time>
      </trkpt>
      <trkpt lat="48.86306" lon="2.3123">
        <ele>79.2</ele>
        <time>2015-07-06T18:32:42.040Z</time>
      </trkpt>
      <trkpt lat="48.86305" lon="2.31222">
        <ele>78.5</ele>
        <time>2015-07-06T18:32:43.064Z</time>
      </trkpt>
      <trkpt lat="48.86305" lon="2.31213">
        <ele>78.3</ele>
        <time>2015-07-06T18:32:44.076Z</time>
      </trkpt>
      <trkpt lat="48.86304" lon="2.31205">
        <ele>78</ele>
        <time>2015-07-06T18:32:44.990Z</time>
      </trkpt>
      <trkpt lat="48.86304" lon="2.31197">
        <ele>77.8</ele>
        <time>2015-07-06T18:32:45.992Z</time>
      </trkpt>
      <trkpt lat="48.86304" lon="2.31189">
        <ele>77.5</ele>
        <time>2015-07-06T18:32:46.995Z</time>
      </trkpt>
      <trkpt lat="48.86303" lon="2.31181">
        <ele>77.2</ele>
        <time>2015-07-06T18:32:48.056Z</time>
      </trkpt>
      <trkpt lat="48.86303" lon="2.31175">
        <ele>77.1</ele>
        <time>2015-07-06T18:32:49.038Z</time>
      </trkpt>
      <trkpt lat="48.86303" lon="2.31168">
        <ele>76.9</ele>
        <time>2015-07-06T18:32:50.045Z</time>
      </trkpt>
      <trkpt lat="48.86303" lon="2.3116">
        <ele>76.7</ele>
        <time>2015-07-06T18:32:51.053Z</time>
      </trkpt>
      <trkpt lat="48.86303" lon="2.31153">
        <ele>76.8</ele>
        <time>2015-07-06T18:32:52.060Z</time>
      </trkpt>
      <trkpt lat="48.86303" lon="2.31145">
        <ele>76.8</ele>
        <time>2015-07-06T18:32:53.071Z</time>
      </trkpt>
      <trkpt lat="48.86302" lon="2.31137">
        <ele>76.9</ele>
        <time>2015-07-06T18:32:54.081Z</time>
      </trkpt>
      <trkpt lat="48.86302" lon="2.3113">
        <ele>76.7</ele>
        <time>2015-07-06T18:32:54.978Z</time>
      </trkpt>
      <trkpt lat="48.86302" lon="2.31123">
        <ele>76.9</ele>
        <time>2015-07-06T18:32:55.996Z</time>
      </trkpt>
      <trkpt lat="48.86301" lon="2.31116">
        <ele>77.4</ele>
        <time>2015-07-06T18:32:57.005Z</time>
      </trkpt>
      <trkpt lat="48.86301" lon="2.31109">
        <ele>77.2</ele>
        <time>2015-07-06T18:32:58.011Z</time>
      </trkpt>
      <trkpt lat="48.86301" lon="2.31095">
        <ele>76.7</ele>
        <time>2015-07-06T18:33:00.033Z</time>
      </trkpt>
      <trkpt lat="48.863" lon="2.31088">
        <ele>76.8</ele>
        <time>2015-07-06T18:33:01.033Z</time>
      </trkpt>
      <trkpt lat="48.863" lon="2.3108">
        <ele>76.3</ele>
        <time>2015-07-06T18:33:02.049Z</time>
      </trkpt>
      <trkpt lat="48.86299" lon="2.31072">
        <ele>76.3</ele>
        <time>2015-07-06T18:33:03.016Z</time>
      </trkpt>
      <trkpt lat="48.86299" lon="2.31064">
        <ele>76.4</ele>
        <time>2015-07-06T18:33:03.991Z</time>
      </trkpt>
      <trkpt lat="48.86299" lon="2.31056">
        <ele>76.5</ele>
        <time>2015-07-06T18:33:05.008Z</time>
      </trkpt>
      <trkpt lat="48.86298" lon="2.31047">
        <ele>76.5</ele>
        <time>2015-07-06T18:33:06.051Z</time>
      </trkpt>
      <trkpt lat="48.86297" lon="2.31039">
        <ele>76.5</ele>
        <time>2015-07-06T18:33:07.042Z</time>
      </trkpt>
      <trkpt lat="48.86296" lon="2.3103">
        <ele>76.5</ele>
        <time>2015-07-06T18:33:08.043Z</time>
      </trkpt>
      <trkpt lat="48.86296" lon="2.31021">
        <ele>76.8</ele>
        <time>2015-07-06T18:33:09.051Z</time>
      </trkpt>
      <trkpt lat="48.86297" lon="2.31011">
        <ele>77.2</ele>
        <time>2015-07-06T18:33:10.052Z</time>
      </trkpt>
      <trkpt lat="48.86297" lon="2.31001">
        <ele>77.7</ele>
        <time>2015-07-06T18:33:11.066Z</time>
      </trkpt>
      <trkpt lat="48.86297" lon="2.30992">
        <ele>77.9</ele>
        <time>2015-07-06T18:33:12.097Z</time>
      </trkpt>
      <trkpt lat="48.86297" lon="2.30983">
        <ele>78.2</ele>
        <time>2015-07-06T18:33:12.988Z</time>
      </trkpt>
      <trkpt lat="48.86296" lon="2.30974">
        <ele>78.8</ele>
        <time>2015-07-06T18:33:13.983Z</time>
      </trkpt>
      <trkpt lat="48.86296" lon="2.30966">
        <ele>79.1</ele>
        <time>2015-07-06T18:33:14.994Z</time>
      </trkpt>
      <trkpt lat="48.86295" lon="2.30958">
        <ele>79.2</ele>
        <time>2015-07-06T18:33:16.021Z</time>
      </trkpt>
      <trkpt lat="48.86295" lon="2.30949">
        <ele>79.1</ele>
        <time>2015-07-06T18:33:17.034Z</time>
      </trkpt>
      <trkpt lat="48.86295" lon="2.30941">
        <ele>79.2</ele>
        <time>2015-07-06T18:33:18.033Z</time>
      </trkpt>
      <trkpt lat="48.86294" lon="2.30933">
        <ele>79.8</ele>
        <time>2015-07-06T18:33:19.039Z</time>
      </trkpt>
      <trkpt lat="48.86294" lon="2.30924">
        <ele>79.9</ele>
        <time>2015-07-06T18:33:20.043Z</time>
      </trkpt>
      <trkpt lat="48.86293" lon="2.30916">
        <ele>79.8</ele>
        <time>2015-07-06T18:33:21.054Z</time>
      </trkpt>
      <trkpt lat="48.86293" lon="2.30908">
        <ele>79.9</ele>
        <time>2015-07-06T18:33:21.983Z</time>
      </trkpt>
      <trkpt lat="48.86293" lon="2.309">
        <ele>79.6</ele>
        <time>2015-07-06T18:33:22.978Z</time>
      </trkpt>
      <trkpt lat="48.86293" lon="2.30893">
        <ele>79.2</ele>
        <time>2015-07-06T18:33:24.014Z</time>
      </trkpt>
      <trkpt lat="48.86293" lon="2.30886">
        <ele>78.7</ele>
        <time>2015-07-06T18:33:25.018Z</time>
      </trkpt>
      <trkpt lat="48.86292" lon="2.30878">
        <ele>78.8</ele>
        <time>2015-07-06T18:33:26.039Z</time>
      </trkpt>
      <trkpt lat="48.86292" lon="2.30871">
        <ele>78.8</ele>
        <time>2015-07-06T18:33:27.047Z</time>
      </trkpt>
      <trkpt lat="48.86292" lon="2.30863">
        <ele>78.9</ele>
        <time>2015-07-06T18:33:28.067Z</time>
      </trkpt>
      <trkpt lat="48.86292" lon="2.30855">
        <ele>78.7</ele>
        <time>2015-07-06T18:33:28.989Z</time>
      </trkpt>
      <trkpt lat="48.86292" lon="2.30849">
        <ele>78.5</ele>
        <time>2015-07-06T18:33:30.011Z</time>
      </trkpt>
      <trkpt lat="48.86292" lon="2.30842">
        <ele>78.6</ele>
        <time>2015-07-06T18:33:31.021Z</time>
      </trkpt>
      <trkpt lat="48.86292" lon="2.30834">
        <ele>78.7</ele>
        <time>2015-07-06T18:33:32.046Z</time>
      </trkpt>
      <trkpt lat="48.86291" lon="2.30827">
        <ele>78.5</ele>
        <time>2015-07-06T18:33:33.051Z</time>
      </trkpt>
      <trkpt lat="48.86291" lon="2.30819">
        <ele>78.4</ele>
        <time>2015-07-06T18:33:33.969Z</time>
      </trkpt>
      <trkpt lat="48.86291" lon="2.30811">
        <ele>78.5</ele>
        <time>2015-07-06T18:33:35.068Z</time>
      </trkpt>
      <trkpt lat="48.86291" lon="2.30803">
        <ele>78.4</ele>
        <time>2015-07-06T18:33:36.077Z</time>
      </trkpt>
      <trkpt lat="48.86291" lon="2.30795">
        <ele>78.4</ele>
        <time>2015-07-06T18:33:36.976Z</time>
      </trkpt>
      <trkpt lat="48.8629" lon="2.30787">
        <ele>78.2</ele>
        <time>2015-07-06T18:33:37.986Z</time>
      </trkpt>
      <trkpt lat="48.8629" lon="2.30779">
        <ele>78.2</ele>
        <time>2015-07-06T18:33:38.993Z</time>
      </trkpt>
      <trkpt lat="48.86289" lon="2.3077">
        <ele>78.5</ele>
        <time>2015-07-06T18:33:40.001Z</time>
      </trkpt>
      <trkpt lat="48.86288" lon="2.30761">
        <ele>78.8</ele>
        <time>2015-07-06T18:33:41.014Z</time>
      </trkpt>
      <trkpt lat="48.86287" lon="2.30753">
        <ele>78.8</ele>
        <time>2015-07-06T18:33:42.059Z</time>
      </trkpt>
      <trkpt lat="48.86286" lon="2.30743">
        <ele>78.9</ele>
        <time>2015-07-06T18:33:43.004Z</time>
      </trkpt>
      <trkpt lat="48.86286" lon="2.30735">
        <ele>78.9</ele>
        <time>2015-07-06T18:33:44.024Z</time>
      </trkpt>
      <trkpt lat="48.86286" lon="2.30726">
        <ele>78.8</ele>
        <time>2015-07-06T18:33:45.027Z</time>
      </trkpt>
      <trkpt lat="48.86285" lon="2.30717">
        <ele>78.6</ele>
        <time>2015-07-06T18:33:46.038Z</time>
      </trkpt>
      <trkpt lat="48.86285" lon="2.30709">
        <ele>78.3</ele>
        <time>2015-07-06T18:33:46.971Z</time>
      </trkpt>
      <trkpt lat="48.86285" lon="2.307">
        <ele>78</ele>
        <time>2015-07-06T18:33:47.986Z</time>
      </trkpt>
      <trkpt lat="48.86284" lon="2.30692">
        <ele>77.8</ele>
        <time>2015-07-06T18:33:48.994Z</time>
      </trkpt>
      <trkpt lat="48.86284" lon="2.30684">
        <ele>77.6</ele>
        <time>2015-07-06T18:33:50.008Z</time>
      </trkpt>
      <trkpt lat="48.86284" lon="2.30675">
        <ele>77.4</ele>
        <time>2015-07-06T18:33:51.073Z</time>
      </trkpt>
      <trkpt lat="48.86284" lon="2.30667">
        <ele>77.5</ele>
        <time>2015-07-06T18:33:52.214Z</time>
      </trkpt>
      <trkpt lat="48.86284" lon="2.30659">
        <ele>77.4</ele>
        <time>2015-07-06T18:33:52.949Z</time>
      </trkpt>
      <trkpt lat="48.86283" lon="2.3065">
        <ele>77.4</ele>
        <time>2015-07-06T18:33:53.986Z</time>
      </trkpt>
      <trkpt lat="48.86283" lon="2.30642">
        <ele>77.3</ele>
        <time>2015-07-06T18:33:54.995Z</time>
      </trkpt>
      <trkpt lat="48.86282" lon="2.30634">
        <ele>77</ele>
        <time>2015-07-06T18:33:56.011Z</time>
      </trkpt>
      <trkpt lat="48.86282" lon="2.30625">
        <ele>76.9</ele>
        <time>2015-07-06T18:33:57.024Z</time>
      </trkpt>
      <trkpt lat="48.86282" lon="2.30616">
        <ele>76.8</ele>
        <time>2015-07-06T18:33:58.035Z</time>
      </trkpt>
      <trkpt lat="48.86282" lon="2.30607">
        <ele>76.8</ele>
        <time>2015-07-06T18:33:59.044Z</time>
      </trkpt>
      <trkpt lat="48.86282" lon="2.30598">
        <ele>77</ele>
        <time>2015-07-06T18:34:00.080Z</time>
      </trkpt>
      <trkpt lat="48.86282" lon="2.30589">
        <ele>77.1</ele>
        <time>2015-07-06T18:34:00.951Z</time>
      </trkpt>
      <trkpt lat="48.86283" lon="2.30581">
        <ele>77.2</ele>
        <time>2015-07-06T18:34:01.954Z</time>
      </trkpt>
      <trkpt lat="48.86284" lon="2.30572">
        <ele>77.1</ele>
        <time>2015-07-06T18:34:02.954Z</time>
      </trkpt>
      <trkpt lat="48.86284" lon="2.30564">
        <ele>77.2</ele>
        <time>2015-07-06T18:34:03.964Z</time>
      </trkpt>
      <trkpt lat="48.86284" lon="2.30556">
        <ele>77.3</ele>
        <time>2015-07-06T18:34:04.980Z</time>
      </trkpt>
      <trkpt lat="48.86285" lon="2.30547">
        <ele>77.3</ele>
        <time>2015-07-06T18:34:06.011Z</time>
      </trkpt>
      <trkpt lat="48.86285" lon="2.30539">
        <ele>77.2</ele>
        <time>2015-07-06T18:34:07.004Z</time>
      </trkpt>
      <trkpt lat="48.86285" lon="2.30531">
        <ele>77.2</ele>
        <time>2015-07-06T18:34:08.010Z</time>
      </trkpt>
      <trkpt lat="48.86285" lon="2.30523">
        <ele>77.2</ele>
        <time>2015-07-06T18:34:09.016Z</time>
      </trkpt>
      <trkpt lat="48.86284" lon="2.30514">
        <ele>77.4</ele>
        <time>2015-07-06T18:34:10.021Z</time>
      </trkpt>
      <trkpt lat="48.86284" lon="2.30507">
        <ele>77.6</ele>
        <time>2015-07-06T18:34:11.025Z</time>
      </trkpt>
      <trkpt lat="48.86284" lon="2.30499">
        <ele>77.5</ele>
        <time>2015-07-06T18:34:12.044Z</time>
      </trkpt>
      <trkpt lat="48.86284" lon="2.30491">
        <ele>77.5</ele>
        <time>2015-07-06T18:34:13.045Z</time>
      </trkpt>
      <trkpt lat="48.86285" lon="2.30483">
        <ele>77.2</ele>
        <time>2015-07-06T18:34:14.050Z</time>
      </trkpt>
      <trkpt lat="48.86285" lon="2.30475">
        <ele>77.1</ele>
        <time>2015-07-06T18:34:15.056Z</time>
      </trkpt>
      <trkpt lat="48.86285" lon="2.30466">
        <ele>77.2</ele>
        <time>2015-07-06T18:34:15.946Z</time>
      </trkpt>
      <trkpt lat="48.86285" lon="2.30458">
        <ele>77.1</ele>
        <time>2015-07-06T18:34:16.980Z</time>
      </trkpt>
      <trkpt lat="48.86285" lon="2.3045">
        <ele>77</ele>
        <time>2015-07-06T18:34:18.038Z</time>
      </trkpt>
      <trkpt lat="48.86285" lon="2.30442">
        <ele>77.1</ele>
        <time>2015-07-06T18:34:19.034Z</time>
      </trkpt>
      <trkpt lat="48.86284" lon="2.30434">
        <ele>77.1</ele>
        <time>2015-07-06T18:34:20.042Z</time>
      </trkpt>
      <trkpt lat="48.86284" lon="2.30426">
        <ele>77.1</ele>
        <time>2015-07-06T18:34:20.972Z</time>
      </trkpt>
      <trkpt lat="48.86284" lon="2.30418">
        <ele>77.1</ele>
        <time>2015-07-06T18:34:21.982Z</time>
      </trkpt>
      <trkpt lat="48.86284" lon="2.3041">
        <ele>77.1</ele>
        <time>2015-07-06T18:34:22.984Z</time>
      </trkpt>
      <trkpt lat="48.86284" lon="2.30402">
        <ele>77</ele>
        <time>2015-07-06T18:34:24.030Z</time>
      </trkpt>
      <trkpt lat="48.86283" lon="2.30394">
        <ele>76.9</ele>
        <time>2015-07-06T18:34:25.019Z</time>
      </trkpt>
      <trkpt lat="48.86283" lon="2.30387">
        <ele>77</ele>
        <time>2015-07-06T18:34:26.028Z</time>
      </trkpt>
      <trkpt lat="48.86282" lon="2.3038">
        <ele>77.1</ele>
        <time>2015-07-06T18:34:27.033Z</time>
      </trkpt>
      <trkpt lat="48.86282" lon="2.30366">
        <ele>76.9</ele>
        <time>2015-07-06T18:34:29.061Z</time>
      </trkpt>
      <trkpt lat="48.86282" lon="2.3036">
        <ele>76.9</ele>
        <time>2015-07-06T18:34:30.080Z</time>
      </trkpt>
      <trkpt lat="48.86283" lon="2.30347">
        <ele>76.8</ele>
        <time>2015-07-06T18:34:31.989Z</time>
      </trkpt>
      <trkpt lat="48.86283" lon="2.3034">
        <ele>77</ele>
        <time>2015-07-06T18:34:33.001Z</time>
      </trkpt>
      <trkpt lat="48.86284" lon="2.30327">
        <ele>77.1</ele>
        <time>2015-07-06T18:34:34.977Z</time>
      </trkpt>
      <trkpt lat="48.86284" lon="2.30321">
        <ele>77.1</ele>
        <time>2015-07-06T18:34:36.049Z</time>
      </trkpt>
      <trkpt lat="48.86284" lon="2.30308">
        <ele>77.1</ele>
        <time>2015-07-06T18:34:38.018Z</time>
      </trkpt>
      <trkpt lat="48.86283" lon="2.30301">
        <ele>77.2</ele>
        <time>2015-07-06T18:34:39.058Z</time>
      </trkpt>
      <trkpt lat="48.86283" lon="2.30294">
        <ele>77.2</ele>
        <time>2015-07-06T18:34:40.043Z</time>
      </trkpt>
      <trkpt lat="48.86283" lon="2.30287">
        <ele>77</ele>
        <time>2015-07-06T18:34:41.051Z</time>
      </trkpt>
      <trkpt lat="48.86282" lon="2.3028">
        <ele>76.9</ele>
        <time>2015-07-06T18:34:42.059Z</time>
      </trkpt>
      <trkpt lat="48.86282" lon="2.30272">
        <ele>76.7</ele>
        <time>2015-07-06T18:34:43.020Z</time>
      </trkpt>
      <trkpt lat="48.86282" lon="2.30265">
        <ele>76.5</ele>
        <time>2015-07-06T18:34:43.975Z</time>
      </trkpt>
      <trkpt lat="48.86282" lon="2.30258">
        <ele>76.3</ele>
        <time>2015-07-06T18:34:44.993Z</time>
      </trkpt>
      <trkpt lat="48.86282" lon="2.3025">
        <ele>76.1</ele>
        <time>2015-07-06T18:34:46.026Z</time>
      </trkpt>
      <trkpt lat="48.86282" lon="2.30242">
        <ele>76</ele>
        <time>2015-07-06T18:34:46.978Z</time>
      </trkpt>
      <trkpt lat="48.86282" lon="2.30234">
        <ele>76</ele>
        <time>2015-07-06T18:34:48.093Z</time>
      </trkpt>
      <trkpt lat="48.86282" lon="2.30226">
        <ele>76</ele>
        <time>2015-07-06T18:34:48.994Z</time>
      </trkpt>
      <trkpt lat="48.86281" lon="2.30219">
        <ele>76</ele>
        <time>2015-07-06T18:34:50.004Z</time>
      </trkpt>
      <trkpt lat="48.86281" lon="2.30212">
        <ele>76.1</ele>
        <time>2015-07-06T18:34:51.098Z</time>
      </trkpt>
      <trkpt lat="48.86284" lon="2.30201">
        <ele>76</ele>
        <time>2015-07-06T18:34:52.976Z</time>
      </trkpt>
      <trkpt lat="48.86287" lon="2.30176">
        <ele>76</ele>
        <time>2015-07-06T18:34:56.964Z</time>
      </trkpt>
      <trkpt lat="48.86287" lon="2.30169">
        <ele>76</ele>
        <time>2015-07-06T18:34:57.980Z</time>
      </trkpt>
      <trkpt lat="48.86286" lon="2.30159">
        <ele>76.3</ele>
        <time>2015-07-06T18:34:58.986Z</time>
      </trkpt>
      <trkpt lat="48.86287" lon="2.30146">
        <ele>76.5</ele>
        <time>2015-07-06T18:35:00.140Z</time>
      </trkpt>
      <trkpt lat="48.86287" lon="2.30136">
        <ele>76.5</ele>
        <time>2015-07-06T18:35:00.950Z</time>
      </trkpt>
      <trkpt lat="48.86286" lon="2.30128">
        <ele>76.7</ele>
        <time>2015-07-06T18:35:01.975Z</time>
      </trkpt>
      <trkpt lat="48.86285" lon="2.3012">
        <ele>76.8</ele>
        <time>2015-07-06T18:35:03.035Z</time>
      </trkpt>
      <trkpt lat="48.86285" lon="2.30107">
        <ele>77</ele>
        <time>2015-07-06T18:35:05.024Z</time>
      </trkpt>
      <trkpt lat="48.86284" lon="2.30101">
        <ele>77.1</ele>
        <time>2015-07-06T18:35:06.027Z</time>
      </trkpt>
      <trkpt lat="48.86284" lon="2.30088">
        <ele>77.9</ele>
        <time>2015-07-06T18:35:08.047Z</time>
      </trkpt>
      <trkpt lat="48.86285" lon="2.30082">
        <ele>78.2</ele>
        <time>2015-07-06T18:35:09.057Z</time>
      </trkpt>
      <trkpt lat="48.86286" lon="2.3007">
        <ele>78.2</ele>
        <time>2015-07-06T18:35:11.031Z</time>
      </trkpt>
      <trkpt lat="48.86285" lon="2.30065">
        <ele>78.3</ele>
        <time>2015-07-06T18:35:12.038Z</time>
      </trkpt>
      <trkpt lat="48.86285" lon="2.30053">
        <ele>78.5</ele>
        <time>2015-07-06T18:35:15.011Z</time>
      </trkpt>
      <trkpt lat="48.86284" lon="2.30049">
        <ele>78.5</ele>
        <time>2015-07-06T18:35:16.028Z</time>
      </trkpt>
      <trkpt lat="48.86282" lon="2.3004">
        <ele>78.1</ele>
        <time>2015-07-06T18:35:18.064Z</time>
      </trkpt>
      <trkpt lat="48.86282" lon="2.30035">
        <ele>78.1</ele>
        <time>2015-07-06T18:35:19.072Z</time>
      </trkpt>
      <trkpt lat="48.8628" lon="2.30023">
        <ele>78.1</ele>
        <time>2015-07-06T18:35:21.015Z</time>
      </trkpt>
      <trkpt lat="48.86279" lon="2.30017">
        <ele>78.1</ele>
        <time>2015-07-06T18:35:22.032Z</time>
      </trkpt>
      <trkpt lat="48.86278" lon="2.3001">
        <ele>78.1</ele>
        <time>2015-07-06T18:35:23.041Z</time>
      </trkpt>
      <trkpt lat="48.86277" lon="2.30004">
        <ele>78.2</ele>
        <time>2015-07-06T18:35:24.049Z</time>
      </trkpt>
      <trkpt lat="48.86276" lon="2.29993">
        <ele>78.4</ele>
        <time>2015-07-06T18:35:26.071Z</time>
      </trkpt>
      <trkpt lat="48.86275" lon="2.29987">
        <ele>78.4</ele>
        <time>2015-07-06T18:35:27.007Z</time>
      </trkpt>
      <trkpt lat="48.86272" lon="2.29976">
        <ele>78.4</ele>
        <time>2015-07-06T18:35:29.003Z</time>
      </trkpt>
      <trkpt lat="48.8627" lon="2.29971">
        <ele>78.3</ele>
        <time>2015-07-06T18:35:30.184Z</time>
      </trkpt>
      <trkpt lat="48.86266" lon="2.2996">
        <ele>78</ele>
        <time>2015-07-06T18:35:33.020Z</time>
      </trkpt>
      <trkpt lat="48.86264" lon="2.29957">
        <ele>77.9</ele>
        <time>2015-07-06T18:35:34.047Z</time>
      </trkpt>
      <trkpt lat="48.8626" lon="2.29945">
        <ele>78.3</ele>
        <time>2015-07-06T18:35:37.010Z</time>
      </trkpt>
      <trkpt lat="48.86258" lon="2.29942">
        <ele>78.7</ele>
        <time>2015-07-06T18:35:38.025Z</time>
      </trkpt>
      <trkpt lat="48.86255" lon="2.29931">
        <ele>79.5</ele>
        <time>2015-07-06T18:35:41.107Z</time>
      </trkpt>
      <trkpt lat="48.86254" lon="2.29927">
        <ele>79.6</ele>
        <time>2015-07-06T18:35:42.023Z</time>
      </trkpt>
      <trkpt lat="48.86251" lon="2.29916">
        <ele>79.5</ele>
        <time>2015-07-06T18:35:45.969Z</time>
      </trkpt>
      <trkpt lat="48.8625" lon="2.29914">
        <ele>79.4</ele>
        <time>2015-07-06T18:35:46.980Z</time>
      </trkpt>
      <trkpt lat="48.86246" lon="2.29903">
        <ele>79.1</ele>
        <time>2015-07-06T18:35:51.976Z</time>
      </trkpt>
      <trkpt lat="48.86246" lon="2.29901">
        <ele>79</ele>
        <time>2015-07-06T18:35:52.975Z</time>
      </trkpt>
      <trkpt lat="48.86243" lon="2.29889">
        <ele>78.6</ele>
        <time>2015-07-06T18:35:57.051Z</time>
      </trkpt>
      <trkpt lat="48.86243" lon="2.29886">
        <ele>78.6</ele>
        <time>2015-07-06T18:35:57.974Z</time>
      </trkpt>
      <trkpt lat="48.8624" lon="2.29874">
        <ele>78.7</ele>
        <time>2015-07-06T18:36:01.540Z</time>
      </trkpt>
      <trkpt lat="48.86239" lon="2.29869">
        <ele>78.7</ele>
        <time>2015-07-06T18:36:01.962Z</time>
      </trkpt>
      <trkpt lat="48.86237" lon="2.29857">
        <ele>78.6</ele>
        <time>2015-07-06T18:36:03.969Z</time>
      </trkpt>
      <trkpt lat="48.86236" lon="2.29851">
        <ele>78.6</ele>
        <time>2015-07-06T18:36:05.030Z</time>
      </trkpt>
      <trkpt lat="48.86234" lon="2.2984">
        <ele>78.9</ele>
        <time>2015-07-06T18:36:06.964Z</time>
      </trkpt>
      <trkpt lat="48.86233" lon="2.29834">
        <ele>78.9</ele>
        <time>2015-07-06T18:36:08.020Z</time>
      </trkpt>
      <trkpt lat="48.86232" lon="2.29823">
        <ele>79</ele>
        <time>2015-07-06T18:36:09.973Z</time>
      </trkpt>
      <trkpt lat="48.86231" lon="2.29819">
        <ele>79</ele>
        <time>2015-07-06T18:36:11.023Z</time>
      </trkpt>
      <trkpt lat="48.86229" lon="2.29811">
        <ele>79</ele>
        <time>2015-07-06T18:36:13.113Z</time>
      </trkpt>
      <trkpt lat="48.86228" lon="2.29806">
        <ele>79.1</ele>
        <time>2015-07-06T18:36:14.020Z</time>
      </trkpt>
      <trkpt lat="48.86226" lon="2.29797">
        <ele>79.1</ele>
        <time>2015-07-06T18:36:16.744Z</time>
      </trkpt>
      <trkpt lat="48.86226" lon="2.29792">
        <ele>79.3</ele>
        <time>2015-07-06T18:36:16.967Z</time>
      </trkpt>
      <trkpt lat="48.86224" lon="2.29782">
        <ele>79.3</ele>
        <time>2015-07-06T18:36:19.017Z</time>
      </trkpt>
      <trkpt lat="48.86223" lon="2.29778">
        <ele>79.2</ele>
        <time>2015-07-06T18:36:20.019Z</time>
      </trkpt>
      <trkpt lat="48.86219" lon="2.29768">
        <ele>79.3</ele>
        <time>2015-07-06T18:36:24.012Z</time>
      </trkpt>
      <trkpt lat="48.86217" lon="2.29767">
        <ele>79.4</ele>
        <time>2015-07-06T18:36:25.018Z</time>
      </trkpt>
      <trkpt lat="48.86212" lon="2.29761">
        <ele>79.8</ele>
        <time>2015-07-06T18:36:28.979Z</time>
      </trkpt>
      <trkpt lat="48.8621" lon="2.29758">
        <ele>79.8</ele>
        <time>2015-07-06T18:36:30.042Z</time>
      </trkpt>
      <trkpt lat="48.86207" lon="2.29748">
        <ele>80</ele>
        <time>2015-07-06T18:36:32.231Z</time>
      </trkpt>
      <trkpt lat="48.86205" lon="2.29743">
        <ele>80</ele>
        <time>2015-07-06T18:36:32.979Z</time>
      </trkpt>
      <trkpt lat="48.86202" lon="2.29734">
        <ele>80</ele>
        <time>2015-07-06T18:36:35.013Z</time>
      </trkpt>
      <trkpt lat="48.862" lon="2.29728">
        <ele>79.8</ele>
        <time>2015-07-06T18:36:36.055Z</time>
      </trkpt>
      <trkpt lat="48.86198" lon="2.29718">
        <ele>79.8</ele>
        <time>2015-07-06T18:36:37.931Z</time>
      </trkpt>
      <trkpt lat="48.86196" lon="2.29713">
        <ele>79.8</ele>
        <time>2015-07-06T18:36:38.967Z</time>
      </trkpt>
      <trkpt lat="48.86193" lon="2.29702">
        <ele>79.8</ele>
        <time>2015-07-06T18:36:41.035Z</time>
      </trkpt>
      <trkpt lat="48.86191" lon="2.29698">
        <ele>79.5</ele>
        <time>2015-07-06T18:36:42.063Z</time>
      </trkpt>
      <trkpt lat="48.86187" lon="2.29687">
        <ele>79.4</ele>
        <time>2015-07-06T18:36:43.992Z</time>
      </trkpt>
      <trkpt lat="48.86185" lon="2.29681">
        <ele>79.5</ele>
        <time>2015-07-06T18:36:44.997Z</time>
      </trkpt>
      <trkpt lat="48.8618" lon="2.2967">
        <ele>79.3</ele>
        <time>2015-07-06T18:36:47.487Z</time>
      </trkpt>
      <trkpt lat="48.86179" lon="2.29664">
        <ele>79.3</ele>
        <time>2015-07-06T18:36:48.028Z</time>
      </trkpt>
      <trkpt lat="48.86174" lon="2.29652">
        <ele>79.1</ele>
        <time>2015-07-06T18:36:50.039Z</time>
      </trkpt>
      <trkpt lat="48.86171" lon="2.29647">
        <ele>78.6</ele>
        <time>2015-07-06T18:36:51.044Z</time>
      </trkpt>
      <trkpt lat="48.86167" lon="2.29637">
        <ele>78.4</ele>
        <time>2015-07-06T18:36:52.978Z</time>
      </trkpt>
      <trkpt lat="48.86165" lon="2.29632">
        <ele>78.4</ele>
        <time>2015-07-06T18:36:53.994Z</time>
      </trkpt>
      <trkpt lat="48.86161" lon="2.29623">
        <ele>78.3</ele>
        <time>2015-07-06T18:36:56.007Z</time>
      </trkpt>
      <trkpt lat="48.86159" lon="2.29619">
        <ele>78.3</ele>
        <time>2015-07-06T18:36:57.014Z</time>
      </trkpt>
      <trkpt lat="48.86159" lon="2.29607">
        <ele>77.6</ele>
        <time>2015-07-06T18:36:59.992Z</time>
      </trkpt>
      <trkpt lat="48.86161" lon="2.29603">
        <ele>77.1</ele>
        <time>2015-07-06T18:37:00.998Z</time>
      </trkpt>
      <trkpt lat="48.86163" lon="2.29594">
        <ele>77.2</ele>
        <time>2015-07-06T18:37:03.012Z</time>
      </trkpt>
      <trkpt lat="48.8616" lon="2.29589">
        <ele>76.7</ele>
        <time>2015-07-06T18:37:04.179Z</time>
      </trkpt>
      <trkpt lat="48.86155" lon="2.2958">
        <ele>75.8</ele>
        <time>2015-07-06T18:37:06.030Z</time>
      </trkpt>
      <trkpt lat="48.86151" lon="2.29575">
        <ele>75.4</ele>
        <time>2015-07-06T18:37:06.966Z</time>
      </trkpt>
      <trkpt lat="48.86149" lon="2.29569">
        <ele>75.1</ele>
        <time>2015-07-06T18:37:07.929Z</time>
      </trkpt>
      <trkpt lat="48.86145" lon="2.29562">
        <ele>74.6</ele>
        <time>2015-07-06T18:37:09.023Z</time>
      </trkpt>
      <trkpt lat="48.86142" lon="2.29557">
        <ele>74.4</ele>
        <time>2015-07-06T18:37:09.941Z</time>
      </trkpt>
      <trkpt lat="48.86139" lon="2.29552">
        <ele>74.3</ele>
        <time>2015-07-06T18:37:10.997Z</time>
      </trkpt>
      <trkpt lat="48.86132" lon="2.29543">
        <ele>73.7</ele>
        <time>2015-07-06T18:37:12.940Z</time>
      </trkpt>
      <trkpt lat="48.8613" lon="2.29538">
        <ele>73.7</ele>
        <time>2015-07-06T18:37:14.053Z</time>
      </trkpt>
      <trkpt lat="48.86126" lon="2.29529">
        <ele>73.7</ele>
        <time>2015-07-06T18:37:15.982Z</time>
      </trkpt>
      <trkpt lat="48.86123" lon="2.29525">
        <ele>73.8</ele>
        <time>2015-07-06T18:37:16.958Z</time>
      </trkpt>
      <trkpt lat="48.86118" lon="2.29515">
        <ele>73.9</ele>
        <time>2015-07-06T18:37:19.072Z</time>
      </trkpt>
      <trkpt lat="48.86115" lon="2.2951">
        <ele>73.9</ele>
        <time>2015-07-06T18:37:19.944Z</time>
      </trkpt>
      <trkpt lat="48.86109" lon="2.29501">
        <ele>73.8</ele>
        <time>2015-07-06T18:37:21.998Z</time>
      </trkpt>
      <trkpt lat="48.86106" lon="2.29496">
        <ele>73.7</ele>
        <time>2015-07-06T18:37:23.010Z</time>
      </trkpt>
      <trkpt lat="48.86103" lon="2.29492">
        <ele>73.6</ele>
        <time>2015-07-06T18:37:22.388Z</time>
      </trkpt>
      <trkpt lat="48.86099" lon="2.29487">
        <ele>73.5</ele>
        <time>2015-07-06T18:37:25.037Z</time>
      </trkpt>
      <trkpt lat="48.86095" lon="2.29483">
        <ele>74.1</ele>
        <time>2015-07-06T18:37:26.047Z</time>
      </trkpt>
      <trkpt lat="48.86091" lon="2.29479">
        <ele>74.1</ele>
        <time>2015-07-06T18:37:27.049Z</time>
      </trkpt>
      <trkpt lat="48.86087" lon="2.29474">
        <ele>74</ele>
        <time>2015-07-06T18:37:27.988Z</time>
      </trkpt>
      <trkpt lat="48.86083" lon="2.2947">
        <ele>73.8</ele>
        <time>2015-07-06T18:37:28.995Z</time>
      </trkpt>
      <trkpt lat="48.8608" lon="2.29466">
        <ele>73.8</ele>
        <time>2015-07-06T18:37:30.025Z</time>
      </trkpt>
      <trkpt lat="48.86076" lon="2.29461">
        <ele>73.6</ele>
        <time>2015-07-06T18:37:31.244Z</time>
      </trkpt>
      <trkpt lat="48.86072" lon="2.29456">
        <ele>73.5</ele>
        <time>2015-07-06T18:37:32.535Z</time>
      </trkpt>
      <trkpt lat="48.86068" lon="2.29452">
        <ele>73.5</ele>
        <time>2015-07-06T18:37:33.039Z</time>
      </trkpt>
      <trkpt lat="48.86064" lon="2.29447">
        <ele>73.3</ele>
        <time>2015-07-06T18:37:34.046Z</time>
      </trkpt>
      <trkpt lat="48.8606" lon="2.29443">
        <ele>73.2</ele>
        <time>2015-07-06T18:37:34.976Z</time>
      </trkpt>
      <trkpt lat="48.86057" lon="2.29438">
        <ele>73.1</ele>
        <time>2015-07-06T18:37:36.072Z</time>
      </trkpt>
      <trkpt lat="48.86054" lon="2.29433">
        <ele>73.2</ele>
        <time>2015-07-06T18:37:36.962Z</time>
      </trkpt>
      <trkpt lat="48.8605" lon="2.29428">
        <ele>73.1</ele>
        <time>2015-07-06T18:37:37.982Z</time>
      </trkpt>
      <trkpt lat="48.86047" lon="2.29422">
        <ele>73</ele>
        <time>2015-07-06T18:37:38.986Z</time>
      </trkpt>
      <trkpt lat="48.86042" lon="2.29413">
        <ele>73</ele>
        <time>2015-07-06T18:37:41.004Z</time>
      </trkpt>
      <trkpt lat="48.86039" lon="2.29408">
        <ele>73.1</ele>
        <time>2015-07-06T18:37:42.038Z</time>
      </trkpt>
      <trkpt lat="48.86034" lon="2.29399">
        <ele>73.1</ele>
        <time>2015-07-06T18:37:43.970Z</time>
      </trkpt>
      <trkpt lat="48.86031" lon="2.29396">
        <ele>73</ele>
        <time>2015-07-06T18:37:45.037Z</time>
      </trkpt>
      <trkpt lat="48.86025" lon="2.29391">
        <ele>73.8</ele>
        <time>2015-07-06T18:37:46.980Z</time>
      </trkpt>
      <trkpt lat="48.86021" lon="2.29389">
        <ele>75</ele>
        <time>2015-07-06T18:37:48.073Z</time>
      </trkpt>
      <trkpt lat="48.86013" lon="2.29387">
        <ele>75.1</ele>
        <time>2015-07-06T18:37:52.020Z</time>
      </trkpt>
      <trkpt lat="48.86011" lon="2.29387">
        <ele>75</ele>
        <time>2015-07-06T18:37:53.038Z</time>
      </trkpt>
      <trkpt lat="48.86005" lon="2.29383">
        <ele>75</ele>
        <time>2015-07-06T18:37:55.991Z</time>
      </trkpt>
      <trkpt lat="48.86003" lon="2.29381">
        <ele>75.1</ele>
        <time>2015-07-06T18:37:57.019Z</time>
      </trkpt>
      <trkpt lat="48.85997" lon="2.29374">
        <ele>75.1</ele>
        <time>2015-07-06T18:38:00.203Z</time>
      </trkpt>
      <trkpt lat="48.85995" lon="2.29371">
        <ele>75.2</ele>
        <time>2015-07-06T18:38:00.971Z</time>
      </trkpt>
      <trkpt lat="48.85989" lon="2.29362">
        <ele>74.5</ele>
        <time>2015-07-06T18:38:04.004Z</time>
      </trkpt>
      <trkpt lat="48.85988" lon="2.29358">
        <ele>74.3</ele>
        <time>2015-07-06T18:38:05.017Z</time>
      </trkpt>
      <trkpt lat="48.85983" lon="2.29347">
        <ele>74.4</ele>
        <time>2015-07-06T18:38:07.977Z</time>
      </trkpt>
      <trkpt lat="48.85981" lon="2.29344">
        <ele>74.4</ele>
        <time>2015-07-06T18:38:08.987Z</time>
      </trkpt>
      <trkpt lat="48.85975" lon="2.29335">
        <ele>74.6</ele>
        <time>2015-07-06T18:38:12.018Z</time>
      </trkpt>
      <trkpt lat="48.85973" lon="2.29332">
        <ele>74.5</ele>
        <time>2015-07-06T18:38:13.029Z</time>
      </trkpt>
      <trkpt lat="48.85967" lon="2.29324">
        <ele>74.6</ele>
        <time>2015-07-06T18:38:15.983Z</time>
      </trkpt>
      <trkpt lat="48.85965" lon="2.29321">
        <ele>74.7</ele>
        <time>2015-07-06T18:38:17.006Z</time>
      </trkpt>
      <trkpt lat="48.8596" lon="2.29313">
        <ele>75.2</ele>
        <time>2015-07-06T18:38:20.979Z</time>
      </trkpt>
      <trkpt lat="48.85959" lon="2.2931">
        <ele>75.3</ele>
        <time>2015-07-06T18:38:21.982Z</time>
      </trkpt>
      <trkpt lat="48.85953" lon="2.29303">
        <ele>75.7</ele>
        <time>2015-07-06T18:38:24.955Z</time>
      </trkpt>
      <trkpt lat="48.85951" lon="2.29301">
        <ele>75.9</ele>
        <time>2015-07-06T18:38:25.980Z</time>
      </trkpt>
      <trkpt lat="48.85948" lon="2.29296">
        <ele>76</ele>
        <time>2015-07-06T18:38:28.001Z</time>
      </trkpt>
      <trkpt lat="48.85923" lon="2.2926">
        <ele>75.5</ele>
        <time>2015-07-06T18:38:40.960Z</time>
      </trkpt>
      <trkpt lat="48.8592" lon="2.2925">
        <ele>75.3</ele>
        <time>2015-07-06T18:38:42.966Z</time>
      </trkpt>
      <trkpt lat="48.85917" lon="2.29246">
        <ele>75.2</ele>
        <time>2015-07-06T18:38:43.916Z</time>
      </trkpt>
      <trkpt lat="48.85911" lon="2.29239">
        <ele>75.4</ele>
        <time>2015-07-06T18:38:45.952Z</time>
      </trkpt>
      <trkpt lat="48.85908" lon="2.29236">
        <ele>75.3</ele>
        <time>2015-07-06T18:38:47.004Z</time>
      </trkpt>
      <trkpt lat="48.85902" lon="2.29228">
        <ele>75.5</ele>
        <time>2015-07-06T18:38:49.896Z</time>
      </trkpt>
      <trkpt lat="48.85897" lon="2.29225">
        <ele>76.6</ele>
        <time>2015-07-06T18:38:49.976Z</time>
      </trkpt>
      <trkpt lat="48.8589" lon="2.29215">
        <ele>76.9</ele>
        <time>2015-07-06T18:38:53.030Z</time>
      </trkpt>
      <trkpt lat="48.85889" lon="2.29212">
        <ele>76.9</ele>
        <time>2015-07-06T18:38:54.059Z</time>
      </trkpt>
      <trkpt lat="48.85885" lon="2.29202">
        <ele>77.1</ele>
        <time>2015-07-06T18:38:57.033Z</time>
      </trkpt>
      <trkpt lat="48.85885" lon="2.292">
        <ele>77.2</ele>
        <time>2015-07-06T18:38:58.041Z</time>
      </trkpt>
      <trkpt lat="48.85888" lon="2.29189">
        <ele>77.4</ele>
        <time>2015-07-06T18:39:02.036Z</time>
      </trkpt>
      <trkpt lat="48.85888" lon="2.29185">
        <ele>77.5</ele>
        <time>2015-07-06T18:39:03.046Z</time>
      </trkpt>
      <trkpt lat="48.85883" lon="2.29177">
        <ele>77.2</ele>
        <time>2015-07-06T18:39:06.002Z</time>
      </trkpt>
      <trkpt lat="48.8588" lon="2.29174">
        <ele>77.2</ele>
        <time>2015-07-06T18:39:07.023Z</time>
      </trkpt>
      <trkpt lat="48.85876" lon="2.29167">
        <ele>77.1</ele>
        <time>2015-07-06T18:39:08.965Z</time>
      </trkpt>
      <trkpt lat="48.85873" lon="2.29164">
        <ele>76.9</ele>
        <time>2015-07-06T18:39:09.995Z</time>
      </trkpt>
      <trkpt lat="48.85868" lon="2.29156">
        <ele>76.2</ele>
        <time>2015-07-06T18:39:12.031Z</time>
      </trkpt>
      <trkpt lat="48.85865" lon="2.29153">
        <ele>76.3</ele>
        <time>2015-07-06T18:39:13.079Z</time>
      </trkpt>
      <trkpt lat="48.85859" lon="2.29146">
        <ele>76.3</ele>
        <time>2015-07-06T18:39:15.285Z</time>
      </trkpt>
      <trkpt lat="48.85856" lon="2.29142">
        <ele>76.2</ele>
        <time>2015-07-06T18:39:16.055Z</time>
      </trkpt>
      <trkpt lat="48.85849" lon="2.29134">
        <ele>76.2</ele>
        <time>2015-07-06T18:39:18.044Z</time>
      </trkpt>
      <trkpt lat="48.85846" lon="2.2913">
        <ele>76.1</ele>
        <time>2015-07-06T18:39:18.974Z</time>
      </trkpt>
      <trkpt lat="48.85839" lon="2.29122">
        <ele>76.2</ele>
        <time>2015-07-06T18:39:21.033Z</time>
      </trkpt>
      <trkpt lat="48.85835" lon="2.29119">
        <ele>76.4</ele>
        <time>2015-07-06T18:39:21.966Z</time>
      </trkpt>
      <trkpt lat="48.85829" lon="2.29111">
        <ele>76.6</ele>
        <time>2015-07-06T18:39:24.006Z</time>
      </trkpt>
      <trkpt lat="48.85826" lon="2.29106">
        <ele>76.6</ele>
        <time>2015-07-06T18:39:25.011Z</time>
      </trkpt>
      <trkpt lat="48.8582" lon="2.29096">
        <ele>76.2</ele>
        <time>2015-07-06T18:39:27.414Z</time>
      </trkpt>
      <trkpt lat="48.85817" lon="2.29091">
        <ele>76.2</ele>
        <time>2015-07-06T18:39:27.931Z</time>
      </trkpt>
      <trkpt lat="48.85811" lon="2.29082">
        <ele>75.7</ele>
        <time>2015-07-06T18:39:30.046Z</time>
      </trkpt>
      <trkpt lat="48.85808" lon="2.29078">
        <ele>75.6</ele>
        <time>2015-07-06T18:39:30.985Z</time>
      </trkpt>
      <trkpt lat="48.85802" lon="2.29068">
        <ele>75.5</ele>
        <time>2015-07-06T18:39:33.053Z</time>
      </trkpt>
      <trkpt lat="48.85798" lon="2.29063">
        <ele>75.5</ele>
        <time>2015-07-06T18:39:34.016Z</time>
      </trkpt>
      <trkpt lat="48.85794" lon="2.29059">
        <ele>75.3</ele>
        <time>2015-07-06T18:39:34.961Z</time>
      </trkpt>
      <trkpt lat="48.85791" lon="2.29054">
        <ele>75.3</ele>
        <time>2015-07-06T18:39:36.000Z</time>
      </trkpt>
      <trkpt lat="48.85788" lon="2.29049">
        <ele>75.2</ele>
        <time>2015-07-06T18:39:37.522Z</time>
      </trkpt>
      <trkpt lat="48.85785" lon="2.29045">
        <ele>74.9</ele>
        <time>2015-07-06T18:39:38.013Z</time>
      </trkpt>
      <trkpt lat="48.85778" lon="2.29036">
        <ele>74.3</ele>
        <time>2015-07-06T18:39:40.024Z</time>
      </trkpt>
      <trkpt lat="48.85774" lon="2.29033">
        <ele>74.1</ele>
        <time>2015-07-06T18:39:41.044Z</time>
      </trkpt>
      <trkpt lat="48.85766" lon="2.29026">
        <ele>73.8</ele>
        <time>2015-07-06T18:39:42.971Z</time>
      </trkpt>
      <trkpt lat="48.85763" lon="2.29022">
        <ele>73.9</ele>
        <time>2015-07-06T18:39:43.960Z</time>
      </trkpt>
      <trkpt lat="48.85756" lon="2.29015">
        <ele>74</ele>
        <time>2015-07-06T18:39:45.987Z</time>
      </trkpt>
      <trkpt lat="48.85752" lon="2.29012">
        <ele>74.1</ele>
        <time>2015-07-06T18:39:46.991Z</time>
      </trkpt>
      <trkpt lat="48.85748" lon="2.29009">
        <ele>74.1</ele>
        <time>2015-07-06T18:39:48.027Z</time>
      </trkpt>
      <trkpt lat="48.85744" lon="2.29006">
        <ele>74.1</ele>
        <time>2015-07-06T18:39:49.038Z</time>
      </trkpt>
      <trkpt lat="48.85737" lon="2.28998">
        <ele>74.1</ele>
        <time>2015-07-06T18:39:50.967Z</time>
      </trkpt>
      <trkpt lat="48.85733" lon="2.28996">
        <ele>74</ele>
        <time>2015-07-06T18:39:51.983Z</time>
      </trkpt>
      <trkpt lat="48.85726" lon="2.2899">
        <ele>74.1</ele>
        <time>2015-07-06T18:39:54.018Z</time>
      </trkpt>
      <trkpt lat="48.85722" lon="2.28987">
        <ele>74</ele>
        <time>2015-07-06T18:39:55.019Z</time>
      </trkpt>
      <trkpt lat="48.85718" lon="2.28984">
        <ele>73.9</ele>
        <time>2015-07-06T18:39:56.030Z</time>
      </trkpt>
      <trkpt lat="48.85714" lon="2.2898">
        <ele>74.1</ele>
        <time>2015-07-06T18:39:57.103Z</time>
      </trkpt>
      <trkpt lat="48.8571" lon="2.28977">
        <ele>74.1</ele>
        <time>2015-07-06T18:39:58.039Z</time>
      </trkpt>
      <trkpt lat="48.85706" lon="2.28974">
        <ele>74.1</ele>
        <time>2015-07-06T18:39:59.039Z</time>
      </trkpt>
      <trkpt lat="48.85702" lon="2.28971">
        <ele>74.2</ele>
        <time>2015-07-06T18:40:00.069Z</time>
      </trkpt>
      <trkpt lat="48.85698" lon="2.28968">
        <ele>74.2</ele>
        <time>2015-07-06T18:40:00.987Z</time>
      </trkpt>
      <trkpt lat="48.85693" lon="2.28965">
        <ele>74.1</ele>
        <time>2015-07-06T18:40:02.742Z</time>
      </trkpt>
      <trkpt lat="48.85689" lon="2.28962">
        <ele>74.1</ele>
        <time>2015-07-06T18:40:02.987Z</time>
      </trkpt>
      <trkpt lat="48.85684" lon="2.2896">
        <ele>74.3</ele>
        <time>2015-07-06T18:40:04.011Z</time>
      </trkpt>
      <trkpt lat="48.8568" lon="2.28958">
        <ele>74.2</ele>
        <time>2015-07-06T18:40:05.006Z</time>
      </trkpt>
      <trkpt lat="48.85675" lon="2.28956">
        <ele>74.2</ele>
        <time>2015-07-06T18:40:06.033Z</time>
      </trkpt>
      <trkpt lat="48.85671" lon="2.28954">
        <ele>74.3</ele>
        <time>2015-07-06T18:40:07.044Z</time>
      </trkpt>
      <trkpt lat="48.85667" lon="2.28953">
        <ele>74.5</ele>
        <time>2015-07-06T18:40:08.021Z</time>
      </trkpt>
      <trkpt lat="48.85662" lon="2.28951">
        <ele>74.6</ele>
        <time>2015-07-06T18:40:08.967Z</time>
      </trkpt>
      <trkpt lat="48.85654" lon="2.28947">
        <ele>74.7</ele>
        <time>2015-07-06T18:40:10.992Z</time>
      </trkpt>
      <trkpt lat="48.8565" lon="2.28946">
        <ele>74.8</ele>
        <time>2015-07-06T18:40:12.029Z</time>
      </trkpt>
      <trkpt lat="48.85642" lon="2.28943">
        <ele>75</ele>
        <time>2015-07-06T18:40:14.046Z</time>
      </trkpt>
      <trkpt lat="48.85638" lon="2.28942">
        <ele>75</ele>
        <time>2015-07-06T18:40:14.997Z</time>
      </trkpt>
      <trkpt lat="48.8563" lon="2.28939">
        <ele>75.2</ele>
        <time>2015-07-06T18:40:16.964Z</time>
      </trkpt>
      <trkpt lat="48.85627" lon="2.28938">
        <ele>75.4</ele>
        <time>2015-07-06T18:40:18.010Z</time>
      </trkpt>
      <trkpt lat="48.8562" lon="2.28934">
        <ele>75.2</ele>
        <time>2015-07-06T18:40:20.959Z</time>
      </trkpt>
      <trkpt lat="48.85618" lon="2.28933">
        <ele>75.2</ele>
        <time>2015-07-06T18:40:21.976Z</time>
      </trkpt>
      <trkpt lat="48.8561" lon="2.28931">
        <ele>75</ele>
        <time>2015-07-06T18:40:24.928Z</time>
      </trkpt>
      <trkpt lat="48.85608" lon="2.2893">
        <ele>75</ele>
        <time>2015-07-06T18:40:25.964Z</time>
      </trkpt>
      <trkpt lat="48.856" lon="2.28925">
        <ele>75.4</ele>
        <time>2015-07-06T18:40:37.975Z</time>
      </trkpt>
      <trkpt lat="48.856" lon="2.28924">
        <ele>75.9</ele>
        <time>2015-07-06T18:40:39.149Z</time>
      </trkpt>
      <trkpt lat="48.85591" lon="2.2892">
        <ele>76.5</ele>
        <time>2015-07-06T18:40:45.970Z</time>
      </trkpt>
      <trkpt lat="48.85589" lon="2.28919">
        <ele>76.4</ele>
        <time>2015-07-06T18:40:46.991Z</time>
      </trkpt>
      <trkpt lat="48.85584" lon="2.28916">
        <ele>76.5</ele>
        <time>2015-07-06T18:40:48.983Z</time>
      </trkpt>
      <trkpt lat="48.8558" lon="2.28914">
        <ele>76.8</ele>
        <time>2015-07-06T18:40:50.045Z</time>
      </trkpt>
      <trkpt lat="48.85572" lon="2.28911">
        <ele>77.1</ele>
        <time>2015-07-06T18:40:51.949Z</time>
      </trkpt>
      <trkpt lat="48.85568" lon="2.28909">
        <ele>77.1</ele>
        <time>2015-07-06T18:40:52.971Z</time>
      </trkpt>
      <trkpt lat="48.85561" lon="2.28906">
        <ele>76.8</ele>
        <time>2015-07-06T18:40:54.997Z</time>
      </trkpt>
      <trkpt lat="48.85557" lon="2.28905">
        <ele>76.7</ele>
        <time>2015-07-06T18:40:56.018Z</time>
      </trkpt>
      <trkpt lat="48.85551" lon="2.28902">
        <ele>76.7</ele>
        <time>2015-07-06T18:40:57.956Z</time>
      </trkpt>
      <trkpt lat="48.85548" lon="2.28901">
        <ele>76.8</ele>
        <time>2015-07-06T18:40:58.967Z</time>
      </trkpt>
      <trkpt lat="48.85542" lon="2.28898">
        <ele>77</ele>
        <time>2015-07-06T18:41:00.992Z</time>
      </trkpt>
      <trkpt lat="48.85538" lon="2.28896">
        <ele>77</ele>
        <time>2015-07-06T18:41:01.995Z</time>
      </trkpt>
      <trkpt lat="48.85531" lon="2.28891">
        <ele>77.5</ele>
        <time>2015-07-06T18:41:04.931Z</time>
      </trkpt>
      <trkpt lat="48.85529" lon="2.2889">
        <ele>77.7</ele>
        <time>2015-07-06T18:41:06.008Z</time>
      </trkpt>
      <trkpt lat="48.85523" lon="2.28885">
        <ele>77.9</ele>
        <time>2015-07-06T18:41:08.033Z</time>
      </trkpt>
      <trkpt lat="48.8552" lon="2.28883">
        <ele>78.1</ele>
        <time>2015-07-06T18:41:09.036Z</time>
      </trkpt>
      <trkpt lat="48.85512" lon="2.28878">
        <ele>78.4</ele>
        <time>2015-07-06T18:41:12.025Z</time>
      </trkpt>
      <trkpt lat="48.85509" lon="2.28876">
        <ele>78.5</ele>
        <time>2015-07-06T18:41:13.043Z</time>
      </trkpt>
      <trkpt lat="48.85502" lon="2.2887">
        <ele>78.4</ele>
        <time>2015-07-06T18:41:18.011Z</time>
      </trkpt>
      <trkpt lat="48.85501" lon="2.28869">
        <ele>78.4</ele>
        <time>2015-07-06T18:41:19.018Z</time>
      </trkpt>
      <trkpt lat="48.85496" lon="2.28864">
        <ele>78.8</ele>
        <time>2015-07-06T18:41:27.200Z</time>
      </trkpt>
      <trkpt lat="48.85495" lon="2.28864">
        <ele>79</ele>
        <time>2015-07-06T18:41:27.982Z</time>
      </trkpt>
      <trkpt lat="48.85495" lon="2.28863">
        <ele>79.2</ele>
        <time>2015-07-06T18:41:28.986Z</time>
      </trkpt>
      <trkpt lat="48.85494" lon="2.28851">
        <ele>80.7</ele>
        <time>2015-07-06T18:41:40.961Z</time>
      </trkpt>
      <trkpt lat="48.85495" lon="2.28848">
        <ele>80.4</ele>
        <time>2015-07-06T18:41:42.276Z</time>
      </trkpt>
      <trkpt lat="48.855" lon="2.28838">
        <ele>79.5</ele>
        <time>2015-07-06T18:41:44.972Z</time>
      </trkpt>
      <trkpt lat="48.85503" lon="2.28836">
        <ele>79.1</ele>
        <time>2015-07-06T18:41:45.982Z</time>
      </trkpt>
      <trkpt lat="48.8551" lon="2.2883">
        <ele>78.5</ele>
        <time>2015-07-06T18:41:48.087Z</time>
      </trkpt>
      <trkpt lat="48.85514" lon="2.28827">
        <ele>78.1</ele>
        <time>2015-07-06T18:41:48.981Z</time>
      </trkpt>
      <trkpt lat="48.85521" lon="2.28821">
        <ele>77.9</ele>
        <time>2015-07-06T18:41:51.000Z</time>
      </trkpt>
      <trkpt lat="48.85525" lon="2.28818">
        <ele>77.6</ele>
        <time>2015-07-06T18:41:52.018Z</time>
      </trkpt>
      <trkpt lat="48.85529" lon="2.28815">
        <ele>77.5</ele>
        <time>2015-07-06T18:41:53.038Z</time>
      </trkpt>
      <trkpt lat="48.85533" lon="2.28811">
        <ele>77.5</ele>
        <time>2015-07-06T18:41:54.076Z</time>
      </trkpt>
      <trkpt lat="48.85537" lon="2.28808">
        <ele>77.2</ele>
        <time>2015-07-06T18:41:54.981Z</time>
      </trkpt>
      <trkpt lat="48.85541" lon="2.28804">
        <ele>77.2</ele>
        <time>2015-07-06T18:41:56.037Z</time>
      </trkpt>
      <trkpt lat="48.85544" lon="2.28801">
        <ele>77</ele>
        <time>2015-07-06T18:41:57.621Z</time>
      </trkpt>
      <trkpt lat="48.85549" lon="2.28798">
        <ele>76.8</ele>
        <time>2015-07-06T18:41:57.988Z</time>
      </trkpt>
      <trkpt lat="48.85553" lon="2.28794">
        <ele>76.6</ele>
        <time>2015-07-06T18:41:58.999Z</time>
      </trkpt>
      <trkpt lat="48.85557" lon="2.28792">
        <ele>76.4</ele>
        <time>2015-07-06T18:42:00.112Z</time>
      </trkpt>
      <trkpt lat="48.85561" lon="2.28789">
        <ele>76.5</ele>
        <time>2015-07-06T18:42:00.982Z</time>
      </trkpt>
      <trkpt lat="48.85565" lon="2.28786">
        <ele>76.7</ele>
        <time>2015-07-06T18:42:01.978Z</time>
      </trkpt>
      <trkpt lat="48.85572" lon="2.28778">
        <ele>76.6</ele>
        <time>2015-07-06T18:42:03.975Z</time>
      </trkpt>
      <trkpt lat="48.85576" lon="2.28773">
        <ele>76.3</ele>
        <time>2015-07-06T18:42:04.990Z</time>
      </trkpt>
      <trkpt lat="48.85583" lon="2.28766">
        <ele>76.1</ele>
        <time>2015-07-06T18:42:07.796Z</time>
      </trkpt>
      <trkpt lat="48.85587" lon="2.28762">
        <ele>75.8</ele>
        <time>2015-07-06T18:42:07.936Z</time>
      </trkpt>
      <trkpt lat="48.85594" lon="2.28755">
        <ele>75.7</ele>
        <time>2015-07-06T18:42:10.024Z</time>
      </trkpt>
      <trkpt lat="48.85597" lon="2.28752">
        <ele>75.8</ele>
        <time>2015-07-06T18:42:11.051Z</time>
      </trkpt>
      <trkpt lat="48.85594" lon="2.28742">
        <ele>74.4</ele>
        <time>2015-07-06T18:42:18.992Z</time>
      </trkpt>
      <trkpt lat="48.85592" lon="2.2874">
        <ele>74.3</ele>
        <time>2015-07-06T18:42:20.011Z</time>
      </trkpt>
      <trkpt lat="48.85585" lon="2.2874">
        <ele>73.5</ele>
        <time>2015-07-06T18:42:22.999Z</time>
      </trkpt>
      <trkpt lat="48.85582" lon="2.28741">
        <ele>73.6</ele>
        <time>2015-07-06T18:42:24.037Z</time>
      </trkpt>
      <trkpt lat="48.85576" lon="2.28746">
        <ele>73.3</ele>
        <time>2015-07-06T18:42:27.277Z</time>
      </trkpt>
      <trkpt lat="48.85574" lon="2.28747">
        <ele>73.3</ele>
        <time>2015-07-06T18:42:28.009Z</time>
      </trkpt>
      <trkpt lat="48.85566" lon="2.28753">
        <ele>73.4</ele>
        <time>2015-07-06T18:42:32.353Z</time>
      </trkpt>
      <trkpt lat="48.85565" lon="2.28755">
        <ele>73.6</ele>
        <time>2015-07-06T18:42:33.049Z</time>
      </trkpt>
      <trkpt lat="48.85556" lon="2.28751">
        <ele>74.4</ele>
        <time>2015-07-06T18:42:40.018Z</time>
      </trkpt>
      <trkpt lat="48.85556" lon="2.2875">
        <ele>74.2</ele>
        <time>2015-07-06T18:42:40.989Z</time>
      </trkpt>
      <trkpt lat="48.85556" lon="2.28749">
        <ele>74.7</ele>
        <time>2015-07-06T18:42:42.114Z</time>
      </trkpt>
      <trkpt lat="48.85555" lon="2.28748">
        <ele>75.2</ele>
        <time>2015-07-06T18:42:48.956Z</time>
      </trkpt>
      <trkpt lat="48.85554" lon="2.28744">
        <ele>77.1</ele>
        <time>2015-07-06T18:42:50.024Z</time>
      </trkpt>
      <trkpt lat="48.85553" lon="2.28742">
        <ele>77.2</ele>
        <time>2015-07-06T18:42:52.025Z</time>
      </trkpt>
      <trkpt lat="48.85554" lon="2.28742">
        <ele>77</ele>
        <time>2015-07-06T18:42:53.046Z</time>
      </trkpt>
      <trkpt lat="48.85554" lon="2.28741">
        <ele>77.3</ele>
        <time>2015-07-06T18:43:06.092Z</time>
      </trkpt>
      <trkpt lat="48.8555" lon="2.28741">
        <ele>77.1</ele>
        <time>2015-07-06T18:43:06.998Z</time>
      </trkpt>
      <trkpt lat="48.85542" lon="2.28737">
        <ele>76.8</ele>
        <time>2015-07-06T18:43:12.937Z</time>
      </trkpt>
      <trkpt lat="48.85541" lon="2.28735">
        <ele>76.6</ele>
        <time>2015-07-06T18:43:14.030Z</time>
      </trkpt>
      <trkpt lat="48.85535" lon="2.28728">
        <ele>76.7</ele>
        <time>2015-07-06T18:43:18.041Z</time>
      </trkpt>
      <trkpt lat="48.85534" lon="2.28726">
        <ele>76.7</ele>
        <time>2015-07-06T18:43:18.987Z</time>
      </trkpt>
      <trkpt lat="48.85528" lon="2.28719">
        <ele>76.7</ele>
        <time>2015-07-06T18:43:24.952Z</time>
      </trkpt>
      <trkpt lat="48.85527" lon="2.28717">
        <ele>76.7</ele>
        <time>2015-07-06T18:43:25.960Z</time>
      </trkpt>
      <trkpt lat="48.85522" lon="2.28707">
        <ele>76.8</ele>
        <time>2015-07-06T18:43:30.084Z</time>
      </trkpt>
      <trkpt lat="48.8552" lon="2.28705">
        <ele>76.8</ele>
        <time>2015-07-06T18:43:30.960Z</time>
      </trkpt>
      <trkpt lat="48.85516" lon="2.28695">
        <ele>77</ele>
        <time>2015-07-06T18:43:34.974Z</time>
      </trkpt>
      <trkpt lat="48.85515" lon="2.28693">
        <ele>77</ele>
        <time>2015-07-06T18:43:36.173Z</time>
      </trkpt>
      <trkpt lat="48.85511" lon="2.28685">
        <ele>77.3</ele>
        <time>2015-07-06T18:43:40.090Z</time>
      </trkpt>
      <trkpt lat="48.85509" lon="2.28683">
        <ele>77.2</ele>
        <time>2015-07-06T18:43:41.017Z</time>
      </trkpt>
      <trkpt lat="48.85503" lon="2.28675">
        <ele>77.1</ele>
        <time>2015-07-06T18:43:44.046Z</time>
      </trkpt>
      <trkpt lat="48.855" lon="2.28672">
        <ele>76.7</ele>
        <time>2015-07-06T18:43:45.045Z</time>
      </trkpt>
      <trkpt lat="48.85494" lon="2.28666">
        <ele>76.2</ele>
        <time>2015-07-06T18:43:46.989Z</time>
      </trkpt>
      <trkpt lat="48.85491" lon="2.28662">
        <ele>76</ele>
        <time>2015-07-06T18:43:48.052Z</time>
      </trkpt>
      <trkpt lat="48.85486" lon="2.28654">
        <ele>75.8</ele>
        <time>2015-07-06T18:43:49.944Z</time>
      </trkpt>
      <trkpt lat="48.85483" lon="2.2865">
        <ele>75.5</ele>
        <time>2015-07-06T18:43:51.013Z</time>
      </trkpt>
      <trkpt lat="48.85477" lon="2.28641">
        <ele>75.4</ele>
        <time>2015-07-06T18:43:53.174Z</time>
      </trkpt>
      <trkpt lat="48.85474" lon="2.28636">
        <ele>75.2</ele>
        <time>2015-07-06T18:43:54.037Z</time>
      </trkpt>
      <trkpt lat="48.85467" lon="2.2863">
        <ele>74.8</ele>
        <time>2015-07-06T18:43:56.064Z</time>
      </trkpt>
      <trkpt lat="48.85464" lon="2.28627">
        <ele>74.8</ele>
        <time>2015-07-06T18:43:57.068Z</time>
      </trkpt>
      <trkpt lat="48.85458" lon="2.28619">
        <ele>74.5</ele>
        <time>2015-07-06T18:43:58.980Z</time>
      </trkpt>
      <trkpt lat="48.85455" lon="2.28614">
        <ele>74.5</ele>
        <time>2015-07-06T18:44:00.057Z</time>
      </trkpt>
      <trkpt lat="48.85452" lon="2.28609">
        <ele>74.5</ele>
        <time>2015-07-06T18:44:01.047Z</time>
      </trkpt>
      <trkpt lat="48.85448" lon="2.28605">
        <ele>74.6</ele>
        <time>2015-07-06T18:44:02.056Z</time>
      </trkpt>
      <trkpt lat="48.85442" lon="2.28596">
        <ele>74.8</ele>
        <time>2015-07-06T18:44:03.972Z</time>
      </trkpt>
      <trkpt lat="48.85439" lon="2.28592">
        <ele>74.7</ele>
        <time>2015-07-06T18:44:05.008Z</time>
      </trkpt>
      <trkpt lat="48.85433" lon="2.28583">
        <ele>74.4</ele>
        <time>2015-07-06T18:44:07.019Z</time>
      </trkpt>
      <trkpt lat="48.8543" lon="2.28578">
        <ele>74.3</ele>
        <time>2015-07-06T18:44:08.076Z</time>
      </trkpt>
      <trkpt lat="48.85423" lon="2.2857">
        <ele>74.3</ele>
        <time>2015-07-06T18:44:10.046Z</time>
      </trkpt>
      <trkpt lat="48.8542" lon="2.28565">
        <ele>74.4</ele>
        <time>2015-07-06T18:44:10.949Z</time>
      </trkpt>
      <trkpt lat="48.85415" lon="2.28558">
        <ele>74.5</ele>
        <time>2015-07-06T18:44:13.531Z</time>
      </trkpt>
      <trkpt lat="48.85413" lon="2.28554">
        <ele>74.8</ele>
        <time>2015-07-06T18:44:14.010Z</time>
      </trkpt>
      <trkpt lat="48.8541" lon="2.28545">
        <ele>75.2</ele>
        <time>2015-07-06T18:44:17.287Z</time>
      </trkpt>
      <trkpt lat="48.85408" lon="2.28542">
        <ele>75.4</ele>
        <time>2015-07-06T18:44:17.977Z</time>
      </trkpt>
      <trkpt lat="48.85404" lon="2.28533">
        <ele>75.7</ele>
        <time>2015-07-06T18:44:20.947Z</time>
      </trkpt>
      <trkpt lat="48.85402" lon="2.2853">
        <ele>75.7</ele>
        <time>2015-07-06T18:44:21.982Z</time>
      </trkpt>
      <trkpt lat="48.85397" lon="2.28523">
        <ele>75.5</ele>
        <time>2015-07-06T18:44:24.115Z</time>
      </trkpt>
      <trkpt lat="48.85394" lon="2.2852">
        <ele>75.3</ele>
        <time>2015-07-06T18:44:24.977Z</time>
      </trkpt>
      <trkpt lat="48.85391" lon="2.28516">
        <ele>75.1</ele>
        <time>2015-07-06T18:44:25.973Z</time>
      </trkpt>
      <trkpt lat="48.85387" lon="2.28511">
        <ele>74.7</ele>
        <time>2015-07-06T18:44:27.020Z</time>
      </trkpt>
      <trkpt lat="48.85383" lon="2.28507">
        <ele>74.2</ele>
        <time>2015-07-06T18:44:27.988Z</time>
      </trkpt>
      <trkpt lat="48.85378" lon="2.28502">
        <ele>73.8</ele>
        <time>2015-07-06T18:44:28.989Z</time>
      </trkpt>
      <trkpt lat="48.85375" lon="2.28497">
        <ele>73.5</ele>
        <time>2015-07-06T18:44:30.040Z</time>
      </trkpt>
      <trkpt lat="48.85371" lon="2.28492">
        <ele>73.2</ele>
        <time>2015-07-06T18:44:31.031Z</time>
      </trkpt>
      <trkpt lat="48.85364" lon="2.28483">
        <ele>73.1</ele>
        <time>2015-07-06T18:44:33.043Z</time>
      </trkpt>
      <trkpt lat="48.85361" lon="2.28479">
        <ele>73</ele>
        <time>2015-07-06T18:44:33.990Z</time>
      </trkpt>
      <trkpt lat="48.85354" lon="2.28469">
        <ele>73.1</ele>
        <time>2015-07-06T18:44:36.033Z</time>
      </trkpt>
      <trkpt lat="48.85349" lon="2.28464">
        <ele>72.8</ele>
        <time>2015-07-06T18:44:37.047Z</time>
      </trkpt>
      <trkpt lat="48.85345" lon="2.2846">
        <ele>72.5</ele>
        <time>2015-07-06T18:44:38.063Z</time>
      </trkpt>
      <trkpt lat="48.85341" lon="2.28455">
        <ele>72.4</ele>
        <time>2015-07-06T18:44:38.986Z</time>
      </trkpt>
      <trkpt lat="48.85338" lon="2.28449">
        <ele>72.4</ele>
        <time>2015-07-06T18:44:39.999Z</time>
      </trkpt>
      <trkpt lat="48.85335" lon="2.28444">
        <ele>72.5</ele>
        <time>2015-07-06T18:44:40.999Z</time>
      </trkpt>
      <trkpt lat="48.85329" lon="2.28435">
        <ele>72.8</ele>
        <time>2015-07-06T18:44:43.042Z</time>
      </trkpt>
      <trkpt lat="48.85327" lon="2.28431">
        <ele>73</ele>
        <time>2015-07-06T18:44:44.047Z</time>
      </trkpt>
      <trkpt lat="48.8532" lon="2.28422">
        <ele>73.7</ele>
        <time>2015-07-06T18:44:45.996Z</time>
      </trkpt>
      <trkpt lat="48.85317" lon="2.28418">
        <ele>73.8</ele>
        <time>2015-07-06T18:44:47.054Z</time>
      </trkpt>
      <trkpt lat="48.85312" lon="2.2841">
        <ele>73.9</ele>
        <time>2015-07-06T18:44:48.996Z</time>
      </trkpt>
      <trkpt lat="48.85309" lon="2.28406">
        <ele>73.8</ele>
        <time>2015-07-06T18:44:49.984Z</time>
      </trkpt>
      <trkpt lat="48.85304" lon="2.28399">
        <ele>73.9</ele>
        <time>2015-07-06T18:44:52.851Z</time>
      </trkpt>
      <trkpt lat="48.85301" lon="2.28394">
        <ele>74</ele>
        <time>2015-07-06T18:44:53.043Z</time>
      </trkpt>
      <trkpt lat="48.85296" lon="2.28385">
        <ele>74.2</ele>
        <time>2015-07-06T18:44:55.066Z</time>
      </trkpt>
      <trkpt lat="48.85294" lon="2.28382">
        <ele>74.2</ele>
        <time>2015-07-06T18:44:55.998Z</time>
      </trkpt>
      <trkpt lat="48.85289" lon="2.28375">
        <ele>74.2</ele>
        <time>2015-07-06T18:44:57.875Z</time>
      </trkpt>
      <trkpt lat="48.85286" lon="2.28372">
        <ele>74.3</ele>
        <time>2015-07-06T18:44:59.005Z</time>
      </trkpt>
      <trkpt lat="48.85281" lon="2.28365">
        <ele>74.5</ele>
        <time>2015-07-06T18:45:00.967Z</time>
      </trkpt>
      <trkpt lat="48.85279" lon="2.28361">
        <ele>74.6</ele>
        <time>2015-07-06T18:45:01.986Z</time>
      </trkpt>
      <trkpt lat="48.85273" lon="2.28355">
        <ele>74.9</ele>
        <time>2015-07-06T18:45:04.005Z</time>
      </trkpt>
      <trkpt lat="48.8527" lon="2.28351">
        <ele>75</ele>
        <time>2015-07-06T18:45:05.009Z</time>
      </trkpt>
      <trkpt lat="48.85263" lon="2.28343">
        <ele>75.3</ele>
        <time>2015-07-06T18:45:07.028Z</time>
      </trkpt>
      <trkpt lat="48.8526" lon="2.28339">
        <ele>75.6</ele>
        <time>2015-07-06T18:45:08.039Z</time>
      </trkpt>
      <trkpt lat="48.85255" lon="2.2833">
        <ele>76.2</ele>
        <time>2015-07-06T18:45:10.001Z</time>
      </trkpt>
      <trkpt lat="48.85252" lon="2.28326">
        <ele>76.3</ele>
        <time>2015-07-06T18:45:10.984Z</time>
      </trkpt>
      <trkpt lat="48.85248" lon="2.2832">
        <ele>76.2</ele>
        <time>2015-07-06T18:45:12.057Z</time>
      </trkpt>
      <trkpt lat="48.85245" lon="2.28317">
        <ele>76.4</ele>
        <time>2015-07-06T18:45:12.976Z</time>
      </trkpt>
      <trkpt lat="48.85239" lon="2.28308">
        <ele>76.6</ele>
        <time>2015-07-06T18:45:14.984Z</time>
      </trkpt>
      <trkpt lat="48.85237" lon="2.28304">
        <ele>76.7</ele>
        <time>2015-07-06T18:45:15.994Z</time>
      </trkpt>
      <trkpt lat="48.85231" lon="2.28295">
        <ele>76.7</ele>
        <time>2015-07-06T18:45:18.123Z</time>
      </trkpt>
      <trkpt lat="48.85227" lon="2.2829">
        <ele>76.8</ele>
        <time>2015-07-06T18:45:19.017Z</time>
      </trkpt>
      <trkpt lat="48.85224" lon="2.28286">
        <ele>76.7</ele>
        <time>2015-07-06T18:45:20.033Z</time>
      </trkpt>
      <trkpt lat="48.85221" lon="2.28281">
        <ele>76.7</ele>
        <time>2015-07-06T18:45:21.061Z</time>
      </trkpt>
      <trkpt lat="48.85215" lon="2.28273">
        <ele>76.8</ele>
        <time>2015-07-06T18:45:22.974Z</time>
      </trkpt>
      <trkpt lat="48.85212" lon="2.28269">
        <ele>77.3</ele>
        <time>2015-07-06T18:45:24.053Z</time>
      </trkpt>
      <trkpt lat="48.85207" lon="2.28261">
        <ele>77.8</ele>
        <time>2015-07-06T18:45:25.987Z</time>
      </trkpt>
      <trkpt lat="48.85205" lon="2.28256">
        <ele>78</ele>
        <time>2015-07-06T18:45:27.011Z</time>
      </trkpt>
      <trkpt lat="48.85199" lon="2.28248">
        <ele>78.2</ele>
        <time>2015-07-06T18:45:29.043Z</time>
      </trkpt>
      <trkpt lat="48.85197" lon="2.28245">
        <ele>78.3</ele>
        <time>2015-07-06T18:45:30.092Z</time>
      </trkpt>
      <trkpt lat="48.85191" lon="2.28238">
        <ele>78.6</ele>
        <time>2015-07-06T18:45:32.280Z</time>
      </trkpt>
      <trkpt lat="48.85189" lon="2.28235">
        <ele>78.9</ele>
        <time>2015-07-06T18:45:32.997Z</time>
      </trkpt>
      <trkpt lat="48.85184" lon="2.28228">
        <ele>79.3</ele>
        <time>2015-07-06T18:45:35.015Z</time>
      </trkpt>
      <trkpt lat="48.85182" lon="2.28225">
        <ele>79.5</ele>
        <time>2015-07-06T18:45:36.061Z</time>
      </trkpt>
      <trkpt lat="48.85176" lon="2.28216">
        <ele>79.8</ele>
        <time>2015-07-06T18:45:39.014Z</time>
      </trkpt>
      <trkpt lat="48.85174" lon="2.28213">
        <ele>80</ele>
        <time>2015-07-06T18:45:40.004Z</time>
      </trkpt>
      <trkpt lat="48.85168" lon="2.28204">
        <ele>80.2</ele>
        <time>2015-07-06T18:45:43.040Z</time>
      </trkpt>
      <trkpt lat="48.85166" lon="2.28201">
        <ele>80.3</ele>
        <time>2015-07-06T18:45:44.047Z</time>
      </trkpt>
      <trkpt lat="48.85161" lon="2.28194">
        <ele>80.2</ele>
        <time>2015-07-06T18:45:46.320Z</time>
      </trkpt>
      <trkpt lat="48.85158" lon="2.2819">
        <ele>80.2</ele>
        <time>2015-07-06T18:45:47.059Z</time>
      </trkpt>
      <trkpt lat="48.85153" lon="2.28182">
        <ele>80.4</ele>
        <time>2015-07-06T18:45:48.994Z</time>
      </trkpt>
      <trkpt lat="48.8515" lon="2.28178">
        <ele>80.4</ele>
        <time>2015-07-06T18:45:50.018Z</time>
      </trkpt>
      <trkpt lat="48.85144" lon="2.2817">
        <ele>80.3</ele>
        <time>2015-07-06T18:45:52.047Z</time>
      </trkpt>
      <trkpt lat="48.85141" lon="2.28166">
        <ele>80.3</ele>
        <time>2015-07-06T18:45:53.042Z</time>
      </trkpt>
      <trkpt lat="48.85136" lon="2.28158">
        <ele>80.3</ele>
        <time>2015-07-06T18:45:54.961Z</time>
      </trkpt>
      <trkpt lat="48.85133" lon="2.28154">
        <ele>80.5</ele>
        <time>2015-07-06T18:45:55.979Z</time>
      </trkpt>
      <trkpt lat="48.85128" lon="2.28146">
        <ele>80.4</ele>
        <time>2015-07-06T18:45:58.011Z</time>
      </trkpt>
      <trkpt lat="48.85125" lon="2.28143">
        <ele>80.6</ele>
        <time>2015-07-06T18:45:59.027Z</time>
      </trkpt>
      <trkpt lat="48.8512" lon="2.28136">
        <ele>81</ele>
        <time>2015-07-06T18:46:01.419Z</time>
      </trkpt>
      <trkpt lat="48.85118" lon="2.28133">
        <ele>81.1</ele>
        <time>2015-07-06T18:46:02.041Z</time>
      </trkpt>
      <trkpt lat="48.85114" lon="2.28127">
        <ele>81.1</ele>
        <time>2015-07-06T18:46:03.979Z</time>
      </trkpt>
      <trkpt lat="48.8511" lon="2.28124">
        <ele>81.1</ele>
        <time>2015-07-06T18:46:04.993Z</time>
      </trkpt>
      <trkpt lat="48.85105" lon="2.28117">
        <ele>81</ele>
        <time>2015-07-06T18:46:07.057Z</time>
      </trkpt>
      <trkpt lat="48.85103" lon="2.28113">
        <ele>80.7</ele>
        <time>2015-07-06T18:46:07.947Z</time>
      </trkpt>
      <trkpt lat="48.85098" lon="2.28106">
        <ele>80.4</ele>
        <time>2015-07-06T18:46:10.032Z</time>
      </trkpt>
      <trkpt lat="48.85095" lon="2.28103">
        <ele>80.6</ele>
        <time>2015-07-06T18:46:11.048Z</time>
      </trkpt>
      <trkpt lat="48.8509" lon="2.28096">
        <ele>81</ele>
        <time>2015-07-06T18:46:12.990Z</time>
      </trkpt>
      <trkpt lat="48.85088" lon="2.28093">
        <ele>81.3</ele>
        <time>2015-07-06T18:46:13.993Z</time>
      </trkpt>
      <trkpt lat="48.85084" lon="2.28086">
        <ele>81.3</ele>
        <time>2015-07-06T18:46:16.664Z</time>
      </trkpt>
      <trkpt lat="48.85082" lon="2.28083">
        <ele>81.5</ele>
        <time>2015-07-06T18:46:16.997Z</time>
      </trkpt>
      <trkpt lat="48.85075" lon="2.28073">
        <ele>82</ele>
        <time>2015-07-06T18:46:21.049Z</time>
      </trkpt>
      <trkpt lat="48.85073" lon="2.2807">
        <ele>82.2</ele>
        <time>2015-07-06T18:46:21.955Z</time>
      </trkpt>
      <trkpt lat="48.85068" lon="2.28064">
        <ele>82.4</ele>
        <time>2015-07-06T18:46:24.043Z</time>
      </trkpt>
      <trkpt lat="48.85065" lon="2.2806">
        <ele>82.4</ele>
        <time>2015-07-06T18:46:25.057Z</time>
      </trkpt>
      <trkpt lat="48.85059" lon="2.28053">
        <ele>82.7</ele>
        <time>2015-07-06T18:46:27.427Z</time>
      </trkpt>
      <trkpt lat="48.85057" lon="2.2805">
        <ele>82.7</ele>
        <time>2015-07-06T18:46:27.997Z</time>
      </trkpt>
      <trkpt lat="48.85051" lon="2.28041">
        <ele>83.1</ele>
        <time>2015-07-06T18:46:30.991Z</time>
      </trkpt>
      <trkpt lat="48.85049" lon="2.28038">
        <ele>83.2</ele>
        <time>2015-07-06T18:46:32.008Z</time>
      </trkpt>
      <trkpt lat="48.85043" lon="2.28029">
        <ele>83.5</ele>
        <time>2015-07-06T18:46:36.058Z</time>
      </trkpt>
      <trkpt lat="48.85042" lon="2.28028">
        <ele>83.4</ele>
        <time>2015-07-06T18:46:36.994Z</time>
      </trkpt>
      <trkpt lat="48.85035" lon="2.28023">
        <ele>83.4</ele>
        <time>2015-07-06T18:46:44.059Z</time>
      </trkpt>
      <trkpt lat="48.85035" lon="2.28023">
        <ele>83.3</ele>
        <time>2015-07-06T18:46:45.070Z</time>
      </trkpt>
      <trkpt lat="48.85035" lon="2.28023">
        <ele>83.4</ele>
        <time>2015-07-06T18:47:12.058Z</time>
      </trkpt>
      <trkpt lat="48.85036" lon="2.28022">
        <ele>83.1</ele>
        <time>2015-07-06T18:47:13.062Z</time>
      </trkpt>
      <trkpt lat="48.85038" lon="2.28016">
        <ele>82.6</ele>
        <time>2015-07-06T18:47:20.019Z</time>
      </trkpt>
      <trkpt lat="48.85038" lon="2.28016">
        <ele>82.7</ele>
        <time>2015-07-06T18:47:20.983Z</time>
      </trkpt>
      <trkpt lat="48.85038" lon="2.28016">
        <ele>82.7</ele>
        <time>2015-07-06T18:47:29.010Z</time>
      </trkpt>
      <trkpt lat="48.85038" lon="2.28012">
        <ele>82.9</ele>
        <time>2015-07-06T18:47:30.085Z</time>
      </trkpt>
      <trkpt lat="48.85044" lon="2.28004">
        <ele>83.1</ele>
        <time>2015-07-06T18:47:51.046Z</time>
      </trkpt>
      <trkpt lat="48.85045" lon="2.28002">
        <ele>83.3</ele>
        <time>2015-07-06T18:47:52.050Z</time>
      </trkpt>
      <trkpt lat="48.8505" lon="2.27994">
        <ele>83.1</ele>
        <time>2015-07-06T18:47:55.028Z</time>
      </trkpt>
      <trkpt lat="48.85052" lon="2.2799">
        <ele>83</ele>
        <time>2015-07-06T18:47:56.037Z</time>
      </trkpt>
      <trkpt lat="48.85056" lon="2.27983">
        <ele>82.8</ele>
        <time>2015-07-06T18:47:57.956Z</time>
      </trkpt>
      <trkpt lat="48.85058" lon="2.27979">
        <ele>82.7</ele>
        <time>2015-07-06T18:47:58.990Z</time>
      </trkpt>
      <trkpt lat="48.85063" lon="2.27971">
        <ele>82.7</ele>
        <time>2015-07-06T18:48:00.985Z</time>
      </trkpt>
      <trkpt lat="48.85066" lon="2.27967">
        <ele>82.8</ele>
        <time>2015-07-06T18:48:01.981Z</time>
      </trkpt>
      <trkpt lat="48.8507" lon="2.27957">
        <ele>82.9</ele>
        <time>2015-07-06T18:48:03.996Z</time>
      </trkpt>
      <trkpt lat="48.85073" lon="2.27953">
        <ele>82.9</ele>
        <time>2015-07-06T18:48:05.007Z</time>
      </trkpt>
      <trkpt lat="48.85077" lon="2.27943">
        <ele>82.7</ele>
        <time>2015-07-06T18:48:07.809Z</time>
      </trkpt>
      <trkpt lat="48.8508" lon="2.27938">
        <ele>82.7</ele>
        <time>2015-07-06T18:48:07.938Z</time>
      </trkpt>
      <trkpt lat="48.85085" lon="2.27928">
        <ele>82.7</ele>
        <time>2015-07-06T18:48:09.973Z</time>
      </trkpt>
      <trkpt lat="48.85088" lon="2.27924">
        <ele>82.7</ele>
        <time>2015-07-06T18:48:11.005Z</time>
      </trkpt>
      <trkpt lat="48.85094" lon="2.27914">
        <ele>82.7</ele>
        <time>2015-07-06T18:48:12.944Z</time>
      </trkpt>
      <trkpt lat="48.85097" lon="2.27909">
        <ele>82.7</ele>
        <time>2015-07-06T18:48:13.967Z</time>
      </trkpt>
      <trkpt lat="48.85101" lon="2.27904">
        <ele>82.7</ele>
        <time>2015-07-06T18:48:14.987Z</time>
      </trkpt>
      <trkpt lat="48.85105" lon="2.27899">
        <ele>82.8</ele>
        <time>2015-07-06T18:48:15.989Z</time>
      </trkpt>
      <trkpt lat="48.85108" lon="2.27894">
        <ele>82.9</ele>
        <time>2015-07-06T18:48:17.885Z</time>
      </trkpt>
      <trkpt lat="48.85112" lon="2.27889">
        <ele>82.9</ele>
        <time>2015-07-06T18:48:18.003Z</time>
      </trkpt>
      <trkpt lat="48.85119" lon="2.27881">
        <ele>83</ele>
        <time>2015-07-06T18:48:20.016Z</time>
      </trkpt>
      <trkpt lat="48.85122" lon="2.27877">
        <ele>82.9</ele>
        <time>2015-07-06T18:48:20.977Z</time>
      </trkpt>
      <trkpt lat="48.85127" lon="2.2787">
        <ele>82.9</ele>
        <time>2015-07-06T18:48:22.997Z</time>
      </trkpt>
      <trkpt lat="48.85128" lon="2.27867">
        <ele>82.9</ele>
        <time>2015-07-06T18:48:24.006Z</time>
      </trkpt>
      <trkpt lat="48.85128" lon="2.27855">
        <ele>82.9</ele>
        <time>2015-07-06T18:48:57.008Z</time>
      </trkpt>
      <trkpt lat="48.85129" lon="2.27853">
        <ele>82.7</ele>
        <time>2015-07-06T18:48:58.021Z</time>
      </trkpt>
      <trkpt lat="48.85132" lon="2.27841">
        <ele>83.5</ele>
        <time>2015-07-06T18:49:03.002Z</time>
      </trkpt>
      <trkpt lat="48.85132" lon="2.27839">
        <ele>83.5</ele>
        <time>2015-07-06T18:49:03.972Z</time>
      </trkpt>
      <trkpt lat="48.85134" lon="2.27836">
        <ele>83.8</ele>
        <time>2015-07-06T18:49:07.975Z</time>
      </trkpt>
      <trkpt lat="48.85134" lon="2.27836">
        <ele>83.8</ele>
        <time>2015-07-06T18:49:08.953Z</time>
      </trkpt>
      <trkpt lat="48.85135" lon="2.27835">
        <ele>84</ele>
        <time>2015-07-06T18:49:09.951Z</time>
      </trkpt>
      <trkpt lat="48.85127" lon="2.27828">
        <ele>83.5</ele>
        <time>2015-07-06T18:49:19.959Z</time>
      </trkpt>
      <trkpt lat="48.85125" lon="2.27826">
        <ele>83.4</ele>
        <time>2015-07-06T18:49:20.969Z</time>
      </trkpt>
      <trkpt lat="48.85119" lon="2.27819">
        <ele>83.3</ele>
        <time>2015-07-06T18:49:23.002Z</time>
      </trkpt>
      <trkpt lat="48.85116" lon="2.27815">
        <ele>83.2</ele>
        <time>2015-07-06T18:49:24.019Z</time>
      </trkpt>
      <trkpt lat="48.85109" lon="2.27807">
        <ele>83.3</ele>
        <time>2015-07-06T18:49:25.940Z</time>
      </trkpt>
      <trkpt lat="48.85106" lon="2.27802">
        <ele>83.3</ele>
        <time>2015-07-06T18:49:26.948Z</time>
      </trkpt>
      <trkpt lat="48.85102" lon="2.27797">
        <ele>83.4</ele>
        <time>2015-07-06T18:49:27.977Z</time>
      </trkpt>
      <trkpt lat="48.85098" lon="2.27791">
        <ele>83.4</ele>
        <time>2015-07-06T18:49:28.931Z</time>
      </trkpt>
      <trkpt lat="48.85094" lon="2.27786">
        <ele>83.3</ele>
        <time>2015-07-06T18:49:30.042Z</time>
      </trkpt>
      <trkpt lat="48.85091" lon="2.2778">
        <ele>83.4</ele>
        <time>2015-07-06T18:49:30.941Z</time>
      </trkpt>
      <trkpt lat="48.85088" lon="2.27775">
        <ele>83.4</ele>
        <time>2015-07-06T18:49:31.960Z</time>
      </trkpt>
      <trkpt lat="48.85084" lon="2.27769">
        <ele>83.5</ele>
        <time>2015-07-06T18:49:32.987Z</time>
      </trkpt>
      <trkpt lat="48.85081" lon="2.27763">
        <ele>83.5</ele>
        <time>2015-07-06T18:49:34.003Z</time>
      </trkpt>
      <trkpt lat="48.85078" lon="2.27758">
        <ele>83.6</ele>
        <time>2015-07-06T18:49:35.008Z</time>
      </trkpt>
      <trkpt lat="48.85074" lon="2.27753">
        <ele>83.6</ele>
        <time>2015-07-06T18:49:36.012Z</time>
      </trkpt>
      <trkpt lat="48.8507" lon="2.27748">
        <ele>83.5</ele>
        <time>2015-07-06T18:49:37.026Z</time>
      </trkpt>
      <trkpt lat="48.85066" lon="2.27743">
        <ele>83.4</ele>
        <time>2015-07-06T18:49:37.018Z</time>
      </trkpt>
      <trkpt lat="48.85062" lon="2.27739">
        <ele>83.4</ele>
        <time>2015-07-06T18:49:38.941Z</time>
      </trkpt>
      <trkpt lat="48.85059" lon="2.27733">
        <ele>83.5</ele>
        <time>2015-07-06T18:49:40.152Z</time>
      </trkpt>
      <trkpt lat="48.85055" lon="2.27727">
        <ele>83.6</ele>
        <time>2015-07-06T18:49:40.981Z</time>
      </trkpt>
      <trkpt lat="48.85051" lon="2.27721">
        <ele>83.8</ele>
        <time>2015-07-06T18:49:42.109Z</time>
      </trkpt>
      <trkpt lat="48.85048" lon="2.27714">
        <ele>83.9</ele>
        <time>2015-07-06T18:49:43.021Z</time>
      </trkpt>
      <trkpt lat="48.85044" lon="2.27709">
        <ele>84.1</ele>
        <time>2015-07-06T18:49:44.036Z</time>
      </trkpt>
      <trkpt lat="48.8504" lon="2.27704">
        <ele>84.2</ele>
        <time>2015-07-06T18:49:44.950Z</time>
      </trkpt>
      <trkpt lat="48.85036" lon="2.27698">
        <ele>84.4</ele>
        <time>2015-07-06T18:49:45.955Z</time>
      </trkpt>
      <trkpt lat="48.85032" lon="2.27692">
        <ele>84.3</ele>
        <time>2015-07-06T18:49:46.978Z</time>
      </trkpt>
      <trkpt lat="48.85028" lon="2.27687">
        <ele>84.3</ele>
        <time>2015-07-06T18:49:48.061Z</time>
      </trkpt>
      <trkpt lat="48.85024" lon="2.27681">
        <ele>84.3</ele>
        <time>2015-07-06T18:49:48.936Z</time>
      </trkpt>
      <trkpt lat="48.8502" lon="2.27675">
        <ele>84.4</ele>
        <time>2015-07-06T18:49:49.965Z</time>
      </trkpt>
      <trkpt lat="48.85016" lon="2.27668">
        <ele>84.6</ele>
        <time>2015-07-06T18:49:50.983Z</time>
      </trkpt>
      <trkpt lat="48.85012" lon="2.27661">
        <ele>84.7</ele>
        <time>2015-07-06T18:49:52.005Z</time>
      </trkpt>
      <trkpt lat="48.85005" lon="2.27657">
        <ele>84.6</ele>
        <time>2015-07-06T18:49:53.010Z</time>
      </trkpt>
      <trkpt lat="48.85001" lon="2.27652">
        <ele>84.5</ele>
        <time>2015-07-06T18:49:54.033Z</time>
      </trkpt>
      <trkpt lat="48.84995" lon="2.27648">
        <ele>84.5</ele>
        <time>2015-07-06T18:49:54.955Z</time>
      </trkpt>
      <trkpt lat="48.8499" lon="2.27644">
        <ele>84.8</ele>
        <time>2015-07-06T18:49:55.971Z</time>
      </trkpt>
      <trkpt lat="48.84985" lon="2.2764">
        <ele>84.8</ele>
        <time>2015-07-06T18:49:56.987Z</time>
      </trkpt>
      <trkpt lat="48.8498" lon="2.27635">
        <ele>84.8</ele>
        <time>2015-07-06T18:49:58.028Z</time>
      </trkpt>
      <trkpt lat="48.84975" lon="2.2763">
        <ele>84.9</ele>
        <time>2015-07-06T18:49:58.929Z</time>
      </trkpt>
      <trkpt lat="48.8497" lon="2.27625">
        <ele>84.9</ele>
        <time>2015-07-06T18:49:59.988Z</time>
      </trkpt>
      <trkpt lat="48.84965" lon="2.2762">
        <ele>85.2</ele>
        <time>2015-07-06T18:50:00.997Z</time>
      </trkpt>
      <trkpt lat="48.8496" lon="2.27615">
        <ele>85.2</ele>
        <time>2015-07-06T18:50:02.018Z</time>
      </trkpt>
      <trkpt lat="48.84955" lon="2.27609">
        <ele>85.3</ele>
        <time>2015-07-06T18:50:03.029Z</time>
      </trkpt>
      <trkpt lat="48.8495" lon="2.27604">
        <ele>85.3</ele>
        <time>2015-07-06T18:50:03.937Z</time>
      </trkpt>
      <trkpt lat="48.84945" lon="2.27598">
        <ele>85.3</ele>
        <time>2015-07-06T18:50:04.940Z</time>
      </trkpt>
      <trkpt lat="48.8494" lon="2.27593">
        <ele>85.5</ele>
        <time>2015-07-06T18:50:05.985Z</time>
      </trkpt>
      <trkpt lat="48.84935" lon="2.27587">
        <ele>85.7</ele>
        <time>2015-07-06T18:50:06.979Z</time>
      </trkpt>
      <trkpt lat="48.8493" lon="2.27581">
        <ele>85.7</ele>
        <time>2015-07-06T18:50:07.995Z</time>
      </trkpt>
      <trkpt lat="48.84925" lon="2.27576">
        <ele>85.7</ele>
        <time>2015-07-06T18:50:09.007Z</time>
      </trkpt>
      <trkpt lat="48.8492" lon="2.2757">
        <ele>85.8</ele>
        <time>2015-07-06T18:50:10.005Z</time>
      </trkpt>
      <trkpt lat="48.84914" lon="2.27564">
        <ele>85.6</ele>
        <time>2015-07-06T18:50:11.009Z</time>
      </trkpt>
      <trkpt lat="48.84908" lon="2.27558">
        <ele>85.6</ele>
        <time>2015-07-06T18:50:12.092Z</time>
      </trkpt>
      <trkpt lat="48.84902" lon="2.27552">
        <ele>85.6</ele>
        <time>2015-07-06T18:50:12.931Z</time>
      </trkpt>
      <trkpt lat="48.84896" lon="2.27546">
        <ele>85.6</ele>
        <time>2015-07-06T18:50:14.027Z</time>
      </trkpt>
      <trkpt lat="48.8489" lon="2.27541">
        <ele>85.6</ele>
        <time>2015-07-06T18:50:14.943Z</time>
      </trkpt>
      <trkpt lat="48.84884" lon="2.27536">
        <ele>85.5</ele>
        <time>2015-07-06T18:50:15.980Z</time>
      </trkpt>
      <trkpt lat="48.84879" lon="2.27531">
        <ele>85.6</ele>
        <time>2015-07-06T18:50:16.989Z</time>
      </trkpt>
      <trkpt lat="48.84874" lon="2.27525">
        <ele>85.7</ele>
        <time>2015-07-06T18:50:18.011Z</time>
      </trkpt>
      <trkpt lat="48.84869" lon="2.2752">
        <ele>85.5</ele>
        <time>2015-07-06T18:50:18.973Z</time>
      </trkpt>
      <trkpt lat="48.84865" lon="2.27513">
        <ele>85.1</ele>
        <time>2015-07-06T18:50:19.939Z</time>
      </trkpt>
      <trkpt lat="48.8486" lon="2.27508">
        <ele>85.1</ele>
        <time>2015-07-06T18:50:20.965Z</time>
      </trkpt>
      <trkpt lat="48.84856" lon="2.27505">
        <ele>85.2</ele>
        <time>2015-07-06T18:50:22.005Z</time>
      </trkpt>
      <trkpt lat="48.84851" lon="2.27501">
        <ele>85.2</ele>
        <time>2015-07-06T18:50:23.015Z</time>
      </trkpt>
      <trkpt lat="48.84846" lon="2.27497">
        <ele>85.3</ele>
        <time>2015-07-06T18:50:24.159Z</time>
      </trkpt>
      <trkpt lat="48.84841" lon="2.27493">
        <ele>85.3</ele>
        <time>2015-07-06T18:50:24.943Z</time>
      </trkpt>
      <trkpt lat="48.84835" lon="2.27488">
        <ele>85.3</ele>
        <time>2015-07-06T18:50:25.941Z</time>
      </trkpt>
      <trkpt lat="48.8483" lon="2.27483">
        <ele>85.5</ele>
        <time>2015-07-06T18:50:26.954Z</time>
      </trkpt>
      <trkpt lat="48.84824" lon="2.27477">
        <ele>85.4</ele>
        <time>2015-07-06T18:50:27.959Z</time>
      </trkpt>
      <trkpt lat="48.84819" lon="2.27471">
        <ele>85.4</ele>
        <time>2015-07-06T18:50:28.981Z</time>
      </trkpt>
      <trkpt lat="48.84813" lon="2.27466">
        <ele>85.5</ele>
        <time>2015-07-06T18:50:30.034Z</time>
      </trkpt>
      <trkpt lat="48.84808" lon="2.27461">
        <ele>85.5</ele>
        <time>2015-07-06T18:50:30.933Z</time>
      </trkpt>
      <trkpt lat="48.84802" lon="2.27456">
        <ele>85.6</ele>
        <time>2015-07-06T18:50:31.922Z</time>
      </trkpt>
      <trkpt lat="48.84796" lon="2.2745">
        <ele>85.9</ele>
        <time>2015-07-06T18:50:32.947Z</time>
      </trkpt>
      <trkpt lat="48.8479" lon="2.27445">
        <ele>86</ele>
        <time>2015-07-06T18:50:33.955Z</time>
      </trkpt>
      <trkpt lat="48.84784" lon="2.27439">
        <ele>86.2</ele>
        <time>2015-07-06T18:50:34.960Z</time>
      </trkpt>
      <trkpt lat="48.84778" lon="2.27433">
        <ele>86.6</ele>
        <time>2015-07-06T18:50:36.000Z</time>
      </trkpt>
      <trkpt lat="48.84773" lon="2.27427">
        <ele>87</ele>
        <time>2015-07-06T18:50:37.006Z</time>
      </trkpt>
      <trkpt lat="48.84767" lon="2.27421">
        <ele>87.2</ele>
        <time>2015-07-06T18:50:38.015Z</time>
      </trkpt>
      <trkpt lat="48.84762" lon="2.27415">
        <ele>87.3</ele>
        <time>2015-07-06T18:50:39.026Z</time>
      </trkpt>
      <trkpt lat="48.84757" lon="2.27409">
        <ele>88.3</ele>
        <time>2015-07-06T18:50:39.950Z</time>
      </trkpt>
      <trkpt lat="48.84752" lon="2.27403">
        <ele>88.3</ele>
        <time>2015-07-06T18:50:40.973Z</time>
      </trkpt>
      <trkpt lat="48.84748" lon="2.27397">
        <ele>88.2</ele>
        <time>2015-07-06T18:50:42.003Z</time>
      </trkpt>
      <trkpt lat="48.84744" lon="2.27391">
        <ele>88.2</ele>
        <time>2015-07-06T18:50:43.010Z</time>
      </trkpt>
      <trkpt lat="48.84741" lon="2.27384">
        <ele>88.5</ele>
        <time>2015-07-06T18:50:44.025Z</time>
      </trkpt>
      <trkpt lat="48.84738" lon="2.27378">
        <ele>88.6</ele>
        <time>2015-07-06T18:50:45.029Z</time>
      </trkpt>
      <trkpt lat="48.84735" lon="2.27374">
        <ele>89</ele>
        <time>2015-07-06T18:50:46.038Z</time>
      </trkpt>
      <trkpt lat="48.8473" lon="2.27371">
        <ele>90</ele>
        <time>2015-07-06T18:50:46.945Z</time>
      </trkpt>
      <trkpt lat="48.84723" lon="2.27365">
        <ele>89.9</ele>
        <time>2015-07-06T18:50:48.971Z</time>
      </trkpt>
      <trkpt lat="48.8472" lon="2.27363">
        <ele>89.9</ele>
        <time>2015-07-06T18:50:49.976Z</time>
      </trkpt>
      <trkpt lat="48.84713" lon="2.27357">
        <ele>89.1</ele>
        <time>2015-07-06T18:50:52.021Z</time>
      </trkpt>
      <trkpt lat="48.84709" lon="2.27353">
        <ele>88.9</ele>
        <time>2015-07-06T18:50:53.037Z</time>
      </trkpt>
      <trkpt lat="48.84702" lon="2.27347">
        <ele>88.7</ele>
        <time>2015-07-06T18:50:54.967Z</time>
      </trkpt>
      <trkpt lat="48.84698" lon="2.27345">
        <ele>88.5</ele>
        <time>2015-07-06T18:50:55.971Z</time>
      </trkpt>
      <trkpt lat="48.84692" lon="2.2734">
        <ele>87.9</ele>
        <time>2015-07-06T18:50:58.022Z</time>
      </trkpt>
      <trkpt lat="48.84689" lon="2.27339">
        <ele>87.8</ele>
        <time>2015-07-06T18:50:59.055Z</time>
      </trkpt>
      <trkpt lat="48.84693" lon="2.27349">
        <ele>83.8</ele>
        <time>2015-07-06T18:51:12.001Z</time>
      </trkpt>
      <trkpt lat="48.84695" lon="2.2735">
        <ele>82.2</ele>
        <time>2015-07-06T18:51:13.013Z</time>
      </trkpt>
      <trkpt lat="48.84703" lon="2.27352">
        <ele>80.5</ele>
        <time>2015-07-06T18:51:16.999Z</time>
      </trkpt>
      <trkpt lat="48.84706" lon="2.2735">
        <ele>80.6</ele>
        <time>2015-07-06T18:51:18.017Z</time>
      </trkpt>
      <trkpt lat="48.84712" lon="2.2735">
        <ele>79.5</ele>
        <time>2015-07-06T18:51:21.040Z</time>
      </trkpt>
      <trkpt lat="48.84715" lon="2.2735">
        <ele>78.7</ele>
        <time>2015-07-06T18:51:21.964Z</time>
      </trkpt>
      <trkpt lat="48.84723" lon="2.27353">
        <ele>77.7</ele>
        <time>2015-07-06T18:51:27.929Z</time>
      </trkpt>
      <trkpt lat="48.84723" lon="2.27353">
        <ele>77.5</ele>
        <time>2015-07-06T18:51:28.983Z</time>
      </trkpt>
      <trkpt lat="48.84724" lon="2.27353">
        <ele>77.1</ele>
        <time>2015-07-06T18:51:37.044Z</time>
      </trkpt>
      <trkpt lat="48.84727" lon="2.27352">
        <ele>76.9</ele>
        <time>2015-07-06T18:51:37.965Z</time>
      </trkpt>
      <trkpt lat="48.84729" lon="2.27349">
        <ele>77.5</ele>
        <time>2015-07-06T18:51:45.010Z</time>
      </trkpt>
      <trkpt lat="48.8473" lon="2.27348">
        <ele>77.6</ele>
        <time>2015-07-06T18:51:45.980Z</time>
      </trkpt>
      <trkpt lat="48.8473" lon="2.27347">
        <ele>77.6</ele>
        <time>2015-07-06T18:51:48.028Z</time>
      </trkpt>
      <trkpt lat="48.8473" lon="2.27346">
        <ele>77.2</ele>
        <time>2015-07-06T18:51:49.047Z</time>
      </trkpt>
      <trkpt lat="48.84727" lon="2.27333">
        <ele>76.1</ele>
        <time>2015-07-06T18:51:58.010Z</time>
      </trkpt>
      <trkpt lat="48.84727" lon="2.27332">
        <ele>76.3</ele>
        <time>2015-07-06T18:51:59.021Z</time>
      </trkpt>
      <trkpt lat="48.84727" lon="2.27331">
        <ele>76.4</ele>
        <time>2015-07-06T18:52:00.159Z</time>
      </trkpt>
      <trkpt lat="48.84728" lon="2.27331">
        <ele>76.6</ele>
        <time>2015-07-06T18:52:00.953Z</time>
      </trkpt>
      <trkpt lat="48.84728" lon="2.2733">
        <ele>76.6</ele>
        <time>2015-07-06T18:52:01.962Z</time>
      </trkpt>
      <trkpt lat="48.84728" lon="2.27329">
        <ele>76.7</ele>
        <time>2015-07-06T18:52:02.972Z</time>
      </trkpt>
      <trkpt lat="48.84729" lon="2.27328">
        <ele>76.8</ele>
        <time>2015-07-06T18:52:23.029Z</time>
      </trkpt>
      <trkpt lat="48.84734" lon="2.27325">
        <ele>78.5</ele>
        <time>2015-07-06T18:52:24.053Z</time>
      </trkpt>
      <trkpt lat="48.84738" lon="2.2732">
        <ele>81.4</ele>
        <time>2015-07-06T18:52:50.013Z</time>
      </trkpt>
      <trkpt lat="48.84739" lon="2.27319">
        <ele>81.1</ele>
        <time>2015-07-06T18:52:50.920Z</time>
      </trkpt>
      <trkpt lat="48.84739" lon="2.27318">
        <ele>81.1</ele>
        <time>2015-07-06T18:52:54.925Z</time>
      </trkpt>
      <trkpt lat="48.84741" lon="2.27317">
        <ele>81.2</ele>
        <time>2015-07-06T18:52:55.952Z</time>
      </trkpt>
      <trkpt lat="48.84737" lon="2.27329">
        <ele>82.1</ele>
        <time>2015-07-06T18:54:24.006Z</time>
      </trkpt>
      <trkpt lat="48.84737" lon="2.27329">
        <ele>82.2</ele>
        <time>2015-07-06T18:54:24.984Z</time>
      </trkpt>
      <trkpt lat="48.84737" lon="2.27329">
        <ele>82.1</ele>
        <time>2015-07-06T18:54:39.006Z</time>
      </trkpt>
      <trkpt lat="48.84738" lon="2.27328">
        <ele>82.4</ele>
        <time>2015-07-06T18:54:39.898Z</time>
      </trkpt>
      <trkpt lat="48.84741" lon="2.27327">
        <ele>83.4</ele>
        <time>2015-07-06T18:54:44.966Z</time>
      </trkpt>
      <trkpt lat="48.84741" lon="2.27327">
        <ele>83.6</ele>
        <time>2015-07-06T18:54:45.952Z</time>
      </trkpt>
      <trkpt lat="48.84741" lon="2.27327">
        <ele>83.6</ele>
        <time>2015-07-06T18:54:48.928Z</time>
      </trkpt>
      <trkpt lat="48.8474" lon="2.27328">
        <ele>83.8</ele>
        <time>2015-07-06T18:54:49.944Z</time>
      </trkpt>
      <trkpt lat="48.84741" lon="2.27328">
        <ele>84.6</ele>
        <time>2015-07-06T18:55:01.940Z</time>
      </trkpt>
      <trkpt lat="48.84741" lon="2.27327">
        <ele>84.8</ele>
        <time>2015-07-06T18:55:02.967Z</time>
      </trkpt>
      <trkpt lat="48.8474" lon="2.27327">
        <ele>84.5</ele>
        <time>2015-07-06T18:55:03.995Z</time>
      </trkpt>
      <trkpt lat="48.84735" lon="2.27333">
        <ele>94.5</ele>
        <time>2015-07-06T18:55:26.009Z</time>
      </trkpt>
      <trkpt lat="48.84735" lon="2.27333">
        <ele>94.9</ele>
        <time>2015-07-06T18:55:26.934Z</time>
      </trkpt>
      <trkpt lat="48.84735" lon="2.27333">
        <ele>95.3</ele>
        <time>2015-07-06T18:55:53.037Z</time>
      </trkpt>
      <trkpt lat="48.8473" lon="2.27338">
        <ele>96</ele>
        <time>2015-07-06T18:55:54.028Z</time>
      </trkpt>
      <trkpt lat="48.8473" lon="2.27338">
        <ele>96.1</ele>
        <time>2015-07-06T18:55:54.994Z</time>
      </trkpt>
      <trkpt lat="48.8473" lon="2.27338">
        <ele>96.2</ele>
        <time>2015-07-06T18:55:56.003Z</time>
      </trkpt>
      <trkpt lat="48.8473" lon="2.27339">
        <ele>96.2</ele>
        <time>2015-07-06T18:56:00.072Z</time>
      </trkpt>
      <trkpt lat="48.84729" lon="2.27337">
        <ele>96.3</ele>
        <time>2015-07-06T18:56:00.945Z</time>
      </trkpt>
      <trkpt lat="48.8473" lon="2.27325">
        <ele>96.2</ele>
        <time>2015-07-06T18:56:06.961Z</time>
      </trkpt>
      <trkpt lat="48.84731" lon="2.27322">
        <ele>96.1</ele>
        <time>2015-07-06T18:56:07.953Z</time>
      </trkpt>
      <trkpt lat="48.84732" lon="2.27311">
        <ele>95.9</ele>
        <time>2015-07-06T18:56:10.983Z</time>
      </trkpt>
      <trkpt lat="48.84732" lon="2.27307">
        <ele>95.9</ele>
        <time>2015-07-06T18:56:12.011Z</time>
      </trkpt>
      <trkpt lat="48.84732" lon="2.27294">
        <ele>95.8</ele>
        <time>2015-07-06T18:56:14.963Z</time>
      </trkpt>
      <trkpt lat="48.84731" lon="2.27288">
        <ele>95.6</ele>
        <time>2015-07-06T18:56:15.980Z</time>
      </trkpt>
      <trkpt lat="48.84728" lon="2.27279">
        <ele>95.5</ele>
        <time>2015-07-06T18:56:16.984Z</time>
      </trkpt>
      <trkpt lat="48.84726" lon="2.27271">
        <ele>95.4</ele>
        <time>2015-07-06T18:56:18.003Z</time>
      </trkpt>
      <trkpt lat="48.84721" lon="2.27261">
        <ele>93.7</ele>
        <time>2015-07-06T18:56:19.010Z</time>
      </trkpt>
      <trkpt lat="48.84715" lon="2.27253">
        <ele>91.9</ele>
        <time>2015-07-06T18:56:20.007Z</time>
      </trkpt>
      <trkpt lat="48.8471" lon="2.27245">
        <ele>91.3</ele>
        <time>2015-07-06T18:56:20.918Z</time>
      </trkpt>
      <trkpt lat="48.84708" lon="2.27237">
        <ele>91.3</ele>
        <time>2015-07-06T18:56:21.997Z</time>
      </trkpt>
      <trkpt lat="48.84705" lon="2.27228">
        <ele>91.4</ele>
        <time>2015-07-06T18:56:22.637Z</time>
      </trkpt>
      <trkpt lat="48.84701" lon="2.2722">
        <ele>91.5</ele>
        <time>2015-07-06T18:56:24.009Z</time>
      </trkpt>
      <trkpt lat="48.84698" lon="2.27212">
        <ele>91.5</ele>
        <time>2015-07-06T18:56:25.008Z</time>
      </trkpt>
      <trkpt lat="48.84695" lon="2.27204">
        <ele>91.4</ele>
        <time>2015-07-06T18:56:26.020Z</time>
      </trkpt>
      <trkpt lat="48.84693" lon="2.27198">
        <ele>91.4</ele>
        <time>2015-07-06T18:56:27.428Z</time>
      </trkpt>
      <trkpt lat="48.84689" lon="2.2719">
        <ele>91.3</ele>
        <time>2015-07-06T18:56:28.047Z</time>
      </trkpt>
      <trkpt lat="48.84686" lon="2.27182">
        <ele>91.4</ele>
        <time>2015-07-06T18:56:29.060Z</time>
      </trkpt>
      <trkpt lat="48.84684" lon="2.27176">
        <ele>91.3</ele>
        <time>2015-07-06T18:56:30.066Z</time>
      </trkpt>
      <trkpt lat="48.84678" lon="2.27167">
        <ele>91.7</ele>
        <time>2015-07-06T18:56:30.975Z</time>
      </trkpt>
      <trkpt lat="48.84675" lon="2.27161">
        <ele>91.9</ele>
        <time>2015-07-06T18:56:32.006Z</time>
      </trkpt>
      <trkpt lat="48.84672" lon="2.27155">
        <ele>92.1</ele>
        <time>2015-07-06T18:56:33.011Z</time>
      </trkpt>
      <trkpt lat="48.8467" lon="2.27149">
        <ele>92.3</ele>
        <time>2015-07-06T18:56:33.942Z</time>
      </trkpt>
      <trkpt lat="48.84669" lon="2.27142">
        <ele>92.6</ele>
        <time>2015-07-06T18:56:35.060Z</time>
      </trkpt>
      <trkpt lat="48.84667" lon="2.27134">
        <ele>92.2</ele>
        <time>2015-07-06T18:56:36.074Z</time>
      </trkpt>
      <trkpt lat="48.84666" lon="2.27126">
        <ele>91.8</ele>
        <time>2015-07-06T18:56:36.951Z</time>
      </trkpt>
      <trkpt lat="48.84665" lon="2.2712">
        <ele>91.3</ele>
        <time>2015-07-06T18:56:37.951Z</time>
      </trkpt>
      <trkpt lat="48.84663" lon="2.27113">
        <ele>90.9</ele>
        <time>2015-07-06T18:56:38.958Z</time>
      </trkpt>
      <trkpt lat="48.8466" lon="2.27106">
        <ele>90.5</ele>
        <time>2015-07-06T18:56:39.965Z</time>
      </trkpt>
      <trkpt lat="48.84658" lon="2.27098">
        <ele>90.6</ele>
        <time>2015-07-06T18:56:40.979Z</time>
      </trkpt>
      <trkpt lat="48.84656" lon="2.27092">
        <ele>90.3</ele>
        <time>2015-07-06T18:56:42.000Z</time>
      </trkpt>
      <trkpt lat="48.84652" lon="2.27082">
        <ele>89.7</ele>
        <time>2015-07-06T18:56:44.025Z</time>
      </trkpt>
      <trkpt lat="48.84651" lon="2.27077">
        <ele>89.4</ele>
        <time>2015-07-06T18:56:45.040Z</time>
      </trkpt>
      <trkpt lat="48.84646" lon="2.27067">
        <ele>88.9</ele>
        <time>2015-07-06T18:56:46.955Z</time>
      </trkpt>
      <trkpt lat="48.84643" lon="2.27061">
        <ele>88.7</ele>
        <time>2015-07-06T18:56:48.043Z</time>
      </trkpt>
      <trkpt lat="48.84641" lon="2.27054">
        <ele>88.6</ele>
        <time>2015-07-06T18:56:48.959Z</time>
      </trkpt>
      <trkpt lat="48.84639" lon="2.27047">
        <ele>88.6</ele>
        <time>2015-07-06T18:56:49.971Z</time>
      </trkpt>
      <trkpt lat="48.84637" lon="2.2704">
        <ele>88.6</ele>
        <time>2015-07-06T18:56:50.950Z</time>
      </trkpt>
      <trkpt lat="48.84635" lon="2.27032">
        <ele>88.8</ele>
        <time>2015-07-06T18:56:51.980Z</time>
      </trkpt>
      <trkpt lat="48.84632" lon="2.27025">
        <ele>88.8</ele>
        <time>2015-07-06T18:56:52.991Z</time>
      </trkpt>
      <trkpt lat="48.84629" lon="2.27017">
        <ele>88.8</ele>
        <time>2015-07-06T18:56:54.016Z</time>
      </trkpt>
      <trkpt lat="48.84627" lon="2.2701">
        <ele>88.6</ele>
        <time>2015-07-06T18:56:54.989Z</time>
      </trkpt>
      <trkpt lat="48.84625" lon="2.27004">
        <ele>88.5</ele>
        <time>2015-07-06T18:56:56.001Z</time>
      </trkpt>
      <trkpt lat="48.84623" lon="2.26998">
        <ele>88.5</ele>
        <time>2015-07-06T18:56:57.308Z</time>
      </trkpt>
      <trkpt lat="48.84621" lon="2.26989">
        <ele>89</ele>
        <time>2015-07-06T18:56:58.025Z</time>
      </trkpt>
      <trkpt lat="48.84621" lon="2.26978">
        <ele>89</ele>
        <time>2015-07-06T18:56:59.999Z</time>
      </trkpt>
      <trkpt lat="48.84619" lon="2.26971">
        <ele>88.9</ele>
        <time>2015-07-06T18:57:01.002Z</time>
      </trkpt>
      <trkpt lat="48.84617" lon="2.26963">
        <ele>88.7</ele>
        <time>2015-07-06T18:57:02.326Z</time>
      </trkpt>
      <trkpt lat="48.84615" lon="2.26955">
        <ele>88.6</ele>
        <time>2015-07-06T18:57:03.032Z</time>
      </trkpt>
      <trkpt lat="48.84611" lon="2.26947">
        <ele>88.6</ele>
        <time>2015-07-06T18:57:03.958Z</time>
      </trkpt>
      <trkpt lat="48.84607" lon="2.26939">
        <ele>88.3</ele>
        <time>2015-07-06T18:57:05.023Z</time>
      </trkpt>
      <trkpt lat="48.84605" lon="2.26932">
        <ele>88.1</ele>
        <time>2015-07-06T18:57:06.047Z</time>
      </trkpt>
      <trkpt lat="48.84602" lon="2.26923">
        <ele>87.8</ele>
        <time>2015-07-06T18:57:06.940Z</time>
      </trkpt>
      <trkpt lat="48.84599" lon="2.26917">
        <ele>87.6</ele>
        <time>2015-07-06T18:57:07.942Z</time>
      </trkpt>
      <trkpt lat="48.84594" lon="2.26909">
        <ele>87.3</ele>
        <time>2015-07-06T18:57:08.948Z</time>
      </trkpt>
      <trkpt lat="48.84588" lon="2.26897">
        <ele>87.3</ele>
        <time>2015-07-06T18:57:09.965Z</time>
      </trkpt>
      <trkpt lat="48.84585" lon="2.26888">
        <ele>87.3</ele>
        <time>2015-07-06T18:57:10.981Z</time>
      </trkpt>
      <trkpt lat="48.8458" lon="2.26874">
        <ele>88.4</ele>
        <time>2015-07-06T18:57:12.013Z</time>
      </trkpt>
      <trkpt lat="48.84578" lon="2.26864">
        <ele>88.4</ele>
        <time>2015-07-06T18:57:13.044Z</time>
      </trkpt>
      <trkpt lat="48.84576" lon="2.26855">
        <ele>88.4</ele>
        <time>2015-07-06T18:57:13.952Z</time>
      </trkpt>
      <trkpt lat="48.84575" lon="2.26846">
        <ele>88.6</ele>
        <time>2015-07-06T18:57:14.951Z</time>
      </trkpt>
      <trkpt lat="48.84572" lon="2.26838">
        <ele>88.6</ele>
        <time>2015-07-06T18:57:15.962Z</time>
      </trkpt>
      <trkpt lat="48.84569" lon="2.26828">
        <ele>88.2</ele>
        <time>2015-07-06T18:57:16.979Z</time>
      </trkpt>
      <trkpt lat="48.84567" lon="2.2682">
        <ele>88.3</ele>
        <time>2015-07-06T18:57:18.024Z</time>
      </trkpt>
      <trkpt lat="48.84564" lon="2.26811">
        <ele>88.6</ele>
        <time>2015-07-06T18:57:19.036Z</time>
      </trkpt>
      <trkpt lat="48.84561" lon="2.26803">
        <ele>88.8</ele>
        <time>2015-07-06T18:57:19.980Z</time>
      </trkpt>
      <trkpt lat="48.84559" lon="2.26794">
        <ele>88.9</ele>
        <time>2015-07-06T18:57:20.954Z</time>
      </trkpt>
      <trkpt lat="48.84556" lon="2.26787">
        <ele>88.7</ele>
        <time>2015-07-06T18:57:21.954Z</time>
      </trkpt>
      <trkpt lat="48.84552" lon="2.26779">
        <ele>88.5</ele>
        <time>2015-07-06T18:57:22.972Z</time>
      </trkpt>
      <trkpt lat="48.8455" lon="2.2677">
        <ele>88.3</ele>
        <time>2015-07-06T18:57:24.003Z</time>
      </trkpt>
      <trkpt lat="48.84547" lon="2.26761">
        <ele>88.4</ele>
        <time>2015-07-06T18:57:24.994Z</time>
      </trkpt>
      <trkpt lat="48.84546" lon="2.26752">
        <ele>88.3</ele>
        <time>2015-07-06T18:57:25.997Z</time>
      </trkpt>
      <trkpt lat="48.84545" lon="2.26743">
        <ele>88.2</ele>
        <time>2015-07-06T18:57:27.014Z</time>
      </trkpt>
      <trkpt lat="48.84544" lon="2.26735">
        <ele>88.4</ele>
        <time>2015-07-06T18:57:28.028Z</time>
      </trkpt>
      <trkpt lat="48.84542" lon="2.26722">
        <ele>88.3</ele>
        <time>2015-07-06T18:57:29.994Z</time>
      </trkpt>
      <trkpt lat="48.84539" lon="2.26716">
        <ele>88</ele>
        <time>2015-07-06T18:57:31.005Z</time>
      </trkpt>
      <trkpt lat="48.84532" lon="2.26708">
        <ele>87.9</ele>
        <time>2015-07-06T18:57:32.950Z</time>
      </trkpt>
      <trkpt lat="48.84529" lon="2.26704">
        <ele>87.9</ele>
        <time>2015-07-06T18:57:34.006Z</time>
      </trkpt>
      <trkpt lat="48.84522" lon="2.26696">
        <ele>88.2</ele>
        <time>2015-07-06T18:57:36.043Z</time>
      </trkpt>
      <trkpt lat="48.84518" lon="2.26692">
        <ele>88.2</ele>
        <time>2015-07-06T18:57:36.980Z</time>
      </trkpt>
      <trkpt lat="48.84511" lon="2.26685">
        <ele>87.9</ele>
        <time>2015-07-06T18:57:38.981Z</time>
      </trkpt>
      <trkpt lat="48.84508" lon="2.26682">
        <ele>88.1</ele>
        <time>2015-07-06T18:57:39.992Z</time>
      </trkpt>
      <trkpt lat="48.84501" lon="2.26676">
        <ele>88.5</ele>
        <time>2015-07-06T18:57:42.030Z</time>
      </trkpt>
      <trkpt lat="48.84497" lon="2.26673">
        <ele>88.6</ele>
        <time>2015-07-06T18:57:42.980Z</time>
      </trkpt>
      <trkpt lat="48.8449" lon="2.2667">
        <ele>88.4</ele>
        <time>2015-07-06T18:57:44.948Z</time>
      </trkpt>
      <trkpt lat="48.84488" lon="2.26667">
        <ele>88.5</ele>
        <time>2015-07-06T18:57:46.042Z</time>
      </trkpt>
      <trkpt lat="48.84481" lon="2.26662">
        <ele>89.1</ele>
        <time>2015-07-06T18:57:48.000Z</time>
      </trkpt>
      <trkpt lat="48.84478" lon="2.26659">
        <ele>89.4</ele>
        <time>2015-07-06T18:57:49.005Z</time>
      </trkpt>
      <trkpt lat="48.84472" lon="2.26654">
        <ele>89.7</ele>
        <time>2015-07-06T18:57:50.973Z</time>
      </trkpt>
      <trkpt lat="48.8447" lon="2.26652">
        <ele>89.8</ele>
        <time>2015-07-06T18:57:51.993Z</time>
      </trkpt>
      <trkpt lat="48.84465" lon="2.26647">
        <ele>90</ele>
        <time>2015-07-06T18:57:54.035Z</time>
      </trkpt>
      <trkpt lat="48.84461" lon="2.26643">
        <ele>90.1</ele>
        <time>2015-07-06T18:57:54.953Z</time>
      </trkpt>
      <trkpt lat="48.84456" lon="2.26636">
        <ele>90.1</ele>
        <time>2015-07-06T18:57:56.978Z</time>
      </trkpt>
      <trkpt lat="48.84453" lon="2.26633">
        <ele>90.1</ele>
        <time>2015-07-06T18:57:57.991Z</time>
      </trkpt>
      <trkpt lat="48.84446" lon="2.26628">
        <ele>90.1</ele>
        <time>2015-07-06T18:58:00.007Z</time>
      </trkpt>
      <trkpt lat="48.84443" lon="2.26625">
        <ele>90.2</ele>
        <time>2015-07-06T18:58:01.010Z</time>
      </trkpt>
      <trkpt lat="48.84437" lon="2.2662">
        <ele>90.2</ele>
        <time>2015-07-06T18:58:03.059Z</time>
      </trkpt>
      <trkpt lat="48.84433" lon="2.26617">
        <ele>90.1</ele>
        <time>2015-07-06T18:58:03.960Z</time>
      </trkpt>
      <trkpt lat="48.84427" lon="2.2661">
        <ele>90.3</ele>
        <time>2015-07-06T18:58:05.977Z</time>
      </trkpt>
      <trkpt lat="48.84423" lon="2.26607">
        <ele>90.6</ele>
        <time>2015-07-06T18:58:06.988Z</time>
      </trkpt>
      <trkpt lat="48.84419" lon="2.26604">
        <ele>90.7</ele>
        <time>2015-07-06T18:58:08.001Z</time>
      </trkpt>
      <trkpt lat="48.84415" lon="2.26601">
        <ele>90.6</ele>
        <time>2015-07-06T18:58:09.021Z</time>
      </trkpt>
      <trkpt lat="48.84407" lon="2.26594">
        <ele>90.6</ele>
        <time>2015-07-06T18:58:09.708Z</time>
      </trkpt>
      <trkpt lat="48.84404" lon="2.2659">
        <ele>90.4</ele>
        <time>2015-07-06T18:58:12.031Z</time>
      </trkpt>
      <trkpt lat="48.84397" lon="2.26584">
        <ele>90.2</ele>
        <time>2015-07-06T18:58:14.819Z</time>
      </trkpt>
      <trkpt lat="48.84395" lon="2.26581">
        <ele>90.2</ele>
        <time>2015-07-06T18:58:14.918Z</time>
      </trkpt>
      <trkpt lat="48.84388" lon="2.26574">
        <ele>90.4</ele>
        <time>2015-07-06T18:58:17.216Z</time>
      </trkpt>
      <trkpt lat="48.84385" lon="2.26571">
        <ele>90.2</ele>
        <time>2015-07-06T18:58:18.012Z</time>
      </trkpt>
      <trkpt lat="48.84381" lon="2.26568">
        <ele>90.1</ele>
        <time>2015-07-06T18:58:19.042Z</time>
      </trkpt>
      <trkpt lat="48.84377" lon="2.26565">
        <ele>90.1</ele>
        <time>2015-07-06T18:58:19.966Z</time>
      </trkpt>
      <trkpt lat="48.84373" lon="2.26561">
        <ele>89.8</ele>
        <time>2015-07-06T18:58:20.971Z</time>
      </trkpt>
      <trkpt lat="48.84369" lon="2.26557">
        <ele>89.5</ele>
        <time>2015-07-06T18:58:21.918Z</time>
      </trkpt>
      <trkpt lat="48.84362" lon="2.2655">
        <ele>89.5</ele>
        <time>2015-07-06T18:58:24.144Z</time>
      </trkpt>
      <trkpt lat="48.84358" lon="2.26547">
        <ele>89.5</ele>
        <time>2015-07-06T18:58:24.982Z</time>
      </trkpt>
      <trkpt lat="48.84351" lon="2.2654">
        <ele>89.4</ele>
        <time>2015-07-06T18:58:27.355Z</time>
      </trkpt>
      <trkpt lat="48.84347" lon="2.26536">
        <ele>89.3</ele>
        <time>2015-07-06T18:58:27.986Z</time>
      </trkpt>
      <trkpt lat="48.84341" lon="2.26529">
        <ele>89.3</ele>
        <time>2015-07-06T18:58:30.064Z</time>
      </trkpt>
      <trkpt lat="48.84337" lon="2.26524">
        <ele>89.2</ele>
        <time>2015-07-06T18:58:30.992Z</time>
      </trkpt>
      <trkpt lat="48.84334" lon="2.2652">
        <ele>89.1</ele>
        <time>2015-07-06T18:58:32.417Z</time>
      </trkpt>
      <trkpt lat="48.84331" lon="2.26514">
        <ele>88.9</ele>
        <time>2015-07-06T18:58:32.959Z</time>
      </trkpt>
      <trkpt lat="48.84324" lon="2.26506">
        <ele>88.9</ele>
        <time>2015-07-06T18:58:34.980Z</time>
      </trkpt>
      <trkpt lat="48.84321" lon="2.26501">
        <ele>88.8</ele>
        <time>2015-07-06T18:58:36.044Z</time>
      </trkpt>
      <trkpt lat="48.84316" lon="2.26494">
        <ele>88.7</ele>
        <time>2015-07-06T18:58:37.967Z</time>
      </trkpt>
      <trkpt lat="48.84314" lon="2.26491">
        <ele>88.7</ele>
        <time>2015-07-06T18:58:38.926Z</time>
      </trkpt>
      <trkpt lat="48.84316" lon="2.26479">
        <ele>88.8</ele>
        <time>2015-07-06T18:58:42.967Z</time>
      </trkpt>
      <trkpt lat="48.84316" lon="2.26478">
        <ele>89.2</ele>
        <time>2015-07-06T18:58:43.980Z</time>
      </trkpt>
      <trkpt lat="48.84309" lon="2.26481">
        <ele>89.4</ele>
        <time>2015-07-06T18:58:49.956Z</time>
      </trkpt>
      <trkpt lat="48.84305" lon="2.26478">
        <ele>89.2</ele>
        <time>2015-07-06T18:58:50.990Z</time>
      </trkpt>
      <trkpt lat="48.84297" lon="2.26475">
        <ele>89.1</ele>
        <time>2015-07-06T18:58:54.047Z</time>
      </trkpt>
      <trkpt lat="48.84295" lon="2.26474">
        <ele>89.1</ele>
        <time>2015-07-06T18:58:55.058Z</time>
      </trkpt>
      <trkpt lat="48.84288" lon="2.2647">
        <ele>88.8</ele>
        <time>2015-07-06T18:58:56.979Z</time>
      </trkpt>
      <trkpt lat="48.84284" lon="2.26468">
        <ele>88.8</ele>
        <time>2015-07-06T18:58:58.152Z</time>
      </trkpt>
      <trkpt lat="48.84277" lon="2.26464">
        <ele>89</ele>
        <time>2015-07-06T18:59:00.015Z</time>
      </trkpt>
      <trkpt lat="48.8427" lon="2.26462">
        <ele>88.9</ele>
        <time>2015-07-06T18:59:01.042Z</time>
      </trkpt>
      <trkpt lat="48.84265" lon="2.26459">
        <ele>88.8</ele>
        <time>2015-07-06T18:59:02.140Z</time>
      </trkpt>
      <trkpt lat="48.8426" lon="2.26457">
        <ele>88.9</ele>
        <time>2015-07-06T18:59:02.940Z</time>
      </trkpt>
      <trkpt lat="48.84254" lon="2.26454">
        <ele>88.8</ele>
        <time>2015-07-06T18:59:03.962Z</time>
      </trkpt>
      <trkpt lat="48.84248" lon="2.26452">
        <ele>89.2</ele>
        <time>2015-07-06T18:59:04.980Z</time>
      </trkpt>
      <trkpt lat="48.84242" lon="2.26449">
        <ele>89.5</ele>
        <time>2015-07-06T18:59:05.993Z</time>
      </trkpt>
      <trkpt lat="48.84236" lon="2.26447">
        <ele>89.7</ele>
        <time>2015-07-06T18:59:07.000Z</time>
      </trkpt>
      <trkpt lat="48.84231" lon="2.26446">
        <ele>90</ele>
        <time>2015-07-06T18:59:08.608Z</time>
      </trkpt>
      <trkpt lat="48.84226" lon="2.26444">
        <ele>90.1</ele>
        <time>2015-07-06T18:59:08.931Z</time>
      </trkpt>
      <trkpt lat="48.84221" lon="2.26441">
        <ele>90.3</ele>
        <time>2015-07-06T18:59:09.958Z</time>
      </trkpt>
      <trkpt lat="48.84216" lon="2.26438">
        <ele>90.3</ele>
        <time>2015-07-06T18:59:10.965Z</time>
      </trkpt>
      <trkpt lat="48.8421" lon="2.26434">
        <ele>90.4</ele>
        <time>2015-07-06T18:59:11.980Z</time>
      </trkpt>
      <trkpt lat="48.84204" lon="2.26429">
        <ele>91.3</ele>
        <time>2015-07-06T18:59:12.977Z</time>
      </trkpt>
      <trkpt lat="48.84198" lon="2.26427">
        <ele>91.7</ele>
        <time>2015-07-06T18:59:13.992Z</time>
      </trkpt>
      <trkpt lat="48.84193" lon="2.26424">
        <ele>91.8</ele>
        <time>2015-07-06T18:59:15.012Z</time>
      </trkpt>
      <trkpt lat="48.84185" lon="2.26418">
        <ele>90.6</ele>
        <time>2015-07-06T18:59:16.921Z</time>
      </trkpt>
      <trkpt lat="48.84181" lon="2.26415">
        <ele>90.6</ele>
        <time>2015-07-06T18:59:17.959Z</time>
      </trkpt>
      <trkpt lat="48.84177" lon="2.2641">
        <ele>90.6</ele>
        <time>2015-07-06T18:59:19.039Z</time>
      </trkpt>
      <trkpt lat="48.84173" lon="2.26406">
        <ele>90.6</ele>
        <time>2015-07-06T18:59:19.928Z</time>
      </trkpt>
      <trkpt lat="48.84169" lon="2.26402">
        <ele>90.7</ele>
        <time>2015-07-06T18:59:20.923Z</time>
      </trkpt>
      <trkpt lat="48.84165" lon="2.26399">
        <ele>90.9</ele>
        <time>2015-07-06T18:59:21.937Z</time>
      </trkpt>
      <trkpt lat="48.84158" lon="2.26396">
        <ele>90.9</ele>
        <time>2015-07-06T18:59:23.984Z</time>
      </trkpt>
      <trkpt lat="48.84155" lon="2.26394">
        <ele>91</ele>
        <time>2015-07-06T18:59:25.004Z</time>
      </trkpt>
      <trkpt lat="48.84149" lon="2.26385">
        <ele>90.7</ele>
        <time>2015-07-06T18:59:27.976Z</time>
      </trkpt>
      <trkpt lat="48.84147" lon="2.26384">
        <ele>90.7</ele>
        <time>2015-07-06T18:59:28.989Z</time>
      </trkpt>
      <trkpt lat="48.84139" lon="2.26389">
        <ele>91.9</ele>
        <time>2015-07-06T18:59:36.049Z</time>
      </trkpt>
      <trkpt lat="48.8414" lon="2.26389">
        <ele>92.2</ele>
        <time>2015-07-06T18:59:36.980Z</time>
      </trkpt>
      <trkpt lat="48.84141" lon="2.26389">
        <ele>92.3</ele>
        <time>2015-07-06T18:59:42.014Z</time>
      </trkpt>
      <trkpt lat="48.84143" lon="2.26387">
        <ele>93.5</ele>
        <time>2015-07-06T18:59:43.042Z</time>
      </trkpt>
      <trkpt lat="48.84138" lon="2.26378">
        <ele>93.6</ele>
        <time>2015-07-06T18:59:46.973Z</time>
      </trkpt>
      <trkpt lat="48.84137" lon="2.26376">
        <ele>93.8</ele>
        <time>2015-07-06T18:59:48.092Z</time>
      </trkpt>
      <trkpt lat="48.84131" lon="2.26373">
        <ele>93.8</ele>
        <time>2015-07-06T18:59:49.951Z</time>
      </trkpt>
      <trkpt lat="48.84127" lon="2.26371">
        <ele>93.1</ele>
        <time>2015-07-06T18:59:50.973Z</time>
      </trkpt>
      <trkpt lat="48.84119" lon="2.26367">
        <ele>92.4</ele>
        <time>2015-07-06T18:59:53.011Z</time>
      </trkpt>
      <trkpt lat="48.84114" lon="2.26364">
        <ele>92.2</ele>
        <time>2015-07-06T18:59:54.031Z</time>
      </trkpt>
      <trkpt lat="48.8411" lon="2.2636">
        <ele>92.2</ele>
        <time>2015-07-06T18:59:54.956Z</time>
      </trkpt>
      <trkpt lat="48.84105" lon="2.26357">
        <ele>92</ele>
        <time>2015-07-06T18:59:55.961Z</time>
      </trkpt>
      <trkpt lat="48.841" lon="2.26353">
        <ele>92</ele>
        <time>2015-07-06T18:59:56.972Z</time>
      </trkpt>
      <trkpt lat="48.84095" lon="2.26349">
        <ele>91.9</ele>
        <time>2015-07-06T18:59:57.979Z</time>
      </trkpt>
      <trkpt lat="48.8409" lon="2.26345">
        <ele>91.8</ele>
        <time>2015-07-06T18:59:58.985Z</time>
      </trkpt>
      <trkpt lat="48.84085" lon="2.26342">
        <ele>91.8</ele>
        <time>2015-07-06T19:00:00.039Z</time>
      </trkpt>
      <trkpt lat="48.84079" lon="2.26338">
        <ele>91.8</ele>
        <time>2015-07-06T19:00:01.021Z</time>
      </trkpt>
      <trkpt lat="48.84074" lon="2.26335">
        <ele>91.7</ele>
        <time>2015-07-06T19:00:01.914Z</time>
      </trkpt>
      <trkpt lat="48.84068" lon="2.26332">
        <ele>91.6</ele>
        <time>2015-07-06T19:00:02.967Z</time>
      </trkpt>
      <trkpt lat="48.84062" lon="2.26329">
        <ele>91.6</ele>
        <time>2015-07-06T19:00:03.987Z</time>
      </trkpt>
      <trkpt lat="48.84057" lon="2.26326">
        <ele>91.6</ele>
        <time>2015-07-06T19:00:04.919Z</time>
      </trkpt>
      <trkpt lat="48.84051" lon="2.26323">
        <ele>91.5</ele>
        <time>2015-07-06T19:00:05.946Z</time>
      </trkpt>
      <trkpt lat="48.84046" lon="2.2632">
        <ele>91.3</ele>
        <time>2015-07-06T19:00:06.954Z</time>
      </trkpt>
      <trkpt lat="48.8404" lon="2.26317">
        <ele>91.3</ele>
        <time>2015-07-06T19:00:08.052Z</time>
      </trkpt>
      <trkpt lat="48.84035" lon="2.26315">
        <ele>91.3</ele>
        <time>2015-07-06T19:00:08.976Z</time>
      </trkpt>
      <trkpt lat="48.8403" lon="2.26312">
        <ele>91.3</ele>
        <time>2015-07-06T19:00:09.980Z</time>
      </trkpt>
      <trkpt lat="48.84025" lon="2.2631">
        <ele>91.3</ele>
        <time>2015-07-06T19:00:10.985Z</time>
      </trkpt>
      <trkpt lat="48.8402" lon="2.26308">
        <ele>91.4</ele>
        <time>2015-07-06T19:00:12.010Z</time>
      </trkpt>
      <trkpt lat="48.84016" lon="2.26306">
        <ele>91.4</ele>
        <time>2015-07-06T19:00:12.894Z</time>
      </trkpt>
      <trkpt lat="48.84011" lon="2.26304">
        <ele>91.4</ele>
        <time>2015-07-06T19:00:13.918Z</time>
      </trkpt>
      <trkpt lat="48.84006" lon="2.26302">
        <ele>91.5</ele>
        <time>2015-07-06T19:00:14.922Z</time>
      </trkpt>
      <trkpt lat="48.84001" lon="2.263">
        <ele>91.6</ele>
        <time>2015-07-06T19:00:15.936Z</time>
      </trkpt>
      <trkpt lat="48.83996" lon="2.26298">
        <ele>91.5</ele>
        <time>2015-07-06T19:00:16.973Z</time>
      </trkpt>
      <trkpt lat="48.8399" lon="2.26297">
        <ele>91.5</ele>
        <time>2015-07-06T19:00:18.039Z</time>
      </trkpt>
      <trkpt lat="48.83986" lon="2.26296">
        <ele>91.6</ele>
        <time>2015-07-06T19:00:18.931Z</time>
      </trkpt>
      <trkpt lat="48.83981" lon="2.26294">
        <ele>91.6</ele>
        <time>2015-07-06T19:00:19.938Z</time>
      </trkpt>
      <trkpt lat="48.83975" lon="2.26292">
        <ele>91.3</ele>
        <time>2015-07-06T19:00:20.906Z</time>
      </trkpt>
      <trkpt lat="48.83968" lon="2.26288">
        <ele>91.6</ele>
        <time>2015-07-06T19:00:21.947Z</time>
      </trkpt>
      <trkpt lat="48.83963" lon="2.26282">
        <ele>92</ele>
        <time>2015-07-06T19:00:22.964Z</time>
      </trkpt>
      <trkpt lat="48.83956" lon="2.26274">
        <ele>92</ele>
        <time>2015-07-06T19:00:24.011Z</time>
      </trkpt>
      <trkpt lat="48.83951" lon="2.26267">
        <ele>91.6</ele>
        <time>2015-07-06T19:00:25.007Z</time>
      </trkpt>
      <trkpt lat="48.83947" lon="2.26258">
        <ele>91</ele>
        <time>2015-07-06T19:00:26.053Z</time>
      </trkpt>
      <trkpt lat="48.83943" lon="2.2625">
        <ele>90.6</ele>
        <time>2015-07-06T19:00:26.952Z</time>
      </trkpt>
      <trkpt lat="48.83939" lon="2.26241">
        <ele>90.4</ele>
        <time>2015-07-06T19:00:27.950Z</time>
      </trkpt>
      <trkpt lat="48.83937" lon="2.2623">
        <ele>90.1</ele>
        <time>2015-07-06T19:00:28.972Z</time>
      </trkpt>
      <trkpt lat="48.83934" lon="2.26219">
        <ele>89.9</ele>
        <time>2015-07-06T19:00:30.022Z</time>
      </trkpt>
      <trkpt lat="48.83932" lon="2.26207">
        <ele>90</ele>
        <time>2015-07-06T19:00:30.949Z</time>
      </trkpt>
      <trkpt lat="48.83928" lon="2.26196">
        <ele>90</ele>
        <time>2015-07-06T19:00:31.947Z</time>
      </trkpt>
      <trkpt lat="48.83924" lon="2.26183">
        <ele>90.2</ele>
        <time>2015-07-06T19:00:32.972Z</time>
      </trkpt>
      <trkpt lat="48.83921" lon="2.26171">
        <ele>89.7</ele>
        <time>2015-07-06T19:00:33.989Z</time>
      </trkpt>
      <trkpt lat="48.83918" lon="2.2616">
        <ele>89</ele>
        <time>2015-07-06T19:00:34.991Z</time>
      </trkpt>
      <trkpt lat="48.83915" lon="2.26149">
        <ele>88.6</ele>
        <time>2015-07-06T19:00:36.047Z</time>
      </trkpt>
      <trkpt lat="48.83911" lon="2.26137">
        <ele>88.7</ele>
        <time>2015-07-06T19:00:36.938Z</time>
      </trkpt>
      <trkpt lat="48.83908" lon="2.26126">
        <ele>89</ele>
        <time>2015-07-06T19:00:37.972Z</time>
      </trkpt>
      <trkpt lat="48.83906" lon="2.26115">
        <ele>89.4</ele>
        <time>2015-07-06T19:00:38.970Z</time>
      </trkpt>
      <trkpt lat="48.83903" lon="2.26103">
        <ele>90.2</ele>
        <time>2015-07-06T19:00:39.968Z</time>
      </trkpt>
      <trkpt lat="48.839" lon="2.26092">
        <ele>90.1</ele>
        <time>2015-07-06T19:00:40.980Z</time>
      </trkpt>
      <trkpt lat="48.83897" lon="2.26081">
        <ele>90.4</ele>
        <time>2015-07-06T19:00:42.016Z</time>
      </trkpt>
      <trkpt lat="48.83893" lon="2.26071">
        <ele>90.5</ele>
        <time>2015-07-06T19:00:43.028Z</time>
      </trkpt>
      <trkpt lat="48.8389" lon="2.26061">
        <ele>90.9</ele>
        <time>2015-07-06T19:00:43.945Z</time>
      </trkpt>
      <trkpt lat="48.83885" lon="2.2605">
        <ele>91.4</ele>
        <time>2015-07-06T19:00:44.950Z</time>
      </trkpt>
      <trkpt lat="48.8388" lon="2.2604">
        <ele>92.2</ele>
        <time>2015-07-06T19:00:45.971Z</time>
      </trkpt>
      <trkpt lat="48.83876" lon="2.26029">
        <ele>92.5</ele>
        <time>2015-07-06T19:00:46.986Z</time>
      </trkpt>
      <trkpt lat="48.83872" lon="2.26018">
        <ele>93.3</ele>
        <time>2015-07-06T19:00:48.013Z</time>
      </trkpt>
      <trkpt lat="48.83868" lon="2.26007">
        <ele>93.4</ele>
        <time>2015-07-06T19:00:49.022Z</time>
      </trkpt>
      <trkpt lat="48.83865" lon="2.25996">
        <ele>93.1</ele>
        <time>2015-07-06T19:00:50.030Z</time>
      </trkpt>
      <trkpt lat="48.83861" lon="2.25985">
        <ele>92.9</ele>
        <time>2015-07-06T19:00:50.952Z</time>
      </trkpt>
      <trkpt lat="48.83857" lon="2.25973">
        <ele>92.5</ele>
        <time>2015-07-06T19:00:51.944Z</time>
      </trkpt>
      <trkpt lat="48.83854" lon="2.25961">
        <ele>92.4</ele>
        <time>2015-07-06T19:00:52.952Z</time>
      </trkpt>
      <trkpt lat="48.83851" lon="2.25949">
        <ele>92.6</ele>
        <time>2015-07-06T19:00:53.994Z</time>
      </trkpt>
      <trkpt lat="48.83848" lon="2.25938">
        <ele>92.5</ele>
        <time>2015-07-06T19:00:54.995Z</time>
      </trkpt>
      <trkpt lat="48.83845" lon="2.25927">
        <ele>93</ele>
        <time>2015-07-06T19:00:55.999Z</time>
      </trkpt>
      <trkpt lat="48.83841" lon="2.25916">
        <ele>93.2</ele>
        <time>2015-07-06T19:00:57.010Z</time>
      </trkpt>
      <trkpt lat="48.83838" lon="2.25906">
        <ele>93.2</ele>
        <time>2015-07-06T19:00:58.024Z</time>
      </trkpt>
      <trkpt lat="48.83834" lon="2.25895">
        <ele>92.9</ele>
        <time>2015-07-06T19:00:58.947Z</time>
      </trkpt>
      <trkpt lat="48.83831" lon="2.25885">
        <ele>93.4</ele>
        <time>2015-07-06T19:01:00.163Z</time>
      </trkpt>
      <trkpt lat="48.83828" lon="2.25875">
        <ele>93.5</ele>
        <time>2015-07-06T19:01:00.981Z</time>
      </trkpt>
      <trkpt lat="48.83825" lon="2.25865">
        <ele>93.5</ele>
        <time>2015-07-06T19:01:02.216Z</time>
      </trkpt>
      <trkpt lat="48.83823" lon="2.25856">
        <ele>93.7</ele>
        <time>2015-07-06T19:01:02.927Z</time>
      </trkpt>
      <trkpt lat="48.8382" lon="2.25847">
        <ele>93.4</ele>
        <time>2015-07-06T19:01:03.927Z</time>
      </trkpt>
      <trkpt lat="48.83817" lon="2.2584">
        <ele>93.3</ele>
        <time>2015-07-06T19:01:04.919Z</time>
      </trkpt>
      <trkpt lat="48.83815" lon="2.25832">
        <ele>93.3</ele>
        <time>2015-07-06T19:01:05.970Z</time>
      </trkpt>
      <trkpt lat="48.83812" lon="2.25822">
        <ele>93.1</ele>
        <time>2015-07-06T19:01:06.979Z</time>
      </trkpt>
      <trkpt lat="48.8381" lon="2.25813">
        <ele>93</ele>
        <time>2015-07-06T19:01:07.996Z</time>
      </trkpt>
      <trkpt lat="48.83808" lon="2.25804">
        <ele>92.7</ele>
        <time>2015-07-06T19:01:09.008Z</time>
      </trkpt>
      <trkpt lat="48.83805" lon="2.25796">
        <ele>92.3</ele>
        <time>2015-07-06T19:01:09.920Z</time>
      </trkpt>
      <trkpt lat="48.83803" lon="2.25789">
        <ele>92.2</ele>
        <time>2015-07-06T19:01:10.967Z</time>
      </trkpt>
      <trkpt lat="48.838" lon="2.25776">
        <ele>92.3</ele>
        <time>2015-07-06T19:01:13.006Z</time>
      </trkpt>
      <trkpt lat="48.838" lon="2.2577">
        <ele>91.9</ele>
        <time>2015-07-06T19:01:14.011Z</time>
      </trkpt>
      <trkpt lat="48.83802" lon="2.25763">
        <ele>91.1</ele>
        <time>2015-07-06T19:01:14.956Z</time>
      </trkpt>
      <trkpt lat="48.83804" lon="2.25757">
        <ele>89.9</ele>
        <time>2015-07-06T19:01:15.948Z</time>
      </trkpt>
      <trkpt lat="48.83812" lon="2.2575">
        <ele>88.4</ele>
        <time>2015-07-06T19:01:17.999Z</time>
      </trkpt>
      <trkpt lat="48.83815" lon="2.25748">
        <ele>87.7</ele>
        <time>2015-07-06T19:01:19.024Z</time>
      </trkpt>
      <trkpt lat="48.83822" lon="2.25743">
        <ele>86.9</ele>
        <time>2015-07-06T19:01:21.946Z</time>
      </trkpt>
      <trkpt lat="48.83822" lon="2.25744">
        <ele>85.9</ele>
        <time>2015-07-06T19:01:22.985Z</time>
      </trkpt>
      <trkpt lat="48.83821" lon="2.25746">
        <ele>85.3</ele>
        <time>2015-07-06T19:02:37.991Z</time>
      </trkpt>
      <trkpt lat="48.83831" lon="2.25729">
        <ele>83.1</ele>
        <time>2015-07-06T19:02:39.017Z</time>
      </trkpt>
      <trkpt lat="48.83835" lon="2.25718">
        <ele>82.9</ele>
        <time>2015-07-06T19:02:42.006Z</time>
      </trkpt>
      <trkpt lat="48.83837" lon="2.25713">
        <ele>82.7</ele>
        <time>2015-07-06T19:02:43.008Z</time>
      </trkpt>
      <trkpt lat="48.83842" lon="2.25704">
        <ele>82.7</ele>
        <time>2015-07-06T19:02:45.030Z</time>
      </trkpt>
      <trkpt lat="48.83845" lon="2.25701">
        <ele>82.7</ele>
        <time>2015-07-06T19:02:46.031Z</time>
      </trkpt>
      <trkpt lat="48.83849" lon="2.25699">
        <ele>82.3</ele>
        <time>2015-07-06T19:02:46.945Z</time>
      </trkpt>
      <trkpt lat="48.83853" lon="2.25696">
        <ele>81.8</ele>
        <time>2015-07-06T19:02:47.998Z</time>
      </trkpt>
      <trkpt lat="48.83859" lon="2.25694">
        <ele>81.5</ele>
        <time>2015-07-06T19:02:49.015Z</time>
      </trkpt>
      <trkpt lat="48.83864" lon="2.25692">
        <ele>81.2</ele>
        <time>2015-07-06T19:02:50.019Z</time>
      </trkpt>
      <trkpt lat="48.83869" lon="2.25689">
        <ele>80.9</ele>
        <time>2015-07-06T19:02:50.946Z</time>
      </trkpt>
      <trkpt lat="48.83875" lon="2.25686">
        <ele>80.7</ele>
        <time>2015-07-06T19:02:51.952Z</time>
      </trkpt>
      <trkpt lat="48.8388" lon="2.25683">
        <ele>80.6</ele>
        <time>2015-07-06T19:02:52.974Z</time>
      </trkpt>
      <trkpt lat="48.83885" lon="2.2568">
        <ele>80.4</ele>
        <time>2015-07-06T19:02:54.013Z</time>
      </trkpt>
      <trkpt lat="48.83891" lon="2.25677">
        <ele>80.2</ele>
        <time>2015-07-06T19:02:55.026Z</time>
      </trkpt>
      <trkpt lat="48.83896" lon="2.25674">
        <ele>80.2</ele>
        <time>2015-07-06T19:02:56.029Z</time>
      </trkpt>
      <trkpt lat="48.83901" lon="2.25671">
        <ele>80.2</ele>
        <time>2015-07-06T19:02:56.946Z</time>
      </trkpt>
      <trkpt lat="48.83907" lon="2.25668">
        <ele>80.1</ele>
        <time>2015-07-06T19:02:57.949Z</time>
      </trkpt>
      <trkpt lat="48.83912" lon="2.25665">
        <ele>80.2</ele>
        <time>2015-07-06T19:02:58.947Z</time>
      </trkpt>
      <trkpt lat="48.83917" lon="2.25662">
        <ele>80.3</ele>
        <time>2015-07-06T19:03:00.046Z</time>
      </trkpt>
      <trkpt lat="48.83922" lon="2.25658">
        <ele>80.4</ele>
        <time>2015-07-06T19:03:00.917Z</time>
      </trkpt>
      <trkpt lat="48.83928" lon="2.25655">
        <ele>80.4</ele>
        <time>2015-07-06T19:03:01.946Z</time>
      </trkpt>
      <trkpt lat="48.83933" lon="2.25652">
        <ele>80.3</ele>
        <time>2015-07-06T19:03:02.941Z</time>
      </trkpt>
      <trkpt lat="48.83938" lon="2.2565">
        <ele>80.4</ele>
        <time>2015-07-06T19:03:03.953Z</time>
      </trkpt>
      <trkpt lat="48.83943" lon="2.25647">
        <ele>80.5</ele>
        <time>2015-07-06T19:03:04.971Z</time>
      </trkpt>
      <trkpt lat="48.83948" lon="2.25644">
        <ele>80.6</ele>
        <time>2015-07-06T19:03:05.969Z</time>
      </trkpt>
      <trkpt lat="48.83953" lon="2.25641">
        <ele>81</ele>
        <time>2015-07-06T19:03:07.009Z</time>
      </trkpt>
      <trkpt lat="48.83959" lon="2.25638">
        <ele>81.5</ele>
        <time>2015-07-06T19:03:07.982Z</time>
      </trkpt>
      <trkpt lat="48.83964" lon="2.25635">
        <ele>82</ele>
        <time>2015-07-06T19:03:08.920Z</time>
      </trkpt>
      <trkpt lat="48.83967" lon="2.25631">
        <ele>82.3</ele>
        <time>2015-07-06T19:03:09.950Z</time>
      </trkpt>
      <trkpt lat="48.83975" lon="2.25624">
        <ele>83.3</ele>
        <time>2015-07-06T19:03:11.981Z</time>
      </trkpt>
      <trkpt lat="48.83979" lon="2.25622">
        <ele>83.7</ele>
        <time>2015-07-06T19:03:12.987Z</time>
      </trkpt>
      <trkpt lat="48.83987" lon="2.25621">
        <ele>85.1</ele>
        <time>2015-07-06T19:03:14.946Z</time>
      </trkpt>
      <trkpt lat="48.83991" lon="2.25623">
        <ele>85.6</ele>
        <time>2015-07-06T19:03:15.954Z</time>
      </trkpt>
      <trkpt lat="48.83999" lon="2.25627">
        <ele>88.1</ele>
        <time>2015-07-06T19:03:25.969Z</time>
      </trkpt>
      <trkpt lat="48.84002" lon="2.25625">
        <ele>88.4</ele>
        <time>2015-07-06T19:03:26.993Z</time>
      </trkpt>
      <trkpt lat="48.8401" lon="2.25623">
        <ele>89.8</ele>
        <time>2015-07-06T19:03:29.018Z</time>
      </trkpt>
      <trkpt lat="48.84013" lon="2.25622">
        <ele>90.5</ele>
        <time>2015-07-06T19:03:30.100Z</time>
      </trkpt>
      <trkpt lat="48.84021" lon="2.25622">
        <ele>91</ele>
        <time>2015-07-06T19:03:31.959Z</time>
      </trkpt>
      <trkpt lat="48.84026" lon="2.25619">
        <ele>91.7</ele>
        <time>2015-07-06T19:03:32.968Z</time>
      </trkpt>
      <trkpt lat="48.8403" lon="2.25617">
        <ele>92.4</ele>
        <time>2015-07-06T19:03:33.959Z</time>
      </trkpt>
      <trkpt lat="48.84035" lon="2.25614">
        <ele>93.2</ele>
        <time>2015-07-06T19:03:34.920Z</time>
      </trkpt>
      <trkpt lat="48.8404" lon="2.25612">
        <ele>94.1</ele>
        <time>2015-07-06T19:03:36.049Z</time>
      </trkpt>
      <trkpt lat="48.84045" lon="2.2561">
        <ele>94.4</ele>
        <time>2015-07-06T19:03:37.000Z</time>
      </trkpt>
      <trkpt lat="48.84052" lon="2.25608">
        <ele>95.3</ele>
        <time>2015-07-06T19:03:38.941Z</time>
      </trkpt>
      <trkpt lat="48.84056" lon="2.25607">
        <ele>96</ele>
        <time>2015-07-06T19:03:39.946Z</time>
      </trkpt>
      <trkpt lat="48.84063" lon="2.25604">
        <ele>97.3</ele>
        <time>2015-07-06T19:03:41.979Z</time>
      </trkpt>
      <trkpt lat="48.84068" lon="2.25604">
        <ele>97.9</ele>
        <time>2015-07-06T19:03:43.213Z</time>
      </trkpt>
      <trkpt lat="48.84076" lon="2.25602">
        <ele>99.4</ele>
        <time>2015-07-06T19:03:44.920Z</time>
      </trkpt>
      <trkpt lat="48.8408" lon="2.25602">
        <ele>99.8</ele>
        <time>2015-07-06T19:03:45.945Z</time>
      </trkpt>
      <trkpt lat="48.84089" lon="2.25601">
        <ele>100.5</ele>
        <time>2015-07-06T19:03:48.004Z</time>
      </trkpt>
      <trkpt lat="48.84093" lon="2.25601">
        <ele>100.7</ele>
        <time>2015-07-06T19:03:48.918Z</time>
      </trkpt>
      <trkpt lat="48.84098" lon="2.25601">
        <ele>101</ele>
        <time>2015-07-06T19:03:49.995Z</time>
      </trkpt>
      <trkpt lat="48.84103" lon="2.256">
        <ele>101.2</ele>
        <time>2015-07-06T19:03:50.970Z</time>
      </trkpt>
      <trkpt lat="48.84109" lon="2.25601">
        <ele>101.4</ele>
        <time>2015-07-06T19:03:52.010Z</time>
      </trkpt>
      <trkpt lat="48.84115" lon="2.25602">
        <ele>101.5</ele>
        <time>2015-07-06T19:03:52.959Z</time>
      </trkpt>
      <trkpt lat="48.8412" lon="2.25604">
        <ele>101.1</ele>
        <time>2015-07-06T19:03:53.997Z</time>
      </trkpt>
      <trkpt lat="48.84125" lon="2.25604">
        <ele>100.9</ele>
        <time>2015-07-06T19:03:54.937Z</time>
      </trkpt>
      <trkpt lat="48.8413" lon="2.25604">
        <ele>101.2</ele>
        <time>2015-07-06T19:03:55.966Z</time>
      </trkpt>
      <trkpt lat="48.84135" lon="2.25604">
        <ele>101.2</ele>
        <time>2015-07-06T19:03:57.094Z</time>
      </trkpt>
      <trkpt lat="48.8414" lon="2.25604">
        <ele>101</ele>
        <time>2015-07-06T19:03:57.995Z</time>
      </trkpt>
      <trkpt lat="48.84145" lon="2.25605">
        <ele>100.7</ele>
        <time>2015-07-06T19:03:59.008Z</time>
      </trkpt>
      <trkpt lat="48.8415" lon="2.25605">
        <ele>100.6</ele>
        <time>2015-07-06T19:03:59.577Z</time>
      </trkpt>
      <trkpt lat="48.84154" lon="2.25604">
        <ele>100.5</ele>
        <time>2015-07-06T19:04:01.015Z</time>
      </trkpt>
      <trkpt lat="48.84159" lon="2.25603">
        <ele>100.4</ele>
        <time>2015-07-06T19:04:01.930Z</time>
      </trkpt>
      <trkpt lat="48.84164" lon="2.25603">
        <ele>100.3</ele>
        <time>2015-07-06T19:04:02.944Z</time>
      </trkpt>
      <trkpt lat="48.84169" lon="2.25603">
        <ele>100</ele>
        <time>2015-07-06T19:04:04.644Z</time>
      </trkpt>
      <trkpt lat="48.84174" lon="2.25603">
        <ele>99.7</ele>
        <time>2015-07-06T19:04:04.976Z</time>
      </trkpt>
      <trkpt lat="48.8418" lon="2.25603">
        <ele>99.4</ele>
        <time>2015-07-06T19:04:05.996Z</time>
      </trkpt>
      <trkpt lat="48.84186" lon="2.25603">
        <ele>99.1</ele>
        <time>2015-07-06T19:04:07.041Z</time>
      </trkpt>
      <trkpt lat="48.84191" lon="2.25602">
        <ele>99.2</ele>
        <time>2015-07-06T19:04:08.019Z</time>
      </trkpt>
      <trkpt lat="48.84197" lon="2.25601">
        <ele>98.5</ele>
        <time>2015-07-06T19:04:08.984Z</time>
      </trkpt>
      <trkpt lat="48.84202" lon="2.25601">
        <ele>98.2</ele>
        <time>2015-07-06T19:04:09.994Z</time>
      </trkpt>
      <trkpt lat="48.84207" lon="2.25601">
        <ele>98</ele>
        <time>2015-07-06T19:04:11.002Z</time>
      </trkpt>
      <trkpt lat="48.84212" lon="2.256">
        <ele>97.8</ele>
        <time>2015-07-06T19:04:12.018Z</time>
      </trkpt>
      <trkpt lat="48.84217" lon="2.25599">
        <ele>97.9</ele>
        <time>2015-07-06T19:04:13.444Z</time>
      </trkpt>
      <trkpt lat="48.84221" lon="2.25597">
        <ele>97.7</ele>
        <time>2015-07-06T19:04:13.932Z</time>
      </trkpt>
      <trkpt lat="48.84226" lon="2.25596">
        <ele>97.5</ele>
        <time>2015-07-06T19:04:14.978Z</time>
      </trkpt>
      <trkpt lat="48.84233" lon="2.25594">
        <ele>97.2</ele>
        <time>2015-07-06T19:04:16.981Z</time>
      </trkpt>
      <trkpt lat="48.84235" lon="2.25591">
        <ele>96.8</ele>
        <time>2015-07-06T19:04:18.057Z</time>
      </trkpt>
      <trkpt lat="48.84239" lon="2.25584">
        <ele>96.7</ele>
        <time>2015-07-06T19:04:19.940Z</time>
      </trkpt>
      <trkpt lat="48.84241" lon="2.2558">
        <ele>96.8</ele>
        <time>2015-07-06T19:04:20.971Z</time>
      </trkpt>
      <trkpt lat="48.84244" lon="2.25572">
        <ele>96.4</ele>
        <time>2015-07-06T19:04:22.990Z</time>
      </trkpt>
      <trkpt lat="48.84245" lon="2.25567">
        <ele>96.3</ele>
        <time>2015-07-06T19:04:24.011Z</time>
      </trkpt>
      <trkpt lat="48.84246" lon="2.25557">
        <ele>96.2</ele>
        <time>2015-07-06T19:04:25.938Z</time>
      </trkpt>
      <trkpt lat="48.84248" lon="2.25552">
        <ele>96.1</ele>
        <time>2015-07-06T19:04:26.946Z</time>
      </trkpt>
      <trkpt lat="48.8425" lon="2.2554">
        <ele>95.9</ele>
        <time>2015-07-06T19:04:28.975Z</time>
      </trkpt>
      <trkpt lat="48.84251" lon="2.25534">
        <ele>95.6</ele>
        <time>2015-07-06T19:04:30.008Z</time>
      </trkpt>
      <trkpt lat="48.84253" lon="2.25522">
        <ele>95.1</ele>
        <time>2015-07-06T19:04:31.933Z</time>
      </trkpt>
      <trkpt lat="48.84254" lon="2.25516">
        <ele>95.1</ele>
        <time>2015-07-06T19:04:32.910Z</time>
      </trkpt>
      <trkpt lat="48.84257" lon="2.25504">
        <ele>94.3</ele>
        <time>2015-07-06T19:04:34.942Z</time>
      </trkpt>
      <trkpt lat="48.84258" lon="2.25499">
        <ele>93.6</ele>
        <time>2015-07-06T19:04:36.015Z</time>
      </trkpt>
      <trkpt lat="48.84262" lon="2.2549">
        <ele>92.9</ele>
        <time>2015-07-06T19:04:37.950Z</time>
      </trkpt>
      <trkpt lat="48.84262" lon="2.25486">
        <ele>91.9</ele>
        <time>2015-07-06T19:04:39.013Z</time>
      </trkpt>
      <trkpt lat="48.84267" lon="2.25474">
        <ele>90.6</ele>
        <time>2015-07-06T19:04:42.020Z</time>
      </trkpt>
      <trkpt lat="48.84268" lon="2.2547">
        <ele>90.2</ele>
        <time>2015-07-06T19:04:43.043Z</time>
      </trkpt>
      <trkpt lat="48.84269" lon="2.25458">
        <ele>88.7</ele>
        <time>2015-07-06T19:04:45.946Z</time>
      </trkpt>
      <trkpt lat="48.84268" lon="2.25454">
        <ele>88.9</ele>
        <time>2015-07-06T19:04:46.964Z</time>
      </trkpt>
      <trkpt lat="48.84266" lon="2.25442">
        <ele>88.7</ele>
        <time>2015-07-06T19:04:50.020Z</time>
      </trkpt>
      <trkpt lat="48.84266" lon="2.25438">
        <ele>88.6</ele>
        <time>2015-07-06T19:04:50.920Z</time>
      </trkpt>
      <trkpt lat="48.84267" lon="2.25427">
        <ele>88.9</ele>
        <time>2015-07-06T19:04:54.241Z</time>
      </trkpt>
      <trkpt lat="48.84267" lon="2.25422">
        <ele>88.9</ele>
        <time>2015-07-06T19:04:54.953Z</time>
      </trkpt>
      <trkpt lat="48.84265" lon="2.25413">
        <ele>89.1</ele>
        <time>2015-07-06T19:04:56.966Z</time>
      </trkpt>
      <trkpt lat="48.84264" lon="2.25407">
        <ele>89</ele>
        <time>2015-07-06T19:04:58.006Z</time>
      </trkpt>
      <trkpt lat="48.84261" lon="2.25396">
        <ele>88.7</ele>
        <time>2015-07-06T19:05:00.009Z</time>
      </trkpt>
      <trkpt lat="48.8426" lon="2.25389">
        <ele>88.8</ele>
        <time>2015-07-06T19:05:00.982Z</time>
      </trkpt>
      <trkpt lat="48.84257" lon="2.25378">
        <ele>89.2</ele>
        <time>2015-07-06T19:05:02.968Z</time>
      </trkpt>
      <trkpt lat="48.84257" lon="2.25373">
        <ele>89.2</ele>
        <time>2015-07-06T19:05:03.977Z</time>
      </trkpt>
      <trkpt lat="48.84256" lon="2.25362">
        <ele>88.7</ele>
        <time>2015-07-06T19:05:06.104Z</time>
      </trkpt>
      <trkpt lat="48.84255" lon="2.25356">
        <ele>88.4</ele>
        <time>2015-07-06T19:05:07.004Z</time>
      </trkpt>
      <trkpt lat="48.84255" lon="2.25343">
        <ele>88.7</ele>
        <time>2015-07-06T19:05:08.991Z</time>
      </trkpt>
      <trkpt lat="48.84254" lon="2.25337">
        <ele>89</ele>
        <time>2015-07-06T19:05:09.997Z</time>
      </trkpt>
      <trkpt lat="48.84254" lon="2.25327">
        <ele>89.1</ele>
        <time>2015-07-06T19:05:11.984Z</time>
      </trkpt>
      <trkpt lat="48.84253" lon="2.25321">
        <ele>89.3</ele>
        <time>2015-07-06T19:05:12.937Z</time>
      </trkpt>
      <trkpt lat="48.84251" lon="2.2531">
        <ele>90</ele>
        <time>2015-07-06T19:05:14.945Z</time>
      </trkpt>
      <trkpt lat="48.8425" lon="2.25305">
        <ele>90.1</ele>
        <time>2015-07-06T19:05:15.982Z</time>
      </trkpt>
      <trkpt lat="48.8425" lon="2.25294">
        <ele>90.1</ele>
        <time>2015-07-06T19:05:18.032Z</time>
      </trkpt>
      <trkpt lat="48.84248" lon="2.25287">
        <ele>90.2</ele>
        <time>2015-07-06T19:05:19.042Z</time>
      </trkpt>
      <trkpt lat="48.84247" lon="2.25279">
        <ele>90.6</ele>
        <time>2015-07-06T19:05:19.948Z</time>
      </trkpt>
      <trkpt lat="48.84247" lon="2.25272">
        <ele>90.7</ele>
        <time>2015-07-06T19:05:20.943Z</time>
      </trkpt>
      <trkpt lat="48.84246" lon="2.25264">
        <ele>91</ele>
        <time>2015-07-06T19:05:21.974Z</time>
      </trkpt>
      <trkpt lat="48.84243" lon="2.25256">
        <ele>91.3</ele>
        <time>2015-07-06T19:05:23.035Z</time>
      </trkpt>
      <trkpt lat="48.8424" lon="2.25248">
        <ele>91.9</ele>
        <time>2015-07-06T19:05:24.189Z</time>
      </trkpt>
      <trkpt lat="48.84238" lon="2.25241">
        <ele>92</ele>
        <time>2015-07-06T19:05:24.957Z</time>
      </trkpt>
      <trkpt lat="48.84236" lon="2.25228">
        <ele>92.9</ele>
        <time>2015-07-06T19:05:26.961Z</time>
      </trkpt>
      <trkpt lat="48.84235" lon="2.25222">
        <ele>93</ele>
        <time>2015-07-06T19:05:27.952Z</time>
      </trkpt>
      <trkpt lat="48.84234" lon="2.25211">
        <ele>93.1</ele>
        <time>2015-07-06T19:05:30.031Z</time>
      </trkpt>
      <trkpt lat="48.84234" lon="2.25207">
        <ele>93.2</ele>
        <time>2015-07-06T19:05:30.951Z</time>
      </trkpt>
      <trkpt lat="48.84234" lon="2.25195">
        <ele>93.3</ele>
        <time>2015-07-06T19:05:34.003Z</time>
      </trkpt>
      <trkpt lat="48.84233" lon="2.2519">
        <ele>93.7</ele>
        <time>2015-07-06T19:05:35.035Z</time>
      </trkpt>
      <trkpt lat="48.84233" lon="2.2518">
        <ele>93.3</ele>
        <time>2015-07-06T19:05:37.021Z</time>
      </trkpt>
      <trkpt lat="48.84233" lon="2.25175">
        <ele>93.1</ele>
        <time>2015-07-06T19:05:37.970Z</time>
      </trkpt>
      <trkpt lat="48.84232" lon="2.25164">
        <ele>93.4</ele>
        <time>2015-07-06T19:05:40.020Z</time>
      </trkpt>
      <trkpt lat="48.84233" lon="2.25159">
        <ele>93.5</ele>
        <time>2015-07-06T19:05:41.043Z</time>
      </trkpt>
      <trkpt lat="48.84235" lon="2.25149">
        <ele>93.9</ele>
        <time>2015-07-06T19:05:43.332Z</time>
      </trkpt>
      <trkpt lat="48.84236" lon="2.25144">
        <ele>93.9</ele>
        <time>2015-07-06T19:05:43.963Z</time>
      </trkpt>
      <trkpt lat="48.84236" lon="2.25133">
        <ele>94.5</ele>
        <time>2015-07-06T19:05:45.990Z</time>
      </trkpt>
      <trkpt lat="48.84237" lon="2.25127">
        <ele>94.8</ele>
        <time>2015-07-06T19:05:47.017Z</time>
      </trkpt>
      <trkpt lat="48.8424" lon="2.25118">
        <ele>95.4</ele>
        <time>2015-07-06T19:05:48.920Z</time>
      </trkpt>
      <trkpt lat="48.8424" lon="2.25111">
        <ele>95.7</ele>
        <time>2015-07-06T19:05:49.965Z</time>
      </trkpt>
      <trkpt lat="48.8424" lon="2.251">
        <ele>95.8</ele>
        <time>2015-07-06T19:05:51.983Z</time>
      </trkpt>
      <trkpt lat="48.84239" lon="2.25094">
        <ele>95.7</ele>
        <time>2015-07-06T19:05:52.996Z</time>
      </trkpt>
      <trkpt lat="48.84237" lon="2.25082">
        <ele>95</ele>
        <time>2015-07-06T19:05:55.036Z</time>
      </trkpt>
      <trkpt lat="48.84236" lon="2.25077">
        <ele>95</ele>
        <time>2015-07-06T19:05:55.961Z</time>
      </trkpt>
      <trkpt lat="48.84233" lon="2.25068">
        <ele>94.4</ele>
        <time>2015-07-06T19:05:58.572Z</time>
      </trkpt>
      <trkpt lat="48.84231" lon="2.25064">
        <ele>94.1</ele>
        <time>2015-07-06T19:05:59.027Z</time>
      </trkpt>
      <trkpt lat="48.84228" lon="2.25055">
        <ele>93.4</ele>
        <time>2015-07-06T19:06:00.966Z</time>
      </trkpt>
      <trkpt lat="48.84227" lon="2.25049">
        <ele>93.4</ele>
        <time>2015-07-06T19:06:01.979Z</time>
      </trkpt>
      <trkpt lat="48.84228" lon="2.25038">
        <ele>93.5</ele>
        <time>2015-07-06T19:06:03.953Z</time>
      </trkpt>
      <trkpt lat="48.84229" lon="2.25033">
        <ele>93.6</ele>
        <time>2015-07-06T19:06:04.971Z</time>
      </trkpt>
      <trkpt lat="48.84231" lon="2.25022">
        <ele>93.7</ele>
        <time>2015-07-06T19:06:07.024Z</time>
      </trkpt>
      <trkpt lat="48.84232" lon="2.25018">
        <ele>93.6</ele>
        <time>2015-07-06T19:06:07.942Z</time>
      </trkpt>
      <trkpt lat="48.84236" lon="2.25008">
        <ele>93.3</ele>
        <time>2015-07-06T19:06:09.994Z</time>
      </trkpt>
      <trkpt lat="48.84237" lon="2.25002">
        <ele>93.2</ele>
        <time>2015-07-06T19:06:11.004Z</time>
      </trkpt>
      <trkpt lat="48.84241" lon="2.24992">
        <ele>92.7</ele>
        <time>2015-07-06T19:06:13.853Z</time>
      </trkpt>
      <trkpt lat="48.84242" lon="2.24987">
        <ele>92.3</ele>
        <time>2015-07-06T19:06:13.914Z</time>
      </trkpt>
      <trkpt lat="48.84245" lon="2.24976">
        <ele>91.3</ele>
        <time>2015-07-06T19:06:15.942Z</time>
      </trkpt>
      <trkpt lat="48.84246" lon="2.24971">
        <ele>91.2</ele>
        <time>2015-07-06T19:06:16.915Z</time>
      </trkpt>
      <trkpt lat="48.84249" lon="2.24962">
        <ele>91.2</ele>
        <time>2015-07-06T19:06:18.963Z</time>
      </trkpt>
      <trkpt lat="48.84251" lon="2.24957">
        <ele>91.5</ele>
        <time>2015-07-06T19:06:19.970Z</time>
      </trkpt>
      <trkpt lat="48.84252" lon="2.24945">
        <ele>91.4</ele>
        <time>2015-07-06T19:06:22.214Z</time>
      </trkpt>
      <trkpt lat="48.84254" lon="2.24939">
        <ele>91.9</ele>
        <time>2015-07-06T19:06:23.002Z</time>
      </trkpt>
      <trkpt lat="48.84257" lon="2.24928">
        <ele>91.7</ele>
        <time>2015-07-06T19:06:24.920Z</time>
      </trkpt>
      <trkpt lat="48.84258" lon="2.24923">
        <ele>91.5</ele>
        <time>2015-07-06T19:06:26.024Z</time>
      </trkpt>
      <trkpt lat="48.84261" lon="2.24915">
        <ele>91.4</ele>
        <time>2015-07-06T19:06:27.966Z</time>
      </trkpt>
      <trkpt lat="48.84263" lon="2.24911">
        <ele>91.2</ele>
        <time>2015-07-06T19:06:29.018Z</time>
      </trkpt>
      <trkpt lat="48.84268" lon="2.249">
        <ele>90.6</ele>
        <time>2015-07-06T19:06:32.645Z</time>
      </trkpt>
      <trkpt lat="48.84269" lon="2.24897">
        <ele>90.8</ele>
        <time>2015-07-06T19:06:32.928Z</time>
      </trkpt>
      <trkpt lat="48.84266" lon="2.24885">
        <ele>89.9</ele>
        <time>2015-07-06T19:06:37.705Z</time>
      </trkpt>
      <trkpt lat="48.84263" lon="2.24884">
        <ele>90</ele>
        <time>2015-07-06T19:06:37.924Z</time>
      </trkpt>
      <trkpt lat="48.84255" lon="2.24881">
        <ele>89.4</ele>
        <time>2015-07-06T19:06:41.062Z</time>
      </trkpt>
      <trkpt lat="48.84252" lon="2.24879">
        <ele>89.4</ele>
        <time>2015-07-06T19:06:42.054Z</time>
      </trkpt>
      <trkpt lat="48.84246" lon="2.24878">
        <ele>89.2</ele>
        <time>2015-07-06T19:06:44.020Z</time>
      </trkpt>
      <trkpt lat="48.84242" lon="2.24877">
        <ele>89.1</ele>
        <time>2015-07-06T19:06:45.020Z</time>
      </trkpt>
      <trkpt lat="48.84236" lon="2.24874">
        <ele>88.9</ele>
        <time>2015-07-06T19:06:46.945Z</time>
      </trkpt>
      <trkpt lat="48.84231" lon="2.24873">
        <ele>89</ele>
        <time>2015-07-06T19:06:48.065Z</time>
      </trkpt>
      <trkpt lat="48.84227" lon="2.2487">
        <ele>88.8</ele>
        <time>2015-07-06T19:06:48.994Z</time>
      </trkpt>
      <trkpt lat="48.84222" lon="2.24868">
        <ele>88.7</ele>
        <time>2015-07-06T19:06:50.005Z</time>
      </trkpt>
      <trkpt lat="48.84214" lon="2.24864">
        <ele>89</ele>
        <time>2015-07-06T19:06:51.946Z</time>
      </trkpt>
      <trkpt lat="48.84209" lon="2.24863">
        <ele>89.3</ele>
        <time>2015-07-06T19:06:52.977Z</time>
      </trkpt>
      <trkpt lat="48.84204" lon="2.24861">
        <ele>89.6</ele>
        <time>2015-07-06T19:06:54.009Z</time>
      </trkpt>
      <trkpt lat="48.842" lon="2.24859">
        <ele>89.4</ele>
        <time>2015-07-06T19:06:55.019Z</time>
      </trkpt>
      <trkpt lat="48.84195" lon="2.24857">
        <ele>89.8</ele>
        <time>2015-07-06T19:06:55.919Z</time>
      </trkpt>
      <trkpt lat="48.84191" lon="2.24854">
        <ele>89.6</ele>
        <time>2015-07-06T19:06:56.948Z</time>
      </trkpt>
      <trkpt lat="48.84187" lon="2.24852">
        <ele>89.9</ele>
        <time>2015-07-06T19:06:57.948Z</time>
      </trkpt>
      <trkpt lat="48.84182" lon="2.24849">
        <ele>89.8</ele>
        <time>2015-07-06T19:06:58.968Z</time>
      </trkpt>
      <trkpt lat="48.84178" lon="2.24846">
        <ele>89.8</ele>
        <time>2015-07-06T19:07:00.058Z</time>
      </trkpt>
      <trkpt lat="48.84172" lon="2.24842">
        <ele>90</ele>
        <time>2015-07-06T19:07:00.951Z</time>
      </trkpt>
      <trkpt lat="48.84167" lon="2.24838">
        <ele>90</ele>
        <time>2015-07-06T19:07:02.268Z</time>
      </trkpt>
      <trkpt lat="48.84161" lon="2.24834">
        <ele>89.9</ele>
        <time>2015-07-06T19:07:03.074Z</time>
      </trkpt>
      <trkpt lat="48.84155" lon="2.2483">
        <ele>89.9</ele>
        <time>2015-07-06T19:07:03.954Z</time>
      </trkpt>
      <trkpt lat="48.84149" lon="2.24825">
        <ele>89.7</ele>
        <time>2015-07-06T19:07:04.965Z</time>
      </trkpt>
      <trkpt lat="48.84143" lon="2.2482">
        <ele>89.7</ele>
        <time>2015-07-06T19:07:05.990Z</time>
      </trkpt>
      <trkpt lat="48.84137" lon="2.24816">
        <ele>89.8</ele>
        <time>2015-07-06T19:07:07.002Z</time>
      </trkpt>
      <trkpt lat="48.84131" lon="2.24813">
        <ele>89.3</ele>
        <time>2015-07-06T19:07:08.010Z</time>
      </trkpt>
      <trkpt lat="48.84124" lon="2.2481">
        <ele>89.1</ele>
        <time>2015-07-06T19:07:08.935Z</time>
      </trkpt>
      <trkpt lat="48.84117" lon="2.24807">
        <ele>89.1</ele>
        <time>2015-07-06T19:07:09.935Z</time>
      </trkpt>
      <trkpt lat="48.8411" lon="2.24806">
        <ele>89</ele>
        <time>2015-07-06T19:07:10.966Z</time>
      </trkpt>
      <trkpt lat="48.84103" lon="2.24803">
        <ele>88.9</ele>
        <time>2015-07-06T19:07:12.005Z</time>
      </trkpt>
      <trkpt lat="48.84096" lon="2.24801">
        <ele>89</ele>
        <time>2015-07-06T19:07:13.004Z</time>
      </trkpt>
      <trkpt lat="48.8409" lon="2.24799">
        <ele>89.1</ele>
        <time>2015-07-06T19:07:14.018Z</time>
      </trkpt>
      <trkpt lat="48.84083" lon="2.24796">
        <ele>89.4</ele>
        <time>2015-07-06T19:07:14.939Z</time>
      </trkpt>
      <trkpt lat="48.84077" lon="2.24794">
        <ele>89.7</ele>
        <time>2015-07-06T19:07:15.969Z</time>
      </trkpt>
      <trkpt lat="48.8407" lon="2.24791">
        <ele>89.8</ele>
        <time>2015-07-06T19:07:16.965Z</time>
      </trkpt>
      <trkpt lat="48.84065" lon="2.24788">
        <ele>89.6</ele>
        <time>2015-07-06T19:07:18.003Z</time>
      </trkpt>
      <trkpt lat="48.8406" lon="2.24784">
        <ele>89.3</ele>
        <time>2015-07-06T19:07:19.021Z</time>
      </trkpt>
      <trkpt lat="48.84054" lon="2.2478">
        <ele>89</ele>
        <time>2015-07-06T19:07:19.936Z</time>
      </trkpt>
      <trkpt lat="48.8405" lon="2.24776">
        <ele>89.1</ele>
        <time>2015-07-06T19:07:20.942Z</time>
      </trkpt>
      <trkpt lat="48.84046" lon="2.24773">
        <ele>89.1</ele>
        <time>2015-07-06T19:07:21.959Z</time>
      </trkpt>
      <trkpt lat="48.84042" lon="2.2477">
        <ele>89</ele>
        <time>2015-07-06T19:07:22.972Z</time>
      </trkpt>
      <trkpt lat="48.84034" lon="2.24763">
        <ele>88.9</ele>
        <time>2015-07-06T19:07:24.996Z</time>
      </trkpt>
      <trkpt lat="48.8403" lon="2.24759">
        <ele>88.7</ele>
        <time>2015-07-06T19:07:26.007Z</time>
      </trkpt>
      <trkpt lat="48.84025" lon="2.24756">
        <ele>88.7</ele>
        <time>2015-07-06T19:07:26.964Z</time>
      </trkpt>
      <trkpt lat="48.84021" lon="2.24754">
        <ele>88.7</ele>
        <time>2015-07-06T19:07:27.976Z</time>
      </trkpt>
      <trkpt lat="48.84016" lon="2.24752">
        <ele>88.7</ele>
        <time>2015-07-06T19:07:28.980Z</time>
      </trkpt>
      <trkpt lat="48.8401" lon="2.24749">
        <ele>88.6</ele>
        <time>2015-07-06T19:07:29.994Z</time>
      </trkpt>
      <trkpt lat="48.84005" lon="2.24747">
        <ele>88.6</ele>
        <time>2015-07-06T19:07:31.003Z</time>
      </trkpt>
      <trkpt lat="48.84" lon="2.24745">
        <ele>89</ele>
        <time>2015-07-06T19:07:32.019Z</time>
      </trkpt>
      <trkpt lat="48.83996" lon="2.24743">
        <ele>89.8</ele>
        <time>2015-07-06T19:07:33.033Z</time>
      </trkpt>
      <trkpt lat="48.83991" lon="2.24741">
        <ele>89.8</ele>
        <time>2015-07-06T19:07:33.968Z</time>
      </trkpt>
      <trkpt lat="48.83987" lon="2.24737">
        <ele>89.6</ele>
        <time>2015-07-06T19:07:34.962Z</time>
      </trkpt>
      <trkpt lat="48.83983" lon="2.24735">
        <ele>89.8</ele>
        <time>2015-07-06T19:07:35.997Z</time>
      </trkpt>
      <trkpt lat="48.83975" lon="2.24729">
        <ele>90</ele>
        <time>2015-07-06T19:07:38.020Z</time>
      </trkpt>
      <trkpt lat="48.83972" lon="2.24724">
        <ele>89.9</ele>
        <time>2015-07-06T19:07:39.030Z</time>
      </trkpt>
      <trkpt lat="48.83965" lon="2.24716">
        <ele>90.6</ele>
        <time>2015-07-06T19:07:40.950Z</time>
      </trkpt>
      <trkpt lat="48.83962" lon="2.24712">
        <ele>90.5</ele>
        <time>2015-07-06T19:07:42.022Z</time>
      </trkpt>
      <trkpt lat="48.83958" lon="2.24709">
        <ele>90.2</ele>
        <time>2015-07-06T19:07:42.949Z</time>
      </trkpt>
      <trkpt lat="48.83953" lon="2.24707">
        <ele>90.2</ele>
        <time>2015-07-06T19:07:43.952Z</time>
      </trkpt>
      <trkpt lat="48.83948" lon="2.24705">
        <ele>90.1</ele>
        <time>2015-07-06T19:07:44.961Z</time>
      </trkpt>
      <trkpt lat="48.83944" lon="2.24704">
        <ele>89.9</ele>
        <time>2015-07-06T19:07:45.973Z</time>
      </trkpt>
      <trkpt lat="48.83936" lon="2.24702">
        <ele>90.1</ele>
        <time>2015-07-06T19:07:48.071Z</time>
      </trkpt>
      <trkpt lat="48.83932" lon="2.24702">
        <ele>90.2</ele>
        <time>2015-07-06T19:07:48.922Z</time>
      </trkpt>
      <trkpt lat="48.83925" lon="2.24698">
        <ele>89.8</ele>
        <time>2015-07-06T19:07:50.972Z</time>
      </trkpt>
      <trkpt lat="48.83922" lon="2.24697">
        <ele>89.6</ele>
        <time>2015-07-06T19:07:51.928Z</time>
      </trkpt>
      <trkpt lat="48.83917" lon="2.24694">
        <ele>89.3</ele>
        <time>2015-07-06T19:07:54.989Z</time>
      </trkpt>
      <trkpt lat="48.83917" lon="2.24693">
        <ele>89.7</ele>
        <time>2015-07-06T19:07:56.001Z</time>
      </trkpt>
      <trkpt lat="48.83917" lon="2.24693">
        <ele>90.6</ele>
        <time>2015-07-06T19:08:24.005Z</time>
      </trkpt>
      <trkpt lat="48.8391" lon="2.24682">
        <ele>92.5</ele>
        <time>2015-07-06T19:08:24.989Z</time>
      </trkpt>
      <trkpt lat="48.8391" lon="2.24669">
        <ele>92.5</ele>
        <time>2015-07-06T19:08:28.036Z</time>
      </trkpt>
      <trkpt lat="48.8391" lon="2.24663">
        <ele>92.4</ele>
        <time>2015-07-06T19:08:28.950Z</time>
      </trkpt>
      <trkpt lat="48.83912" lon="2.2465">
        <ele>92.6</ele>
        <time>2015-07-06T19:08:31.029Z</time>
      </trkpt>
      <trkpt lat="48.83912" lon="2.24644">
        <ele>92.5</ele>
        <time>2015-07-06T19:08:31.921Z</time>
      </trkpt>
      <trkpt lat="48.83914" lon="2.24632">
        <ele>92.7</ele>
        <time>2015-07-06T19:08:33.969Z</time>
      </trkpt>
      <trkpt lat="48.83914" lon="2.24625">
        <ele>93.3</ele>
        <time>2015-07-06T19:08:34.976Z</time>
      </trkpt>
      <trkpt lat="48.83914" lon="2.24618">
        <ele>93.7</ele>
        <time>2015-07-06T19:08:35.984Z</time>
      </trkpt>
      <trkpt lat="48.83913" lon="2.2461">
        <ele>93.6</ele>
        <time>2015-07-06T19:08:36.993Z</time>
      </trkpt>
      <trkpt lat="48.83912" lon="2.24601">
        <ele>93.2</ele>
        <time>2015-07-06T19:08:37.993Z</time>
      </trkpt>
      <trkpt lat="48.83911" lon="2.24592">
        <ele>93.1</ele>
        <time>2015-07-06T19:08:39.006Z</time>
      </trkpt>
      <trkpt lat="48.83911" lon="2.24583">
        <ele>93.2</ele>
        <time>2015-07-06T19:08:39.941Z</time>
      </trkpt>
      <trkpt lat="48.83912" lon="2.24575">
        <ele>92.8</ele>
        <time>2015-07-06T19:08:40.967Z</time>
      </trkpt>
      <trkpt lat="48.83918" lon="2.24566">
        <ele>92.3</ele>
        <time>2015-07-06T19:08:42.006Z</time>
      </trkpt>
      <trkpt lat="48.83921" lon="2.24558">
        <ele>92</ele>
        <time>2015-07-06T19:08:43.000Z</time>
      </trkpt>
      <trkpt lat="48.83923" lon="2.2455">
        <ele>92</ele>
        <time>2015-07-06T19:08:44.017Z</time>
      </trkpt>
      <trkpt lat="48.83923" lon="2.2454">
        <ele>92.1</ele>
        <time>2015-07-06T19:08:44.918Z</time>
      </trkpt>
      <trkpt lat="48.83922" lon="2.24531">
        <ele>91.7</ele>
        <time>2015-07-06T19:08:45.944Z</time>
      </trkpt>
      <trkpt lat="48.83922" lon="2.24522">
        <ele>91.5</ele>
        <time>2015-07-06T19:08:46.958Z</time>
      </trkpt>
      <trkpt lat="48.83923" lon="2.24513">
        <ele>91.2</ele>
        <time>2015-07-06T19:08:47.982Z</time>
      </trkpt>
      <trkpt lat="48.83923" lon="2.24504">
        <ele>90.8</ele>
        <time>2015-07-06T19:08:48.969Z</time>
      </trkpt>
      <trkpt lat="48.83923" lon="2.24494">
        <ele>90.7</ele>
        <time>2015-07-06T19:08:49.979Z</time>
      </trkpt>
      <trkpt lat="48.83924" lon="2.24485">
        <ele>90.8</ele>
        <time>2015-07-06T19:08:50.994Z</time>
      </trkpt>
      <trkpt lat="48.83924" lon="2.24474">
        <ele>90.7</ele>
        <time>2015-07-06T19:08:51.994Z</time>
      </trkpt>
      <trkpt lat="48.83925" lon="2.24464">
        <ele>90.9</ele>
        <time>2015-07-06T19:08:53.007Z</time>
      </trkpt>
      <trkpt lat="48.83926" lon="2.24454">
        <ele>90.9</ele>
        <time>2015-07-06T19:08:54.018Z</time>
      </trkpt>
      <trkpt lat="48.83927" lon="2.24443">
        <ele>90</ele>
        <time>2015-07-06T19:08:55.024Z</time>
      </trkpt>
      <trkpt lat="48.83928" lon="2.24433">
        <ele>90</ele>
        <time>2015-07-06T19:08:55.940Z</time>
      </trkpt>
      <trkpt lat="48.83928" lon="2.24424">
        <ele>89.9</ele>
        <time>2015-07-06T19:08:56.948Z</time>
      </trkpt>
      <trkpt lat="48.83929" lon="2.24414">
        <ele>90</ele>
        <time>2015-07-06T19:08:57.953Z</time>
      </trkpt>
      <trkpt lat="48.8393" lon="2.24404">
        <ele>89.8</ele>
        <time>2015-07-06T19:08:58.958Z</time>
      </trkpt>
      <trkpt lat="48.83931" lon="2.24395">
        <ele>89.7</ele>
        <time>2015-07-06T19:09:00.020Z</time>
      </trkpt>
      <trkpt lat="48.83932" lon="2.24385">
        <ele>90</ele>
        <time>2015-07-06T19:09:01.017Z</time>
      </trkpt>
      <trkpt lat="48.83934" lon="2.24376">
        <ele>89.9</ele>
        <time>2015-07-06T19:09:01.938Z</time>
      </trkpt>
      <trkpt lat="48.83935" lon="2.24366">
        <ele>90.3</ele>
        <time>2015-07-06T19:09:02.969Z</time>
      </trkpt>
      <trkpt lat="48.83936" lon="2.24355">
        <ele>90.8</ele>
        <time>2015-07-06T19:09:03.981Z</time>
      </trkpt>
      <trkpt lat="48.83935" lon="2.24344">
        <ele>90.8</ele>
        <time>2015-07-06T19:09:04.989Z</time>
      </trkpt>
      <trkpt lat="48.83935" lon="2.24332">
        <ele>91.6</ele>
        <time>2015-07-06T19:09:06.061Z</time>
      </trkpt>
      <trkpt lat="48.83935" lon="2.2432">
        <ele>92.2</ele>
        <time>2015-07-06T19:09:06.935Z</time>
      </trkpt>
      <trkpt lat="48.83936" lon="2.24307">
        <ele>92.1</ele>
        <time>2015-07-06T19:09:07.964Z</time>
      </trkpt>
      <trkpt lat="48.83937" lon="2.24294">
        <ele>92.1</ele>
        <time>2015-07-06T19:09:08.994Z</time>
      </trkpt>
      <trkpt lat="48.83938" lon="2.24283">
        <ele>92.1</ele>
        <time>2015-07-06T19:09:09.907Z</time>
      </trkpt>
      <trkpt lat="48.83938" lon="2.2427">
        <ele>92.4</ele>
        <time>2015-07-06T19:09:10.930Z</time>
      </trkpt>
      <trkpt lat="48.8394" lon="2.24258">
        <ele>92.9</ele>
        <time>2015-07-06T19:09:11.975Z</time>
      </trkpt>
      <trkpt lat="48.83942" lon="2.24246">
        <ele>92.8</ele>
        <time>2015-07-06T19:09:12.978Z</time>
      </trkpt>
      <trkpt lat="48.83944" lon="2.24234">
        <ele>92.9</ele>
        <time>2015-07-06T19:09:13.932Z</time>
      </trkpt>
      <trkpt lat="48.83946" lon="2.24222">
        <ele>92.9</ele>
        <time>2015-07-06T19:09:14.922Z</time>
      </trkpt>
      <trkpt lat="48.83946" lon="2.2421">
        <ele>92.7</ele>
        <time>2015-07-06T19:09:15.936Z</time>
      </trkpt>
      <trkpt lat="48.83947" lon="2.24197">
        <ele>92.7</ele>
        <time>2015-07-06T19:09:16.944Z</time>
      </trkpt>
      <trkpt lat="48.83949" lon="2.24185">
        <ele>93.1</ele>
        <time>2015-07-06T19:09:17.973Z</time>
      </trkpt>
      <trkpt lat="48.8395" lon="2.24172">
        <ele>93.3</ele>
        <time>2015-07-06T19:09:18.988Z</time>
      </trkpt>
      <trkpt lat="48.83951" lon="2.24159">
        <ele>93</ele>
        <time>2015-07-06T19:09:20.005Z</time>
      </trkpt>
      <trkpt lat="48.83952" lon="2.24146">
        <ele>93.2</ele>
        <time>2015-07-06T19:09:20.933Z</time>
      </trkpt>
      <trkpt lat="48.83953" lon="2.24133">
        <ele>93.1</ele>
        <time>2015-07-06T19:09:21.901Z</time>
      </trkpt>
      <trkpt lat="48.83954" lon="2.2412">
        <ele>92.8</ele>
        <time>2015-07-06T19:09:22.942Z</time>
      </trkpt>
      <trkpt lat="48.83955" lon="2.24107">
        <ele>92.7</ele>
        <time>2015-07-06T19:09:23.980Z</time>
      </trkpt>
      <trkpt lat="48.83957" lon="2.24094">
        <ele>93.3</ele>
        <time>2015-07-06T19:09:24.981Z</time>
      </trkpt>
      <trkpt lat="48.83958" lon="2.24082">
        <ele>93.7</ele>
        <time>2015-07-06T19:09:25.985Z</time>
      </trkpt>
      <trkpt lat="48.83959" lon="2.24069">
        <ele>93.7</ele>
        <time>2015-07-06T19:09:26.996Z</time>
      </trkpt>
      <trkpt lat="48.83959" lon="2.24057">
        <ele>93.7</ele>
        <time>2015-07-06T19:09:28.019Z</time>
      </trkpt>
      <trkpt lat="48.83961" lon="2.24046">
        <ele>93.5</ele>
        <time>2015-07-06T19:09:29.019Z</time>
      </trkpt>
      <trkpt lat="48.83962" lon="2.24035">
        <ele>93.3</ele>
        <time>2015-07-06T19:09:30.022Z</time>
      </trkpt>
      <trkpt lat="48.83963" lon="2.24025">
        <ele>93.4</ele>
        <time>2015-07-06T19:09:30.949Z</time>
      </trkpt>
      <trkpt lat="48.83963" lon="2.24016">
        <ele>94.2</ele>
        <time>2015-07-06T19:09:31.938Z</time>
      </trkpt>
      <trkpt lat="48.83965" lon="2.24009">
        <ele>94.2</ele>
        <time>2015-07-06T19:09:32.941Z</time>
      </trkpt>
      <trkpt lat="48.83968" lon="2.23997">
        <ele>85.9</ele>
        <time>2015-07-06T19:09:56.958Z</time>
      </trkpt>
      <trkpt lat="48.83969" lon="2.23993">
        <ele>85.1</ele>
        <time>2015-07-06T19:09:57.980Z</time>
      </trkpt>
      <trkpt lat="48.83969" lon="2.23981">
        <ele>84.7</ele>
        <time>2015-07-06T19:10:00.029Z</time>
      </trkpt>
      <trkpt lat="48.8397" lon="2.23975">
        <ele>84.6</ele>
        <time>2015-07-06T19:10:00.958Z</time>
      </trkpt>
      <trkpt lat="48.8397" lon="2.23968">
        <ele>84.9</ele>
        <time>2015-07-06T19:10:01.952Z</time>
      </trkpt>
      <trkpt lat="48.8397" lon="2.23961">
        <ele>85.1</ele>
        <time>2015-07-06T19:10:02.955Z</time>
      </trkpt>
      <trkpt lat="48.83969" lon="2.23954">
        <ele>85.1</ele>
        <time>2015-07-06T19:10:03.973Z</time>
      </trkpt>
      <trkpt lat="48.83969" lon="2.23946">
        <ele>85.1</ele>
        <time>2015-07-06T19:10:05.161Z</time>
      </trkpt>
      <trkpt lat="48.83968" lon="2.23938">
        <ele>85.1</ele>
        <time>2015-07-06T19:10:06.012Z</time>
      </trkpt>
      <trkpt lat="48.83967" lon="2.2393">
        <ele>85.3</ele>
        <time>2015-07-06T19:10:07.021Z</time>
      </trkpt>
      <trkpt lat="48.83967" lon="2.23921">
        <ele>85.4</ele>
        <time>2015-07-06T19:10:08.028Z</time>
      </trkpt>
      <trkpt lat="48.83967" lon="2.23912">
        <ele>85.5</ele>
        <time>2015-07-06T19:10:08.941Z</time>
      </trkpt>
      <trkpt lat="48.8397" lon="2.23904">
        <ele>85.9</ele>
        <time>2015-07-06T19:10:09.937Z</time>
      </trkpt>
      <trkpt lat="48.83971" lon="2.23895">
        <ele>85.9</ele>
        <time>2015-07-06T19:10:10.947Z</time>
      </trkpt>
      <trkpt lat="48.83973" lon="2.23886">
        <ele>86.1</ele>
        <time>2015-07-06T19:10:12.012Z</time>
      </trkpt>
      <trkpt lat="48.83975" lon="2.23875">
        <ele>86.3</ele>
        <time>2015-07-06T19:10:12.991Z</time>
      </trkpt>
      <trkpt lat="48.83975" lon="2.23862">
        <ele>85.9</ele>
        <time>2015-07-06T19:10:13.949Z</time>
      </trkpt>
      <trkpt lat="48.83976" lon="2.23851">
        <ele>86.3</ele>
        <time>2015-07-06T19:10:14.945Z</time>
      </trkpt>
      <trkpt lat="48.83976" lon="2.23838">
        <ele>87</ele>
        <time>2015-07-06T19:10:15.985Z</time>
      </trkpt>
      <trkpt lat="48.83977" lon="2.23826">
        <ele>87.2</ele>
        <time>2015-07-06T19:10:16.964Z</time>
      </trkpt>
      <trkpt lat="48.83977" lon="2.23814">
        <ele>87.7</ele>
        <time>2015-07-06T19:10:18.016Z</time>
      </trkpt>
      <trkpt lat="48.83979" lon="2.23802">
        <ele>88.1</ele>
        <time>2015-07-06T19:10:18.964Z</time>
      </trkpt>
      <trkpt lat="48.8398" lon="2.23788">
        <ele>88.5</ele>
        <time>2015-07-06T19:10:19.927Z</time>
      </trkpt>
      <trkpt lat="48.83981" lon="2.23776">
        <ele>88.8</ele>
        <time>2015-07-06T19:10:20.937Z</time>
      </trkpt>
      <trkpt lat="48.83984" lon="2.23764">
        <ele>88.8</ele>
        <time>2015-07-06T19:10:21.948Z</time>
      </trkpt>
      <trkpt lat="48.83986" lon="2.23752">
        <ele>88.7</ele>
        <time>2015-07-06T19:10:22.964Z</time>
      </trkpt>
      <trkpt lat="48.83988" lon="2.2374">
        <ele>88.7</ele>
        <time>2015-07-06T19:10:25.542Z</time>
      </trkpt>
      <trkpt lat="48.83989" lon="2.23727">
        <ele>88.8</ele>
        <time>2015-07-06T19:10:26.564Z</time>
      </trkpt>
      <trkpt lat="48.8399" lon="2.23713">
        <ele>88.9</ele>
        <time>2015-07-06T19:10:27.604Z</time>
      </trkpt>
      <trkpt lat="48.83991" lon="2.237">
        <ele>89</ele>
        <time>2015-07-06T19:10:28.592Z</time>
      </trkpt>
      <trkpt lat="48.83993" lon="2.23688">
        <ele>89</ele>
        <time>2015-07-06T19:10:29.496Z</time>
      </trkpt>
      <trkpt lat="48.83994" lon="2.23676">
        <ele>89</ele>
        <time>2015-07-06T19:10:30.509Z</time>
      </trkpt>
      <trkpt lat="48.83995" lon="2.23662">
        <ele>88.7</ele>
        <time>2015-07-06T19:10:31.584Z</time>
      </trkpt>
      <trkpt lat="48.83996" lon="2.23649">
        <ele>88.4</ele>
        <time>2015-07-06T19:10:32.603Z</time>
      </trkpt>
      <trkpt lat="48.83997" lon="2.23636">
        <ele>88.5</ele>
        <time>2015-07-06T19:10:33.523Z</time>
      </trkpt>
      <trkpt lat="48.83998" lon="2.23624">
        <ele>88.8</ele>
        <time>2015-07-06T19:10:34.549Z</time>
      </trkpt>
      <trkpt lat="48.83999" lon="2.23611">
        <ele>89</ele>
        <time>2015-07-06T19:10:35.557Z</time>
      </trkpt>
      <trkpt lat="48.84001" lon="2.23598">
        <ele>88.8</ele>
        <time>2015-07-06T19:10:36.556Z</time>
      </trkpt>
      <trkpt lat="48.84002" lon="2.23586">
        <ele>88.8</ele>
        <time>2015-07-06T19:10:37.569Z</time>
      </trkpt>
      <trkpt lat="48.84003" lon="2.23573">
        <ele>89</ele>
        <time>2015-07-06T19:10:38.580Z</time>
      </trkpt>
      <trkpt lat="48.84005" lon="2.23562">
        <ele>88.3</ele>
        <time>2015-07-06T19:10:39.586Z</time>
      </trkpt>
      <trkpt lat="48.84007" lon="2.23551">
        <ele>88.1</ele>
        <time>2015-07-06T19:10:40.591Z</time>
      </trkpt>
      <trkpt lat="48.84008" lon="2.23539">
        <ele>88.3</ele>
        <time>2015-07-06T19:10:41.502Z</time>
      </trkpt>
      <trkpt lat="48.84008" lon="2.23526">
        <ele>88.2</ele>
        <time>2015-07-06T19:10:42.534Z</time>
      </trkpt>
      <trkpt lat="48.84009" lon="2.23514">
        <ele>88.5</ele>
        <time>2015-07-06T19:10:43.538Z</time>
      </trkpt>
      <trkpt lat="48.8401" lon="2.23502">
        <ele>88.8</ele>
        <time>2015-07-06T19:10:44.572Z</time>
      </trkpt>
      <trkpt lat="48.84012" lon="2.2349">
        <ele>88.8</ele>
        <time>2015-07-06T19:10:45.560Z</time>
      </trkpt>
      <trkpt lat="48.84014" lon="2.23478">
        <ele>88.4</ele>
        <time>2015-07-06T19:10:46.566Z</time>
      </trkpt>
      <trkpt lat="48.84015" lon="2.23466">
        <ele>87.9</ele>
        <time>2015-07-06T19:10:47.575Z</time>
      </trkpt>
      <trkpt lat="48.84016" lon="2.23454">
        <ele>87.5</ele>
        <time>2015-07-06T19:10:48.581Z</time>
      </trkpt>
      <trkpt lat="48.84017" lon="2.23441">
        <ele>87.3</ele>
        <time>2015-07-06T19:10:49.594Z</time>
      </trkpt>
      <trkpt lat="48.84018" lon="2.23428">
        <ele>87.4</ele>
        <time>2015-07-06T19:10:50.606Z</time>
      </trkpt>
      <trkpt lat="48.84019" lon="2.23415">
        <ele>87.4</ele>
        <time>2015-07-06T19:10:51.522Z</time>
      </trkpt>
      <trkpt lat="48.8402" lon="2.23403">
        <ele>87.5</ele>
        <time>2015-07-06T19:10:52.525Z</time>
      </trkpt>
      <trkpt lat="48.84021" lon="2.2339">
        <ele>87.6</ele>
        <time>2015-07-06T19:10:53.539Z</time>
      </trkpt>
      <trkpt lat="48.84021" lon="2.23377">
        <ele>87.6</ele>
        <time>2015-07-06T19:10:54.560Z</time>
      </trkpt>
      <trkpt lat="48.84021" lon="2.23364">
        <ele>88</ele>
        <time>2015-07-06T19:10:55.555Z</time>
      </trkpt>
      <trkpt lat="48.84021" lon="2.23351">
        <ele>88.4</ele>
        <time>2015-07-06T19:10:56.561Z</time>
      </trkpt>
      <trkpt lat="48.84022" lon="2.23339">
        <ele>88.3</ele>
        <time>2015-07-06T19:10:57.514Z</time>
      </trkpt>
      <trkpt lat="48.84022" lon="2.23326">
        <ele>88.8</ele>
        <time>2015-07-06T19:10:58.545Z</time>
      </trkpt>
      <trkpt lat="48.84023" lon="2.23314">
        <ele>88.8</ele>
        <time>2015-07-06T19:10:59.554Z</time>
      </trkpt>
      <trkpt lat="48.84024" lon="2.23301">
        <ele>89</ele>
        <time>2015-07-06T19:11:00.494Z</time>
      </trkpt>
      <trkpt lat="48.84025" lon="2.23289">
        <ele>89.1</ele>
        <time>2015-07-06T19:11:01.524Z</time>
      </trkpt>
      <trkpt lat="48.84026" lon="2.23277">
        <ele>89.1</ele>
        <time>2015-07-06T19:11:02.537Z</time>
      </trkpt>
      <trkpt lat="48.84027" lon="2.23266">
        <ele>89.2</ele>
        <time>2015-07-06T19:11:03.555Z</time>
      </trkpt>
      <trkpt lat="48.84027" lon="2.23254">
        <ele>89</ele>
        <time>2015-07-06T19:11:04.605Z</time>
      </trkpt>
      <trkpt lat="48.84027" lon="2.23242">
        <ele>88.7</ele>
        <time>2015-07-06T19:11:05.518Z</time>
      </trkpt>
      <trkpt lat="48.84028" lon="2.23231">
        <ele>88.2</ele>
        <time>2015-07-06T19:11:06.529Z</time>
      </trkpt>
      <trkpt lat="48.84029" lon="2.2322">
        <ele>88.8</ele>
        <time>2015-07-06T19:11:07.562Z</time>
      </trkpt>
      <trkpt lat="48.84031" lon="2.23208">
        <ele>88.9</ele>
        <time>2015-07-06T19:11:08.553Z</time>
      </trkpt>
      <trkpt lat="48.84032" lon="2.23196">
        <ele>88.8</ele>
        <time>2015-07-06T19:11:09.566Z</time>
      </trkpt>
      <trkpt lat="48.84033" lon="2.23185">
        <ele>88.8</ele>
        <time>2015-07-06T19:11:10.575Z</time>
      </trkpt>
      <trkpt lat="48.84035" lon="2.23173">
        <ele>88.9</ele>
        <time>2015-07-06T19:11:11.592Z</time>
      </trkpt>
      <trkpt lat="48.84037" lon="2.23162">
        <ele>88.9</ele>
        <time>2015-07-06T19:11:12.591Z</time>
      </trkpt>
      <trkpt lat="48.84039" lon="2.2315">
        <ele>88.8</ele>
        <time>2015-07-06T19:11:13.621Z</time>
      </trkpt>
      <trkpt lat="48.84041" lon="2.23139">
        <ele>88.8</ele>
        <time>2015-07-06T19:11:14.523Z</time>
      </trkpt>
      <trkpt lat="48.84043" lon="2.23129">
        <ele>88.7</ele>
        <time>2015-07-06T19:11:15.547Z</time>
      </trkpt>
      <trkpt lat="48.84045" lon="2.23117">
        <ele>88.5</ele>
        <time>2015-07-06T19:11:16.545Z</time>
      </trkpt>
      <trkpt lat="48.84046" lon="2.23106">
        <ele>88.1</ele>
        <time>2015-07-06T19:11:17.558Z</time>
      </trkpt>
      <trkpt lat="48.84048" lon="2.23094">
        <ele>88.5</ele>
        <time>2015-07-06T19:11:18.570Z</time>
      </trkpt>
      <trkpt lat="48.84048" lon="2.23082">
        <ele>88.8</ele>
        <time>2015-07-06T19:11:19.579Z</time>
      </trkpt>
      <trkpt lat="48.84049" lon="2.23071">
        <ele>88.1</ele>
        <time>2015-07-06T19:11:20.589Z</time>
      </trkpt>
      <trkpt lat="48.8405" lon="2.23059">
        <ele>88.7</ele>
        <time>2015-07-06T19:11:21.511Z</time>
      </trkpt>
      <trkpt lat="48.84051" lon="2.23049">
        <ele>88.3</ele>
        <time>2015-07-06T19:11:22.527Z</time>
      </trkpt>
      <trkpt lat="48.84052" lon="2.23038">
        <ele>88.5</ele>
        <time>2015-07-06T19:11:23.559Z</time>
      </trkpt>
      <trkpt lat="48.84053" lon="2.23027">
        <ele>88.5</ele>
        <time>2015-07-06T19:11:24.552Z</time>
      </trkpt>
      <trkpt lat="48.84054" lon="2.23016">
        <ele>88.3</ele>
        <time>2015-07-06T19:11:25.566Z</time>
      </trkpt>
      <trkpt lat="48.84055" lon="2.23004">
        <ele>88.4</ele>
        <time>2015-07-06T19:11:26.580Z</time>
      </trkpt>
      <trkpt lat="48.84055" lon="2.22993">
        <ele>88</ele>
        <time>2015-07-06T19:11:27.598Z</time>
      </trkpt>
      <trkpt lat="48.84054" lon="2.22982">
        <ele>88.1</ele>
        <time>2015-07-06T19:11:28.480Z</time>
      </trkpt>
      <trkpt lat="48.84054" lon="2.22971">
        <ele>88.3</ele>
        <time>2015-07-06T19:11:29.513Z</time>
      </trkpt>
      <trkpt lat="48.84055" lon="2.22961">
        <ele>88.7</ele>
        <time>2015-07-06T19:11:30.513Z</time>
      </trkpt>
      <trkpt lat="48.84056" lon="2.22952">
        <ele>88.8</ele>
        <time>2015-07-06T19:11:31.594Z</time>
      </trkpt>
      <trkpt lat="48.84057" lon="2.22943">
        <ele>88.9</ele>
        <time>2015-07-06T19:11:32.587Z</time>
      </trkpt>
      <trkpt lat="48.84058" lon="2.22933">
        <ele>88.6</ele>
        <time>2015-07-06T19:11:33.491Z</time>
      </trkpt>
      <trkpt lat="48.84058" lon="2.22924">
        <ele>88.7</ele>
        <time>2015-07-06T19:11:34.503Z</time>
      </trkpt>
      <trkpt lat="48.8406" lon="2.22916">
        <ele>88.5</ele>
        <time>2015-07-06T19:11:35.525Z</time>
      </trkpt>
      <trkpt lat="48.84061" lon="2.22909">
        <ele>88.5</ele>
        <time>2015-07-06T19:11:37.056Z</time>
      </trkpt>
      <trkpt lat="48.84063" lon="2.22896">
        <ele>87.3</ele>
        <time>2015-07-06T19:11:39.140Z</time>
      </trkpt>
      <trkpt lat="48.84063" lon="2.22893">
        <ele>86.4</ele>
        <time>2015-07-06T19:11:40.041Z</time>
      </trkpt>
      <trkpt lat="48.84071" lon="2.22894">
        <ele>83.3</ele>
        <time>2015-07-06T19:12:21.047Z</time>
      </trkpt>
      <trkpt lat="48.84077" lon="2.22895">
        <ele>78.4</ele>
        <time>2015-07-06T19:12:22.046Z</time>
      </trkpt>
      <trkpt lat="48.84084" lon="2.22889">
        <ele>78.1</ele>
        <time>2015-07-06T19:12:25.105Z</time>
      </trkpt>
      <trkpt lat="48.84087" lon="2.22886">
        <ele>77.8</ele>
        <time>2015-07-06T19:12:26.154Z</time>
      </trkpt>
      <trkpt lat="48.84093" lon="2.22879">
        <ele>77.9</ele>
        <time>2015-07-06T19:12:28.047Z</time>
      </trkpt>
      <trkpt lat="48.84095" lon="2.22875">
        <ele>78.1</ele>
        <time>2015-07-06T19:12:29.069Z</time>
      </trkpt>
      <trkpt lat="48.841" lon="2.22864">
        <ele>78</ele>
        <time>2015-07-06T19:12:32.170Z</time>
      </trkpt>
      <trkpt lat="48.841" lon="2.2286">
        <ele>78</ele>
        <time>2015-07-06T19:12:33.076Z</time>
      </trkpt>
      <trkpt lat="48.84102" lon="2.22848">
        <ele>78.6</ele>
        <time>2015-07-06T19:12:36.073Z</time>
      </trkpt>
      <trkpt lat="48.84102" lon="2.22843">
        <ele>78.6</ele>
        <time>2015-07-06T19:12:37.087Z</time>
      </trkpt>
      <trkpt lat="48.84102" lon="2.22831">
        <ele>78.6</ele>
        <time>2015-07-06T19:12:40.080Z</time>
      </trkpt>
      <trkpt lat="48.84101" lon="2.22827">
        <ele>78.6</ele>
        <time>2015-07-06T19:12:41.137Z</time>
      </trkpt>
      <trkpt lat="48.84097" lon="2.22817">
        <ele>78.6</ele>
        <time>2015-07-06T19:12:44.114Z</time>
      </trkpt>
      <trkpt lat="48.84095" lon="2.22814">
        <ele>78.4</ele>
        <time>2015-07-06T19:12:45.069Z</time>
      </trkpt>
      <trkpt lat="48.84091" lon="2.22805">
        <ele>78.6</ele>
        <time>2015-07-06T19:16:18.078Z</time>
      </trkpt>
      <trkpt lat="48.84091" lon="2.22796">
        <ele>70.7</ele>
        <time>2015-07-06T19:16:19.092Z</time>
      </trkpt>
      <trkpt lat="48.8409" lon="2.22784">
        <ele>72.3</ele>
        <time>2015-07-06T19:16:24.171Z</time>
      </trkpt>
      <trkpt lat="48.8409" lon="2.22781">
        <ele>72.6</ele>
        <time>2015-07-06T19:16:25.036Z</time>
      </trkpt>
      <trkpt lat="48.84092" lon="2.22768">
        <ele>74.3</ele>
        <time>2015-07-06T19:16:29.075Z</time>
      </trkpt>
      <trkpt lat="48.84092" lon="2.22764">
        <ele>74.6</ele>
        <time>2015-07-06T19:16:30.089Z</time>
      </trkpt>
      <trkpt lat="48.84093" lon="2.22755">
        <ele>75.5</ele>
        <time>2015-07-06T19:16:32.106Z</time>
      </trkpt>
      <trkpt lat="48.84093" lon="2.2275">
        <ele>76</ele>
        <time>2015-07-06T19:16:33.041Z</time>
      </trkpt>
      <trkpt lat="48.84094" lon="2.2274">
        <ele>76</ele>
        <time>2015-07-06T19:16:35.071Z</time>
      </trkpt>
      <trkpt lat="48.84094" lon="2.22735">
        <ele>76.3</ele>
        <time>2015-07-06T19:16:36.086Z</time>
      </trkpt>
      <trkpt lat="48.84095" lon="2.22725">
        <ele>76.6</ele>
        <time>2015-07-06T19:16:38.049Z</time>
      </trkpt>
      <trkpt lat="48.84096" lon="2.22721">
        <ele>76.9</ele>
        <time>2015-07-06T19:16:39.069Z</time>
      </trkpt>
      <trkpt lat="48.84097" lon="2.22709">
        <ele>77.2</ele>
        <time>2015-07-06T19:16:41.091Z</time>
      </trkpt>
      <trkpt lat="48.84097" lon="2.22703">
        <ele>77.1</ele>
        <time>2015-07-06T19:16:42.106Z</time>
      </trkpt>
      <trkpt lat="48.84099" lon="2.22691">
        <ele>78.3</ele>
        <time>2015-07-06T19:16:44.123Z</time>
      </trkpt>
      <trkpt lat="48.84099" lon="2.22686">
        <ele>78.6</ele>
        <time>2015-07-06T19:16:45.032Z</time>
      </trkpt>
      <trkpt lat="48.841" lon="2.22674">
        <ele>79</ele>
        <time>2015-07-06T19:16:47.057Z</time>
      </trkpt>
      <trkpt lat="48.84101" lon="2.22669">
        <ele>79.3</ele>
        <time>2015-07-06T19:16:48.077Z</time>
      </trkpt>
      <trkpt lat="48.84101" lon="2.22656">
        <ele>79.6</ele>
        <time>2015-07-06T19:16:50.080Z</time>
      </trkpt>
      <trkpt lat="48.84101" lon="2.22648">
        <ele>79.5</ele>
        <time>2015-07-06T19:16:51.091Z</time>
      </trkpt>
      <trkpt lat="48.84102" lon="2.22641">
        <ele>79.6</ele>
        <time>2015-07-06T19:16:52.046Z</time>
      </trkpt>
      <trkpt lat="48.84103" lon="2.22633">
        <ele>79.5</ele>
        <time>2015-07-06T19:16:53.040Z</time>
      </trkpt>
      <trkpt lat="48.84103" lon="2.22626">
        <ele>79.5</ele>
        <time>2015-07-06T19:16:54.060Z</time>
      </trkpt>
      <trkpt lat="48.84103" lon="2.2262">
        <ele>79.3</ele>
        <time>2015-07-06T19:16:55.069Z</time>
      </trkpt>
      <trkpt lat="48.84106" lon="2.22607">
        <ele>79</ele>
        <time>2015-07-06T19:16:57.095Z</time>
      </trkpt>
      <trkpt lat="48.84108" lon="2.22602">
        <ele>78.1</ele>
        <time>2015-07-06T19:16:58.101Z</time>
      </trkpt>
      <trkpt lat="48.84111" lon="2.22592">
        <ele>77</ele>
        <time>2015-07-06T19:17:00.066Z</time>
      </trkpt>
      <trkpt lat="48.84112" lon="2.22588">
        <ele>77.1</ele>
        <time>2015-07-06T19:17:01.262Z</time>
      </trkpt>
      <trkpt lat="48.84114" lon="2.22577">
        <ele>76.6</ele>
        <time>2015-07-06T19:17:04.115Z</time>
      </trkpt>
      <trkpt lat="48.84115" lon="2.22574">
        <ele>76.8</ele>
        <time>2015-07-06T19:17:05.034Z</time>
      </trkpt>
      <trkpt lat="48.84118" lon="2.22562">
        <ele>76.6</ele>
        <time>2015-07-06T19:17:08.120Z</time>
      </trkpt>
      <trkpt lat="48.84119" lon="2.22557">
        <ele>76.3</ele>
        <time>2015-07-06T19:17:09.133Z</time>
      </trkpt>
      <trkpt lat="48.84121" lon="2.22546">
        <ele>76.4</ele>
        <time>2015-07-06T19:17:11.025Z</time>
      </trkpt>
      <trkpt lat="48.84122" lon="2.22541">
        <ele>76.6</ele>
        <time>2015-07-06T19:17:12.081Z</time>
      </trkpt>
      <trkpt lat="48.84122" lon="2.2253">
        <ele>76.3</ele>
        <time>2015-07-06T19:17:14.135Z</time>
      </trkpt>
      <trkpt lat="48.84123" lon="2.22525">
        <ele>76.2</ele>
        <time>2015-07-06T19:17:15.104Z</time>
      </trkpt>
      <trkpt lat="48.84124" lon="2.22514">
        <ele>76.4</ele>
        <time>2015-07-06T19:17:17.383Z</time>
      </trkpt>
      <trkpt lat="48.84124" lon="2.22508">
        <ele>76.1</ele>
        <time>2015-07-06T19:17:18.104Z</time>
      </trkpt>
      <trkpt lat="48.84125" lon="2.22498">
        <ele>76.1</ele>
        <time>2015-07-06T19:17:20.106Z</time>
      </trkpt>
      <trkpt lat="48.84125" lon="2.22493">
        <ele>76.1</ele>
        <time>2015-07-06T19:17:21.106Z</time>
      </trkpt>
      <trkpt lat="48.84126" lon="2.22481">
        <ele>76.8</ele>
        <time>2015-07-06T19:17:23.062Z</time>
      </trkpt>
      <trkpt lat="48.84126" lon="2.22475">
        <ele>76.9</ele>
        <time>2015-07-06T19:17:24.050Z</time>
      </trkpt>
      <trkpt lat="48.84127" lon="2.22462">
        <ele>76.5</ele>
        <time>2015-07-06T19:17:26.113Z</time>
      </trkpt>
      <trkpt lat="48.84127" lon="2.22456">
        <ele>76.4</ele>
        <time>2015-07-06T19:17:27.105Z</time>
      </trkpt>
      <trkpt lat="48.84129" lon="2.22443">
        <ele>76.6</ele>
        <time>2015-07-06T19:17:29.773Z</time>
      </trkpt>
      <trkpt lat="48.8413" lon="2.22437">
        <ele>76.8</ele>
        <time>2015-07-06T19:17:30.084Z</time>
      </trkpt>
      <trkpt lat="48.84131" lon="2.22426">
        <ele>76.8</ele>
        <time>2015-07-06T19:17:32.191Z</time>
      </trkpt>
      <trkpt lat="48.84132" lon="2.2242">
        <ele>77.3</ele>
        <time>2015-07-06T19:17:33.104Z</time>
      </trkpt>
      <trkpt lat="48.84132" lon="2.22408">
        <ele>78.1</ele>
        <time>2015-07-06T19:17:35.025Z</time>
      </trkpt>
      <trkpt lat="48.84132" lon="2.22402">
        <ele>78.6</ele>
        <time>2015-07-06T19:17:36.029Z</time>
      </trkpt>
      <trkpt lat="48.84132" lon="2.22389">
        <ele>78.8</ele>
        <time>2015-07-06T19:17:38.174Z</time>
      </trkpt>
      <trkpt lat="48.84132" lon="2.22382">
        <ele>79</ele>
        <time>2015-07-06T19:17:39.028Z</time>
      </trkpt>
      <trkpt lat="48.84133" lon="2.2237">
        <ele>79.4</ele>
        <time>2015-07-06T19:17:41.048Z</time>
      </trkpt>
      <trkpt lat="48.84134" lon="2.22364">
        <ele>79.4</ele>
        <time>2015-07-06T19:17:42.063Z</time>
      </trkpt>
      <trkpt lat="48.84135" lon="2.22352">
        <ele>80.1</ele>
        <time>2015-07-06T19:17:44.249Z</time>
      </trkpt>
      <trkpt lat="48.84135" lon="2.22346">
        <ele>79.9</ele>
        <time>2015-07-06T19:17:45.177Z</time>
      </trkpt>
      <trkpt lat="48.84136" lon="2.22333">
        <ele>80.1</ele>
        <time>2015-07-06T19:17:47.105Z</time>
      </trkpt>
      <trkpt lat="48.84137" lon="2.22327">
        <ele>80.2</ele>
        <time>2015-07-06T19:17:48.158Z</time>
      </trkpt>
      <trkpt lat="48.84138" lon="2.22316">
        <ele>80.2</ele>
        <time>2015-07-06T19:17:50.263Z</time>
      </trkpt>
      <trkpt lat="48.84138" lon="2.2231">
        <ele>80.3</ele>
        <time>2015-07-06T19:17:51.117Z</time>
      </trkpt>
      <trkpt lat="48.8414" lon="2.22298">
        <ele>80</ele>
        <time>2015-07-06T19:17:53.125Z</time>
      </trkpt>
      <trkpt lat="48.8414" lon="2.22292">
        <ele>79.9</ele>
        <time>2015-07-06T19:17:54.049Z</time>
      </trkpt>
      <trkpt lat="48.8414" lon="2.22279">
        <ele>80.1</ele>
        <time>2015-07-06T19:17:56.106Z</time>
      </trkpt>
      <trkpt lat="48.84141" lon="2.22274">
        <ele>80.2</ele>
        <time>2015-07-06T19:17:57.012Z</time>
      </trkpt>
      <trkpt lat="48.84142" lon="2.22264">
        <ele>80</ele>
        <time>2015-07-06T19:17:59.075Z</time>
      </trkpt>
      <trkpt lat="48.84143" lon="2.2226">
        <ele>80.2</ele>
        <time>2015-07-06T19:18:00.066Z</time>
      </trkpt>
      <trkpt lat="48.84145" lon="2.22247">
        <ele>80.2</ele>
        <time>2015-07-06T19:18:03.101Z</time>
      </trkpt>
      <trkpt lat="48.84146" lon="2.22244">
        <ele>80.4</ele>
        <time>2015-07-06T19:18:04.120Z</time>
      </trkpt>
      <trkpt lat="48.8415" lon="2.22235">
        <ele>81.2</ele>
        <time>2015-07-06T19:18:07.039Z</time>
      </trkpt>
      <trkpt lat="48.84151" lon="2.22232">
        <ele>81.1</ele>
        <time>2015-07-06T19:18:08.088Z</time>
      </trkpt>
      <trkpt lat="48.84156" lon="2.22223">
        <ele>81.2</ele>
        <time>2015-07-06T19:18:11.059Z</time>
      </trkpt>
      <trkpt lat="48.84157" lon="2.2222">
        <ele>81.4</ele>
        <time>2015-07-06T19:18:12.061Z</time>
      </trkpt>
      <trkpt lat="48.84159" lon="2.22208">
        <ele>81.7</ele>
        <time>2015-07-06T19:18:15.106Z</time>
      </trkpt>
      <trkpt lat="48.84161" lon="2.22204">
        <ele>81.5</ele>
        <time>2015-07-06T19:18:16.197Z</time>
      </trkpt>
      <trkpt lat="48.84163" lon="2.22195">
        <ele>81.8</ele>
        <time>2015-07-06T19:18:18.049Z</time>
      </trkpt>
      <trkpt lat="48.84165" lon="2.22191">
        <ele>82.4</ele>
        <time>2015-07-06T19:18:19.074Z</time>
      </trkpt>
      <trkpt lat="48.84169" lon="2.22184">
        <ele>83.2</ele>
        <time>2015-07-06T19:18:22.107Z</time>
      </trkpt>
      <trkpt lat="48.84172" lon="2.22182">
        <ele>83.5</ele>
        <time>2015-07-06T19:18:23.055Z</time>
      </trkpt>
      <trkpt lat="48.84175" lon="2.22171">
        <ele>84.3</ele>
        <time>2015-07-06T19:18:26.203Z</time>
      </trkpt>
      <trkpt lat="48.84176" lon="2.22168">
        <ele>84.4</ele>
        <time>2015-07-06T19:18:27.055Z</time>
      </trkpt>
      <trkpt lat="48.84181" lon="2.22158">
        <ele>84</ele>
        <time>2015-07-06T19:18:30.079Z</time>
      </trkpt>
      <trkpt lat="48.84183" lon="2.22154">
        <ele>84.1</ele>
        <time>2015-07-06T19:18:31.102Z</time>
      </trkpt>
      <trkpt lat="48.84188" lon="2.22144">
        <ele>85</ele>
        <time>2015-07-06T19:18:34.033Z</time>
      </trkpt>
      <trkpt lat="48.84189" lon="2.2214">
        <ele>85.1</ele>
        <time>2015-07-06T19:18:35.062Z</time>
      </trkpt>
      <trkpt lat="48.84193" lon="2.2213">
        <ele>84.9</ele>
        <time>2015-07-06T19:18:39.073Z</time>
      </trkpt>
      <trkpt lat="48.84194" lon="2.22126">
        <ele>85</ele>
        <time>2015-07-06T19:18:40.043Z</time>
      </trkpt>
      <trkpt lat="48.84202" lon="2.2212">
        <ele>90</ele>
        <time>2015-07-06T19:18:47.041Z</time>
      </trkpt>
      <trkpt lat="48.84204" lon="2.2212">
        <ele>90.2</ele>
        <time>2015-07-06T19:18:48.039Z</time>
      </trkpt>
      <trkpt lat="48.84211" lon="2.22114">
        <ele>90.4</ele>
        <time>2015-07-06T19:18:52.122Z</time>
      </trkpt>
      <trkpt lat="48.84213" lon="2.22112">
        <ele>91</ele>
        <time>2015-07-06T19:18:53.071Z</time>
      </trkpt>
      <trkpt lat="48.84219" lon="2.22109">
        <ele>92</ele>
        <time>2015-07-06T19:18:55.050Z</time>
      </trkpt>
      <trkpt lat="48.84223" lon="2.22107">
        <ele>92.1</ele>
        <time>2015-07-06T19:18:56.178Z</time>
      </trkpt>
      <trkpt lat="48.84231" lon="2.22105">
        <ele>92.7</ele>
        <time>2015-07-06T19:18:58.050Z</time>
      </trkpt>
      <trkpt lat="48.84234" lon="2.22103">
        <ele>93.1</ele>
        <time>2015-07-06T19:18:59.067Z</time>
      </trkpt>
      <trkpt lat="48.84241" lon="2.22101">
        <ele>93.5</ele>
        <time>2015-07-06T19:19:01.055Z</time>
      </trkpt>
      <trkpt lat="48.84245" lon="2.221">
        <ele>93.9</ele>
        <time>2015-07-06T19:19:02.181Z</time>
      </trkpt>
      <trkpt lat="48.84252" lon="2.22097">
        <ele>94.2</ele>
        <time>2015-07-06T19:19:04.043Z</time>
      </trkpt>
      <trkpt lat="48.84255" lon="2.22095">
        <ele>94.2</ele>
        <time>2015-07-06T19:19:05.105Z</time>
      </trkpt>
      <trkpt lat="48.84261" lon="2.22091">
        <ele>94.5</ele>
        <time>2015-07-06T19:19:07.089Z</time>
      </trkpt>
      <trkpt lat="48.84265" lon="2.22089">
        <ele>94.3</ele>
        <time>2015-07-06T19:19:08.123Z</time>
      </trkpt>
      <trkpt lat="48.8427" lon="2.22085">
        <ele>94.3</ele>
        <time>2015-07-06T19:19:10.590Z</time>
      </trkpt>
      <trkpt lat="48.84273" lon="2.22083">
        <ele>94.7</ele>
        <time>2015-07-06T19:19:11.132Z</time>
      </trkpt>
      <trkpt lat="48.8428" lon="2.22081">
        <ele>95.2</ele>
        <time>2015-07-06T19:19:13.078Z</time>
      </trkpt>
      <trkpt lat="48.84283" lon="2.2208">
        <ele>95.4</ele>
        <time>2015-07-06T19:19:14.100Z</time>
      </trkpt>
      <trkpt lat="48.84291" lon="2.22081">
        <ele>95.5</ele>
        <time>2015-07-06T19:19:16.046Z</time>
      </trkpt>
      <trkpt lat="48.84294" lon="2.22081">
        <ele>95.6</ele>
        <time>2015-07-06T19:19:17.042Z</time>
      </trkpt>
      <trkpt lat="48.84301" lon="2.22079">
        <ele>96.4</ele>
        <time>2015-07-06T19:19:19.384Z</time>
      </trkpt>
      <trkpt lat="48.84305" lon="2.22079">
        <ele>96.4</ele>
        <time>2015-07-06T19:19:20.088Z</time>
      </trkpt>
      <trkpt lat="48.84313" lon="2.22079">
        <ele>97.6</ele>
        <time>2015-07-06T19:19:22.119Z</time>
      </trkpt>
      <trkpt lat="48.84316" lon="2.22078">
        <ele>97.9</ele>
        <time>2015-07-06T19:19:23.098Z</time>
      </trkpt>
      <trkpt lat="48.84322" lon="2.22075">
        <ele>97.9</ele>
        <time>2015-07-06T19:19:25.119Z</time>
      </trkpt>
      <trkpt lat="48.84325" lon="2.22074">
        <ele>97.8</ele>
        <time>2015-07-06T19:19:26.138Z</time>
      </trkpt>
      <trkpt lat="48.84331" lon="2.2207">
        <ele>98.1</ele>
        <time>2015-07-06T19:19:28.075Z</time>
      </trkpt>
      <trkpt lat="48.84334" lon="2.22068">
        <ele>98.2</ele>
        <time>2015-07-06T19:19:29.080Z</time>
      </trkpt>
      <trkpt lat="48.84341" lon="2.22061">
        <ele>99.8</ele>
        <time>2015-07-06T19:19:32.127Z</time>
      </trkpt>
      <trkpt lat="48.84344" lon="2.2206">
        <ele>100.2</ele>
        <time>2015-07-06T19:19:33.037Z</time>
      </trkpt>
      <trkpt lat="48.8435" lon="2.22056">
        <ele>101.2</ele>
        <time>2015-07-06T19:19:35.026Z</time>
      </trkpt>
      <trkpt lat="48.84353" lon="2.22055">
        <ele>101.5</ele>
        <time>2015-07-06T19:19:36.032Z</time>
      </trkpt>
      <trkpt lat="48.84359" lon="2.22053">
        <ele>102.6</ele>
        <time>2015-07-06T19:19:38.077Z</time>
      </trkpt>
      <trkpt lat="48.84363" lon="2.22052">
        <ele>102.7</ele>
        <time>2015-07-06T19:19:39.090Z</time>
      </trkpt>
      <trkpt lat="48.84369" lon="2.22048">
        <ele>102.6</ele>
        <time>2015-07-06T19:19:41.109Z</time>
      </trkpt>
      <trkpt lat="48.84372" lon="2.22046">
        <ele>102.6</ele>
        <time>2015-07-06T19:19:42.038Z</time>
      </trkpt>
      <trkpt lat="48.84379" lon="2.22041">
        <ele>102.5</ele>
        <time>2015-07-06T19:19:45.079Z</time>
      </trkpt>
      <trkpt lat="48.84382" lon="2.22038">
        <ele>102.5</ele>
        <time>2015-07-06T19:19:46.098Z</time>
      </trkpt>
      <trkpt lat="48.84379" lon="2.22028">
        <ele>103.3</ele>
        <time>2015-07-06T19:20:37.043Z</time>
      </trkpt>
      <trkpt lat="48.84388" lon="2.22002">
        <ele>103.6</ele>
        <time>2015-07-06T19:20:38.083Z</time>
      </trkpt>
      <trkpt lat="48.84388" lon="2.21989">
        <ele>103.8</ele>
        <time>2015-07-06T19:20:42.049Z</time>
      </trkpt>
      <trkpt lat="48.84388" lon="2.21987">
        <ele>103.9</ele>
        <time>2015-07-06T19:20:43.020Z</time>
      </trkpt>
      <trkpt lat="48.84389" lon="2.21975">
        <ele>103.5</ele>
        <time>2015-07-06T19:20:46.997Z</time>
      </trkpt>
      <trkpt lat="48.8439" lon="2.21972">
        <ele>104</ele>
        <time>2015-07-06T19:20:48.143Z</time>
      </trkpt>
      <trkpt lat="48.84392" lon="2.2196">
        <ele>104.5</ele>
        <time>2015-07-06T19:20:52.054Z</time>
      </trkpt>
      <trkpt lat="48.84392" lon="2.21958">
        <ele>105.1</ele>
        <time>2015-07-06T19:20:53.108Z</time>
      </trkpt>
      <trkpt lat="48.84386" lon="2.21949">
        <ele>108.3</ele>
        <time>2015-07-06T19:21:39.711Z</time>
      </trkpt>
      <trkpt lat="48.84384" lon="2.21949">
        <ele>108.2</ele>
        <time>2015-07-06T19:21:40.091Z</time>
      </trkpt>
      <trkpt lat="48.84377" lon="2.21949">
        <ele>108.7</ele>
        <time>2015-07-06T19:22:06.051Z</time>
      </trkpt>
      <trkpt lat="48.84367" lon="2.21943">
        <ele>112.4</ele>
        <time>2015-07-06T19:22:07.069Z</time>
      </trkpt>
      <trkpt lat="48.84361" lon="2.2195">
        <ele>112.3</ele>
        <time>2015-07-06T19:22:10.067Z</time>
      </trkpt>
      <trkpt lat="48.84359" lon="2.21951">
        <ele>112.2</ele>
        <time>2015-07-06T19:22:11.056Z</time>
      </trkpt>
      <trkpt lat="48.84354" lon="2.21956">
        <ele>112.2</ele>
        <time>2015-07-06T19:22:13.085Z</time>
      </trkpt>
      <trkpt lat="48.84351" lon="2.21958">
        <ele>112</ele>
        <time>2015-07-06T19:22:14.097Z</time>
      </trkpt>
      <trkpt lat="48.84345" lon="2.21964">
        <ele>111.4</ele>
        <time>2015-07-06T19:22:16.049Z</time>
      </trkpt>
      <trkpt lat="48.84342" lon="2.21967">
        <ele>111.4</ele>
        <time>2015-07-06T19:22:17.077Z</time>
      </trkpt>
      <trkpt lat="48.84335" lon="2.21969">
        <ele>112.1</ele>
        <time>2015-07-06T19:22:20.112Z</time>
      </trkpt>
      <trkpt lat="48.84332" lon="2.21966">
        <ele>112.1</ele>
        <time>2015-07-06T19:22:21.192Z</time>
      </trkpt>
      <trkpt lat="48.84326" lon="2.21957">
        <ele>112.2</ele>
        <time>2015-07-06T19:22:23.037Z</time>
      </trkpt>
      <trkpt lat="48.84323" lon="2.21953">
        <ele>112.3</ele>
        <time>2015-07-06T19:22:24.046Z</time>
      </trkpt>
      <trkpt lat="48.84318" lon="2.21944">
        <ele>112.8</ele>
        <time>2015-07-06T19:22:26.135Z</time>
      </trkpt>
      <trkpt lat="48.84318" lon="2.21938">
        <ele>112.9</ele>
        <time>2015-07-06T19:22:27.055Z</time>
      </trkpt>
      <trkpt lat="48.84317" lon="2.21926">
        <ele>112.8</ele>
        <time>2015-07-06T19:22:29.068Z</time>
      </trkpt>
      <trkpt lat="48.84317" lon="2.21919">
        <ele>112.7</ele>
        <time>2015-07-06T19:22:30.122Z</time>
      </trkpt>
      <trkpt lat="48.84319" lon="2.21909">
        <ele>112.8</ele>
        <time>2015-07-06T19:22:32.079Z</time>
      </trkpt>
      <trkpt lat="48.84319" lon="2.21905">
        <ele>112.9</ele>
        <time>2015-07-06T19:22:33.094Z</time>
      </trkpt>
      <trkpt lat="48.84319" lon="2.21893">
        <ele>111.6</ele>
        <time>2015-07-06T19:22:39.108Z</time>
      </trkpt>
      <trkpt lat="48.8432" lon="2.2189">
        <ele>111.9</ele>
        <time>2015-07-06T19:22:40.026Z</time>
      </trkpt>
      <trkpt lat="48.84324" lon="2.21879">
        <ele>112.8</ele>
        <time>2015-07-06T19:22:47.096Z</time>
      </trkpt>
      <trkpt lat="48.84326" lon="2.21878">
        <ele>113</ele>
        <time>2015-07-06T19:22:48.120Z</time>
      </trkpt>
      <trkpt lat="48.84331" lon="2.21873">
        <ele>113</ele>
        <time>2015-07-06T19:23:07.181Z</time>
      </trkpt>
      <trkpt lat="48.84328" lon="2.21851">
        <ele>115</ele>
        <time>2015-07-06T19:23:08.047Z</time>
      </trkpt>
      <trkpt lat="48.84333" lon="2.21843">
        <ele>116.7</ele>
        <time>2015-07-06T19:23:11.026Z</time>
      </trkpt>
      <trkpt lat="48.84335" lon="2.21841">
        <ele>117.1</ele>
        <time>2015-07-06T19:23:12.023Z</time>
      </trkpt>
      <trkpt lat="48.84342" lon="2.21839">
        <ele>117.8</ele>
        <time>2015-07-06T19:23:15.163Z</time>
      </trkpt>
      <trkpt lat="48.84344" lon="2.21838">
        <ele>118.4</ele>
        <time>2015-07-06T19:23:16.002Z</time>
      </trkpt>
      <trkpt lat="48.84352" lon="2.21835">
        <ele>118.5</ele>
        <time>2015-07-06T19:23:19.725Z</time>
      </trkpt>
      <trkpt lat="48.84353" lon="2.21831">
        <ele>118.5</ele>
        <time>2015-07-06T19:23:20.088Z</time>
      </trkpt>
      <trkpt lat="48.84357" lon="2.21822">
        <ele>117.3</ele>
        <time>2015-07-06T19:23:23.044Z</time>
      </trkpt>
      <trkpt lat="48.84358" lon="2.21819">
        <ele>117.6</ele>
        <time>2015-07-06T19:23:24.028Z</time>
      </trkpt>
      <trkpt lat="48.84356" lon="2.21808">
        <ele>119.9</ele>
        <time>2015-07-06T19:23:28.037Z</time>
      </trkpt>
      <trkpt lat="48.84355" lon="2.21805">
        <ele>120.2</ele>
        <time>2015-07-06T19:23:29.296Z</time>
      </trkpt>
      <trkpt lat="48.8435" lon="2.21806">
        <ele>119.8</ele>
        <time>2015-07-06T19:24:46.139Z</time>
      </trkpt>
      <trkpt lat="48.84356" lon="2.21753">
        <ele>128.2</ele>
        <time>2015-07-06T19:24:47.020Z</time>
      </trkpt>
      <trkpt lat="48.84356" lon="2.2175">
        <ele>128.4</ele>
        <time>2015-07-06T19:28:26.087Z</time>
      </trkpt>
      <trkpt lat="48.84364" lon="2.21744">
        <ele>133.8</ele>
        <time>2015-07-06T19:28:27.088Z</time>
      </trkpt>
      <trkpt lat="48.84371" lon="2.21751">
        <ele>134.6</ele>
        <time>2015-07-06T19:28:32.200Z</time>
      </trkpt>
      <trkpt lat="48.84373" lon="2.2175">
        <ele>134.6</ele>
        <time>2015-07-06T19:28:33.121Z</time>
      </trkpt>
      <trkpt lat="48.84381" lon="2.21747">
        <ele>135.3</ele>
        <time>2015-07-06T19:28:37.065Z</time>
      </trkpt>
      <trkpt lat="48.84384" lon="2.21746">
        <ele>135.1</ele>
        <time>2015-07-06T19:28:38.099Z</time>
      </trkpt>
      <trkpt lat="48.84389" lon="2.21743">
        <ele>135.4</ele>
        <time>2015-07-06T19:28:40.003Z</time>
      </trkpt>
      <trkpt lat="48.84394" lon="2.21741">
        <ele>135.5</ele>
        <time>2015-07-06T19:28:41.010Z</time>
      </trkpt>
      <trkpt lat="48.84399" lon="2.21739">
        <ele>135.1</ele>
        <time>2015-07-06T19:28:42.028Z</time>
      </trkpt>
      <trkpt lat="48.84404" lon="2.21737">
        <ele>135</ele>
        <time>2015-07-06T19:28:43.058Z</time>
      </trkpt>
      <trkpt lat="48.84409" lon="2.21736">
        <ele>134.9</ele>
        <time>2015-07-06T19:28:44.368Z</time>
      </trkpt>
      <trkpt lat="48.84414" lon="2.21734">
        <ele>134.9</ele>
        <time>2015-07-06T19:28:45.074Z</time>
      </trkpt>
      <trkpt lat="48.8442" lon="2.21733">
        <ele>134.6</ele>
        <time>2015-07-06T19:28:46.090Z</time>
      </trkpt>
      <trkpt lat="48.84424" lon="2.21731">
        <ele>133.9</ele>
        <time>2015-07-06T19:28:47.016Z</time>
      </trkpt>
      <trkpt lat="48.8443" lon="2.21731">
        <ele>133.5</ele>
        <time>2015-07-06T19:28:48.030Z</time>
      </trkpt>
      <trkpt lat="48.84436" lon="2.2173">
        <ele>133.5</ele>
        <time>2015-07-06T19:28:49.032Z</time>
      </trkpt>
      <trkpt lat="48.84441" lon="2.2173">
        <ele>133.7</ele>
        <time>2015-07-06T19:28:50.067Z</time>
      </trkpt>
      <trkpt lat="48.84447" lon="2.21731">
        <ele>133.8</ele>
        <time>2015-07-06T19:28:51.059Z</time>
      </trkpt>
      <trkpt lat="48.84453" lon="2.21733">
        <ele>134</ele>
        <time>2015-07-06T19:28:52.095Z</time>
      </trkpt>
      <trkpt lat="48.84459" lon="2.21736">
        <ele>133.7</ele>
        <time>2015-07-06T19:28:53.100Z</time>
      </trkpt>
      <trkpt lat="48.84464" lon="2.21738">
        <ele>133.4</ele>
        <time>2015-07-06T19:28:54.052Z</time>
      </trkpt>
      <trkpt lat="48.8447" lon="2.2174">
        <ele>132.9</ele>
        <time>2015-07-06T19:28:55.053Z</time>
      </trkpt>
      <trkpt lat="48.84476" lon="2.21742">
        <ele>133</ele>
        <time>2015-07-06T19:28:56.056Z</time>
      </trkpt>
      <trkpt lat="48.84483" lon="2.21743">
        <ele>132.4</ele>
        <time>2015-07-06T19:28:57.071Z</time>
      </trkpt>
      <trkpt lat="48.8449" lon="2.21746">
        <ele>131.8</ele>
        <time>2015-07-06T19:28:58.074Z</time>
      </trkpt>
      <trkpt lat="48.84498" lon="2.21748">
        <ele>131.6</ele>
        <time>2015-07-06T19:28:59.100Z</time>
      </trkpt>
      <trkpt lat="48.84505" lon="2.21751">
        <ele>131.7</ele>
        <time>2015-07-06T19:29:00.041Z</time>
      </trkpt>
      <trkpt lat="48.84512" lon="2.21754">
        <ele>131.5</ele>
        <time>2015-07-06T19:29:01.028Z</time>
      </trkpt>
      <trkpt lat="48.8452" lon="2.21756">
        <ele>131.3</ele>
        <time>2015-07-06T19:29:02.070Z</time>
      </trkpt>
      <trkpt lat="48.84527" lon="2.21758">
        <ele>130.7</ele>
        <time>2015-07-06T19:29:03.084Z</time>
      </trkpt>
      <trkpt lat="48.84533" lon="2.2176">
        <ele>130.4</ele>
        <time>2015-07-06T19:29:04.116Z</time>
      </trkpt>
      <trkpt lat="48.84539" lon="2.21759">
        <ele>130.7</ele>
        <time>2015-07-06T19:29:05.017Z</time>
      </trkpt>
      <trkpt lat="48.84544" lon="2.21761">
        <ele>131.1</ele>
        <time>2015-07-06T19:29:06.027Z</time>
      </trkpt>
      <trkpt lat="48.8455" lon="2.21763">
        <ele>131.3</ele>
        <time>2015-07-06T19:29:07.024Z</time>
      </trkpt>
      <trkpt lat="48.84554" lon="2.21764">
        <ele>131.5</ele>
        <time>2015-07-06T19:29:08.070Z</time>
      </trkpt>
      <trkpt lat="48.84559" lon="2.21765">
        <ele>131.6</ele>
        <time>2015-07-06T19:29:09.071Z</time>
      </trkpt>
      <trkpt lat="48.84563" lon="2.21769">
        <ele>131.7</ele>
        <time>2015-07-06T19:29:10.082Z</time>
      </trkpt>
      <trkpt lat="48.84568" lon="2.21771">
        <ele>132.1</ele>
        <time>2015-07-06T19:29:11.088Z</time>
      </trkpt>
      <trkpt lat="48.84572" lon="2.21777">
        <ele>132.3</ele>
        <time>2015-07-06T19:29:12.092Z</time>
      </trkpt>
      <trkpt lat="48.84577" lon="2.21783">
        <ele>133.2</ele>
        <time>2015-07-06T19:29:13.102Z</time>
      </trkpt>
      <trkpt lat="48.84581" lon="2.21789">
        <ele>134.1</ele>
        <time>2015-07-06T19:29:14.114Z</time>
      </trkpt>
      <trkpt lat="48.84585" lon="2.21795">
        <ele>134.9</ele>
        <time>2015-07-06T19:29:15.023Z</time>
      </trkpt>
      <trkpt lat="48.84589" lon="2.21803">
        <ele>135.3</ele>
        <time>2015-07-06T19:29:16.029Z</time>
      </trkpt>
      <trkpt lat="48.84592" lon="2.2181">
        <ele>135.8</ele>
        <time>2015-07-06T19:29:17.036Z</time>
      </trkpt>
      <trkpt lat="48.84596" lon="2.21818">
        <ele>136.2</ele>
        <time>2015-07-06T19:29:18.051Z</time>
      </trkpt>
      <trkpt lat="48.84597" lon="2.21825">
        <ele>136.5</ele>
        <time>2015-07-06T19:29:19.059Z</time>
      </trkpt>
      <trkpt lat="48.84599" lon="2.21837">
        <ele>136.1</ele>
        <time>2015-07-06T19:29:21.097Z</time>
      </trkpt>
      <trkpt lat="48.846" lon="2.21843">
        <ele>135.9</ele>
        <time>2015-07-06T19:29:22.113Z</time>
      </trkpt>
      <trkpt lat="48.846" lon="2.21854">
        <ele>135.3</ele>
        <time>2015-07-06T19:29:24.054Z</time>
      </trkpt>
      <trkpt lat="48.846" lon="2.21861">
        <ele>135.1</ele>
        <time>2015-07-06T19:29:25.063Z</time>
      </trkpt>
      <trkpt lat="48.84601" lon="2.21872">
        <ele>134.4</ele>
        <time>2015-07-06T19:29:27.080Z</time>
      </trkpt>
      <trkpt lat="48.84602" lon="2.21877">
        <ele>133.9</ele>
        <time>2015-07-06T19:29:28.094Z</time>
      </trkpt>
      <trkpt lat="48.84609" lon="2.21877">
        <ele>132.9</ele>
        <time>2015-07-06T19:29:58.119Z</time>
      </trkpt>
      <trkpt lat="48.84612" lon="2.21877">
        <ele>133.4</ele>
        <time>2015-07-06T19:29:59.122Z</time>
      </trkpt>
      <trkpt lat="48.84618" lon="2.21877">
        <ele>133.4</ele>
        <time>2015-07-06T19:30:01.062Z</time>
      </trkpt>
      <trkpt lat="48.84622" lon="2.21876">
        <ele>133.3</ele>
        <time>2015-07-06T19:30:02.165Z</time>
      </trkpt>
      <trkpt lat="48.84628" lon="2.21875">
        <ele>132.6</ele>
        <time>2015-07-06T19:30:03.997Z</time>
      </trkpt>
      <trkpt lat="48.84631" lon="2.21873">
        <ele>132.5</ele>
        <time>2015-07-06T19:30:05.004Z</time>
      </trkpt>
      <trkpt lat="48.84639" lon="2.21872">
        <ele>132.8</ele>
        <time>2015-07-06T19:30:08.084Z</time>
      </trkpt>
      <trkpt lat="48.84642" lon="2.21871">
        <ele>132.7</ele>
        <time>2015-07-06T19:30:09.087Z</time>
      </trkpt>
      <trkpt lat="48.84649" lon="2.21867">
        <ele>133</ele>
        <time>2015-07-06T19:30:12.125Z</time>
      </trkpt>
      <trkpt lat="48.8465" lon="2.21866">
        <ele>132.9</ele>
        <time>2015-07-06T19:30:13.143Z</time>
      </trkpt>
      <trkpt lat="48.84658" lon="2.21863">
        <ele>132.5</ele>
        <time>2015-07-06T19:30:15.849Z</time>
      </trkpt>
      <trkpt lat="48.84661" lon="2.21863">
        <ele>132.5</ele>
        <time>2015-07-06T19:30:17.063Z</time>
      </trkpt>
      <trkpt lat="48.84669" lon="2.21862">
        <ele>132.5</ele>
        <time>2015-07-06T19:30:19.419Z</time>
      </trkpt>
      <trkpt lat="48.84673" lon="2.21862">
        <ele>132.4</ele>
        <time>2015-07-06T19:30:20.037Z</time>
      </trkpt>
      <trkpt lat="48.84678" lon="2.21862">
        <ele>132.5</ele>
        <time>2015-07-06T19:30:21.062Z</time>
      </trkpt>
      <trkpt lat="48.84683" lon="2.21862">
        <ele>132.3</ele>
        <time>2015-07-06T19:30:22.059Z</time>
      </trkpt>
      <trkpt lat="48.84689" lon="2.21864">
        <ele>132.3</ele>
        <time>2015-07-06T19:30:23.087Z</time>
      </trkpt>
      <trkpt lat="48.84696" lon="2.21864">
        <ele>132.5</ele>
        <time>2015-07-06T19:30:24.102Z</time>
      </trkpt>
      <trkpt lat="48.84703" lon="2.21865">
        <ele>132.6</ele>
        <time>2015-07-06T19:30:25.080Z</time>
      </trkpt>
      <trkpt lat="48.84712" lon="2.21865">
        <ele>132.3</ele>
        <time>2015-07-06T19:30:26.133Z</time>
      </trkpt>
      <trkpt lat="48.8472" lon="2.21864">
        <ele>132.1</ele>
        <time>2015-07-06T19:30:27.011Z</time>
      </trkpt>
      <trkpt lat="48.84729" lon="2.21865">
        <ele>132.1</ele>
        <time>2015-07-06T19:30:28.027Z</time>
      </trkpt>
      <trkpt lat="48.84738" lon="2.21865">
        <ele>132.2</ele>
        <time>2015-07-06T19:30:29.038Z</time>
      </trkpt>
      <trkpt lat="48.84746" lon="2.21865">
        <ele>132.3</ele>
        <time>2015-07-06T19:30:30.107Z</time>
      </trkpt>
      <trkpt lat="48.84755" lon="2.21868">
        <ele>132</ele>
        <time>2015-07-06T19:30:31.018Z</time>
      </trkpt>
      <trkpt lat="48.84763" lon="2.21868">
        <ele>132.2</ele>
        <time>2015-07-06T19:30:32.157Z</time>
      </trkpt>
      <trkpt lat="48.8477" lon="2.21868">
        <ele>132.1</ele>
        <time>2015-07-06T19:30:33.032Z</time>
      </trkpt>
      <trkpt lat="48.84776" lon="2.2187">
        <ele>131.3</ele>
        <time>2015-07-06T19:30:34.050Z</time>
      </trkpt>
      <trkpt lat="48.84782" lon="2.21871">
        <ele>131.2</ele>
        <time>2015-07-06T19:30:35.055Z</time>
      </trkpt>
      <trkpt lat="48.84789" lon="2.21872">
        <ele>130.9</ele>
        <time>2015-07-06T19:30:36.067Z</time>
      </trkpt>
      <trkpt lat="48.84795" lon="2.21874">
        <ele>130.2</ele>
        <time>2015-07-06T19:30:37.073Z</time>
      </trkpt>
      <trkpt lat="48.84802" lon="2.21874">
        <ele>129.4</ele>
        <time>2015-07-06T19:30:38.100Z</time>
      </trkpt>
      <trkpt lat="48.84808" lon="2.21875">
        <ele>129.4</ele>
        <time>2015-07-06T19:30:39.111Z</time>
      </trkpt>
      <trkpt lat="48.84814" lon="2.21876">
        <ele>129.4</ele>
        <time>2015-07-06T19:30:39.981Z</time>
      </trkpt>
      <trkpt lat="48.84818" lon="2.21876">
        <ele>128.8</ele>
        <time>2015-07-06T19:30:41.016Z</time>
      </trkpt>
      <trkpt lat="48.84823" lon="2.21876">
        <ele>128.3</ele>
        <time>2015-07-06T19:30:42.132Z</time>
      </trkpt>
      <trkpt lat="48.84828" lon="2.21876">
        <ele>128.3</ele>
        <time>2015-07-06T19:30:43.080Z</time>
      </trkpt>
      <trkpt lat="48.84833" lon="2.21876">
        <ele>128.2</ele>
        <time>2015-07-06T19:30:44.091Z</time>
      </trkpt>
      <trkpt lat="48.84837" lon="2.21875">
        <ele>127.9</ele>
        <time>2015-07-06T19:30:45.037Z</time>
      </trkpt>
      <trkpt lat="48.84841" lon="2.21874">
        <ele>127.5</ele>
        <time>2015-07-06T19:30:46.082Z</time>
      </trkpt>
      <trkpt lat="48.84847" lon="2.21873">
        <ele>127.2</ele>
        <time>2015-07-06T19:30:47.092Z</time>
      </trkpt>
      <trkpt lat="48.84853" lon="2.21871">
        <ele>126.1</ele>
        <time>2015-07-06T19:30:48.010Z</time>
      </trkpt>
      <trkpt lat="48.84858" lon="2.21869">
        <ele>125.4</ele>
        <time>2015-07-06T19:30:49.015Z</time>
      </trkpt>
      <trkpt lat="48.84863" lon="2.21866">
        <ele>124.4</ele>
        <time>2015-07-06T19:30:50.057Z</time>
      </trkpt>
      <trkpt lat="48.84867" lon="2.21864">
        <ele>124.4</ele>
        <time>2015-07-06T19:30:51.051Z</time>
      </trkpt>
      <trkpt lat="48.84871" lon="2.21861">
        <ele>124.2</ele>
        <time>2015-07-06T19:30:52.011Z</time>
      </trkpt>
      <trkpt lat="48.84875" lon="2.21857">
        <ele>123.9</ele>
        <time>2015-07-06T19:30:53.023Z</time>
      </trkpt>
      <trkpt lat="48.84882" lon="2.21849">
        <ele>123.3</ele>
        <time>2015-07-06T19:30:55.073Z</time>
      </trkpt>
      <trkpt lat="48.84884" lon="2.21845">
        <ele>123.4</ele>
        <time>2015-07-06T19:30:56.100Z</time>
      </trkpt>
      <trkpt lat="48.84888" lon="2.21837">
        <ele>123</ele>
        <time>2015-07-06T19:30:58.033Z</time>
      </trkpt>
      <trkpt lat="48.84891" lon="2.21834">
        <ele>122.7</ele>
        <time>2015-07-06T19:30:59.053Z</time>
      </trkpt>
      <trkpt lat="48.84897" lon="2.2183">
        <ele>122.9</ele>
        <time>2015-07-06T19:31:01.033Z</time>
      </trkpt>
      <trkpt lat="48.849" lon="2.21828">
        <ele>122.5</ele>
        <time>2015-07-06T19:31:02.082Z</time>
      </trkpt>
      <trkpt lat="48.84907" lon="2.21822">
        <ele>122.4</ele>
        <time>2015-07-06T19:31:04.109Z</time>
      </trkpt>
      <trkpt lat="48.84911" lon="2.2182">
        <ele>122.3</ele>
        <time>2015-07-06T19:31:05.096Z</time>
      </trkpt>
      <trkpt lat="48.84917" lon="2.21816">
        <ele>122.5</ele>
        <time>2015-07-06T19:31:07.037Z</time>
      </trkpt>
      <trkpt lat="48.8492" lon="2.21814">
        <ele>122.7</ele>
        <time>2015-07-06T19:31:08.086Z</time>
      </trkpt>
      <trkpt lat="48.84929" lon="2.21812">
        <ele>123.2</ele>
        <time>2015-07-06T19:31:10.042Z</time>
      </trkpt>
      <trkpt lat="48.84933" lon="2.2181">
        <ele>123.4</ele>
        <time>2015-07-06T19:31:11.038Z</time>
      </trkpt>
      <trkpt lat="48.84941" lon="2.21806">
        <ele>124.2</ele>
        <time>2015-07-06T19:31:13.060Z</time>
      </trkpt>
      <trkpt lat="48.84946" lon="2.21804">
        <ele>124.2</ele>
        <time>2015-07-06T19:31:14.126Z</time>
      </trkpt>
      <trkpt lat="48.84949" lon="2.21802">
        <ele>124.4</ele>
        <time>2015-07-06T19:31:15.037Z</time>
      </trkpt>
      <trkpt lat="48.84954" lon="2.21799">
        <ele>124.5</ele>
        <time>2015-07-06T19:31:15.993Z</time>
      </trkpt>
      <trkpt lat="48.84959" lon="2.21797">
        <ele>124.4</ele>
        <time>2015-07-06T19:31:17.005Z</time>
      </trkpt>
      <trkpt lat="48.84965" lon="2.21796">
        <ele>124.6</ele>
        <time>2015-07-06T19:31:18.024Z</time>
      </trkpt>
      <trkpt lat="48.8497" lon="2.21795">
        <ele>124.8</ele>
        <time>2015-07-06T19:31:19.035Z</time>
      </trkpt>
      <trkpt lat="48.84974" lon="2.21794">
        <ele>125.6</ele>
        <time>2015-07-06T19:31:20.052Z</time>
      </trkpt>
      <trkpt lat="48.84978" lon="2.21792">
        <ele>125.9</ele>
        <time>2015-07-06T19:31:21.735Z</time>
      </trkpt>
      <trkpt lat="48.84983" lon="2.21791">
        <ele>126.2</ele>
        <time>2015-07-06T19:31:22.062Z</time>
      </trkpt>
      <trkpt lat="48.84988" lon="2.21789">
        <ele>126.7</ele>
        <time>2015-07-06T19:31:23.076Z</time>
      </trkpt>
      <trkpt lat="48.84993" lon="2.21787">
        <ele>127.3</ele>
        <time>2015-07-06T19:31:23.979Z</time>
      </trkpt>
      <trkpt lat="48.84998" lon="2.21785">
        <ele>127.7</ele>
        <time>2015-07-06T19:31:25.014Z</time>
      </trkpt>
      <trkpt lat="48.85003" lon="2.21784">
        <ele>128.1</ele>
        <time>2015-07-06T19:31:26.054Z</time>
      </trkpt>
      <trkpt lat="48.8501" lon="2.21778">
        <ele>128.1</ele>
        <time>2015-07-06T19:31:28.096Z</time>
      </trkpt>
      <trkpt lat="48.85013" lon="2.21776">
        <ele>128.4</ele>
        <time>2015-07-06T19:31:29.104Z</time>
      </trkpt>
      <trkpt lat="48.85019" lon="2.21773">
        <ele>128.5</ele>
        <time>2015-07-06T19:31:29.995Z</time>
      </trkpt>
      <trkpt lat="48.85023" lon="2.21771">
        <ele>128.6</ele>
        <time>2015-07-06T19:31:31.038Z</time>
      </trkpt>
      <trkpt lat="48.85032" lon="2.21767">
        <ele>128.2</ele>
        <time>2015-07-06T19:31:33.026Z</time>
      </trkpt>
      <trkpt lat="48.85035" lon="2.21765">
        <ele>128.3</ele>
        <time>2015-07-06T19:31:34.111Z</time>
      </trkpt>
      <trkpt lat="48.85041" lon="2.21761">
        <ele>128.6</ele>
        <time>2015-07-06T19:31:36.043Z</time>
      </trkpt>
      <trkpt lat="48.85044" lon="2.21758">
        <ele>128.8</ele>
        <time>2015-07-06T19:31:37.124Z</time>
      </trkpt>
      <trkpt lat="48.8505" lon="2.21753">
        <ele>128.8</ele>
        <time>2015-07-06T19:31:39.022Z</time>
      </trkpt>
      <trkpt lat="48.85052" lon="2.21751">
        <ele>129</ele>
        <time>2015-07-06T19:31:40.115Z</time>
      </trkpt>
      <trkpt lat="48.85058" lon="2.21744">
        <ele>129.3</ele>
        <time>2015-07-06T19:31:43.048Z</time>
      </trkpt>
      <trkpt lat="48.85059" lon="2.21741">
        <ele>129.3</ele>
        <time>2015-07-06T19:31:44.101Z</time>
      </trkpt>
      <trkpt lat="48.8506" lon="2.2173">
        <ele>129.4</ele>
        <time>2015-07-06T19:31:48.064Z</time>
      </trkpt>
      <trkpt lat="48.85059" lon="2.21727">
        <ele>129.1</ele>
        <time>2015-07-06T19:31:49.070Z</time>
      </trkpt>
      <trkpt lat="48.85058" lon="2.21715">
        <ele>129.7</ele>
        <time>2015-07-06T19:31:53.010Z</time>
      </trkpt>
      <trkpt lat="48.85059" lon="2.21713">
        <ele>129.9</ele>
        <time>2015-07-06T19:31:54.049Z</time>
      </trkpt>
      <trkpt lat="48.85058" lon="2.21699">
        <ele>129.9</ele>
        <time>2015-07-06T19:31:59.047Z</time>
      </trkpt>
      <trkpt lat="48.85059" lon="2.21697">
        <ele>130.4</ele>
        <time>2015-07-06T19:32:00.180Z</time>
      </trkpt>
      <trkpt lat="48.85059" lon="2.21696">
        <ele>130.7</ele>
        <time>2015-07-06T19:33:04.072Z</time>
      </trkpt>
      <trkpt lat="48.85075" lon="2.21704">
        <ele>133.4</ele>
        <time>2015-07-06T19:33:05.087Z</time>
      </trkpt>
      <trkpt lat="48.85083" lon="2.21698">
        <ele>133.2</ele>
        <time>2015-07-06T19:33:08.040Z</time>
      </trkpt>
      <trkpt lat="48.85085" lon="2.21696">
        <ele>133.3</ele>
        <time>2015-07-06T19:33:09.147Z</time>
      </trkpt>
      <trkpt lat="48.85093" lon="2.2169">
        <ele>133.5</ele>
        <time>2015-07-06T19:33:12.040Z</time>
      </trkpt>
      <trkpt lat="48.85096" lon="2.21689">
        <ele>133.5</ele>
        <time>2015-07-06T19:33:13.055Z</time>
      </trkpt>
      <trkpt lat="48.85101" lon="2.21685">
        <ele>133.7</ele>
        <time>2015-07-06T19:33:15.089Z</time>
      </trkpt>
      <trkpt lat="48.85105" lon="2.21682">
        <ele>134</ele>
        <time>2015-07-06T19:33:16.106Z</time>
      </trkpt>
      <trkpt lat="48.85109" lon="2.21681">
        <ele>134</ele>
        <time>2015-07-06T19:33:17.021Z</time>
      </trkpt>
      <trkpt lat="48.85113" lon="2.21678">
        <ele>133.9</ele>
        <time>2015-07-06T19:33:18.042Z</time>
      </trkpt>
      <trkpt lat="48.85122" lon="2.21674">
        <ele>134.1</ele>
        <time>2015-07-06T19:33:20.066Z</time>
      </trkpt>
      <trkpt lat="48.85126" lon="2.21672">
        <ele>134.1</ele>
        <time>2015-07-06T19:33:21.068Z</time>
      </trkpt>
      <trkpt lat="48.85132" lon="2.21667">
        <ele>134.8</ele>
        <time>2015-07-06T19:33:23.105Z</time>
      </trkpt>
      <trkpt lat="48.85136" lon="2.21664">
        <ele>134.9</ele>
        <time>2015-07-06T19:33:24.006Z</time>
      </trkpt>
      <trkpt lat="48.85141" lon="2.21662">
        <ele>134.9</ele>
        <time>2015-07-06T19:33:25.027Z</time>
      </trkpt>
      <trkpt lat="48.85146" lon="2.21659">
        <ele>135.1</ele>
        <time>2015-07-06T19:33:26.098Z</time>
      </trkpt>
      <trkpt lat="48.85151" lon="2.21657">
        <ele>135.1</ele>
        <time>2015-07-06T19:33:27.031Z</time>
      </trkpt>
      <trkpt lat="48.85157" lon="2.21655">
        <ele>134.9</ele>
        <time>2015-07-06T19:33:28.057Z</time>
      </trkpt>
      <trkpt lat="48.85163" lon="2.21652">
        <ele>134.9</ele>
        <time>2015-07-06T19:33:29.022Z</time>
      </trkpt>
      <trkpt lat="48.85169" lon="2.2165">
        <ele>134.6</ele>
        <time>2015-07-06T19:33:30.035Z</time>
      </trkpt>
      <trkpt lat="48.85175" lon="2.21648">
        <ele>134.7</ele>
        <time>2015-07-06T19:33:30.991Z</time>
      </trkpt>
      <trkpt lat="48.85181" lon="2.21646">
        <ele>134.8</ele>
        <time>2015-07-06T19:33:32.109Z</time>
      </trkpt>
      <trkpt lat="48.85186" lon="2.21643">
        <ele>135</ele>
        <time>2015-07-06T19:33:32.998Z</time>
      </trkpt>
      <trkpt lat="48.85191" lon="2.21639">
        <ele>135.1</ele>
        <time>2015-07-06T19:33:34.067Z</time>
      </trkpt>
      <trkpt lat="48.85197" lon="2.21636">
        <ele>135.7</ele>
        <time>2015-07-06T19:33:34.974Z</time>
      </trkpt>
      <trkpt lat="48.85204" lon="2.21634">
        <ele>135.7</ele>
        <time>2015-07-06T19:33:35.993Z</time>
      </trkpt>
      <trkpt lat="48.85212" lon="2.2163">
        <ele>134.6</ele>
        <time>2015-07-06T19:33:37.025Z</time>
      </trkpt>
      <trkpt lat="48.85218" lon="2.21628">
        <ele>134.4</ele>
        <time>2015-07-06T19:33:38.159Z</time>
      </trkpt>
      <trkpt lat="48.85225" lon="2.21626">
        <ele>134.2</ele>
        <time>2015-07-06T19:33:39.017Z</time>
      </trkpt>
      <trkpt lat="48.8523" lon="2.21624">
        <ele>133.5</ele>
        <time>2015-07-06T19:33:40.026Z</time>
      </trkpt>
      <trkpt lat="48.85236" lon="2.21621">
        <ele>133.7</ele>
        <time>2015-07-06T19:33:41.038Z</time>
      </trkpt>
      <trkpt lat="48.85242" lon="2.21618">
        <ele>133.8</ele>
        <time>2015-07-06T19:33:42.050Z</time>
      </trkpt>
      <trkpt lat="48.85248" lon="2.21615">
        <ele>133.7</ele>
        <time>2015-07-06T19:33:43.109Z</time>
      </trkpt>
      <trkpt lat="48.85254" lon="2.21612">
        <ele>133.7</ele>
        <time>2015-07-06T19:33:44.139Z</time>
      </trkpt>
      <trkpt lat="48.85259" lon="2.21609">
        <ele>134.2</ele>
        <time>2015-07-06T19:33:45.005Z</time>
      </trkpt>
      <trkpt lat="48.85265" lon="2.21606">
        <ele>134.7</ele>
        <time>2015-07-06T19:33:46.015Z</time>
      </trkpt>
      <trkpt lat="48.8527" lon="2.21604">
        <ele>134.9</ele>
        <time>2015-07-06T19:33:47.034Z</time>
      </trkpt>
      <trkpt lat="48.85275" lon="2.21601">
        <ele>135.3</ele>
        <time>2015-07-06T19:33:48.136Z</time>
      </trkpt>
      <trkpt lat="48.85281" lon="2.21599">
        <ele>135.7</ele>
        <time>2015-07-06T19:33:49.008Z</time>
      </trkpt>
      <trkpt lat="48.85286" lon="2.21596">
        <ele>135.7</ele>
        <time>2015-07-06T19:33:50.070Z</time>
      </trkpt>
      <trkpt lat="48.85291" lon="2.21593">
        <ele>136.1</ele>
        <time>2015-07-06T19:33:51.045Z</time>
      </trkpt>
      <trkpt lat="48.85297" lon="2.21591">
        <ele>136.1</ele>
        <time>2015-07-06T19:33:52.047Z</time>
      </trkpt>
      <trkpt lat="48.85302" lon="2.21588">
        <ele>136</ele>
        <time>2015-07-06T19:33:53.095Z</time>
      </trkpt>
      <trkpt lat="48.85308" lon="2.21586">
        <ele>136.1</ele>
        <time>2015-07-06T19:33:54.006Z</time>
      </trkpt>
      <trkpt lat="48.85313" lon="2.21583">
        <ele>136.2</ele>
        <time>2015-07-06T19:33:55.028Z</time>
      </trkpt>
      <trkpt lat="48.85319" lon="2.21581">
        <ele>136.3</ele>
        <time>2015-07-06T19:33:56.255Z</time>
      </trkpt>
      <trkpt lat="48.85325" lon="2.2158">
        <ele>136.1</ele>
        <time>2015-07-06T19:33:57.008Z</time>
      </trkpt>
      <trkpt lat="48.85331" lon="2.2158">
        <ele>135.8</ele>
        <time>2015-07-06T19:33:58.005Z</time>
      </trkpt>
      <trkpt lat="48.85336" lon="2.21579">
        <ele>136</ele>
        <time>2015-07-06T19:33:59.096Z</time>
      </trkpt>
      <trkpt lat="48.85341" lon="2.21579">
        <ele>136.2</ele>
        <time>2015-07-06T19:34:00.111Z</time>
      </trkpt>
      <trkpt lat="48.85346" lon="2.21578">
        <ele>136.4</ele>
        <time>2015-07-06T19:34:01.042Z</time>
      </trkpt>
      <trkpt lat="48.85351" lon="2.21577">
        <ele>136.8</ele>
        <time>2015-07-06T19:34:02.096Z</time>
      </trkpt>
      <trkpt lat="48.85357" lon="2.21575">
        <ele>137</ele>
        <time>2015-07-06T19:34:03.035Z</time>
      </trkpt>
      <trkpt lat="48.85363" lon="2.21573">
        <ele>137.2</ele>
        <time>2015-07-06T19:34:04.145Z</time>
      </trkpt>
      <trkpt lat="48.85368" lon="2.2157">
        <ele>137.7</ele>
        <time>2015-07-06T19:34:05.055Z</time>
      </trkpt>
      <trkpt lat="48.85374" lon="2.21567">
        <ele>137.5</ele>
        <time>2015-07-06T19:34:06.055Z</time>
      </trkpt>
      <trkpt lat="48.8538" lon="2.21566">
        <ele>137.7</ele>
        <time>2015-07-06T19:34:07.062Z</time>
      </trkpt>
      <trkpt lat="48.85386" lon="2.21564">
        <ele>138.1</ele>
        <time>2015-07-06T19:34:08.173Z</time>
      </trkpt>
      <trkpt lat="48.85392" lon="2.21562">
        <ele>138.3</ele>
        <time>2015-07-06T19:34:09.007Z</time>
      </trkpt>
      <trkpt lat="48.85397" lon="2.21559">
        <ele>138.2</ele>
        <time>2015-07-06T19:34:10.011Z</time>
      </trkpt>
      <trkpt lat="48.85403" lon="2.21557">
        <ele>138</ele>
        <time>2015-07-06T19:34:11.015Z</time>
      </trkpt>
      <trkpt lat="48.85408" lon="2.21556">
        <ele>137.7</ele>
        <time>2015-07-06T19:34:12.030Z</time>
      </trkpt>
      <trkpt lat="48.85414" lon="2.21554">
        <ele>137.5</ele>
        <time>2015-07-06T19:34:13.050Z</time>
      </trkpt>
      <trkpt lat="48.8542" lon="2.21551">
        <ele>137.6</ele>
        <time>2015-07-06T19:34:14.061Z</time>
      </trkpt>
      <trkpt lat="48.85427" lon="2.2155">
        <ele>138</ele>
        <time>2015-07-06T19:34:15.074Z</time>
      </trkpt>
      <trkpt lat="48.85435" lon="2.21549">
        <ele>138.2</ele>
        <time>2015-07-06T19:34:16.078Z</time>
      </trkpt>
      <trkpt lat="48.85442" lon="2.21548">
        <ele>138.4</ele>
        <time>2015-07-06T19:34:17.015Z</time>
      </trkpt>
      <trkpt lat="48.8545" lon="2.21547">
        <ele>138.7</ele>
        <time>2015-07-06T19:34:18.027Z</time>
      </trkpt>
      <trkpt lat="48.85457" lon="2.21546">
        <ele>138.7</ele>
        <time>2015-07-06T19:34:19.023Z</time>
      </trkpt>
      <trkpt lat="48.85464" lon="2.21545">
        <ele>138.7</ele>
        <time>2015-07-06T19:34:20.066Z</time>
      </trkpt>
      <trkpt lat="48.85471" lon="2.21544">
        <ele>138.6</ele>
        <time>2015-07-06T19:34:21.066Z</time>
      </trkpt>
      <trkpt lat="48.85479" lon="2.21544">
        <ele>138.4</ele>
        <time>2015-07-06T19:34:21.985Z</time>
      </trkpt>
      <trkpt lat="48.85486" lon="2.21542">
        <ele>138.3</ele>
        <time>2015-07-06T19:34:23.015Z</time>
      </trkpt>
      <trkpt lat="48.85493" lon="2.2154">
        <ele>138.2</ele>
        <time>2015-07-06T19:34:24.024Z</time>
      </trkpt>
      <trkpt lat="48.85501" lon="2.21539">
        <ele>138.2</ele>
        <time>2015-07-06T19:34:25.030Z</time>
      </trkpt>
      <trkpt lat="48.85509" lon="2.21537">
        <ele>138.4</ele>
        <time>2015-07-06T19:34:26.064Z</time>
      </trkpt>
      <trkpt lat="48.85518" lon="2.21536">
        <ele>138.8</ele>
        <time>2015-07-06T19:34:27.065Z</time>
      </trkpt>
      <trkpt lat="48.85526" lon="2.21535">
        <ele>138.8</ele>
        <time>2015-07-06T19:34:28.069Z</time>
      </trkpt>
      <trkpt lat="48.85535" lon="2.21533">
        <ele>138.7</ele>
        <time>2015-07-06T19:34:29.075Z</time>
      </trkpt>
      <trkpt lat="48.85544" lon="2.21534">
        <ele>138.7</ele>
        <time>2015-07-06T19:34:30.024Z</time>
      </trkpt>
      <trkpt lat="48.85553" lon="2.21534">
        <ele>139.1</ele>
        <time>2015-07-06T19:34:31.032Z</time>
      </trkpt>
      <trkpt lat="48.85561" lon="2.21534">
        <ele>139.1</ele>
        <time>2015-07-06T19:34:32.075Z</time>
      </trkpt>
      <trkpt lat="48.8557" lon="2.21533">
        <ele>138.8</ele>
        <time>2015-07-06T19:34:32.999Z</time>
      </trkpt>
      <trkpt lat="48.85578" lon="2.21531">
        <ele>138.8</ele>
        <time>2015-07-06T19:34:34.004Z</time>
      </trkpt>
      <trkpt lat="48.85586" lon="2.21529">
        <ele>138.8</ele>
        <time>2015-07-06T19:34:35.013Z</time>
      </trkpt>
      <trkpt lat="48.85592" lon="2.21528">
        <ele>138.7</ele>
        <time>2015-07-06T19:34:36.018Z</time>
      </trkpt>
      <trkpt lat="48.85599" lon="2.21528">
        <ele>138.6</ele>
        <time>2015-07-06T19:34:37.026Z</time>
      </trkpt>
      <trkpt lat="48.85606" lon="2.21526">
        <ele>138.8</ele>
        <time>2015-07-06T19:34:38.059Z</time>
      </trkpt>
      <trkpt lat="48.85613" lon="2.21525">
        <ele>139</ele>
        <time>2015-07-06T19:34:39.069Z</time>
      </trkpt>
      <trkpt lat="48.85619" lon="2.21523">
        <ele>139.2</ele>
        <time>2015-07-06T19:34:40.158Z</time>
      </trkpt>
      <trkpt lat="48.85625" lon="2.21522">
        <ele>139.2</ele>
        <time>2015-07-06T19:34:41.014Z</time>
      </trkpt>
      <trkpt lat="48.8563" lon="2.21521">
        <ele>138.7</ele>
        <time>2015-07-06T19:34:42.020Z</time>
      </trkpt>
      <trkpt lat="48.85636" lon="2.21519">
        <ele>137.9</ele>
        <time>2015-07-06T19:34:43.041Z</time>
      </trkpt>
      <trkpt lat="48.8564" lon="2.21518">
        <ele>137.9</ele>
        <time>2015-07-06T19:34:44.064Z</time>
      </trkpt>
      <trkpt lat="48.85649" lon="2.21516">
        <ele>137.4</ele>
        <time>2015-07-06T19:34:46.069Z</time>
      </trkpt>
      <trkpt lat="48.85653" lon="2.21514">
        <ele>136.8</ele>
        <time>2015-07-06T19:34:47.085Z</time>
      </trkpt>
      <trkpt lat="48.85658" lon="2.21513">
        <ele>136.3</ele>
        <time>2015-07-06T19:34:48.019Z</time>
      </trkpt>
      <trkpt lat="48.85662" lon="2.21511">
        <ele>136.2</ele>
        <time>2015-07-06T19:34:49.015Z</time>
      </trkpt>
      <trkpt lat="48.85665" lon="2.21507">
        <ele>135.9</ele>
        <time>2015-07-06T19:34:50.070Z</time>
      </trkpt>
      <trkpt lat="48.8567" lon="2.21505">
        <ele>136.1</ele>
        <time>2015-07-06T19:34:51.074Z</time>
      </trkpt>
      <trkpt lat="48.85679" lon="2.21502">
        <ele>136.3</ele>
        <time>2015-07-06T19:34:53.019Z</time>
      </trkpt>
      <trkpt lat="48.85684" lon="2.21501">
        <ele>136.2</ele>
        <time>2015-07-06T19:34:54.039Z</time>
      </trkpt>
      <trkpt lat="48.85689" lon="2.215">
        <ele>136.5</ele>
        <time>2015-07-06T19:34:55.054Z</time>
      </trkpt>
      <trkpt lat="48.85694" lon="2.21499">
        <ele>137.1</ele>
        <time>2015-07-06T19:34:56.069Z</time>
      </trkpt>
      <trkpt lat="48.85701" lon="2.21497">
        <ele>137.7</ele>
        <time>2015-07-06T19:34:58.092Z</time>
      </trkpt>
      <trkpt lat="48.85704" lon="2.21493">
        <ele>138</ele>
        <time>2015-07-06T19:34:59.110Z</time>
      </trkpt>
      <trkpt lat="48.8571" lon="2.21491">
        <ele>138.4</ele>
        <time>2015-07-06T19:35:00.011Z</time>
      </trkpt>
      <trkpt lat="48.85714" lon="2.21489">
        <ele>138.7</ele>
        <time>2015-07-06T19:35:01.010Z</time>
      </trkpt>
      <trkpt lat="48.85718" lon="2.21486">
        <ele>139.3</ele>
        <time>2015-07-06T19:35:02.046Z</time>
      </trkpt>
      <trkpt lat="48.85722" lon="2.21483">
        <ele>139.6</ele>
        <time>2015-07-06T19:35:03.047Z</time>
      </trkpt>
      <trkpt lat="48.85728" lon="2.2148">
        <ele>139.7</ele>
        <time>2015-07-06T19:35:04.063Z</time>
      </trkpt>
      <trkpt lat="48.85734" lon="2.21475">
        <ele>139.7</ele>
        <time>2015-07-06T19:35:05.072Z</time>
      </trkpt>
      <trkpt lat="48.8574" lon="2.21471">
        <ele>139.5</ele>
        <time>2015-07-06T19:35:06.083Z</time>
      </trkpt>
      <trkpt lat="48.85745" lon="2.21467">
        <ele>140</ele>
        <time>2015-07-06T19:35:07.010Z</time>
      </trkpt>
      <trkpt lat="48.85751" lon="2.21464">
        <ele>139.9</ele>
        <time>2015-07-06T19:35:08.107Z</time>
      </trkpt>
      <trkpt lat="48.85756" lon="2.2146">
        <ele>139.8</ele>
        <time>2015-07-06T19:35:09.012Z</time>
      </trkpt>
      <trkpt lat="48.85764" lon="2.21454">
        <ele>140.4</ele>
        <time>2015-07-06T19:35:11.031Z</time>
      </trkpt>
      <trkpt lat="48.85768" lon="2.21451">
        <ele>140.3</ele>
        <time>2015-07-06T19:35:12.038Z</time>
      </trkpt>
      <trkpt lat="48.85772" lon="2.21448">
        <ele>139.9</ele>
        <time>2015-07-06T19:35:13.060Z</time>
      </trkpt>
      <trkpt lat="48.85777" lon="2.21445">
        <ele>139.8</ele>
        <time>2015-07-06T19:35:14.067Z</time>
      </trkpt>
      <trkpt lat="48.85781" lon="2.21442">
        <ele>139.9</ele>
        <time>2015-07-06T19:35:15.087Z</time>
      </trkpt>
      <trkpt lat="48.85785" lon="2.21439">
        <ele>140</ele>
        <time>2015-07-06T19:35:16.006Z</time>
      </trkpt>
      <trkpt lat="48.85791" lon="2.21434">
        <ele>140.1</ele>
        <time>2015-07-06T19:35:17.031Z</time>
      </trkpt>
      <trkpt lat="48.85796" lon="2.2143">
        <ele>140.1</ele>
        <time>2015-07-06T19:35:18.039Z</time>
      </trkpt>
      <trkpt lat="48.85803" lon="2.21427">
        <ele>140.2</ele>
        <time>2015-07-06T19:35:19.053Z</time>
      </trkpt>
      <trkpt lat="48.85809" lon="2.21424">
        <ele>140.4</ele>
        <time>2015-07-06T19:35:20.066Z</time>
      </trkpt>
      <trkpt lat="48.85814" lon="2.21419">
        <ele>139.8</ele>
        <time>2015-07-06T19:35:21.071Z</time>
      </trkpt>
      <trkpt lat="48.85819" lon="2.21416">
        <ele>139.7</ele>
        <time>2015-07-06T19:35:22.078Z</time>
      </trkpt>
      <trkpt lat="48.85825" lon="2.21414">
        <ele>139.5</ele>
        <time>2015-07-06T19:35:23.086Z</time>
      </trkpt>
      <trkpt lat="48.85832" lon="2.21411">
        <ele>139.3</ele>
        <time>2015-07-06T19:35:24.096Z</time>
      </trkpt>
      <trkpt lat="48.85838" lon="2.21407">
        <ele>138.9</ele>
        <time>2015-07-06T19:35:25.007Z</time>
      </trkpt>
      <trkpt lat="48.85844" lon="2.21403">
        <ele>138.9</ele>
        <time>2015-07-06T19:35:26.075Z</time>
      </trkpt>
      <trkpt lat="48.85849" lon="2.21399">
        <ele>138.6</ele>
        <time>2015-07-06T19:35:27.054Z</time>
      </trkpt>
      <trkpt lat="48.85855" lon="2.21396">
        <ele>138.8</ele>
        <time>2015-07-06T19:35:28.076Z</time>
      </trkpt>
      <trkpt lat="48.8586" lon="2.21392">
        <ele>138.9</ele>
        <time>2015-07-06T19:35:29.108Z</time>
      </trkpt>
      <trkpt lat="48.85864" lon="2.21386">
        <ele>139</ele>
        <time>2015-07-06T19:35:30.019Z</time>
      </trkpt>
      <trkpt lat="48.8587" lon="2.21381">
        <ele>138.3</ele>
        <time>2015-07-06T19:35:31.004Z</time>
      </trkpt>
      <trkpt lat="48.85876" lon="2.21377">
        <ele>137.7</ele>
        <time>2015-07-06T19:35:32.045Z</time>
      </trkpt>
      <trkpt lat="48.85881" lon="2.2137">
        <ele>137.7</ele>
        <time>2015-07-06T19:35:33.049Z</time>
      </trkpt>
      <trkpt lat="48.85886" lon="2.21365">
        <ele>137.7</ele>
        <time>2015-07-06T19:35:34.052Z</time>
      </trkpt>
      <trkpt lat="48.85892" lon="2.2136">
        <ele>138</ele>
        <time>2015-07-06T19:35:35.052Z</time>
      </trkpt>
      <trkpt lat="48.85896" lon="2.21357">
        <ele>137.8</ele>
        <time>2015-07-06T19:35:36.057Z</time>
      </trkpt>
      <trkpt lat="48.85902" lon="2.21349">
        <ele>137.8</ele>
        <time>2015-07-06T19:35:38.088Z</time>
      </trkpt>
      <trkpt lat="48.85905" lon="2.21346">
        <ele>137.8</ele>
        <time>2015-07-06T19:35:39.023Z</time>
      </trkpt>
      <trkpt lat="48.85911" lon="2.21347">
        <ele>137.3</ele>
        <time>2015-07-06T19:35:41.089Z</time>
      </trkpt>
      <trkpt lat="48.85914" lon="2.21349">
        <ele>137.5</ele>
        <time>2015-07-06T19:35:41.980Z</time>
      </trkpt>
      <trkpt lat="48.85921" lon="2.21344">
        <ele>136.3</ele>
        <time>2015-07-06T19:35:46.017Z</time>
      </trkpt>
      <trkpt lat="48.85923" lon="2.21343">
        <ele>136.5</ele>
        <time>2015-07-06T19:35:47.020Z</time>
      </trkpt>
      <trkpt lat="48.85925" lon="2.21343">
        <ele>136.3</ele>
        <time>2015-07-06T19:36:27.053Z</time>
      </trkpt>
      <trkpt lat="48.85936" lon="2.21374">
        <ele>132.6</ele>
        <time>2015-07-06T19:36:28.254Z</time>
      </trkpt>
      <trkpt lat="48.85942" lon="2.21383">
        <ele>130.8</ele>
        <time>2015-07-06T19:36:32.115Z</time>
      </trkpt>
      <trkpt lat="48.85944" lon="2.21381">
        <ele>130.3</ele>
        <time>2015-07-06T19:36:33.041Z</time>
      </trkpt>
      <trkpt lat="48.8595" lon="2.21373">
        <ele>129.8</ele>
        <time>2015-07-06T19:36:42.040Z</time>
      </trkpt>
      <trkpt lat="48.85953" lon="2.21368">
        <ele>129.8</ele>
        <time>2015-07-06T19:36:43.061Z</time>
      </trkpt>
      <trkpt lat="48.85958" lon="2.21362">
        <ele>129.7</ele>
        <time>2015-07-06T19:36:46.034Z</time>
      </trkpt>
      <trkpt lat="48.8596" lon="2.2136">
        <ele>129.6</ele>
        <time>2015-07-06T19:36:47.009Z</time>
      </trkpt>
      <trkpt lat="48.85966" lon="2.21356">
        <ele>129.2</ele>
        <time>2015-07-06T19:36:49.031Z</time>
      </trkpt>
      <trkpt lat="48.85969" lon="2.21354">
        <ele>129.1</ele>
        <time>2015-07-06T19:36:50.090Z</time>
      </trkpt>
      <trkpt lat="48.85976" lon="2.21351">
        <ele>129.1</ele>
        <time>2015-07-06T19:36:52.011Z</time>
      </trkpt>
      <trkpt lat="48.85979" lon="2.21348">
        <ele>129.2</ele>
        <time>2015-07-06T19:36:53.042Z</time>
      </trkpt>
      <trkpt lat="48.85988" lon="2.21343">
        <ele>129.9</ele>
        <time>2015-07-06T19:36:55.029Z</time>
      </trkpt>
      <trkpt lat="48.85991" lon="2.2134">
        <ele>130.2</ele>
        <time>2015-07-06T19:36:56.119Z</time>
      </trkpt>
      <trkpt lat="48.85996" lon="2.21337">
        <ele>130.2</ele>
        <time>2015-07-06T19:36:57.037Z</time>
      </trkpt>
      <trkpt lat="48.86" lon="2.21333">
        <ele>130.3</ele>
        <time>2015-07-06T19:36:58.021Z</time>
      </trkpt>
      <trkpt lat="48.86005" lon="2.2133">
        <ele>130.4</ele>
        <time>2015-07-06T19:36:59.050Z</time>
      </trkpt>
      <trkpt lat="48.8601" lon="2.21328">
        <ele>130.5</ele>
        <time>2015-07-06T19:37:00.066Z</time>
      </trkpt>
      <trkpt lat="48.86014" lon="2.21326">
        <ele>130.7</ele>
        <time>2015-07-06T19:37:00.994Z</time>
      </trkpt>
      <trkpt lat="48.86019" lon="2.21324">
        <ele>130.6</ele>
        <time>2015-07-06T19:37:02.059Z</time>
      </trkpt>
      <trkpt lat="48.86023" lon="2.2132">
        <ele>130.7</ele>
        <time>2015-07-06T19:37:03.059Z</time>
      </trkpt>
      <trkpt lat="48.86027" lon="2.21316">
        <ele>130.5</ele>
        <time>2015-07-06T19:37:04.074Z</time>
      </trkpt>
      <trkpt lat="48.86031" lon="2.21313">
        <ele>130.8</ele>
        <time>2015-07-06T19:37:05.091Z</time>
      </trkpt>
      <trkpt lat="48.86036" lon="2.21311">
        <ele>130.8</ele>
        <time>2015-07-06T19:37:06.100Z</time>
      </trkpt>
      <trkpt lat="48.8604" lon="2.21309">
        <ele>130.8</ele>
        <time>2015-07-06T19:37:07.018Z</time>
      </trkpt>
      <trkpt lat="48.86045" lon="2.21306">
        <ele>130.8</ele>
        <time>2015-07-06T19:37:08.089Z</time>
      </trkpt>
      <trkpt lat="48.8605" lon="2.21304">
        <ele>130.9</ele>
        <time>2015-07-06T19:37:08.982Z</time>
      </trkpt>
      <trkpt lat="48.86055" lon="2.21301">
        <ele>130.8</ele>
        <time>2015-07-06T19:37:10.018Z</time>
      </trkpt>
      <trkpt lat="48.8606" lon="2.21298">
        <ele>130.5</ele>
        <time>2015-07-06T19:37:11.022Z</time>
      </trkpt>
      <trkpt lat="48.86065" lon="2.21295">
        <ele>130.9</ele>
        <time>2015-07-06T19:37:12.035Z</time>
      </trkpt>
      <trkpt lat="48.8607" lon="2.21292">
        <ele>131.6</ele>
        <time>2015-07-06T19:37:13.038Z</time>
      </trkpt>
      <trkpt lat="48.86075" lon="2.21288">
        <ele>131.9</ele>
        <time>2015-07-06T19:37:14.045Z</time>
      </trkpt>
      <trkpt lat="48.86079" lon="2.21286">
        <ele>132.2</ele>
        <time>2015-07-06T19:37:15.063Z</time>
      </trkpt>
      <trkpt lat="48.86084" lon="2.21284">
        <ele>132.3</ele>
        <time>2015-07-06T19:37:16.076Z</time>
      </trkpt>
      <trkpt lat="48.86089" lon="2.21282">
        <ele>132.4</ele>
        <time>2015-07-06T19:37:17.013Z</time>
      </trkpt>
      <trkpt lat="48.86094" lon="2.2128">
        <ele>132.5</ele>
        <time>2015-07-06T19:37:18.013Z</time>
      </trkpt>
      <trkpt lat="48.86099" lon="2.21277">
        <ele>132.7</ele>
        <time>2015-07-06T19:37:19.030Z</time>
      </trkpt>
      <trkpt lat="48.86104" lon="2.21276">
        <ele>132.8</ele>
        <time>2015-07-06T19:37:20.060Z</time>
      </trkpt>
      <trkpt lat="48.86113" lon="2.21272">
        <ele>133.1</ele>
        <time>2015-07-06T19:37:22.076Z</time>
      </trkpt>
      <trkpt lat="48.86117" lon="2.21271">
        <ele>133.4</ele>
        <time>2015-07-06T19:37:23.093Z</time>
      </trkpt>
      <trkpt lat="48.86122" lon="2.21269">
        <ele>133.8</ele>
        <time>2015-07-06T19:37:24.015Z</time>
      </trkpt>
      <trkpt lat="48.86126" lon="2.21267">
        <ele>134</ele>
        <time>2015-07-06T19:37:25.031Z</time>
      </trkpt>
      <trkpt lat="48.86131" lon="2.21266">
        <ele>134.5</ele>
        <time>2015-07-06T19:37:26.058Z</time>
      </trkpt>
      <trkpt lat="48.86135" lon="2.21264">
        <ele>134.9</ele>
        <time>2015-07-06T19:37:27.077Z</time>
      </trkpt>
      <trkpt lat="48.86143" lon="2.21263">
        <ele>135.4</ele>
        <time>2015-07-06T19:37:29.087Z</time>
      </trkpt>
      <trkpt lat="48.86148" lon="2.21263">
        <ele>135.4</ele>
        <time>2015-07-06T19:37:30.011Z</time>
      </trkpt>
      <trkpt lat="48.86155" lon="2.21263">
        <ele>135</ele>
        <time>2015-07-06T19:37:32.052Z</time>
      </trkpt>
      <trkpt lat="48.86158" lon="2.21263">
        <ele>135</ele>
        <time>2015-07-06T19:37:33.052Z</time>
      </trkpt>
      <trkpt lat="48.86165" lon="2.21261">
        <ele>134.8</ele>
        <time>2015-07-06T19:37:35.063Z</time>
      </trkpt>
      <trkpt lat="48.86167" lon="2.21259">
        <ele>134.7</ele>
        <time>2015-07-06T19:37:36.074Z</time>
      </trkpt>
      <trkpt lat="48.86173" lon="2.21251">
        <ele>135.2</ele>
        <time>2015-07-06T19:37:39.100Z</time>
      </trkpt>
      <trkpt lat="48.86174" lon="2.21248">
        <ele>135.3</ele>
        <time>2015-07-06T19:37:40.136Z</time>
      </trkpt>
      <trkpt lat="48.86174" lon="2.21247">
        <ele>133.6</ele>
        <time>2015-07-06T19:37:47.035Z</time>
      </trkpt>
      <trkpt lat="48.86178" lon="2.21265">
        <ele>133.4</ele>
        <time>2015-07-06T19:37:48.054Z</time>
      </trkpt>
      <trkpt lat="48.8618" lon="2.21276">
        <ele>133.3</ele>
        <time>2015-07-06T19:37:51.117Z</time>
      </trkpt>
      <trkpt lat="48.86182" lon="2.21278">
        <ele>133.4</ele>
        <time>2015-07-06T19:37:52.054Z</time>
      </trkpt>
      <trkpt lat="48.86191" lon="2.21276">
        <ele>134.3</ele>
        <time>2015-07-06T19:37:56.094Z</time>
      </trkpt>
      <trkpt lat="48.86193" lon="2.21276">
        <ele>134.7</ele>
        <time>2015-07-06T19:37:57.038Z</time>
      </trkpt>
      <trkpt lat="48.862" lon="2.21276">
        <ele>134.9</ele>
        <time>2015-07-06T19:37:59.020Z</time>
      </trkpt>
      <trkpt lat="48.86204" lon="2.21277">
        <ele>135.2</ele>
        <time>2015-07-06T19:38:00.256Z</time>
      </trkpt>
      <trkpt lat="48.8621" lon="2.21278">
        <ele>135.9</ele>
        <time>2015-07-06T19:38:02.060Z</time>
      </trkpt>
      <trkpt lat="48.86215" lon="2.21277">
        <ele>136.3</ele>
        <time>2015-07-06T19:38:03.062Z</time>
      </trkpt>
      <trkpt lat="48.8622" lon="2.21278">
        <ele>136.6</ele>
        <time>2015-07-06T19:38:04.096Z</time>
      </trkpt>
      <trkpt lat="48.86226" lon="2.2128">
        <ele>136.6</ele>
        <time>2015-07-06T19:38:05.012Z</time>
      </trkpt>
      <trkpt lat="48.86231" lon="2.21281">
        <ele>136.7</ele>
        <time>2015-07-06T19:38:06.003Z</time>
      </trkpt>
      <trkpt lat="48.86237" lon="2.21281">
        <ele>136.6</ele>
        <time>2015-07-06T19:38:07.023Z</time>
      </trkpt>
      <trkpt lat="48.86242" lon="2.21281">
        <ele>136.7</ele>
        <time>2015-07-06T19:38:08.072Z</time>
      </trkpt>
      <trkpt lat="48.86247" lon="2.2128">
        <ele>137</ele>
        <time>2015-07-06T19:38:09.068Z</time>
      </trkpt>
      <trkpt lat="48.86251" lon="2.21279">
        <ele>137.2</ele>
        <time>2015-07-06T19:38:10.078Z</time>
      </trkpt>
      <trkpt lat="48.86256" lon="2.21277">
        <ele>137.3</ele>
        <time>2015-07-06T19:38:11.011Z</time>
      </trkpt>
      <trkpt lat="48.86262" lon="2.21275">
        <ele>137.4</ele>
        <time>2015-07-06T19:38:12.013Z</time>
      </trkpt>
      <trkpt lat="48.86268" lon="2.21272">
        <ele>137.3</ele>
        <time>2015-07-06T19:38:13.015Z</time>
      </trkpt>
      <trkpt lat="48.86273" lon="2.21268">
        <ele>136.9</ele>
        <time>2015-07-06T19:38:14.059Z</time>
      </trkpt>
      <trkpt lat="48.86279" lon="2.21263">
        <ele>136.5</ele>
        <time>2015-07-06T19:38:15.046Z</time>
      </trkpt>
      <trkpt lat="48.86284" lon="2.21259">
        <ele>135.9</ele>
        <time>2015-07-06T19:38:16.499Z</time>
      </trkpt>
      <trkpt lat="48.86289" lon="2.21255">
        <ele>136.2</ele>
        <time>2015-07-06T19:38:17.069Z</time>
      </trkpt>
      <trkpt lat="48.86292" lon="2.21249">
        <ele>136.4</ele>
        <time>2015-07-06T19:38:18.001Z</time>
      </trkpt>
      <trkpt lat="48.86295" lon="2.21244">
        <ele>136.5</ele>
        <time>2015-07-06T19:38:19.094Z</time>
      </trkpt>
      <trkpt lat="48.86298" lon="2.21239">
        <ele>137</ele>
        <time>2015-07-06T19:38:20.106Z</time>
      </trkpt>
      <trkpt lat="48.86301" lon="2.21233">
        <ele>136.7</ele>
        <time>2015-07-06T19:38:21.008Z</time>
      </trkpt>
      <trkpt lat="48.86306" lon="2.21225">
        <ele>136.3</ele>
        <time>2015-07-06T19:38:23.050Z</time>
      </trkpt>
      <trkpt lat="48.86309" lon="2.21221">
        <ele>136.3</ele>
        <time>2015-07-06T19:38:24.117Z</time>
      </trkpt>
      <trkpt lat="48.86316" lon="2.21217">
        <ele>135.8</ele>
        <time>2015-07-06T19:38:27.066Z</time>
      </trkpt>
      <trkpt lat="48.86318" lon="2.21216">
        <ele>135.7</ele>
        <time>2015-07-06T19:38:28.086Z</time>
      </trkpt>
      <trkpt lat="48.86325" lon="2.21214">
        <ele>135.8</ele>
        <time>2015-07-06T19:38:31.033Z</time>
      </trkpt>
      <trkpt lat="48.86328" lon="2.21214">
        <ele>135.8</ele>
        <time>2015-07-06T19:38:32.099Z</time>
      </trkpt>
      <trkpt lat="48.86336" lon="2.21222">
        <ele>136.3</ele>
        <time>2015-07-06T19:38:34.012Z</time>
      </trkpt>
      <trkpt lat="48.86339" lon="2.21227">
        <ele>136.8</ele>
        <time>2015-07-06T19:38:35.127Z</time>
      </trkpt>
      <trkpt lat="48.86343" lon="2.21231">
        <ele>136.9</ele>
        <time>2015-07-06T19:38:36.016Z</time>
      </trkpt>
      <trkpt lat="48.86346" lon="2.21235">
        <ele>137.2</ele>
        <time>2015-07-06T19:38:37.020Z</time>
      </trkpt>
      <trkpt lat="48.8635" lon="2.21239">
        <ele>137.5</ele>
        <time>2015-07-06T19:38:38.071Z</time>
      </trkpt>
      <trkpt lat="48.86355" lon="2.21244">
        <ele>138.3</ele>
        <time>2015-07-06T19:38:39.051Z</time>
      </trkpt>
      <trkpt lat="48.8636" lon="2.21249">
        <ele>138.7</ele>
        <time>2015-07-06T19:38:40.080Z</time>
      </trkpt>
      <trkpt lat="48.86364" lon="2.21255">
        <ele>139</ele>
        <time>2015-07-06T19:38:41.105Z</time>
      </trkpt>
      <trkpt lat="48.86369" lon="2.2126">
        <ele>139.4</ele>
        <time>2015-07-06T19:38:41.979Z</time>
      </trkpt>
      <trkpt lat="48.86373" lon="2.21267">
        <ele>139.4</ele>
        <time>2015-07-06T19:38:43.007Z</time>
      </trkpt>
      <trkpt lat="48.86379" lon="2.21273">
        <ele>140</ele>
        <time>2015-07-06T19:38:44.058Z</time>
      </trkpt>
      <trkpt lat="48.86384" lon="2.21279">
        <ele>140.6</ele>
        <time>2015-07-06T19:38:45.057Z</time>
      </trkpt>
      <trkpt lat="48.86389" lon="2.21285">
        <ele>140.8</ele>
        <time>2015-07-06T19:38:46.100Z</time>
      </trkpt>
      <trkpt lat="48.86394" lon="2.21291">
        <ele>140.7</ele>
        <time>2015-07-06T19:38:46.978Z</time>
      </trkpt>
      <trkpt lat="48.86399" lon="2.21296">
        <ele>140.3</ele>
        <time>2015-07-06T19:38:48.013Z</time>
      </trkpt>
      <trkpt lat="48.86403" lon="2.21302">
        <ele>140.1</ele>
        <time>2015-07-06T19:38:48.995Z</time>
      </trkpt>
      <trkpt lat="48.86407" lon="2.21307">
        <ele>139.7</ele>
        <time>2015-07-06T19:38:50.059Z</time>
      </trkpt>
      <trkpt lat="48.8641" lon="2.21311">
        <ele>139.3</ele>
        <time>2015-07-06T19:38:51.081Z</time>
      </trkpt>
      <trkpt lat="48.86413" lon="2.21316">
        <ele>140.1</ele>
        <time>2015-07-06T19:38:52.095Z</time>
      </trkpt>
      <trkpt lat="48.86416" lon="2.21321">
        <ele>140.1</ele>
        <time>2015-07-06T19:38:53.034Z</time>
      </trkpt>
      <trkpt lat="48.86421" lon="2.21325">
        <ele>140.1</ele>
        <time>2015-07-06T19:38:54.012Z</time>
      </trkpt>
      <trkpt lat="48.86424" lon="2.2133">
        <ele>140.1</ele>
        <time>2015-07-06T19:38:55.015Z</time>
      </trkpt>
      <trkpt lat="48.86427" lon="2.21335">
        <ele>140.1</ele>
        <time>2015-07-06T19:38:56.056Z</time>
      </trkpt>
      <trkpt lat="48.86431" lon="2.2134">
        <ele>140.3</ele>
        <time>2015-07-06T19:38:57.060Z</time>
      </trkpt>
      <trkpt lat="48.86434" lon="2.21344">
        <ele>140.2</ele>
        <time>2015-07-06T19:38:58.072Z</time>
      </trkpt>
      <trkpt lat="48.86438" lon="2.21348">
        <ele>140</ele>
        <time>2015-07-06T19:38:59.081Z</time>
      </trkpt>
      <trkpt lat="48.86442" lon="2.21352">
        <ele>139.7</ele>
        <time>2015-07-06T19:39:00.021Z</time>
      </trkpt>
      <trkpt lat="48.86446" lon="2.21356">
        <ele>139.6</ele>
        <time>2015-07-06T19:39:01.018Z</time>
      </trkpt>
      <trkpt lat="48.86452" lon="2.21364">
        <ele>139.6</ele>
        <time>2015-07-06T19:39:03.062Z</time>
      </trkpt>
      <trkpt lat="48.86454" lon="2.21368">
        <ele>139.6</ele>
        <time>2015-07-06T19:39:04.070Z</time>
      </trkpt>
      <trkpt lat="48.86458" lon="2.21376">
        <ele>139.2</ele>
        <time>2015-07-06T19:39:06.009Z</time>
      </trkpt>
      <trkpt lat="48.8646" lon="2.2138">
        <ele>139.4</ele>
        <time>2015-07-06T19:39:07.034Z</time>
      </trkpt>
      <trkpt lat="48.86467" lon="2.21388">
        <ele>139.7</ele>
        <time>2015-07-06T19:39:09.064Z</time>
      </trkpt>
      <trkpt lat="48.86471" lon="2.21392">
        <ele>139.3</ele>
        <time>2015-07-06T19:39:10.078Z</time>
      </trkpt>
      <trkpt lat="48.86476" lon="2.21399">
        <ele>139.6</ele>
        <time>2015-07-06T19:39:12.009Z</time>
      </trkpt>
      <trkpt lat="48.86481" lon="2.21404">
        <ele>139.6</ele>
        <time>2015-07-06T19:39:13.035Z</time>
      </trkpt>
      <trkpt lat="48.86485" lon="2.2141">
        <ele>139.9</ele>
        <time>2015-07-06T19:39:14.087Z</time>
      </trkpt>
      <trkpt lat="48.86488" lon="2.21415">
        <ele>139.6</ele>
        <time>2015-07-06T19:39:15.094Z</time>
      </trkpt>
      <trkpt lat="48.86492" lon="2.21419">
        <ele>139</ele>
        <time>2015-07-06T19:39:16.002Z</time>
      </trkpt>
      <trkpt lat="48.86496" lon="2.21425">
        <ele>139.2</ele>
        <time>2015-07-06T19:39:17.005Z</time>
      </trkpt>
      <trkpt lat="48.865" lon="2.21431">
        <ele>139.3</ele>
        <time>2015-07-06T19:39:18.002Z</time>
      </trkpt>
      <trkpt lat="48.86505" lon="2.21437">
        <ele>139.9</ele>
        <time>2015-07-06T19:39:19.012Z</time>
      </trkpt>
      <trkpt lat="48.86509" lon="2.21443">
        <ele>140.2</ele>
        <time>2015-07-06T19:39:20.059Z</time>
      </trkpt>
      <trkpt lat="48.86515" lon="2.21448">
        <ele>140.3</ele>
        <time>2015-07-06T19:39:21.061Z</time>
      </trkpt>
      <trkpt lat="48.86521" lon="2.21453">
        <ele>140.5</ele>
        <time>2015-07-06T19:39:22.064Z</time>
      </trkpt>
      <trkpt lat="48.86527" lon="2.21459">
        <ele>140.9</ele>
        <time>2015-07-06T19:39:23.070Z</time>
      </trkpt>
      <trkpt lat="48.86534" lon="2.21464">
        <ele>141.6</ele>
        <time>2015-07-06T19:39:24.075Z</time>
      </trkpt>
      <trkpt lat="48.86541" lon="2.2147">
        <ele>142.5</ele>
        <time>2015-07-06T19:39:25.141Z</time>
      </trkpt>
      <trkpt lat="48.86549" lon="2.21476">
        <ele>143.4</ele>
        <time>2015-07-06T19:39:26.093Z</time>
      </trkpt>
      <trkpt lat="48.86554" lon="2.21483">
        <ele>143.8</ele>
        <time>2015-07-06T19:39:27.104Z</time>
      </trkpt>
      <trkpt lat="48.86559" lon="2.21491">
        <ele>144.4</ele>
        <time>2015-07-06T19:39:28.032Z</time>
      </trkpt>
      <trkpt lat="48.86564" lon="2.21498">
        <ele>144.9</ele>
        <time>2015-07-06T19:39:29.006Z</time>
      </trkpt>
      <trkpt lat="48.8657" lon="2.21505">
        <ele>145.1</ele>
        <time>2015-07-06T19:39:30.026Z</time>
      </trkpt>
      <trkpt lat="48.86576" lon="2.21513">
        <ele>145.1</ele>
        <time>2015-07-06T19:39:31.040Z</time>
      </trkpt>
      <trkpt lat="48.86582" lon="2.21519">
        <ele>144.9</ele>
        <time>2015-07-06T19:39:32.051Z</time>
      </trkpt>
      <trkpt lat="48.86587" lon="2.21525">
        <ele>144.9</ele>
        <time>2015-07-06T19:39:33.062Z</time>
      </trkpt>
      <trkpt lat="48.86591" lon="2.21531">
        <ele>144.7</ele>
        <time>2015-07-06T19:39:34.068Z</time>
      </trkpt>
      <trkpt lat="48.86595" lon="2.21536">
        <ele>144.8</ele>
        <time>2015-07-06T19:39:35.084Z</time>
      </trkpt>
      <trkpt lat="48.866" lon="2.21541">
        <ele>145.1</ele>
        <time>2015-07-06T19:39:36.086Z</time>
      </trkpt>
      <trkpt lat="48.86604" lon="2.21546">
        <ele>144.9</ele>
        <time>2015-07-06T19:39:37.167Z</time>
      </trkpt>
      <trkpt lat="48.86607" lon="2.21552">
        <ele>144.8</ele>
        <time>2015-07-06T19:39:38.111Z</time>
      </trkpt>
      <trkpt lat="48.8661" lon="2.21557">
        <ele>144.6</ele>
        <time>2015-07-06T19:39:39.011Z</time>
      </trkpt>
      <trkpt lat="48.86615" lon="2.21562">
        <ele>144.8</ele>
        <time>2015-07-06T19:39:40.016Z</time>
      </trkpt>
      <trkpt lat="48.86618" lon="2.21566">
        <ele>144.2</ele>
        <time>2015-07-06T19:39:41.029Z</time>
      </trkpt>
      <trkpt lat="48.86622" lon="2.21571">
        <ele>144.2</ele>
        <time>2015-07-06T19:39:42.035Z</time>
      </trkpt>
      <trkpt lat="48.86628" lon="2.2158">
        <ele>144.4</ele>
        <time>2015-07-06T19:39:44.096Z</time>
      </trkpt>
      <trkpt lat="48.86632" lon="2.21585">
        <ele>144.6</ele>
        <time>2015-07-06T19:39:45.086Z</time>
      </trkpt>
      <trkpt lat="48.86636" lon="2.2159">
        <ele>144.9</ele>
        <time>2015-07-06T19:39:45.863Z</time>
      </trkpt>
      <trkpt lat="48.8664" lon="2.21595">
        <ele>145.3</ele>
        <time>2015-07-06T19:39:47.016Z</time>
      </trkpt>
      <trkpt lat="48.86644" lon="2.21601">
        <ele>146</ele>
        <time>2015-07-06T19:39:48.006Z</time>
      </trkpt>
      <trkpt lat="48.86647" lon="2.21606">
        <ele>146.2</ele>
        <time>2015-07-06T19:39:49.047Z</time>
      </trkpt>
      <trkpt lat="48.86653" lon="2.2161">
        <ele>147.2</ele>
        <time>2015-07-06T19:39:50.057Z</time>
      </trkpt>
      <trkpt lat="48.86659" lon="2.21615">
        <ele>147.8</ele>
        <time>2015-07-06T19:39:51.057Z</time>
      </trkpt>
      <trkpt lat="48.86664" lon="2.2162">
        <ele>148.3</ele>
        <time>2015-07-06T19:39:50.928Z</time>
      </trkpt>
      <trkpt lat="48.86669" lon="2.21625">
        <ele>149.1</ele>
        <time>2015-07-06T19:39:53.064Z</time>
      </trkpt>
      <trkpt lat="48.86674" lon="2.2163">
        <ele>149.2</ele>
        <time>2015-07-06T19:39:54.072Z</time>
      </trkpt>
      <trkpt lat="48.86678" lon="2.21635">
        <ele>149.1</ele>
        <time>2015-07-06T19:39:54.977Z</time>
      </trkpt>
      <trkpt lat="48.86683" lon="2.21639">
        <ele>149.3</ele>
        <time>2015-07-06T19:39:56.056Z</time>
      </trkpt>
      <trkpt lat="48.86686" lon="2.21644">
        <ele>149.4</ele>
        <time>2015-07-06T19:39:57.062Z</time>
      </trkpt>
      <trkpt lat="48.8669" lon="2.21649">
        <ele>149.3</ele>
        <time>2015-07-06T19:39:58.070Z</time>
      </trkpt>
      <trkpt lat="48.86693" lon="2.21653">
        <ele>149.4</ele>
        <time>2015-07-06T19:39:59.075Z</time>
      </trkpt>
      <trkpt lat="48.86698" lon="2.21657">
        <ele>149.8</ele>
        <time>2015-07-06T19:40:00.110Z</time>
      </trkpt>
      <trkpt lat="48.86706" lon="2.2166">
        <ele>150.6</ele>
        <time>2015-07-06T19:40:00.979Z</time>
      </trkpt>
      <trkpt lat="48.86711" lon="2.21664">
        <ele>150.8</ele>
        <time>2015-07-06T19:40:02.023Z</time>
      </trkpt>
      <trkpt lat="48.86714" lon="2.21668">
        <ele>151.4</ele>
        <time>2015-07-06T19:40:03.037Z</time>
      </trkpt>
      <trkpt lat="48.86718" lon="2.21672">
        <ele>151.6</ele>
        <time>2015-07-06T19:40:04.062Z</time>
      </trkpt>
      <trkpt lat="48.86723" lon="2.21675">
        <ele>152.2</ele>
        <time>2015-07-06T19:40:05.093Z</time>
      </trkpt>
      <trkpt lat="48.86728" lon="2.21678">
        <ele>152.3</ele>
        <time>2015-07-06T19:40:06.009Z</time>
      </trkpt>
      <trkpt lat="48.86732" lon="2.21681">
        <ele>152.4</ele>
        <time>2015-07-06T19:40:07.008Z</time>
      </trkpt>
      <trkpt lat="48.86738" lon="2.21688">
        <ele>152.8</ele>
        <time>2015-07-06T19:40:09.054Z</time>
      </trkpt>
      <trkpt lat="48.86742" lon="2.21692">
        <ele>153</ele>
        <time>2015-07-06T19:40:10.066Z</time>
      </trkpt>
      <trkpt lat="48.86746" lon="2.21696">
        <ele>152.9</ele>
        <time>2015-07-06T19:40:11.037Z</time>
      </trkpt>
      <trkpt lat="48.86752" lon="2.21701">
        <ele>152.4</ele>
        <time>2015-07-06T19:40:12.050Z</time>
      </trkpt>
      <trkpt lat="48.86758" lon="2.21705">
        <ele>151.9</ele>
        <time>2015-07-06T19:40:13.053Z</time>
      </trkpt>
      <trkpt lat="48.86765" lon="2.21709">
        <ele>151.2</ele>
        <time>2015-07-06T19:40:14.075Z</time>
      </trkpt>
      <trkpt lat="48.86772" lon="2.21714">
        <ele>150.6</ele>
        <time>2015-07-06T19:40:15.007Z</time>
      </trkpt>
      <trkpt lat="48.8678" lon="2.21718">
        <ele>150.3</ele>
        <time>2015-07-06T19:40:16.008Z</time>
      </trkpt>
      <trkpt lat="48.86787" lon="2.21723">
        <ele>149.8</ele>
        <time>2015-07-06T19:40:17.021Z</time>
      </trkpt>
      <trkpt lat="48.86793" lon="2.21727">
        <ele>149.4</ele>
        <time>2015-07-06T19:40:18.035Z</time>
      </trkpt>
      <trkpt lat="48.86799" lon="2.21732">
        <ele>148.9</ele>
        <time>2015-07-06T19:40:19.075Z</time>
      </trkpt>
      <trkpt lat="48.86804" lon="2.21737">
        <ele>148.4</ele>
        <time>2015-07-06T19:40:20.084Z</time>
      </trkpt>
      <trkpt lat="48.8681" lon="2.21741">
        <ele>148.4</ele>
        <time>2015-07-06T19:40:21.090Z</time>
      </trkpt>
      <trkpt lat="48.86818" lon="2.21745">
        <ele>148.6</ele>
        <time>2015-07-06T19:40:22.001Z</time>
      </trkpt>
      <trkpt lat="48.86825" lon="2.21749">
        <ele>148.6</ele>
        <time>2015-07-06T19:40:23.101Z</time>
      </trkpt>
      <trkpt lat="48.86833" lon="2.21751">
        <ele>148.4</ele>
        <time>2015-07-06T19:40:24.036Z</time>
      </trkpt>
      <trkpt lat="48.86838" lon="2.21753">
        <ele>148</ele>
        <time>2015-07-06T19:40:25.019Z</time>
      </trkpt>
      <trkpt lat="48.86846" lon="2.21752">
        <ele>147.9</ele>
        <time>2015-07-06T19:40:26.056Z</time>
      </trkpt>
      <trkpt lat="48.86854" lon="2.21752">
        <ele>148</ele>
        <time>2015-07-06T19:40:27.067Z</time>
      </trkpt>
      <trkpt lat="48.86862" lon="2.21752">
        <ele>147.9</ele>
        <time>2015-07-06T19:40:28.089Z</time>
      </trkpt>
      <trkpt lat="48.86869" lon="2.21751">
        <ele>148</ele>
        <time>2015-07-06T19:40:29.011Z</time>
      </trkpt>
      <trkpt lat="48.86876" lon="2.21751">
        <ele>148.5</ele>
        <time>2015-07-06T19:40:30.003Z</time>
      </trkpt>
      <trkpt lat="48.86883" lon="2.2175">
        <ele>149.2</ele>
        <time>2015-07-06T19:40:31.009Z</time>
      </trkpt>
      <trkpt lat="48.8689" lon="2.21748">
        <ele>150</ele>
        <time>2015-07-06T19:40:32.073Z</time>
      </trkpt>
      <trkpt lat="48.86896" lon="2.21747">
        <ele>150.4</ele>
        <time>2015-07-06T19:40:32.997Z</time>
      </trkpt>
      <trkpt lat="48.86901" lon="2.21747">
        <ele>150.4</ele>
        <time>2015-07-06T19:40:33.992Z</time>
      </trkpt>
      <trkpt lat="48.86907" lon="2.21746">
        <ele>150.8</ele>
        <time>2015-07-06T19:40:35.021Z</time>
      </trkpt>
      <trkpt lat="48.86912" lon="2.21746">
        <ele>150.9</ele>
        <time>2015-07-06T19:40:36.042Z</time>
      </trkpt>
      <trkpt lat="48.86918" lon="2.21745">
        <ele>151.5</ele>
        <time>2015-07-06T19:40:37.011Z</time>
      </trkpt>
      <trkpt lat="48.86924" lon="2.21744">
        <ele>151.9</ele>
        <time>2015-07-06T19:40:38.036Z</time>
      </trkpt>
      <trkpt lat="48.86929" lon="2.21743">
        <ele>152</ele>
        <time>2015-07-06T19:40:39.032Z</time>
      </trkpt>
      <trkpt lat="48.86934" lon="2.21742">
        <ele>152.2</ele>
        <time>2015-07-06T19:40:40.039Z</time>
      </trkpt>
      <trkpt lat="48.8694" lon="2.21742">
        <ele>152.4</ele>
        <time>2015-07-06T19:40:41.060Z</time>
      </trkpt>
      <trkpt lat="48.86948" lon="2.21742">
        <ele>152.5</ele>
        <time>2015-07-06T19:40:42.086Z</time>
      </trkpt>
      <trkpt lat="48.86957" lon="2.21742">
        <ele>152.1</ele>
        <time>2015-07-06T19:40:43.035Z</time>
      </trkpt>
      <trkpt lat="48.86965" lon="2.21743">
        <ele>151.3</ele>
        <time>2015-07-06T19:40:44.029Z</time>
      </trkpt>
      <trkpt lat="48.86973" lon="2.21745">
        <ele>150.5</ele>
        <time>2015-07-06T19:40:45.045Z</time>
      </trkpt>
      <trkpt lat="48.8698" lon="2.21749">
        <ele>149.9</ele>
        <time>2015-07-06T19:40:46.017Z</time>
      </trkpt>
      <trkpt lat="48.86986" lon="2.21752">
        <ele>149.8</ele>
        <time>2015-07-06T19:40:47.001Z</time>
      </trkpt>
      <trkpt lat="48.86991" lon="2.21757">
        <ele>149.3</ele>
        <time>2015-07-06T19:40:48.040Z</time>
      </trkpt>
      <trkpt lat="48.86995" lon="2.21761">
        <ele>149.1</ele>
        <time>2015-07-06T19:40:49.063Z</time>
      </trkpt>
      <trkpt lat="48.86999" lon="2.21765">
        <ele>149.2</ele>
        <time>2015-07-06T19:40:50.091Z</time>
      </trkpt>
      <trkpt lat="48.87006" lon="2.21771">
        <ele>149.1</ele>
        <time>2015-07-06T19:40:52.038Z</time>
      </trkpt>
      <trkpt lat="48.87009" lon="2.21774">
        <ele>149</ele>
        <time>2015-07-06T19:40:53.048Z</time>
      </trkpt>
      <trkpt lat="48.87016" lon="2.21782">
        <ele>148.5</ele>
        <time>2015-07-06T19:40:56.040Z</time>
      </trkpt>
      <trkpt lat="48.87019" lon="2.21784">
        <ele>148.1</ele>
        <time>2015-07-06T19:40:57.063Z</time>
      </trkpt>
      <trkpt lat="48.87025" lon="2.21788">
        <ele>148.4</ele>
        <time>2015-07-06T19:40:59.048Z</time>
      </trkpt>
      <trkpt lat="48.87028" lon="2.21791">
        <ele>148.6</ele>
        <time>2015-07-06T19:41:00.139Z</time>
      </trkpt>
      <trkpt lat="48.87034" lon="2.21796">
        <ele>149.2</ele>
        <time>2015-07-06T19:41:02.113Z</time>
      </trkpt>
      <trkpt lat="48.87036" lon="2.21798">
        <ele>148.9</ele>
        <time>2015-07-06T19:41:03.001Z</time>
      </trkpt>
      <trkpt lat="48.87042" lon="2.21809">
        <ele>148.8</ele>
        <time>2015-07-06T19:41:07.014Z</time>
      </trkpt>
      <trkpt lat="48.87043" lon="2.21811">
        <ele>149</ele>
        <time>2015-07-06T19:41:08.111Z</time>
      </trkpt>
      <trkpt lat="48.8705" lon="2.21817">
        <ele>149.4</ele>
        <time>2015-07-06T19:41:11.116Z</time>
      </trkpt>
      <trkpt lat="48.87052" lon="2.21818">
        <ele>149.3</ele>
        <time>2015-07-06T19:41:12.031Z</time>
      </trkpt>
      <trkpt lat="48.87059" lon="2.21822">
        <ele>149.5</ele>
        <time>2015-07-06T19:41:14.997Z</time>
      </trkpt>
      <trkpt lat="48.87061" lon="2.21824">
        <ele>149.4</ele>
        <time>2015-07-06T19:41:16.089Z</time>
      </trkpt>
      <trkpt lat="48.87069" lon="2.21827">
        <ele>148.8</ele>
        <time>2015-07-06T19:41:19.460Z</time>
      </trkpt>
      <trkpt lat="48.87071" lon="2.21829">
        <ele>148.9</ele>
        <time>2015-07-06T19:41:20.038Z</time>
      </trkpt>
      <trkpt lat="48.87078" lon="2.21832">
        <ele>149.4</ele>
        <time>2015-07-06T19:41:22.017Z</time>
      </trkpt>
      <trkpt lat="48.87081" lon="2.21835">
        <ele>149.6</ele>
        <time>2015-07-06T19:41:23.088Z</time>
      </trkpt>
      <trkpt lat="48.87087" lon="2.21838">
        <ele>150.1</ele>
        <time>2015-07-06T19:41:25.025Z</time>
      </trkpt>
      <trkpt lat="48.8709" lon="2.21841">
        <ele>150.1</ele>
        <time>2015-07-06T19:41:26.040Z</time>
      </trkpt>
      <trkpt lat="48.87095" lon="2.21844">
        <ele>149.7</ele>
        <time>2015-07-06T19:41:28.140Z</time>
      </trkpt>
      <trkpt lat="48.87099" lon="2.21844">
        <ele>149.7</ele>
        <time>2015-07-06T19:41:29.012Z</time>
      </trkpt>
      <trkpt lat="48.87104" lon="2.21845">
        <ele>149.9</ele>
        <time>2015-07-06T19:41:30.023Z</time>
      </trkpt>
      <trkpt lat="48.87109" lon="2.21847">
        <ele>150.2</ele>
        <time>2015-07-06T19:41:31.057Z</time>
      </trkpt>
      <trkpt lat="48.87114" lon="2.21851">
        <ele>150.3</ele>
        <time>2015-07-06T19:41:32.062Z</time>
      </trkpt>
      <trkpt lat="48.87119" lon="2.21855">
        <ele>149.9</ele>
        <time>2015-07-06T19:41:33.078Z</time>
      </trkpt>
      <trkpt lat="48.87125" lon="2.21861">
        <ele>149.5</ele>
        <time>2015-07-06T19:41:34.622Z</time>
      </trkpt>
      <trkpt lat="48.87131" lon="2.21864">
        <ele>149.5</ele>
        <time>2015-07-06T19:41:35.079Z</time>
      </trkpt>
      <trkpt lat="48.87137" lon="2.21867">
        <ele>149.4</ele>
        <time>2015-07-06T19:41:36.085Z</time>
      </trkpt>
      <trkpt lat="48.87143" lon="2.21871">
        <ele>149</ele>
        <time>2015-07-06T19:41:37.032Z</time>
      </trkpt>
      <trkpt lat="48.87148" lon="2.21874">
        <ele>149</ele>
        <time>2015-07-06T19:41:38.119Z</time>
      </trkpt>
      <trkpt lat="48.87154" lon="2.21879">
        <ele>149.1</ele>
        <time>2015-07-06T19:41:39.006Z</time>
      </trkpt>
      <trkpt lat="48.8716" lon="2.21884">
        <ele>149.1</ele>
        <time>2015-07-06T19:41:40.009Z</time>
      </trkpt>
      <trkpt lat="48.87166" lon="2.21888">
        <ele>148.9</ele>
        <time>2015-07-06T19:41:41.026Z</time>
      </trkpt>
      <trkpt lat="48.87172" lon="2.21891">
        <ele>149.1</ele>
        <time>2015-07-06T19:41:42.086Z</time>
      </trkpt>
      <trkpt lat="48.87178" lon="2.21894">
        <ele>149</ele>
        <time>2015-07-06T19:41:43.184Z</time>
      </trkpt>
      <trkpt lat="48.87183" lon="2.21897">
        <ele>148.4</ele>
        <time>2015-07-06T19:41:44.056Z</time>
      </trkpt>
      <trkpt lat="48.87189" lon="2.219">
        <ele>148.3</ele>
        <time>2015-07-06T19:41:45.061Z</time>
      </trkpt>
      <trkpt lat="48.87198" lon="2.21901">
        <ele>147.3</ele>
        <time>2015-07-06T19:41:47.098Z</time>
      </trkpt>
      <trkpt lat="48.87203" lon="2.21899">
        <ele>146.9</ele>
        <time>2015-07-06T19:41:48.031Z</time>
      </trkpt>
      <trkpt lat="48.87208" lon="2.21897">
        <ele>146.7</ele>
        <time>2015-07-06T19:41:49.075Z</time>
      </trkpt>
      <trkpt lat="48.87213" lon="2.21896">
        <ele>146.5</ele>
        <time>2015-07-06T19:41:50.077Z</time>
      </trkpt>
      <trkpt lat="48.87218" lon="2.21892">
        <ele>146.2</ele>
        <time>2015-07-06T19:41:51.006Z</time>
      </trkpt>
      <trkpt lat="48.87222" lon="2.21888">
        <ele>146.3</ele>
        <time>2015-07-06T19:41:52.005Z</time>
      </trkpt>
      <trkpt lat="48.87229" lon="2.2188">
        <ele>145.9</ele>
        <time>2015-07-06T19:41:54.050Z</time>
      </trkpt>
      <trkpt lat="48.87231" lon="2.21875">
        <ele>145.5</ele>
        <time>2015-07-06T19:41:55.084Z</time>
      </trkpt>
      <trkpt lat="48.87238" lon="2.21869">
        <ele>146.1</ele>
        <time>2015-07-06T19:41:59.048Z</time>
      </trkpt>
      <trkpt lat="48.87241" lon="2.21874">
        <ele>146</ele>
        <time>2015-07-06T19:42:00.066Z</time>
      </trkpt>
      <trkpt lat="48.87245" lon="2.21884">
        <ele>146</ele>
        <time>2015-07-06T19:42:02.975Z</time>
      </trkpt>
      <trkpt lat="48.87244" lon="2.21888">
        <ele>145.5</ele>
        <time>2015-07-06T19:42:04.028Z</time>
      </trkpt>
      <trkpt lat="48.87246" lon="2.21899">
        <ele>145.2</ele>
        <time>2015-07-06T19:42:07.054Z</time>
      </trkpt>
      <trkpt lat="48.87248" lon="2.21902">
        <ele>145.3</ele>
        <time>2015-07-06T19:42:08.115Z</time>
      </trkpt>
      <trkpt lat="48.87255" lon="2.21909">
        <ele>146.1</ele>
        <time>2015-07-06T19:42:11.043Z</time>
      </trkpt>
      <trkpt lat="48.87257" lon="2.21912">
        <ele>146</ele>
        <time>2015-07-06T19:42:12.061Z</time>
      </trkpt>
      <trkpt lat="48.87263" lon="2.21916">
        <ele>146.5</ele>
        <time>2015-07-06T19:42:14.099Z</time>
      </trkpt>
      <trkpt lat="48.87265" lon="2.21917">
        <ele>146.7</ele>
        <time>2015-07-06T19:42:15.007Z</time>
      </trkpt>
      <trkpt lat="48.87273" lon="2.21923">
        <ele>146.6</ele>
        <time>2015-07-06T19:42:18.110Z</time>
      </trkpt>
      <trkpt lat="48.87275" lon="2.21925">
        <ele>146.3</ele>
        <time>2015-07-06T19:42:19.031Z</time>
      </trkpt>
      <trkpt lat="48.87281" lon="2.21931">
        <ele>146.7</ele>
        <time>2015-07-06T19:42:22.069Z</time>
      </trkpt>
      <trkpt lat="48.87283" lon="2.21933">
        <ele>146.9</ele>
        <time>2015-07-06T19:42:23.086Z</time>
      </trkpt>
      <trkpt lat="48.8729" lon="2.21941">
        <ele>146.7</ele>
        <time>2015-07-06T19:42:27.071Z</time>
      </trkpt>
      <trkpt lat="48.87293" lon="2.21943">
        <ele>146.8</ele>
        <time>2015-07-06T19:42:28.077Z</time>
      </trkpt>
      <trkpt lat="48.87301" lon="2.2195">
        <ele>145.8</ele>
        <time>2015-07-06T19:42:34.117Z</time>
      </trkpt>
      <trkpt lat="48.87301" lon="2.21951">
        <ele>145.9</ele>
        <time>2015-07-06T19:42:35.043Z</time>
      </trkpt>
      <trkpt lat="48.87305" lon="2.21941">
        <ele>145.3</ele>
        <time>2015-07-06T19:48:11.748Z</time>
      </trkpt>
      <trkpt lat="48.87306" lon="2.21939">
        <ele>145.2</ele>
        <time>2015-07-06T19:48:12.784Z</time>
      </trkpt>
      <trkpt lat="48.8731" lon="2.21927">
        <ele>144.6</ele>
        <time>2015-07-06T19:48:16.801Z</time>
      </trkpt>
      <trkpt lat="48.87311" lon="2.21924">
        <ele>144.6</ele>
        <time>2015-07-06T19:48:17.809Z</time>
      </trkpt>
      <trkpt lat="48.87315" lon="2.21914">
        <ele>144.9</ele>
        <time>2015-07-06T19:48:20.790Z</time>
      </trkpt>
      <trkpt lat="48.87316" lon="2.2191">
        <ele>145</ele>
        <time>2015-07-06T19:48:21.802Z</time>
      </trkpt>
      <trkpt lat="48.87319" lon="2.21902">
        <ele>145.2</ele>
        <time>2015-07-06T19:48:23.746Z</time>
      </trkpt>
      <trkpt lat="48.8732" lon="2.21898">
        <ele>145.4</ele>
        <time>2015-07-06T19:48:24.818Z</time>
      </trkpt>
      <trkpt lat="48.87322" lon="2.21888">
        <ele>145.5</ele>
        <time>2015-07-06T19:48:26.825Z</time>
      </trkpt>
      <trkpt lat="48.87322" lon="2.21883">
        <ele>145.7</ele>
        <time>2015-07-06T19:48:27.832Z</time>
      </trkpt>
      <trkpt lat="48.87322" lon="2.21872">
        <ele>146.3</ele>
        <time>2015-07-06T19:48:29.758Z</time>
      </trkpt>
      <trkpt lat="48.87322" lon="2.21866">
        <ele>146.5</ele>
        <time>2015-07-06T19:48:30.754Z</time>
      </trkpt>
      <trkpt lat="48.87323" lon="2.21853">
        <ele>146.6</ele>
        <time>2015-07-06T19:48:33.715Z</time>
      </trkpt>
      <trkpt lat="48.87324" lon="2.2185">
        <ele>146.6</ele>
        <time>2015-07-06T19:48:34.990Z</time>
      </trkpt>
      <trkpt lat="48.87327" lon="2.2184">
        <ele>147</ele>
        <time>2015-07-06T19:48:37.797Z</time>
      </trkpt>
      <trkpt lat="48.87327" lon="2.21836">
        <ele>147.4</ele>
        <time>2015-07-06T19:48:38.810Z</time>
      </trkpt>
      <trkpt lat="48.8733" lon="2.21825">
        <ele>148.6</ele>
        <time>2015-07-06T19:48:41.724Z</time>
      </trkpt>
      <trkpt lat="48.87331" lon="2.21822">
        <ele>148.8</ele>
        <time>2015-07-06T19:48:42.771Z</time>
      </trkpt>
      <trkpt lat="48.87335" lon="2.21813">
        <ele>149.5</ele>
        <time>2015-07-06T19:48:46.777Z</time>
      </trkpt>
      <trkpt lat="48.87336" lon="2.21809">
        <ele>149.5</ele>
        <time>2015-07-06T19:48:47.785Z</time>
      </trkpt>
      <trkpt lat="48.87345" lon="2.21809">
        <ele>149.1</ele>
        <time>2015-07-06T19:48:50.747Z</time>
      </trkpt>
      <trkpt lat="48.87347" lon="2.2181">
        <ele>149.2</ele>
        <time>2015-07-06T19:48:51.725Z</time>
      </trkpt>
      <trkpt lat="48.87355" lon="2.21814">
        <ele>149.4</ele>
        <time>2015-07-06T19:48:54.965Z</time>
      </trkpt>
      <trkpt lat="48.87357" lon="2.21814">
        <ele>149.8</ele>
        <time>2015-07-06T19:48:55.842Z</time>
      </trkpt>
      <trkpt lat="48.87365" lon="2.21814">
        <ele>150.8</ele>
        <time>2015-07-06T19:49:00.748Z</time>
      </trkpt>
      <trkpt lat="48.87367" lon="2.21814">
        <ele>151</ele>
        <time>2015-07-06T19:49:01.801Z</time>
      </trkpt>
      <trkpt lat="48.87374" lon="2.2182">
        <ele>149.5</ele>
        <time>2015-07-06T19:52:44.691Z</time>
      </trkpt>
      <trkpt lat="48.87376" lon="2.2182">
        <ele>149.4</ele>
        <time>2015-07-06T19:52:45.707Z</time>
      </trkpt>
      <trkpt lat="48.87385" lon="2.21822">
        <ele>149.2</ele>
        <time>2015-07-06T19:52:48.658Z</time>
      </trkpt>
      <trkpt lat="48.87387" lon="2.21822">
        <ele>148.9</ele>
        <time>2015-07-06T19:52:49.679Z</time>
      </trkpt>
      <trkpt lat="48.87396" lon="2.21823">
        <ele>148.5</ele>
        <time>2015-07-06T19:52:53.544Z</time>
      </trkpt>
      <trkpt lat="48.87399" lon="2.21822">
        <ele>148.4</ele>
        <time>2015-07-06T19:52:53.620Z</time>
      </trkpt>
      <trkpt lat="48.87406" lon="2.21822">
        <ele>148.6</ele>
        <time>2015-07-06T19:52:55.676Z</time>
      </trkpt>
      <trkpt lat="48.87409" lon="2.21822">
        <ele>148.7</ele>
        <time>2015-07-06T19:52:56.688Z</time>
      </trkpt>
      <trkpt lat="48.87416" lon="2.21823">
        <ele>149.6</ele>
        <time>2015-07-06T19:52:58.617Z</time>
      </trkpt>
      <trkpt lat="48.8742" lon="2.21823">
        <ele>150</ele>
        <time>2015-07-06T19:52:59.640Z</time>
      </trkpt>
      <trkpt lat="48.87427" lon="2.21823">
        <ele>150.4</ele>
        <time>2015-07-06T19:53:01.594Z</time>
      </trkpt>
      <trkpt lat="48.8743" lon="2.21823">
        <ele>150.8</ele>
        <time>2015-07-06T19:53:02.631Z</time>
      </trkpt>
      <trkpt lat="48.87436" lon="2.21819">
        <ele>151.5</ele>
        <time>2015-07-06T19:53:04.649Z</time>
      </trkpt>
      <trkpt lat="48.87439" lon="2.21817">
        <ele>151.7</ele>
        <time>2015-07-06T19:53:05.656Z</time>
      </trkpt>
      <trkpt lat="48.87445" lon="2.21812">
        <ele>151.4</ele>
        <time>2015-07-06T19:53:07.705Z</time>
      </trkpt>
      <trkpt lat="48.87449" lon="2.21808">
        <ele>151.1</ele>
        <time>2015-07-06T19:53:08.605Z</time>
      </trkpt>
      <trkpt lat="48.87456" lon="2.21803">
        <ele>150.7</ele>
        <time>2015-07-06T19:53:11.669Z</time>
      </trkpt>
      <trkpt lat="48.87458" lon="2.218">
        <ele>150.5</ele>
        <time>2015-07-06T19:53:12.658Z</time>
      </trkpt>
      <trkpt lat="48.87462" lon="2.21795">
        <ele>150.6</ele>
        <time>2015-07-06T19:53:14.642Z</time>
      </trkpt>
      <trkpt lat="48.87465" lon="2.21791">
        <ele>150.4</ele>
        <time>2015-07-06T19:53:15.600Z</time>
      </trkpt>
      <trkpt lat="48.87471" lon="2.21783">
        <ele>150.8</ele>
        <time>2015-07-06T19:53:18.757Z</time>
      </trkpt>
      <trkpt lat="48.87472" lon="2.21781">
        <ele>151.1</ele>
        <time>2015-07-06T19:53:19.640Z</time>
      </trkpt>
      <trkpt lat="48.8748" lon="2.21781">
        <ele>153.4</ele>
        <time>2015-07-06T19:53:24.728Z</time>
      </trkpt>
      <trkpt lat="48.87483" lon="2.2178">
        <ele>153.7</ele>
        <time>2015-07-06T19:53:25.595Z</time>
      </trkpt>
      <trkpt lat="48.8749" lon="2.21778">
        <ele>154</ele>
        <time>2015-07-06T19:53:27.690Z</time>
      </trkpt>
      <trkpt lat="48.87493" lon="2.21777">
        <ele>154.2</ele>
        <time>2015-07-06T19:53:28.696Z</time>
      </trkpt>
      <trkpt lat="48.87501" lon="2.21774">
        <ele>155.6</ele>
        <time>2015-07-06T19:53:31.630Z</time>
      </trkpt>
      <trkpt lat="48.87505" lon="2.21774">
        <ele>156.1</ele>
        <time>2015-07-06T19:53:32.627Z</time>
      </trkpt>
      <trkpt lat="48.87509" lon="2.21776">
        <ele>156.3</ele>
        <time>2015-07-06T19:53:33.657Z</time>
      </trkpt>
      <trkpt lat="48.87514" lon="2.21777">
        <ele>156.6</ele>
        <time>2015-07-06T19:53:35.483Z</time>
      </trkpt>
      <trkpt lat="48.87523" lon="2.21777">
        <ele>157.3</ele>
        <time>2015-07-06T19:53:37.454Z</time>
      </trkpt>
      <trkpt lat="48.87525" lon="2.21778">
        <ele>157.6</ele>
        <time>2015-07-06T19:53:38.484Z</time>
      </trkpt>
      <trkpt lat="48.87534" lon="2.2178">
        <ele>158</ele>
        <time>2015-07-06T19:53:41.433Z</time>
      </trkpt>
      <trkpt lat="48.87536" lon="2.21781">
        <ele>158</ele>
        <time>2015-07-06T19:53:42.476Z</time>
      </trkpt>
      <trkpt lat="48.87543" lon="2.21788">
        <ele>157.9</ele>
        <time>2015-07-06T19:53:45.622Z</time>
      </trkpt>
      <trkpt lat="48.87544" lon="2.2179">
        <ele>157.8</ele>
        <time>2015-07-06T19:53:46.478Z</time>
      </trkpt>
      <trkpt lat="48.87552" lon="2.21789">
        <ele>158.8</ele>
        <time>2015-07-06T19:53:56.487Z</time>
      </trkpt>
      <trkpt lat="48.87555" lon="2.21788">
        <ele>158.8</ele>
        <time>2015-07-06T19:53:57.490Z</time>
      </trkpt>
      <trkpt lat="48.87562" lon="2.21784">
        <ele>158.6</ele>
        <time>2015-07-06T19:54:00.402Z</time>
      </trkpt>
      <trkpt lat="48.87564" lon="2.21783">
        <ele>158.6</ele>
        <time>2015-07-06T19:54:01.502Z</time>
      </trkpt>
      <trkpt lat="48.8757" lon="2.21778">
        <ele>158.1</ele>
        <time>2015-07-06T19:54:03.505Z</time>
      </trkpt>
      <trkpt lat="48.87573" lon="2.21776">
        <ele>158.2</ele>
        <time>2015-07-06T19:54:04.409Z</time>
      </trkpt>
      <trkpt lat="48.87578" lon="2.21772">
        <ele>158.3</ele>
        <time>2015-07-06T19:54:06.471Z</time>
      </trkpt>
      <trkpt lat="48.87581" lon="2.2177">
        <ele>158</ele>
        <time>2015-07-06T19:54:07.481Z</time>
      </trkpt>
      <trkpt lat="48.87587" lon="2.21765">
        <ele>157.8</ele>
        <time>2015-07-06T19:54:09.765Z</time>
      </trkpt>
      <trkpt lat="48.87591" lon="2.21763">
        <ele>157.6</ele>
        <time>2015-07-06T19:54:10.440Z</time>
      </trkpt>
      <trkpt lat="48.87597" lon="2.2176">
        <ele>158.5</ele>
        <time>2015-07-06T19:54:12.458Z</time>
      </trkpt>
      <trkpt lat="48.876" lon="2.21757">
        <ele>158.6</ele>
        <time>2015-07-06T19:54:13.466Z</time>
      </trkpt>
      <trkpt lat="48.87606" lon="2.21752">
        <ele>159.3</ele>
        <time>2015-07-06T19:54:15.493Z</time>
      </trkpt>
      <trkpt lat="48.87609" lon="2.2175">
        <ele>159.6</ele>
        <time>2015-07-06T19:54:16.509Z</time>
      </trkpt>
      <trkpt lat="48.87617" lon="2.21746">
        <ele>160.4</ele>
        <time>2015-07-06T19:54:18.910Z</time>
      </trkpt>
      <trkpt lat="48.87619" lon="2.21744">
        <ele>160.5</ele>
        <time>2015-07-06T19:54:19.518Z</time>
      </trkpt>
      <trkpt lat="48.87626" lon="2.2174">
        <ele>161</ele>
        <time>2015-07-06T19:54:21.500Z</time>
      </trkpt>
      <trkpt lat="48.8763" lon="2.21737">
        <ele>161.3</ele>
        <time>2015-07-06T19:54:22.409Z</time>
      </trkpt>
      <trkpt lat="48.87636" lon="2.21731">
        <ele>161.4</ele>
        <time>2015-07-06T19:54:24.443Z</time>
      </trkpt>
      <trkpt lat="48.8764" lon="2.21729">
        <ele>161.6</ele>
        <time>2015-07-06T19:54:25.456Z</time>
      </trkpt>
      <trkpt lat="48.87647" lon="2.21727">
        <ele>162.1</ele>
        <time>2015-07-06T19:54:27.421Z</time>
      </trkpt>
      <trkpt lat="48.8765" lon="2.21725">
        <ele>162.2</ele>
        <time>2015-07-06T19:54:28.479Z</time>
      </trkpt>
      <trkpt lat="48.87657" lon="2.21719">
        <ele>162.5</ele>
        <time>2015-07-06T19:54:30.422Z</time>
      </trkpt>
      <trkpt lat="48.87661" lon="2.21716">
        <ele>162.3</ele>
        <time>2015-07-06T19:54:31.530Z</time>
      </trkpt>
      <trkpt lat="48.87664" lon="2.21712">
        <ele>162.3</ele>
        <time>2015-07-06T19:54:32.443Z</time>
      </trkpt>
      <trkpt lat="48.87669" lon="2.21709">
        <ele>162.3</ele>
        <time>2015-07-06T19:54:33.453Z</time>
      </trkpt>
      <trkpt lat="48.87673" lon="2.21705">
        <ele>162.2</ele>
        <time>2015-07-06T19:54:34.459Z</time>
      </trkpt>
      <trkpt lat="48.87677" lon="2.217">
        <ele>162</ele>
        <time>2015-07-06T19:54:35.524Z</time>
      </trkpt>
      <trkpt lat="48.87681" lon="2.21695">
        <ele>161.8</ele>
        <time>2015-07-06T19:54:36.413Z</time>
      </trkpt>
      <trkpt lat="48.87685" lon="2.21691">
        <ele>162.1</ele>
        <time>2015-07-06T19:54:37.449Z</time>
      </trkpt>
      <trkpt lat="48.87689" lon="2.21686">
        <ele>162.2</ele>
        <time>2015-07-06T19:54:38.482Z</time>
      </trkpt>
      <trkpt lat="48.87694" lon="2.21683">
        <ele>162.1</ele>
        <time>2015-07-06T19:54:39.504Z</time>
      </trkpt>
      <trkpt lat="48.87698" lon="2.21678">
        <ele>161.9</ele>
        <time>2015-07-06T19:54:40.522Z</time>
      </trkpt>
      <trkpt lat="48.87704" lon="2.21674">
        <ele>161.8</ele>
        <time>2015-07-06T19:54:41.528Z</time>
      </trkpt>
      <trkpt lat="48.87709" lon="2.21669">
        <ele>161.9</ele>
        <time>2015-07-06T19:54:42.469Z</time>
      </trkpt>
      <trkpt lat="48.87714" lon="2.21664">
        <ele>161.8</ele>
        <time>2015-07-06T19:54:43.469Z</time>
      </trkpt>
      <trkpt lat="48.87719" lon="2.21659">
        <ele>161.8</ele>
        <time>2015-07-06T19:54:44.497Z</time>
      </trkpt>
      <trkpt lat="48.87724" lon="2.21654">
        <ele>161.6</ele>
        <time>2015-07-06T19:54:45.406Z</time>
      </trkpt>
      <trkpt lat="48.87728" lon="2.21647">
        <ele>161.6</ele>
        <time>2015-07-06T19:54:46.426Z</time>
      </trkpt>
      <trkpt lat="48.87732" lon="2.21641">
        <ele>161.4</ele>
        <time>2015-07-06T19:54:47.429Z</time>
      </trkpt>
      <trkpt lat="48.87736" lon="2.21634">
        <ele>161.3</ele>
        <time>2015-07-06T19:54:48.442Z</time>
      </trkpt>
      <trkpt lat="48.8774" lon="2.21628">
        <ele>161</ele>
        <time>2015-07-06T19:54:49.484Z</time>
      </trkpt>
      <trkpt lat="48.87745" lon="2.21623">
        <ele>160.9</ele>
        <time>2015-07-06T19:54:50.489Z</time>
      </trkpt>
      <trkpt lat="48.87749" lon="2.21619">
        <ele>160.9</ele>
        <time>2015-07-06T19:54:51.489Z</time>
      </trkpt>
      <trkpt lat="48.87755" lon="2.21616">
        <ele>160.8</ele>
        <time>2015-07-06T19:54:52.417Z</time>
      </trkpt>
      <trkpt lat="48.8776" lon="2.21612">
        <ele>160.7</ele>
        <time>2015-07-06T19:54:53.447Z</time>
      </trkpt>
      <trkpt lat="48.87764" lon="2.21611">
        <ele>160.3</ele>
        <time>2015-07-06T19:54:54.435Z</time>
      </trkpt>
      <trkpt lat="48.87769" lon="2.2161">
        <ele>160.1</ele>
        <time>2015-07-06T19:54:55.470Z</time>
      </trkpt>
      <trkpt lat="48.87774" lon="2.21611">
        <ele>160.1</ele>
        <time>2015-07-06T19:54:56.599Z</time>
      </trkpt>
      <trkpt lat="48.87781" lon="2.21616">
        <ele>159</ele>
        <time>2015-07-06T19:54:57.987Z</time>
      </trkpt>
      <trkpt lat="48.87785" lon="2.21618">
        <ele>158.9</ele>
        <time>2015-07-06T19:54:58.982Z</time>
      </trkpt>
      <trkpt lat="48.8779" lon="2.2162">
        <ele>158.9</ele>
        <time>2015-07-06T19:55:00.034Z</time>
      </trkpt>
      <trkpt lat="48.87797" lon="2.21626">
        <ele>158.2</ele>
        <time>2015-07-06T19:55:02.066Z</time>
      </trkpt>
      <trkpt lat="48.878" lon="2.21629">
        <ele>157.7</ele>
        <time>2015-07-06T19:55:03.079Z</time>
      </trkpt>
      <trkpt lat="48.87806" lon="2.21637">
        <ele>156.4</ele>
        <time>2015-07-06T19:55:05.048Z</time>
      </trkpt>
      <trkpt lat="48.87808" lon="2.21641">
        <ele>156</ele>
        <time>2015-07-06T19:55:06.150Z</time>
      </trkpt>
      <trkpt lat="48.87814" lon="2.21648">
        <ele>154.4</ele>
        <time>2015-07-06T19:55:08.124Z</time>
      </trkpt>
      <trkpt lat="48.87816" lon="2.21652">
        <ele>154</ele>
        <time>2015-07-06T19:55:09.003Z</time>
      </trkpt>
      <trkpt lat="48.87822" lon="2.2166">
        <ele>153.4</ele>
        <time>2015-07-06T19:55:11.024Z</time>
      </trkpt>
      <trkpt lat="48.87824" lon="2.21664">
        <ele>152.8</ele>
        <time>2015-07-06T19:55:12.046Z</time>
      </trkpt>
      <trkpt lat="48.8783" lon="2.21671">
        <ele>152.5</ele>
        <time>2015-07-06T19:55:14.123Z</time>
      </trkpt>
      <trkpt lat="48.87832" lon="2.21675">
        <ele>152.1</ele>
        <time>2015-07-06T19:55:15.478Z</time>
      </trkpt>
      <trkpt lat="48.87836" lon="2.21682">
        <ele>151.4</ele>
        <time>2015-07-06T19:55:17.026Z</time>
      </trkpt>
      <trkpt lat="48.87838" lon="2.21685">
        <ele>151.4</ele>
        <time>2015-07-06T19:55:18.033Z</time>
      </trkpt>
      <trkpt lat="48.87842" lon="2.21689">
        <ele>150.9</ele>
        <time>2015-07-06T19:55:20.090Z</time>
      </trkpt>
      <trkpt lat="48.87841" lon="2.21689">
        <ele>150.5</ele>
        <time>2015-07-06T19:55:21.078Z</time>
      </trkpt>
      <trkpt lat="48.87841" lon="2.21689">
        <ele>150.1</ele>
        <time>2015-07-06T19:56:00.195Z</time>
      </trkpt>
      <trkpt lat="48.8784" lon="2.21692">
        <ele>148.8</ele>
        <time>2015-07-06T19:56:01.004Z</time>
      </trkpt>
      <trkpt lat="48.87844" lon="2.21701">
        <ele>148.3</ele>
        <time>2015-07-06T19:56:04.072Z</time>
      </trkpt>
      <trkpt lat="48.87846" lon="2.21704">
        <ele>147.9</ele>
        <time>2015-07-06T19:56:05.041Z</time>
      </trkpt>
      <trkpt lat="48.87851" lon="2.21714">
        <ele>147.2</ele>
        <time>2015-07-06T19:56:07.016Z</time>
      </trkpt>
      <trkpt lat="48.87854" lon="2.2172">
        <ele>147.2</ele>
        <time>2015-07-06T19:56:08.083Z</time>
      </trkpt>
      <trkpt lat="48.87857" lon="2.21725">
        <ele>146.7</ele>
        <time>2015-07-06T19:56:09.004Z</time>
      </trkpt>
      <trkpt lat="48.8786" lon="2.21731">
        <ele>146.4</ele>
        <time>2015-07-06T19:56:10.006Z</time>
      </trkpt>
      <trkpt lat="48.87864" lon="2.21737">
        <ele>146.1</ele>
        <time>2015-07-06T19:56:11.020Z</time>
      </trkpt>
      <trkpt lat="48.87868" lon="2.21744">
        <ele>146</ele>
        <time>2015-07-06T19:56:12.030Z</time>
      </trkpt>
      <trkpt lat="48.87872" lon="2.21751">
        <ele>145.6</ele>
        <time>2015-07-06T19:56:13.065Z</time>
      </trkpt>
      <trkpt lat="48.87878" lon="2.21758">
        <ele>145</ele>
        <time>2015-07-06T19:56:14.075Z</time>
      </trkpt>
      <trkpt lat="48.87883" lon="2.21765">
        <ele>144.9</ele>
        <time>2015-07-06T19:56:15.003Z</time>
      </trkpt>
      <trkpt lat="48.87888" lon="2.21772">
        <ele>145</ele>
        <time>2015-07-06T19:56:16.006Z</time>
      </trkpt>
      <trkpt lat="48.87893" lon="2.21779">
        <ele>144.7</ele>
        <time>2015-07-06T19:56:17.011Z</time>
      </trkpt>
      <trkpt lat="48.87898" lon="2.21785">
        <ele>144.8</ele>
        <time>2015-07-06T19:56:18.032Z</time>
      </trkpt>
      <trkpt lat="48.87902" lon="2.21792">
        <ele>145.1</ele>
        <time>2015-07-06T19:56:19.034Z</time>
      </trkpt>
      <trkpt lat="48.87907" lon="2.21799">
        <ele>144.9</ele>
        <time>2015-07-06T19:56:20.098Z</time>
      </trkpt>
      <trkpt lat="48.87912" lon="2.21807">
        <ele>144.8</ele>
        <time>2015-07-06T19:56:21.058Z</time>
      </trkpt>
      <trkpt lat="48.87917" lon="2.21813">
        <ele>144.7</ele>
        <time>2015-07-06T19:56:22.070Z</time>
      </trkpt>
      <trkpt lat="48.87922" lon="2.2182">
        <ele>144.7</ele>
        <time>2015-07-06T19:56:23.131Z</time>
      </trkpt>
      <trkpt lat="48.87927" lon="2.21826">
        <ele>144.7</ele>
        <time>2015-07-06T19:56:24.005Z</time>
      </trkpt>
      <trkpt lat="48.87933" lon="2.21831">
        <ele>144.9</ele>
        <time>2015-07-06T19:56:25.012Z</time>
      </trkpt>
      <trkpt lat="48.87939" lon="2.21837">
        <ele>144.8</ele>
        <time>2015-07-06T19:56:26.165Z</time>
      </trkpt>
      <trkpt lat="48.87944" lon="2.21842">
        <ele>144.6</ele>
        <time>2015-07-06T19:56:27.037Z</time>
      </trkpt>
      <trkpt lat="48.87948" lon="2.21848">
        <ele>144.3</ele>
        <time>2015-07-06T19:56:28.047Z</time>
      </trkpt>
      <trkpt lat="48.87951" lon="2.21854">
        <ele>144.1</ele>
        <time>2015-07-06T19:56:29.060Z</time>
      </trkpt>
      <trkpt lat="48.87955" lon="2.21859">
        <ele>144.1</ele>
        <time>2015-07-06T19:56:30.072Z</time>
      </trkpt>
      <trkpt lat="48.87959" lon="2.21864">
        <ele>144</ele>
        <time>2015-07-06T19:56:31.088Z</time>
      </trkpt>
      <trkpt lat="48.87963" lon="2.21869">
        <ele>143.9</ele>
        <time>2015-07-06T19:56:32.089Z</time>
      </trkpt>
      <trkpt lat="48.87968" lon="2.21874">
        <ele>143.1</ele>
        <time>2015-07-06T19:56:33.003Z</time>
      </trkpt>
      <trkpt lat="48.87971" lon="2.21878">
        <ele>143.2</ele>
        <time>2015-07-06T19:56:34.022Z</time>
      </trkpt>
      <trkpt lat="48.87976" lon="2.21888">
        <ele>143.2</ele>
        <time>2015-07-06T19:56:36.028Z</time>
      </trkpt>
      <trkpt lat="48.87977" lon="2.21894">
        <ele>143.1</ele>
        <time>2015-07-06T19:56:37.042Z</time>
      </trkpt>
      <trkpt lat="48.87978" lon="2.21906">
        <ele>143.5</ele>
        <time>2015-07-06T19:56:39.009Z</time>
      </trkpt>
      <trkpt lat="48.87979" lon="2.21912">
        <ele>143.6</ele>
        <time>2015-07-06T19:56:40.035Z</time>
      </trkpt>
      <trkpt lat="48.87979" lon="2.21919">
        <ele>143.8</ele>
        <time>2015-07-06T19:56:41.086Z</time>
      </trkpt>
      <trkpt lat="48.87979" lon="2.21927">
        <ele>144.2</ele>
        <time>2015-07-06T19:56:42.002Z</time>
      </trkpt>
      <trkpt lat="48.8798" lon="2.21934">
        <ele>144.1</ele>
        <time>2015-07-06T19:56:43.004Z</time>
      </trkpt>
      <trkpt lat="48.8798" lon="2.21942">
        <ele>144.2</ele>
        <time>2015-07-06T19:56:44.048Z</time>
      </trkpt>
      <trkpt lat="48.8798" lon="2.2195">
        <ele>144.5</ele>
        <time>2015-07-06T19:56:45.051Z</time>
      </trkpt>
      <trkpt lat="48.8798" lon="2.21958">
        <ele>144.4</ele>
        <time>2015-07-06T19:56:46.060Z</time>
      </trkpt>
      <trkpt lat="48.8798" lon="2.21967">
        <ele>144.6</ele>
        <time>2015-07-06T19:56:47.076Z</time>
      </trkpt>
      <trkpt lat="48.8798" lon="2.21975">
        <ele>144.7</ele>
        <time>2015-07-06T19:56:48.085Z</time>
      </trkpt>
      <trkpt lat="48.8798" lon="2.21984">
        <ele>144.6</ele>
        <time>2015-07-06T19:56:49.010Z</time>
      </trkpt>
      <trkpt lat="48.87981" lon="2.21992">
        <ele>144.7</ele>
        <time>2015-07-06T19:56:50.022Z</time>
      </trkpt>
      <trkpt lat="48.87982" lon="2.22001">
        <ele>144.7</ele>
        <time>2015-07-06T19:56:50.972Z</time>
      </trkpt>
      <trkpt lat="48.87982" lon="2.22008">
        <ele>144.7</ele>
        <time>2015-07-06T19:56:52.004Z</time>
      </trkpt>
      <trkpt lat="48.87983" lon="2.22016">
        <ele>144.6</ele>
        <time>2015-07-06T19:56:53.025Z</time>
      </trkpt>
      <trkpt lat="48.87983" lon="2.22025">
        <ele>144.5</ele>
        <time>2015-07-06T19:56:54.038Z</time>
      </trkpt>
      <trkpt lat="48.87983" lon="2.22034">
        <ele>144.1</ele>
        <time>2015-07-06T19:56:55.045Z</time>
      </trkpt>
      <trkpt lat="48.87983" lon="2.22043">
        <ele>144.1</ele>
        <time>2015-07-06T19:56:56.054Z</time>
      </trkpt>
      <trkpt lat="48.87985" lon="2.22051">
        <ele>144</ele>
        <time>2015-07-06T19:56:57.055Z</time>
      </trkpt>
      <trkpt lat="48.87986" lon="2.22059">
        <ele>144.1</ele>
        <time>2015-07-06T19:56:58.062Z</time>
      </trkpt>
      <trkpt lat="48.87987" lon="2.22067">
        <ele>144.2</ele>
        <time>2015-07-06T19:56:59.086Z</time>
      </trkpt>
      <trkpt lat="48.87989" lon="2.22075">
        <ele>143.9</ele>
        <time>2015-07-06T19:57:00.106Z</time>
      </trkpt>
      <trkpt lat="48.8799" lon="2.22084">
        <ele>143.8</ele>
        <time>2015-07-06T19:57:00.997Z</time>
      </trkpt>
      <trkpt lat="48.87991" lon="2.22093">
        <ele>143.4</ele>
        <time>2015-07-06T19:57:02.084Z</time>
      </trkpt>
      <trkpt lat="48.87992" lon="2.22101">
        <ele>143.2</ele>
        <time>2015-07-06T19:57:02.990Z</time>
      </trkpt>
      <trkpt lat="48.87994" lon="2.22109">
        <ele>143.3</ele>
        <time>2015-07-06T19:57:03.998Z</time>
      </trkpt>
      <trkpt lat="48.87995" lon="2.22116">
        <ele>143.1</ele>
        <time>2015-07-06T19:57:05.008Z</time>
      </trkpt>
      <trkpt lat="48.87996" lon="2.22124">
        <ele>142.6</ele>
        <time>2015-07-06T19:57:06.018Z</time>
      </trkpt>
      <trkpt lat="48.87997" lon="2.22132">
        <ele>142.3</ele>
        <time>2015-07-06T19:57:07.029Z</time>
      </trkpt>
      <trkpt lat="48.87999" lon="2.2214">
        <ele>141.9</ele>
        <time>2015-07-06T19:57:08.051Z</time>
      </trkpt>
      <trkpt lat="48.88" lon="2.22149">
        <ele>142.1</ele>
        <time>2015-07-06T19:57:09.045Z</time>
      </trkpt>
      <trkpt lat="48.88003" lon="2.22159">
        <ele>142.2</ele>
        <time>2015-07-06T19:57:10.049Z</time>
      </trkpt>
      <trkpt lat="48.88005" lon="2.22168">
        <ele>142.1</ele>
        <time>2015-07-06T19:57:11.055Z</time>
      </trkpt>
      <trkpt lat="48.88006" lon="2.22177">
        <ele>142</ele>
        <time>2015-07-06T19:57:12.059Z</time>
      </trkpt>
      <trkpt lat="48.88007" lon="2.22186">
        <ele>141.8</ele>
        <time>2015-07-06T19:57:13.107Z</time>
      </trkpt>
      <trkpt lat="48.88009" lon="2.22195">
        <ele>142.3</ele>
        <time>2015-07-06T19:57:14.111Z</time>
      </trkpt>
      <trkpt lat="48.88011" lon="2.22205">
        <ele>142.5</ele>
        <time>2015-07-06T19:57:14.989Z</time>
      </trkpt>
      <trkpt lat="48.88014" lon="2.22214">
        <ele>142.7</ele>
        <time>2015-07-06T19:57:16.001Z</time>
      </trkpt>
      <trkpt lat="48.88017" lon="2.22224">
        <ele>142.6</ele>
        <time>2015-07-06T19:57:17.008Z</time>
      </trkpt>
      <trkpt lat="48.88019" lon="2.22232">
        <ele>142.4</ele>
        <time>2015-07-06T19:57:18.025Z</time>
      </trkpt>
      <trkpt lat="48.88021" lon="2.2224">
        <ele>142.5</ele>
        <time>2015-07-06T19:57:19.026Z</time>
      </trkpt>
      <trkpt lat="48.88023" lon="2.22247">
        <ele>142.6</ele>
        <time>2015-07-06T19:57:20.057Z</time>
      </trkpt>
      <trkpt lat="48.88025" lon="2.2226">
        <ele>141.8</ele>
        <time>2015-07-06T19:57:22.066Z</time>
      </trkpt>
      <trkpt lat="48.88025" lon="2.22266">
        <ele>141.8</ele>
        <time>2015-07-06T19:57:23.075Z</time>
      </trkpt>
      <trkpt lat="48.88025" lon="2.22273">
        <ele>141.3</ele>
        <time>2015-07-06T19:57:24.018Z</time>
      </trkpt>
      <trkpt lat="48.88026" lon="2.2228">
        <ele>141.1</ele>
        <time>2015-07-06T19:57:25.011Z</time>
      </trkpt>
      <trkpt lat="48.88026" lon="2.22287">
        <ele>140.5</ele>
        <time>2015-07-06T19:57:26.077Z</time>
      </trkpt>
      <trkpt lat="48.88026" lon="2.22295">
        <ele>140.4</ele>
        <time>2015-07-06T19:57:27.152Z</time>
      </trkpt>
      <trkpt lat="48.88025" lon="2.22303">
        <ele>140</ele>
        <time>2015-07-06T19:57:28.008Z</time>
      </trkpt>
      <trkpt lat="48.88025" lon="2.22311">
        <ele>139.8</ele>
        <time>2015-07-06T19:57:29.016Z</time>
      </trkpt>
      <trkpt lat="48.88025" lon="2.2232">
        <ele>140.2</ele>
        <time>2015-07-06T19:57:30.027Z</time>
      </trkpt>
      <trkpt lat="48.88025" lon="2.22327">
        <ele>140.5</ele>
        <time>2015-07-06T19:57:31.041Z</time>
      </trkpt>
      <trkpt lat="48.88025" lon="2.22341">
        <ele>140.5</ele>
        <time>2015-07-06T19:57:33.007Z</time>
      </trkpt>
      <trkpt lat="48.88026" lon="2.22347">
        <ele>140.6</ele>
        <time>2015-07-06T19:57:34.025Z</time>
      </trkpt>
      <trkpt lat="48.88027" lon="2.22355">
        <ele>140.4</ele>
        <time>2015-07-06T19:57:35.053Z</time>
      </trkpt>
      <trkpt lat="48.88028" lon="2.22362">
        <ele>140.4</ele>
        <time>2015-07-06T19:57:36.062Z</time>
      </trkpt>
      <trkpt lat="48.88028" lon="2.2237">
        <ele>140.6</ele>
        <time>2015-07-06T19:57:37.070Z</time>
      </trkpt>
      <trkpt lat="48.8803" lon="2.22379">
        <ele>140.7</ele>
        <time>2015-07-06T19:57:38.084Z</time>
      </trkpt>
      <trkpt lat="48.88031" lon="2.22387">
        <ele>141.1</ele>
        <time>2015-07-06T19:57:38.999Z</time>
      </trkpt>
      <trkpt lat="48.88033" lon="2.22395">
        <ele>141.3</ele>
        <time>2015-07-06T19:57:40.006Z</time>
      </trkpt>
      <trkpt lat="48.88034" lon="2.22403">
        <ele>141.6</ele>
        <time>2015-07-06T19:57:41.026Z</time>
      </trkpt>
      <trkpt lat="48.88035" lon="2.22411">
        <ele>141.7</ele>
        <time>2015-07-06T19:57:42.068Z</time>
      </trkpt>
      <trkpt lat="48.88036" lon="2.22419">
        <ele>141.5</ele>
        <time>2015-07-06T19:57:43.016Z</time>
      </trkpt>
      <trkpt lat="48.88036" lon="2.22427">
        <ele>141</ele>
        <time>2015-07-06T19:57:44.046Z</time>
      </trkpt>
      <trkpt lat="48.88036" lon="2.22435">
        <ele>140.9</ele>
        <time>2015-07-06T19:57:45.062Z</time>
      </trkpt>
      <trkpt lat="48.88037" lon="2.22442">
        <ele>140.7</ele>
        <time>2015-07-06T19:57:46.074Z</time>
      </trkpt>
      <trkpt lat="48.88037" lon="2.2245">
        <ele>140.1</ele>
        <time>2015-07-06T19:57:47.095Z</time>
      </trkpt>
      <trkpt lat="48.88038" lon="2.22458">
        <ele>139.8</ele>
        <time>2015-07-06T19:57:47.999Z</time>
      </trkpt>
      <trkpt lat="48.8804" lon="2.22466">
        <ele>139.8</ele>
        <time>2015-07-06T19:57:49.180Z</time>
      </trkpt>
      <trkpt lat="48.88042" lon="2.22474">
        <ele>139.7</ele>
        <time>2015-07-06T19:57:50.073Z</time>
      </trkpt>
      <trkpt lat="48.88045" lon="2.22482">
        <ele>139.6</ele>
        <time>2015-07-06T19:57:51.091Z</time>
      </trkpt>
      <trkpt lat="48.88047" lon="2.2249">
        <ele>139.4</ele>
        <time>2015-07-06T19:57:51.973Z</time>
      </trkpt>
      <trkpt lat="48.8805" lon="2.225">
        <ele>139.6</ele>
        <time>2015-07-06T19:57:53.034Z</time>
      </trkpt>
      <trkpt lat="48.88052" lon="2.22508">
        <ele>139.4</ele>
        <time>2015-07-06T19:57:54.038Z</time>
      </trkpt>
      <trkpt lat="48.88055" lon="2.22516">
        <ele>138.4</ele>
        <time>2015-07-06T19:57:55.051Z</time>
      </trkpt>
      <trkpt lat="48.88058" lon="2.22524">
        <ele>138.2</ele>
        <time>2015-07-06T19:57:56.056Z</time>
      </trkpt>
      <trkpt lat="48.8806" lon="2.22532">
        <ele>138.3</ele>
        <time>2015-07-06T19:57:57.079Z</time>
      </trkpt>
      <trkpt lat="48.88062" lon="2.22539">
        <ele>138.3</ele>
        <time>2015-07-06T19:57:57.976Z</time>
      </trkpt>
      <trkpt lat="48.88064" lon="2.22546">
        <ele>138.2</ele>
        <time>2015-07-06T19:57:59.076Z</time>
      </trkpt>
      <trkpt lat="48.88066" lon="2.22552">
        <ele>138.1</ele>
        <time>2015-07-06T19:57:59.972Z</time>
      </trkpt>
      <trkpt lat="48.8807" lon="2.22563">
        <ele>137.4</ele>
        <time>2015-07-06T19:58:02.049Z</time>
      </trkpt>
      <trkpt lat="48.88071" lon="2.22569">
        <ele>137</ele>
        <time>2015-07-06T19:58:03.043Z</time>
      </trkpt>
      <trkpt lat="48.88075" lon="2.22581">
        <ele>136.7</ele>
        <time>2015-07-06T19:58:05.059Z</time>
      </trkpt>
      <trkpt lat="48.88077" lon="2.22585">
        <ele>136.4</ele>
        <time>2015-07-06T19:58:06.060Z</time>
      </trkpt>
      <trkpt lat="48.88082" lon="2.22594">
        <ele>135.8</ele>
        <time>2015-07-06T19:58:08.025Z</time>
      </trkpt>
      <trkpt lat="48.88083" lon="2.226">
        <ele>135.8</ele>
        <time>2015-07-06T19:58:09.041Z</time>
      </trkpt>
      <trkpt lat="48.88084" lon="2.22607">
        <ele>136</ele>
        <time>2015-07-06T19:58:10.043Z</time>
      </trkpt>
      <trkpt lat="48.88084" lon="2.22614">
        <ele>136.3</ele>
        <time>2015-07-06T19:58:11.060Z</time>
      </trkpt>
      <trkpt lat="48.88085" lon="2.22623">
        <ele>137.7</ele>
        <time>2015-07-06T19:58:12.046Z</time>
      </trkpt>
      <trkpt lat="48.88084" lon="2.22631">
        <ele>138.3</ele>
        <time>2015-07-06T19:58:13.055Z</time>
      </trkpt>
      <trkpt lat="48.88084" lon="2.22638">
        <ele>138.5</ele>
        <time>2015-07-06T19:58:14.063Z</time>
      </trkpt>
      <trkpt lat="48.88084" lon="2.22645">
        <ele>138.3</ele>
        <time>2015-07-06T19:58:15.074Z</time>
      </trkpt>
      <trkpt lat="48.88085" lon="2.22656">
        <ele>136.9</ele>
        <time>2015-07-06T19:58:17.121Z</time>
      </trkpt>
      <trkpt lat="48.88086" lon="2.22662">
        <ele>136.4</ele>
        <time>2015-07-06T19:58:18.003Z</time>
      </trkpt>
      <trkpt lat="48.88089" lon="2.22673">
        <ele>135.6</ele>
        <time>2015-07-06T19:58:20.025Z</time>
      </trkpt>
      <trkpt lat="48.8809" lon="2.22678">
        <ele>135.3</ele>
        <time>2015-07-06T19:58:21.051Z</time>
      </trkpt>
      <trkpt lat="48.88092" lon="2.22689">
        <ele>134.7</ele>
        <time>2015-07-06T19:58:23.001Z</time>
      </trkpt>
      <trkpt lat="48.88093" lon="2.22695">
        <ele>134.1</ele>
        <time>2015-07-06T19:58:24.030Z</time>
      </trkpt>
      <trkpt lat="48.88097" lon="2.22704">
        <ele>133</ele>
        <time>2015-07-06T19:58:26.046Z</time>
      </trkpt>
      <trkpt lat="48.88099" lon="2.22708">
        <ele>132.4</ele>
        <time>2015-07-06T19:58:27.038Z</time>
      </trkpt>
      <trkpt lat="48.88098" lon="2.22719">
        <ele>130.4</ele>
        <time>2015-07-06T20:00:26.100Z</time>
      </trkpt>
      <trkpt lat="48.88102" lon="2.22723">
        <ele>123.5</ele>
        <time>2015-07-06T20:00:27.033Z</time>
      </trkpt>
      <trkpt lat="48.88098" lon="2.22734">
        <ele>122.2</ele>
        <time>2015-07-06T20:00:30.030Z</time>
      </trkpt>
      <trkpt lat="48.88098" lon="2.22738">
        <ele>121.9</ele>
        <time>2015-07-06T20:00:31.134Z</time>
      </trkpt>
      <trkpt lat="48.88094" lon="2.22749">
        <ele>120.8</ele>
        <time>2015-07-06T20:00:34.297Z</time>
      </trkpt>
      <trkpt lat="48.88093" lon="2.22753">
        <ele>120.4</ele>
        <time>2015-07-06T20:00:35.009Z</time>
      </trkpt>
      <trkpt lat="48.88089" lon="2.22763">
        <ele>119.9</ele>
        <time>2015-07-06T20:00:37.033Z</time>
      </trkpt>
      <trkpt lat="48.88088" lon="2.22769">
        <ele>119.7</ele>
        <time>2015-07-06T20:00:38.047Z</time>
      </trkpt>
      <trkpt lat="48.88085" lon="2.22779">
        <ele>119.5</ele>
        <time>2015-07-06T20:00:40.077Z</time>
      </trkpt>
      <trkpt lat="48.88084" lon="2.22784">
        <ele>119.3</ele>
        <time>2015-07-06T20:00:41.000Z</time>
      </trkpt>
      <trkpt lat="48.88081" lon="2.22794">
        <ele>119</ele>
        <time>2015-07-06T20:00:43.048Z</time>
      </trkpt>
      <trkpt lat="48.88079" lon="2.22799">
        <ele>118.9</ele>
        <time>2015-07-06T20:00:44.069Z</time>
      </trkpt>
      <trkpt lat="48.88077" lon="2.22808">
        <ele>118.5</ele>
        <time>2015-07-06T20:00:46.024Z</time>
      </trkpt>
      <trkpt lat="48.88076" lon="2.22813">
        <ele>118.3</ele>
        <time>2015-07-06T20:00:47.128Z</time>
      </trkpt>
      <trkpt lat="48.88074" lon="2.22822">
        <ele>118.1</ele>
        <time>2015-07-06T20:00:48.998Z</time>
      </trkpt>
      <trkpt lat="48.88073" lon="2.22827">
        <ele>118</ele>
        <time>2015-07-06T20:00:50.015Z</time>
      </trkpt>
      <trkpt lat="48.8807" lon="2.22838">
        <ele>117.8</ele>
        <time>2015-07-06T20:00:52.037Z</time>
      </trkpt>
      <trkpt lat="48.88068" lon="2.22844">
        <ele>117.6</ele>
        <time>2015-07-06T20:00:53.042Z</time>
      </trkpt>
      <trkpt lat="48.88065" lon="2.22856">
        <ele>116.8</ele>
        <time>2015-07-06T20:00:55.084Z</time>
      </trkpt>
      <trkpt lat="48.88064" lon="2.22861">
        <ele>116.5</ele>
        <time>2015-07-06T20:00:56.093Z</time>
      </trkpt>
      <trkpt lat="48.88062" lon="2.22872">
        <ele>115.8</ele>
        <time>2015-07-06T20:00:58.166Z</time>
      </trkpt>
      <trkpt lat="48.88061" lon="2.22877">
        <ele>115.4</ele>
        <time>2015-07-06T20:00:59.042Z</time>
      </trkpt>
      <trkpt lat="48.88058" lon="2.22886">
        <ele>115</ele>
        <time>2015-07-06T20:01:01.042Z</time>
      </trkpt>
      <trkpt lat="48.88057" lon="2.22891">
        <ele>114.8</ele>
        <time>2015-07-06T20:01:02.056Z</time>
      </trkpt>
      <trkpt lat="48.88055" lon="2.229">
        <ele>114.5</ele>
        <time>2015-07-06T20:01:04.076Z</time>
      </trkpt>
      <trkpt lat="48.88054" lon="2.22906">
        <ele>114.5</ele>
        <time>2015-07-06T20:01:05.090Z</time>
      </trkpt>
      <trkpt lat="48.88051" lon="2.22917">
        <ele>114.5</ele>
        <time>2015-07-06T20:01:07.032Z</time>
      </trkpt>
      <trkpt lat="48.88049" lon="2.22922">
        <ele>114.5</ele>
        <time>2015-07-06T20:01:08.141Z</time>
      </trkpt>
      <trkpt lat="48.88046" lon="2.22934">
        <ele>114.1</ele>
        <time>2015-07-06T20:01:11.128Z</time>
      </trkpt>
      <trkpt lat="48.88044" lon="2.2294">
        <ele>114.2</ele>
        <time>2015-07-06T20:01:12.030Z</time>
      </trkpt>
      <trkpt lat="48.8804" lon="2.22951">
        <ele>114.1</ele>
        <time>2015-07-06T20:01:14.068Z</time>
      </trkpt>
      <trkpt lat="48.88039" lon="2.22957">
        <ele>114.1</ele>
        <time>2015-07-06T20:01:15.080Z</time>
      </trkpt>
      <trkpt lat="48.88036" lon="2.22967">
        <ele>113.4</ele>
        <time>2015-07-06T20:01:17.013Z</time>
      </trkpt>
      <trkpt lat="48.88035" lon="2.22971">
        <ele>113.1</ele>
        <time>2015-07-06T20:01:18.027Z</time>
      </trkpt>
      <trkpt lat="48.88032" lon="2.2298">
        <ele>112.9</ele>
        <time>2015-07-06T20:01:20.066Z</time>
      </trkpt>
      <trkpt lat="48.88029" lon="2.22985">
        <ele>112.3</ele>
        <time>2015-07-06T20:01:20.971Z</time>
      </trkpt>
      <trkpt lat="48.88026" lon="2.2299">
        <ele>111.9</ele>
        <time>2015-07-06T20:01:22.000Z</time>
      </trkpt>
      <trkpt lat="48.88023" lon="2.22994">
        <ele>111</ele>
        <time>2015-07-06T20:01:23.030Z</time>
      </trkpt>
      <trkpt lat="48.88018" lon="2.22998">
        <ele>110.7</ele>
        <time>2015-07-06T20:01:25.054Z</time>
      </trkpt>
      <trkpt lat="48.88014" lon="2.23001">
        <ele>110.8</ele>
        <time>2015-07-06T20:01:26.065Z</time>
      </trkpt>
      <trkpt lat="48.88011" lon="2.23007">
        <ele>110.8</ele>
        <time>2015-07-06T20:01:27.008Z</time>
      </trkpt>
      <trkpt lat="48.88008" lon="2.23012">
        <ele>110.8</ele>
        <time>2015-07-06T20:01:28.006Z</time>
      </trkpt>
      <trkpt lat="48.88006" lon="2.23018">
        <ele>110.8</ele>
        <time>2015-07-06T20:01:29.021Z</time>
      </trkpt>
      <trkpt lat="48.88005" lon="2.23026">
        <ele>110.6</ele>
        <time>2015-07-06T20:01:30.032Z</time>
      </trkpt>
      <trkpt lat="48.88003" lon="2.23032">
        <ele>110.7</ele>
        <time>2015-07-06T20:01:31.034Z</time>
      </trkpt>
      <trkpt lat="48.88002" lon="2.2304">
        <ele>110.9</ele>
        <time>2015-07-06T20:01:32.056Z</time>
      </trkpt>
      <trkpt lat="48.88" lon="2.23047">
        <ele>111</ele>
        <time>2015-07-06T20:01:33.060Z</time>
      </trkpt>
      <trkpt lat="48.87999" lon="2.23056">
        <ele>111.1</ele>
        <time>2015-07-06T20:01:34.072Z</time>
      </trkpt>
      <trkpt lat="48.87998" lon="2.23064">
        <ele>111.3</ele>
        <time>2015-07-06T20:01:35.093Z</time>
      </trkpt>
      <trkpt lat="48.87998" lon="2.23072">
        <ele>111.3</ele>
        <time>2015-07-06T20:01:36.007Z</time>
      </trkpt>
      <trkpt lat="48.87998" lon="2.23079">
        <ele>111.1</ele>
        <time>2015-07-06T20:01:36.991Z</time>
      </trkpt>
      <trkpt lat="48.87999" lon="2.23086">
        <ele>111.1</ele>
        <time>2015-07-06T20:01:38.036Z</time>
      </trkpt>
      <trkpt lat="48.88" lon="2.23099">
        <ele>110.7</ele>
        <time>2015-07-06T20:01:40.028Z</time>
      </trkpt>
      <trkpt lat="48.88" lon="2.23106">
        <ele>110.7</ele>
        <time>2015-07-06T20:01:41.241Z</time>
      </trkpt>
      <trkpt lat="48.88" lon="2.23118">
        <ele>110.7</ele>
        <time>2015-07-06T20:01:43.084Z</time>
      </trkpt>
      <trkpt lat="48.88001" lon="2.23123">
        <ele>110.7</ele>
        <time>2015-07-06T20:01:44.140Z</time>
      </trkpt>
      <trkpt lat="48.88002" lon="2.23133">
        <ele>111</ele>
        <time>2015-07-06T20:01:46.000Z</time>
      </trkpt>
      <trkpt lat="48.88002" lon="2.23137">
        <ele>111</ele>
        <time>2015-07-06T20:01:47.054Z</time>
      </trkpt>
      <trkpt lat="48.88001" lon="2.23148">
        <ele>110</ele>
        <time>2015-07-06T20:01:50.085Z</time>
      </trkpt>
      <trkpt lat="48.88" lon="2.23151">
        <ele>110.1</ele>
        <time>2015-07-06T20:01:51.091Z</time>
      </trkpt>
      <trkpt lat="48.87997" lon="2.23162">
        <ele>105.2</ele>
        <time>2015-07-06T20:04:40.026Z</time>
      </trkpt>
      <trkpt lat="48.87997" lon="2.23166">
        <ele>105.2</ele>
        <time>2015-07-06T20:04:41.113Z</time>
      </trkpt>
      <trkpt lat="48.87996" lon="2.23176">
        <ele>104.7</ele>
        <time>2015-07-06T20:04:42.995Z</time>
      </trkpt>
      <trkpt lat="48.87994" lon="2.23182">
        <ele>104.5</ele>
        <time>2015-07-06T20:04:44.077Z</time>
      </trkpt>
      <trkpt lat="48.87992" lon="2.23195">
        <ele>103.8</ele>
        <time>2015-07-06T20:04:46.006Z</time>
      </trkpt>
      <trkpt lat="48.87991" lon="2.23203">
        <ele>103.3</ele>
        <time>2015-07-06T20:04:47.030Z</time>
      </trkpt>
      <trkpt lat="48.87991" lon="2.2321">
        <ele>103.1</ele>
        <time>2015-07-06T20:04:48.049Z</time>
      </trkpt>
      <trkpt lat="48.8799" lon="2.23219">
        <ele>102.6</ele>
        <time>2015-07-06T20:04:49.055Z</time>
      </trkpt>
      <trkpt lat="48.87989" lon="2.23226">
        <ele>102.4</ele>
        <time>2015-07-06T20:04:50.067Z</time>
      </trkpt>
      <trkpt lat="48.8799" lon="2.23234">
        <ele>102</ele>
        <time>2015-07-06T20:04:51.075Z</time>
      </trkpt>
      <trkpt lat="48.8799" lon="2.23242">
        <ele>101.6</ele>
        <time>2015-07-06T20:04:52.013Z</time>
      </trkpt>
      <trkpt lat="48.87991" lon="2.2325">
        <ele>101.4</ele>
        <time>2015-07-06T20:04:53.014Z</time>
      </trkpt>
      <trkpt lat="48.87992" lon="2.23263">
        <ele>101.2</ele>
        <time>2015-07-06T20:04:55.062Z</time>
      </trkpt>
      <trkpt lat="48.87992" lon="2.2327">
        <ele>101.2</ele>
        <time>2015-07-06T20:04:56.082Z</time>
      </trkpt>
      <trkpt lat="48.87994" lon="2.23282">
        <ele>101</ele>
        <time>2015-07-06T20:04:58.008Z</time>
      </trkpt>
      <trkpt lat="48.87994" lon="2.23288">
        <ele>101</ele>
        <time>2015-07-06T20:04:59.087Z</time>
      </trkpt>
      <trkpt lat="48.87993" lon="2.23299">
        <ele>100.6</ele>
        <time>2015-07-06T20:05:01.066Z</time>
      </trkpt>
      <trkpt lat="48.87993" lon="2.23307">
        <ele>100</ele>
        <time>2015-07-06T20:05:02.116Z</time>
      </trkpt>
      <trkpt lat="48.87992" lon="2.23315">
        <ele>99.6</ele>
        <time>2015-07-06T20:05:03.017Z</time>
      </trkpt>
      <trkpt lat="48.87991" lon="2.23322">
        <ele>99.4</ele>
        <time>2015-07-06T20:05:04.035Z</time>
      </trkpt>
      <trkpt lat="48.87991" lon="2.23334">
        <ele>99.3</ele>
        <time>2015-07-06T20:05:06.048Z</time>
      </trkpt>
      <trkpt lat="48.87991" lon="2.23337">
        <ele>99.1</ele>
        <time>2015-07-06T20:05:07.051Z</time>
      </trkpt>
      <trkpt lat="48.87994" lon="2.23346">
        <ele>98.7</ele>
        <time>2015-07-06T20:05:09.993Z</time>
      </trkpt>
      <trkpt lat="48.87995" lon="2.2335">
        <ele>98.4</ele>
        <time>2015-07-06T20:05:11.019Z</time>
      </trkpt>
      <trkpt lat="48.88" lon="2.23361">
        <ele>98.6</ele>
        <time>2015-07-06T20:05:14.054Z</time>
      </trkpt>
      <trkpt lat="48.88002" lon="2.23363">
        <ele>98.5</ele>
        <time>2015-07-06T20:05:15.005Z</time>
      </trkpt>
      <trkpt lat="48.88005" lon="2.23367">
        <ele>98.1</ele>
        <time>2015-07-06T20:05:16.000Z</time>
      </trkpt>
      <trkpt lat="48.88009" lon="2.23372">
        <ele>97</ele>
        <time>2015-07-06T20:05:17.012Z</time>
      </trkpt>
      <trkpt lat="48.88015" lon="2.2338">
        <ele>95.5</ele>
        <time>2015-07-06T20:05:19.030Z</time>
      </trkpt>
      <trkpt lat="48.88017" lon="2.23384">
        <ele>95.7</ele>
        <time>2015-07-06T20:05:20.038Z</time>
      </trkpt>
      <trkpt lat="48.88021" lon="2.23387">
        <ele>95.6</ele>
        <time>2015-07-06T20:05:21.113Z</time>
      </trkpt>
      <trkpt lat="48.88027" lon="2.23389">
        <ele>96.4</ele>
        <time>2015-07-06T20:05:21.978Z</time>
      </trkpt>
      <trkpt lat="48.88033" lon="2.23392">
        <ele>96.6</ele>
        <time>2015-07-06T20:05:23.016Z</time>
      </trkpt>
      <trkpt lat="48.88038" lon="2.23395">
        <ele>96.4</ele>
        <time>2015-07-06T20:05:24.029Z</time>
      </trkpt>
      <trkpt lat="48.88046" lon="2.23403">
        <ele>97.1</ele>
        <time>2015-07-06T20:05:26.965Z</time>
      </trkpt>
      <trkpt lat="48.88048" lon="2.23407">
        <ele>97.6</ele>
        <time>2015-07-06T20:05:27.992Z</time>
      </trkpt>
      <trkpt lat="48.88052" lon="2.23418">
        <ele>97.5</ele>
        <time>2015-07-06T20:05:31.050Z</time>
      </trkpt>
      <trkpt lat="48.88053" lon="2.2342">
        <ele>97.5</ele>
        <time>2015-07-06T20:05:32.063Z</time>
      </trkpt>
      <trkpt lat="48.8806" lon="2.23424">
        <ele>97.8</ele>
        <time>2015-07-06T20:05:35.095Z</time>
      </trkpt>
      <trkpt lat="48.88062" lon="2.23426">
        <ele>97.7</ele>
        <time>2015-07-06T20:05:35.959Z</time>
      </trkpt>
      <trkpt lat="48.88067" lon="2.23431">
        <ele>97.6</ele>
        <time>2015-07-06T20:05:38.053Z</time>
      </trkpt>
      <trkpt lat="48.8807" lon="2.23434">
        <ele>97.8</ele>
        <time>2015-07-06T20:05:39.003Z</time>
      </trkpt>
      <trkpt lat="48.88076" lon="2.23441">
        <ele>97.9</ele>
        <time>2015-07-06T20:05:41.011Z</time>
      </trkpt>
      <trkpt lat="48.88078" lon="2.23445">
        <ele>97.9</ele>
        <time>2015-07-06T20:05:42.018Z</time>
      </trkpt>
      <trkpt lat="48.88084" lon="2.2345">
        <ele>98.3</ele>
        <time>2015-07-06T20:05:43.024Z</time>
      </trkpt>
      <trkpt lat="48.88087" lon="2.23455">
        <ele>98</ele>
        <time>2015-07-06T20:05:44.033Z</time>
      </trkpt>
      <trkpt lat="48.88093" lon="2.2346">
        <ele>98.3</ele>
        <time>2015-07-06T20:05:45.036Z</time>
      </trkpt>
      <trkpt lat="48.88096" lon="2.23464">
        <ele>97.8</ele>
        <time>2015-07-06T20:05:46.057Z</time>
      </trkpt>
      <trkpt lat="48.88101" lon="2.23475">
        <ele>97.4</ele>
        <time>2015-07-06T20:05:48.072Z</time>
      </trkpt>
      <trkpt lat="48.88104" lon="2.23478">
        <ele>97.2</ele>
        <time>2015-07-06T20:05:48.991Z</time>
      </trkpt>
      <trkpt lat="48.88111" lon="2.23483">
        <ele>96.8</ele>
        <time>2015-07-06T20:05:50.963Z</time>
      </trkpt>
      <trkpt lat="48.88114" lon="2.23484">
        <ele>96.3</ele>
        <time>2015-07-06T20:05:52.164Z</time>
      </trkpt>
      <trkpt lat="48.88119" lon="2.23488">
        <ele>95.7</ele>
        <time>2015-07-06T20:05:54.052Z</time>
      </trkpt>
      <trkpt lat="48.88122" lon="2.23492">
        <ele>95.4</ele>
        <time>2015-07-06T20:05:54.958Z</time>
      </trkpt>
      <trkpt lat="48.88129" lon="2.235">
        <ele>95.2</ele>
        <time>2015-07-06T20:05:57.007Z</time>
      </trkpt>
      <trkpt lat="48.88131" lon="2.23504">
        <ele>95.2</ele>
        <time>2015-07-06T20:05:58.030Z</time>
      </trkpt>
      <trkpt lat="48.88136" lon="2.23513">
        <ele>95</ele>
        <time>2015-07-06T20:05:59.958Z</time>
      </trkpt>
      <trkpt lat="48.88141" lon="2.23517">
        <ele>94.5</ele>
        <time>2015-07-06T20:06:00.970Z</time>
      </trkpt>
      <trkpt lat="48.88143" lon="2.23523">
        <ele>94.1</ele>
        <time>2015-07-06T20:06:02.047Z</time>
      </trkpt>
      <trkpt lat="48.88145" lon="2.23529">
        <ele>94</ele>
        <time>2015-07-06T20:06:03.056Z</time>
      </trkpt>
      <trkpt lat="48.88149" lon="2.23535">
        <ele>93.8</ele>
        <time>2015-07-06T20:06:03.955Z</time>
      </trkpt>
      <trkpt lat="48.88152" lon="2.23541">
        <ele>93.8</ele>
        <time>2015-07-06T20:06:04.958Z</time>
      </trkpt>
      <trkpt lat="48.88156" lon="2.23545">
        <ele>93.9</ele>
        <time>2015-07-06T20:06:05.969Z</time>
      </trkpt>
      <trkpt lat="48.88162" lon="2.23548">
        <ele>93.8</ele>
        <time>2015-07-06T20:06:06.982Z</time>
      </trkpt>
      <trkpt lat="48.88167" lon="2.23553">
        <ele>93.4</ele>
        <time>2015-07-06T20:06:08.007Z</time>
      </trkpt>
      <trkpt lat="48.88171" lon="2.23556">
        <ele>93.3</ele>
        <time>2015-07-06T20:06:09.034Z</time>
      </trkpt>
      <trkpt lat="48.88173" lon="2.23558">
        <ele>93.5</ele>
        <time>2015-07-06T20:06:09.946Z</time>
      </trkpt>
      <trkpt lat="48.88174" lon="2.23559">
        <ele>93.7</ele>
        <time>2015-07-06T20:06:10.959Z</time>
      </trkpt>
      <trkpt lat="48.88176" lon="2.2356">
        <ele>93.8</ele>
        <time>2015-07-06T20:06:20.065Z</time>
      </trkpt>
      <trkpt lat="48.88188" lon="2.23575">
        <ele>94.4</ele>
        <time>2015-07-06T20:06:20.969Z</time>
      </trkpt>
      <trkpt lat="48.88193" lon="2.23584">
        <ele>93.3</ele>
        <time>2015-07-06T20:06:24.008Z</time>
      </trkpt>
      <trkpt lat="48.88195" lon="2.23589">
        <ele>92.7</ele>
        <time>2015-07-06T20:06:25.016Z</time>
      </trkpt>
      <trkpt lat="48.88198" lon="2.23597">
        <ele>92.4</ele>
        <time>2015-07-06T20:06:27.062Z</time>
      </trkpt>
      <trkpt lat="48.88201" lon="2.23602">
        <ele>92.2</ele>
        <time>2015-07-06T20:06:28.073Z</time>
      </trkpt>
      <trkpt lat="48.88206" lon="2.23611">
        <ele>92.3</ele>
        <time>2015-07-06T20:06:29.990Z</time>
      </trkpt>
      <trkpt lat="48.88211" lon="2.23616">
        <ele>90.7</ele>
        <time>2015-07-06T20:06:31.026Z</time>
      </trkpt>
      <trkpt lat="48.88216" lon="2.23624">
        <ele>90.7</ele>
        <time>2015-07-06T20:06:33.047Z</time>
      </trkpt>
      <trkpt lat="48.88218" lon="2.23629">
        <ele>90.7</ele>
        <time>2015-07-06T20:06:34.062Z</time>
      </trkpt>
      <trkpt lat="48.88224" lon="2.23637">
        <ele>91</ele>
        <time>2015-07-06T20:06:35.992Z</time>
      </trkpt>
      <trkpt lat="48.88227" lon="2.23641">
        <ele>90.9</ele>
        <time>2015-07-06T20:06:37.014Z</time>
      </trkpt>
      <trkpt lat="48.88231" lon="2.23643">
        <ele>91.2</ele>
        <time>2015-07-06T20:06:38.038Z</time>
      </trkpt>
      <trkpt lat="48.88236" lon="2.23646">
        <ele>91.1</ele>
        <time>2015-07-06T20:06:39.105Z</time>
      </trkpt>
      <trkpt lat="48.8824" lon="2.23649">
        <ele>90.9</ele>
        <time>2015-07-06T20:06:39.995Z</time>
      </trkpt>
      <trkpt lat="48.88245" lon="2.23652">
        <ele>89.7</ele>
        <time>2015-07-06T20:06:41.011Z</time>
      </trkpt>
      <trkpt lat="48.88248" lon="2.23659">
        <ele>89.1</ele>
        <time>2015-07-06T20:06:42.015Z</time>
      </trkpt>
      <trkpt lat="48.88252" lon="2.23665">
        <ele>88.5</ele>
        <time>2015-07-06T20:06:43.032Z</time>
      </trkpt>
      <trkpt lat="48.88256" lon="2.23669">
        <ele>88.6</ele>
        <time>2015-07-06T20:06:44.034Z</time>
      </trkpt>
      <trkpt lat="48.8826" lon="2.23672">
        <ele>88.6</ele>
        <time>2015-07-06T20:06:45.044Z</time>
      </trkpt>
      <trkpt lat="48.88265" lon="2.23682">
        <ele>88.2</ele>
        <time>2015-07-06T20:06:46.992Z</time>
      </trkpt>
      <trkpt lat="48.88268" lon="2.23687">
        <ele>87.9</ele>
        <time>2015-07-06T20:06:48.015Z</time>
      </trkpt>
      <trkpt lat="48.88272" lon="2.23691">
        <ele>87.8</ele>
        <time>2015-07-06T20:06:49.001Z</time>
      </trkpt>
      <trkpt lat="48.88276" lon="2.23694">
        <ele>87.5</ele>
        <time>2015-07-06T20:06:50.032Z</time>
      </trkpt>
      <trkpt lat="48.88284" lon="2.23701">
        <ele>87.7</ele>
        <time>2015-07-06T20:06:52.028Z</time>
      </trkpt>
      <trkpt lat="48.88287" lon="2.23704">
        <ele>87.7</ele>
        <time>2015-07-06T20:06:53.069Z</time>
      </trkpt>
      <trkpt lat="48.88292" lon="2.23713">
        <ele>87.9</ele>
        <time>2015-07-06T20:06:54.999Z</time>
      </trkpt>
      <trkpt lat="48.88293" lon="2.23718">
        <ele>88.1</ele>
        <time>2015-07-06T20:06:56.075Z</time>
      </trkpt>
      <trkpt lat="48.88298" lon="2.23727">
        <ele>88.3</ele>
        <time>2015-07-06T20:06:59.136Z</time>
      </trkpt>
      <trkpt lat="48.88301" lon="2.23729">
        <ele>88.4</ele>
        <time>2015-07-06T20:07:00.094Z</time>
      </trkpt>
      <trkpt lat="48.88306" lon="2.23735">
        <ele>88.5</ele>
        <time>2015-07-06T20:07:01.041Z</time>
      </trkpt>
      <trkpt lat="48.88313" lon="2.23739">
        <ele>87.9</ele>
        <time>2015-07-06T20:07:02.088Z</time>
      </trkpt>
      <trkpt lat="48.88319" lon="2.23747">
        <ele>87.6</ele>
        <time>2015-07-06T20:07:03.986Z</time>
      </trkpt>
      <trkpt lat="48.88322" lon="2.2375">
        <ele>87.6</ele>
        <time>2015-07-06T20:07:05.019Z</time>
      </trkpt>
      <trkpt lat="48.88328" lon="2.23755">
        <ele>86.3</ele>
        <time>2015-07-06T20:07:12.028Z</time>
      </trkpt>
      <trkpt lat="48.88326" lon="2.23765">
        <ele>86.5</ele>
        <time>2015-07-06T20:07:13.057Z</time>
      </trkpt>
      <trkpt lat="48.88334" lon="2.23766">
        <ele>85.8</ele>
        <time>2015-07-06T20:07:21.036Z</time>
      </trkpt>
      <trkpt lat="48.88336" lon="2.23768">
        <ele>84.9</ele>
        <time>2015-07-06T20:07:22.027Z</time>
      </trkpt>
      <trkpt lat="48.88343" lon="2.23776">
        <ele>83.4</ele>
        <time>2015-07-06T20:07:25.071Z</time>
      </trkpt>
      <trkpt lat="48.88346" lon="2.23779">
        <ele>83.1</ele>
        <time>2015-07-06T20:07:26.082Z</time>
      </trkpt>
      <trkpt lat="48.88349" lon="2.23784">
        <ele>83.2</ele>
        <time>2015-07-06T20:07:27.000Z</time>
      </trkpt>
      <trkpt lat="48.88353" lon="2.23788">
        <ele>83.2</ele>
        <time>2015-07-06T20:07:27.998Z</time>
      </trkpt>
      <trkpt lat="48.88357" lon="2.23793">
        <ele>83.3</ele>
        <time>2015-07-06T20:07:29.029Z</time>
      </trkpt>
      <trkpt lat="48.8836" lon="2.23798">
        <ele>83.4</ele>
        <time>2015-07-06T20:07:30.049Z</time>
      </trkpt>
      <trkpt lat="48.88366" lon="2.23805">
        <ele>83.2</ele>
        <time>2015-07-06T20:07:32.068Z</time>
      </trkpt>
      <trkpt lat="48.88367" lon="2.23809">
        <ele>82.8</ele>
        <time>2015-07-06T20:07:33.087Z</time>
      </trkpt>
      <trkpt lat="48.88368" lon="2.23822">
        <ele>80.7</ele>
        <time>2015-07-06T20:07:56.058Z</time>
      </trkpt>
      <trkpt lat="48.88368" lon="2.23826">
        <ele>80.8</ele>
        <time>2015-07-06T20:07:57.013Z</time>
      </trkpt>
      <trkpt lat="48.88372" lon="2.23836">
        <ele>80.7</ele>
        <time>2015-07-06T20:08:00.212Z</time>
      </trkpt>
      <trkpt lat="48.88374" lon="2.23838">
        <ele>80.9</ele>
        <time>2015-07-06T20:08:01.025Z</time>
      </trkpt>
      <trkpt lat="48.88378" lon="2.23847">
        <ele>81.4</ele>
        <time>2015-07-06T20:08:04.065Z</time>
      </trkpt>
      <trkpt lat="48.88381" lon="2.23851">
        <ele>81.6</ele>
        <time>2015-07-06T20:08:05.107Z</time>
      </trkpt>
      <trkpt lat="48.88385" lon="2.23858">
        <ele>81.7</ele>
        <time>2015-07-06T20:08:07.004Z</time>
      </trkpt>
      <trkpt lat="48.88388" lon="2.23861">
        <ele>81.7</ele>
        <time>2015-07-06T20:08:08.070Z</time>
      </trkpt>
      <trkpt lat="48.88393" lon="2.23869">
        <ele>81.6</ele>
        <time>2015-07-06T20:08:10.008Z</time>
      </trkpt>
      <trkpt lat="48.88395" lon="2.23873">
        <ele>81.3</ele>
        <time>2015-07-06T20:08:11.039Z</time>
      </trkpt>
      <trkpt lat="48.88402" lon="2.23881">
        <ele>80.1</ele>
        <time>2015-07-06T20:08:14.074Z</time>
      </trkpt>
      <trkpt lat="48.88403" lon="2.23884">
        <ele>80.3</ele>
        <time>2015-07-06T20:08:15.029Z</time>
      </trkpt>
      <trkpt lat="48.88409" lon="2.23888">
        <ele>80.7</ele>
        <time>2015-07-06T20:08:18.051Z</time>
      </trkpt>
      <trkpt lat="48.88412" lon="2.23889">
        <ele>80.7</ele>
        <time>2015-07-06T20:08:18.997Z</time>
      </trkpt>
      <trkpt lat="48.8842" lon="2.23893">
        <ele>80.6</ele>
        <time>2015-07-06T20:08:22.057Z</time>
      </trkpt>
      <trkpt lat="48.88423" lon="2.23897">
        <ele>80.5</ele>
        <time>2015-07-06T20:08:22.984Z</time>
      </trkpt>
      <trkpt lat="48.88427" lon="2.23907">
        <ele>81.3</ele>
        <time>2015-07-06T20:08:26.047Z</time>
      </trkpt>
      <trkpt lat="48.88428" lon="2.2391">
        <ele>81.5</ele>
        <time>2015-07-06T20:08:27.013Z</time>
      </trkpt>
      <trkpt lat="48.88433" lon="2.23917">
        <ele>84.3</ele>
        <time>2015-07-06T20:09:10.117Z</time>
      </trkpt>
      <trkpt lat="48.88438" lon="2.23919">
        <ele>85.4</ele>
        <time>2015-07-06T20:09:10.983Z</time>
      </trkpt>
      <trkpt lat="48.88445" lon="2.23925">
        <ele>85.7</ele>
        <time>2015-07-06T20:09:14.315Z</time>
      </trkpt>
      <trkpt lat="48.88446" lon="2.23925">
        <ele>85.6</ele>
        <time>2015-07-06T20:09:15.048Z</time>
      </trkpt>
      <trkpt lat="48.88445" lon="2.23925">
        <ele>85.6</ele>
        <time>2015-07-06T20:09:16.085Z</time>
      </trkpt>
      <trkpt lat="48.88445" lon="2.23928">
        <ele>85.7</ele>
        <time>2015-07-06T20:09:16.986Z</time>
      </trkpt>
      <trkpt lat="48.88445" lon="2.2393">
        <ele>85.6</ele>
        <time>2015-07-06T20:09:32.110Z</time>
      </trkpt>
      <trkpt lat="48.88442" lon="2.23926">
        <ele>85.9</ele>
        <time>2015-07-06T20:09:33.037Z</time>
      </trkpt>
      <trkpt lat="48.88449" lon="2.23922">
        <ele>89.5</ele>
        <time>2015-07-06T20:09:36.987Z</time>
      </trkpt>
      <trkpt lat="48.88452" lon="2.23921">
        <ele>90.3</ele>
        <time>2015-07-06T20:09:38.004Z</time>
      </trkpt>
      <trkpt lat="48.88458" lon="2.23924">
        <ele>89.6</ele>
        <time>2015-07-06T20:09:41.012Z</time>
      </trkpt>
      <trkpt lat="48.8846" lon="2.23926">
        <ele>88.6</ele>
        <time>2015-07-06T20:09:42.030Z</time>
      </trkpt>
      <trkpt lat="48.88465" lon="2.23932">
        <ele>88.5</ele>
        <time>2015-07-06T20:10:20.076Z</time>
      </trkpt>
      <trkpt lat="48.88461" lon="2.23949">
        <ele>96.1</ele>
        <time>2015-07-06T20:10:21.040Z</time>
      </trkpt>
      <trkpt lat="48.88463" lon="2.2396">
        <ele>95.4</ele>
        <time>2015-07-06T20:10:23.012Z</time>
      </trkpt>
      <trkpt lat="48.88466" lon="2.23966">
        <ele>95.1</ele>
        <time>2015-07-06T20:10:24.025Z</time>
      </trkpt>
      <trkpt lat="48.88468" lon="2.23972">
        <ele>95</ele>
        <time>2015-07-06T20:10:25.077Z</time>
      </trkpt>
      <trkpt lat="48.88471" lon="2.23978">
        <ele>95</ele>
        <time>2015-07-06T20:10:26.110Z</time>
      </trkpt>
      <trkpt lat="48.88473" lon="2.23986">
        <ele>94.5</ele>
        <time>2015-07-06T20:10:26.993Z</time>
      </trkpt>
      <trkpt lat="48.88475" lon="2.23992">
        <ele>94</ele>
        <time>2015-07-06T20:10:28.013Z</time>
      </trkpt>
      <trkpt lat="48.88477" lon="2.23999">
        <ele>93.6</ele>
        <time>2015-07-06T20:10:29.024Z</time>
      </trkpt>
      <trkpt lat="48.88479" lon="2.24005">
        <ele>93.2</ele>
        <time>2015-07-06T20:10:30.035Z</time>
      </trkpt>
      <trkpt lat="48.88481" lon="2.24011">
        <ele>92.7</ele>
        <time>2015-07-06T20:10:31.041Z</time>
      </trkpt>
      <trkpt lat="48.88483" lon="2.24017">
        <ele>92.4</ele>
        <time>2015-07-06T20:10:32.048Z</time>
      </trkpt>
      <trkpt lat="48.88486" lon="2.24024">
        <ele>91.9</ele>
        <time>2015-07-06T20:10:33.050Z</time>
      </trkpt>
      <trkpt lat="48.88488" lon="2.24031">
        <ele>91.6</ele>
        <time>2015-07-06T20:10:33.991Z</time>
      </trkpt>
      <trkpt lat="48.88492" lon="2.24037">
        <ele>91.4</ele>
        <time>2015-07-06T20:10:34.973Z</time>
      </trkpt>
      <trkpt lat="48.88495" lon="2.24044">
        <ele>91.1</ele>
        <time>2015-07-06T20:10:35.982Z</time>
      </trkpt>
      <trkpt lat="48.88497" lon="2.24051">
        <ele>91</ele>
        <time>2015-07-06T20:10:36.997Z</time>
      </trkpt>
      <trkpt lat="48.88499" lon="2.24058">
        <ele>90.8</ele>
        <time>2015-07-06T20:10:37.995Z</time>
      </trkpt>
      <trkpt lat="48.88502" lon="2.24065">
        <ele>90.5</ele>
        <time>2015-07-06T20:10:39.024Z</time>
      </trkpt>
      <trkpt lat="48.88504" lon="2.24072">
        <ele>90.4</ele>
        <time>2015-07-06T20:10:40.042Z</time>
      </trkpt>
      <trkpt lat="48.88508" lon="2.24078">
        <ele>90.5</ele>
        <time>2015-07-06T20:10:41.067Z</time>
      </trkpt>
      <trkpt lat="48.88512" lon="2.24084">
        <ele>90.6</ele>
        <time>2015-07-06T20:10:41.973Z</time>
      </trkpt>
      <trkpt lat="48.88516" lon="2.2409">
        <ele>90.4</ele>
        <time>2015-07-06T20:10:43.026Z</time>
      </trkpt>
      <trkpt lat="48.88518" lon="2.24097">
        <ele>90.2</ele>
        <time>2015-07-06T20:10:44.019Z</time>
      </trkpt>
      <trkpt lat="48.8852" lon="2.24103">
        <ele>90.1</ele>
        <time>2015-07-06T20:10:45.033Z</time>
      </trkpt>
      <trkpt lat="48.88522" lon="2.2411">
        <ele>89.8</ele>
        <time>2015-07-06T20:10:46.042Z</time>
      </trkpt>
      <trkpt lat="48.88525" lon="2.24116">
        <ele>89.4</ele>
        <time>2015-07-06T20:10:47.041Z</time>
      </trkpt>
      <trkpt lat="48.88527" lon="2.24122">
        <ele>89.4</ele>
        <time>2015-07-06T20:10:48.087Z</time>
      </trkpt>
      <trkpt lat="48.88529" lon="2.24129">
        <ele>89.1</ele>
        <time>2015-07-06T20:10:48.983Z</time>
      </trkpt>
      <trkpt lat="48.8853" lon="2.24136">
        <ele>88.7</ele>
        <time>2015-07-06T20:10:50.052Z</time>
      </trkpt>
      <trkpt lat="48.88532" lon="2.24142">
        <ele>88.6</ele>
        <time>2015-07-06T20:10:50.987Z</time>
      </trkpt>
      <trkpt lat="48.88534" lon="2.24149">
        <ele>88.3</ele>
        <time>2015-07-06T20:10:51.980Z</time>
      </trkpt>
      <trkpt lat="48.88537" lon="2.24155">
        <ele>88.2</ele>
        <time>2015-07-06T20:10:52.986Z</time>
      </trkpt>
      <trkpt lat="48.88539" lon="2.24161">
        <ele>87.8</ele>
        <time>2015-07-06T20:10:53.990Z</time>
      </trkpt>
      <trkpt lat="48.88542" lon="2.24168">
        <ele>87.6</ele>
        <time>2015-07-06T20:10:55.003Z</time>
      </trkpt>
      <trkpt lat="48.88544" lon="2.24174">
        <ele>87.6</ele>
        <time>2015-07-06T20:10:56.031Z</time>
      </trkpt>
      <trkpt lat="48.88546" lon="2.24181">
        <ele>87.6</ele>
        <time>2015-07-06T20:10:57.038Z</time>
      </trkpt>
      <trkpt lat="48.88548" lon="2.24188">
        <ele>87.3</ele>
        <time>2015-07-06T20:10:58.050Z</time>
      </trkpt>
      <trkpt lat="48.8855" lon="2.24195">
        <ele>87.4</ele>
        <time>2015-07-06T20:10:59.091Z</time>
      </trkpt>
      <trkpt lat="48.88552" lon="2.24201">
        <ele>87.1</ele>
        <time>2015-07-06T20:11:00.011Z</time>
      </trkpt>
      <trkpt lat="48.88554" lon="2.24208">
        <ele>87</ele>
        <time>2015-07-06T20:11:01.020Z</time>
      </trkpt>
      <trkpt lat="48.88556" lon="2.24215">
        <ele>87.1</ele>
        <time>2015-07-06T20:11:02.081Z</time>
      </trkpt>
      <trkpt lat="48.88558" lon="2.24222">
        <ele>87.2</ele>
        <time>2015-07-06T20:11:02.995Z</time>
      </trkpt>
      <trkpt lat="48.88561" lon="2.24229">
        <ele>87.5</ele>
        <time>2015-07-06T20:11:04.008Z</time>
      </trkpt>
      <trkpt lat="48.88563" lon="2.24236">
        <ele>87.2</ele>
        <time>2015-07-06T20:11:05.025Z</time>
      </trkpt>
      <trkpt lat="48.88566" lon="2.24242">
        <ele>87.2</ele>
        <time>2015-07-06T20:11:06.033Z</time>
      </trkpt>
      <trkpt lat="48.8857" lon="2.24248">
        <ele>86.9</ele>
        <time>2015-07-06T20:11:06.975Z</time>
      </trkpt>
      <trkpt lat="48.88573" lon="2.24253">
        <ele>86.6</ele>
        <time>2015-07-06T20:11:07.988Z</time>
      </trkpt>
      <trkpt lat="48.88576" lon="2.24266">
        <ele>86.2</ele>
        <time>2015-07-06T20:11:10.032Z</time>
      </trkpt>
      <trkpt lat="48.88577" lon="2.24272">
        <ele>86</ele>
        <time>2015-07-06T20:11:11.042Z</time>
      </trkpt>
      <trkpt lat="48.88581" lon="2.24282">
        <ele>86.5</ele>
        <time>2015-07-06T20:11:13.076Z</time>
      </trkpt>
      <trkpt lat="48.88583" lon="2.24286">
        <ele>86.6</ele>
        <time>2015-07-06T20:11:14.074Z</time>
      </trkpt>
      <trkpt lat="48.88587" lon="2.24293">
        <ele>86.7</ele>
        <time>2015-07-06T20:11:15.973Z</time>
      </trkpt>
      <trkpt lat="48.88589" lon="2.24297">
        <ele>86.9</ele>
        <time>2015-07-06T20:11:16.970Z</time>
      </trkpt>
      <trkpt lat="48.88593" lon="2.24306">
        <ele>86.9</ele>
        <time>2015-07-06T20:11:19.004Z</time>
      </trkpt>
      <trkpt lat="48.88595" lon="2.2431">
        <ele>87</ele>
        <time>2015-07-06T20:11:20.001Z</time>
      </trkpt>
      <trkpt lat="48.88596" lon="2.24322">
        <ele>86.8</ele>
        <time>2015-07-06T20:11:21.988Z</time>
      </trkpt>
      <trkpt lat="48.88597" lon="2.24327">
        <ele>86.6</ele>
        <time>2015-07-06T20:11:23.103Z</time>
      </trkpt>
      <trkpt lat="48.886" lon="2.24336">
        <ele>86</ele>
        <time>2015-07-06T20:11:24.987Z</time>
      </trkpt>
      <trkpt lat="48.88603" lon="2.24341">
        <ele>86</ele>
        <time>2015-07-06T20:11:26.147Z</time>
      </trkpt>
      <trkpt lat="48.88607" lon="2.24351">
        <ele>85.6</ele>
        <time>2015-07-06T20:11:28.002Z</time>
      </trkpt>
      <trkpt lat="48.88611" lon="2.24356">
        <ele>85.6</ele>
        <time>2015-07-06T20:11:29.035Z</time>
      </trkpt>
      <trkpt lat="48.88614" lon="2.24362">
        <ele>85.5</ele>
        <time>2015-07-06T20:11:30.000Z</time>
      </trkpt>
      <trkpt lat="48.88617" lon="2.24367">
        <ele>85.1</ele>
        <time>2015-07-06T20:11:31.008Z</time>
      </trkpt>
      <trkpt lat="48.8862" lon="2.24372">
        <ele>85.1</ele>
        <time>2015-07-06T20:11:32.099Z</time>
      </trkpt>
      <trkpt lat="48.88623" lon="2.24378">
        <ele>85.1</ele>
        <time>2015-07-06T20:11:33.076Z</time>
      </trkpt>
      <trkpt lat="48.88625" lon="2.24384">
        <ele>84.9</ele>
        <time>2015-07-06T20:11:33.984Z</time>
      </trkpt>
      <trkpt lat="48.88627" lon="2.2439">
        <ele>84.7</ele>
        <time>2015-07-06T20:11:34.986Z</time>
      </trkpt>
      <trkpt lat="48.88629" lon="2.24396">
        <ele>84.8</ele>
        <time>2015-07-06T20:11:35.992Z</time>
      </trkpt>
      <trkpt lat="48.88632" lon="2.24403">
        <ele>85</ele>
        <time>2015-07-06T20:11:37.014Z</time>
      </trkpt>
      <trkpt lat="48.88635" lon="2.24409">
        <ele>85.2</ele>
        <time>2015-07-06T20:11:38.037Z</time>
      </trkpt>
      <trkpt lat="48.88639" lon="2.24415">
        <ele>85.5</ele>
        <time>2015-07-06T20:11:39.035Z</time>
      </trkpt>
      <trkpt lat="48.88643" lon="2.2442">
        <ele>86</ele>
        <time>2015-07-06T20:11:40.045Z</time>
      </trkpt>
      <trkpt lat="48.88647" lon="2.24426">
        <ele>86</ele>
        <time>2015-07-06T20:11:41.064Z</time>
      </trkpt>
      <trkpt lat="48.88653" lon="2.24429">
        <ele>86.1</ele>
        <time>2015-07-06T20:11:41.991Z</time>
      </trkpt>
      <trkpt lat="48.88657" lon="2.24433">
        <ele>86</ele>
        <time>2015-07-06T20:11:42.992Z</time>
      </trkpt>
      <trkpt lat="48.88661" lon="2.24441">
        <ele>85.8</ele>
        <time>2015-07-06T20:11:45.051Z</time>
      </trkpt>
      <trkpt lat="48.88663" lon="2.24445">
        <ele>85.3</ele>
        <time>2015-07-06T20:11:45.984Z</time>
      </trkpt>
      <trkpt lat="48.88663" lon="2.24454">
        <ele>85.4</ele>
        <time>2015-07-06T20:11:48.017Z</time>
      </trkpt>
      <trkpt lat="48.88663" lon="2.2446">
        <ele>85.2</ele>
        <time>2015-07-06T20:11:49.037Z</time>
      </trkpt>
      <trkpt lat="48.88664" lon="2.24471">
        <ele>84.9</ele>
        <time>2015-07-06T20:11:50.992Z</time>
      </trkpt>
      <trkpt lat="48.88665" lon="2.24478">
        <ele>84.9</ele>
        <time>2015-07-06T20:11:52.026Z</time>
      </trkpt>
      <trkpt lat="48.88668" lon="2.2449">
        <ele>84.9</ele>
        <time>2015-07-06T20:11:54.054Z</time>
      </trkpt>
      <trkpt lat="48.8867" lon="2.24495">
        <ele>84.9</ele>
        <time>2015-07-06T20:11:55.079Z</time>
      </trkpt>
      <trkpt lat="48.88671" lon="2.24501">
        <ele>84.8</ele>
        <time>2015-07-06T20:11:56.101Z</time>
      </trkpt>
      <trkpt lat="48.8867" lon="2.24509">
        <ele>85.1</ele>
        <time>2015-07-06T20:11:56.990Z</time>
      </trkpt>
      <trkpt lat="48.88669" lon="2.24516">
        <ele>85</ele>
        <time>2015-07-06T20:11:57.993Z</time>
      </trkpt>
      <trkpt lat="48.88667" lon="2.24522">
        <ele>85.2</ele>
        <time>2015-07-06T20:11:59.004Z</time>
      </trkpt>
      <trkpt lat="48.88662" lon="2.2453">
        <ele>85.3</ele>
        <time>2015-07-06T20:12:01.027Z</time>
      </trkpt>
      <trkpt lat="48.88657" lon="2.24533">
        <ele>86.1</ele>
        <time>2015-07-06T20:12:02.078Z</time>
      </trkpt>
      <trkpt lat="48.8865" lon="2.24537">
        <ele>87.4</ele>
        <time>2015-07-06T20:12:04.026Z</time>
      </trkpt>
      <trkpt lat="48.88647" lon="2.24539">
        <ele>87.8</ele>
        <time>2015-07-06T20:12:05.015Z</time>
      </trkpt>
      <trkpt lat="48.88639" lon="2.24545">
        <ele>88.7</ele>
        <time>2015-07-06T20:12:07.064Z</time>
      </trkpt>
      <trkpt lat="48.88636" lon="2.24549">
        <ele>89.3</ele>
        <time>2015-07-06T20:12:08.079Z</time>
      </trkpt>
      <trkpt lat="48.88632" lon="2.24555">
        <ele>89.7</ele>
        <time>2015-07-06T20:12:08.992Z</time>
      </trkpt>
      <trkpt lat="48.88629" lon="2.2456">
        <ele>90.1</ele>
        <time>2015-07-06T20:12:09.993Z</time>
      </trkpt>
      <trkpt lat="48.88625" lon="2.24565">
        <ele>90.5</ele>
        <time>2015-07-06T20:12:10.999Z</time>
      </trkpt>
      <trkpt lat="48.88622" lon="2.24571">
        <ele>90.9</ele>
        <time>2015-07-06T20:12:12.013Z</time>
      </trkpt>
      <trkpt lat="48.88618" lon="2.24576">
        <ele>91</ele>
        <time>2015-07-06T20:12:13.025Z</time>
      </trkpt>
      <trkpt lat="48.88615" lon="2.2458">
        <ele>90.9</ele>
        <time>2015-07-06T20:12:14.037Z</time>
      </trkpt>
      <trkpt lat="48.8861" lon="2.24592">
        <ele>91</ele>
        <time>2015-07-06T20:12:16.069Z</time>
      </trkpt>
      <trkpt lat="48.88607" lon="2.24599">
        <ele>91.5</ele>
        <time>2015-07-06T20:12:16.992Z</time>
      </trkpt>
      <trkpt lat="48.88601" lon="2.24606">
        <ele>91.3</ele>
        <time>2015-07-06T20:12:18.966Z</time>
      </trkpt>
      <trkpt lat="48.88598" lon="2.24609">
        <ele>91.3</ele>
        <time>2015-07-06T20:12:20.084Z</time>
      </trkpt>
      <trkpt lat="48.88591" lon="2.24615">
        <ele>91.4</ele>
        <time>2015-07-06T20:12:22.026Z</time>
      </trkpt>
      <trkpt lat="48.88587" lon="2.24618">
        <ele>91.4</ele>
        <time>2015-07-06T20:12:23.027Z</time>
      </trkpt>
      <trkpt lat="48.88583" lon="2.24624">
        <ele>91.5</ele>
        <time>2015-07-06T20:12:24.047Z</time>
      </trkpt>
      <trkpt lat="48.8858" lon="2.2463">
        <ele>91.6</ele>
        <time>2015-07-06T20:12:25.061Z</time>
      </trkpt>
      <trkpt lat="48.88575" lon="2.24634">
        <ele>91.6</ele>
        <time>2015-07-06T20:12:26.040Z</time>
      </trkpt>
      <trkpt lat="48.88572" lon="2.2464">
        <ele>91.7</ele>
        <time>2015-07-06T20:12:27.046Z</time>
      </trkpt>
      <trkpt lat="48.88567" lon="2.24644">
        <ele>91.9</ele>
        <time>2015-07-06T20:12:28.086Z</time>
      </trkpt>
      <trkpt lat="48.88564" lon="2.24649">
        <ele>92.1</ele>
        <time>2015-07-06T20:12:28.987Z</time>
      </trkpt>
      <trkpt lat="48.88559" lon="2.24652">
        <ele>92.4</ele>
        <time>2015-07-06T20:12:30.018Z</time>
      </trkpt>
      <trkpt lat="48.88555" lon="2.24656">
        <ele>92.4</ele>
        <time>2015-07-06T20:12:31.033Z</time>
      </trkpt>
      <trkpt lat="48.88551" lon="2.24661">
        <ele>92.1</ele>
        <time>2015-07-06T20:12:32.041Z</time>
      </trkpt>
      <trkpt lat="48.88547" lon="2.24666">
        <ele>91.9</ele>
        <time>2015-07-06T20:12:33.048Z</time>
      </trkpt>
      <trkpt lat="48.88543" lon="2.24672">
        <ele>91.6</ele>
        <time>2015-07-06T20:12:34.064Z</time>
      </trkpt>
      <trkpt lat="48.88538" lon="2.24677">
        <ele>91.6</ele>
        <time>2015-07-06T20:12:35.026Z</time>
      </trkpt>
      <trkpt lat="48.88534" lon="2.24683">
        <ele>92.2</ele>
        <time>2015-07-06T20:12:35.992Z</time>
      </trkpt>
      <trkpt lat="48.88531" lon="2.24687">
        <ele>92</ele>
        <time>2015-07-06T20:12:36.993Z</time>
      </trkpt>
      <trkpt lat="48.88527" lon="2.24693">
        <ele>92.2</ele>
        <time>2015-07-06T20:12:38.033Z</time>
      </trkpt>
      <trkpt lat="48.88523" lon="2.247">
        <ele>92.4</ele>
        <time>2015-07-06T20:12:39.025Z</time>
      </trkpt>
      <trkpt lat="48.88519" lon="2.24705">
        <ele>92.6</ele>
        <time>2015-07-06T20:12:40.039Z</time>
      </trkpt>
      <trkpt lat="48.88515" lon="2.24711">
        <ele>92.9</ele>
        <time>2015-07-06T20:12:41.049Z</time>
      </trkpt>
      <trkpt lat="48.88511" lon="2.24717">
        <ele>93.4</ele>
        <time>2015-07-06T20:12:42.059Z</time>
      </trkpt>
      <trkpt lat="48.88507" lon="2.24723">
        <ele>93.6</ele>
        <time>2015-07-06T20:12:43.068Z</time>
      </trkpt>
      <trkpt lat="48.88503" lon="2.2473">
        <ele>94.6</ele>
        <time>2015-07-06T20:12:44.066Z</time>
      </trkpt>
      <trkpt lat="48.88499" lon="2.24736">
        <ele>95.6</ele>
        <time>2015-07-06T20:12:44.986Z</time>
      </trkpt>
      <trkpt lat="48.88496" lon="2.24742">
        <ele>96.7</ele>
        <time>2015-07-06T20:12:45.987Z</time>
      </trkpt>
      <trkpt lat="48.88492" lon="2.24748">
        <ele>97.4</ele>
        <time>2015-07-06T20:12:46.999Z</time>
      </trkpt>
      <trkpt lat="48.88488" lon="2.24754">
        <ele>98.2</ele>
        <time>2015-07-06T20:12:47.996Z</time>
      </trkpt>
      <trkpt lat="48.88485" lon="2.24762">
        <ele>99</ele>
        <time>2015-07-06T20:12:49.000Z</time>
      </trkpt>
      <trkpt lat="48.88481" lon="2.24767">
        <ele>99.2</ele>
        <time>2015-07-06T20:12:50.039Z</time>
      </trkpt>
      <trkpt lat="48.88478" lon="2.24771">
        <ele>99.3</ele>
        <time>2015-07-06T20:12:51.031Z</time>
      </trkpt>
      <trkpt lat="48.88474" lon="2.24781">
        <ele>99</ele>
        <time>2015-07-06T20:12:53.050Z</time>
      </trkpt>
      <trkpt lat="48.88472" lon="2.24785">
        <ele>99.5</ele>
        <time>2015-07-06T20:12:53.961Z</time>
      </trkpt>
      <trkpt lat="48.8847" lon="2.24796">
        <ele>99.6</ele>
        <time>2015-07-06T20:12:56.009Z</time>
      </trkpt>
      <trkpt lat="48.8847" lon="2.248">
        <ele>99</ele>
        <time>2015-07-06T20:12:57.026Z</time>
      </trkpt>
      <trkpt lat="48.88475" lon="2.24795">
        <ele>95.3</ele>
        <time>2015-07-06T20:13:04.980Z</time>
      </trkpt>
      <trkpt lat="48.88479" lon="2.24794">
        <ele>93.9</ele>
        <time>2015-07-06T20:13:06.000Z</time>
      </trkpt>
      <trkpt lat="48.88481" lon="2.24801">
        <ele>92.9</ele>
        <time>2015-07-06T20:13:08.022Z</time>
      </trkpt>
      <trkpt lat="48.88484" lon="2.24805">
        <ele>92.1</ele>
        <time>2015-07-06T20:13:09.022Z</time>
      </trkpt>
      <trkpt lat="48.88488" lon="2.2481">
        <ele>92.1</ele>
        <time>2015-07-06T20:13:10.041Z</time>
      </trkpt>
      <trkpt lat="48.8849" lon="2.24816">
        <ele>91.9</ele>
        <time>2015-07-06T20:13:11.053Z</time>
      </trkpt>
      <trkpt lat="48.88493" lon="2.24823">
        <ele>91.8</ele>
        <time>2015-07-06T20:13:11.974Z</time>
      </trkpt>
      <trkpt lat="48.88495" lon="2.2483">
        <ele>91.6</ele>
        <time>2015-07-06T20:13:12.972Z</time>
      </trkpt>
      <trkpt lat="48.88497" lon="2.24837">
        <ele>91.3</ele>
        <time>2015-07-06T20:13:14.022Z</time>
      </trkpt>
      <trkpt lat="48.885" lon="2.24844">
        <ele>91.2</ele>
        <time>2015-07-06T20:13:15.031Z</time>
      </trkpt>
      <trkpt lat="48.88503" lon="2.24852">
        <ele>91</ele>
        <time>2015-07-06T20:13:15.978Z</time>
      </trkpt>
      <trkpt lat="48.88505" lon="2.24859">
        <ele>90.7</ele>
        <time>2015-07-06T20:13:16.981Z</time>
      </trkpt>
      <trkpt lat="48.88508" lon="2.24867">
        <ele>90.7</ele>
        <time>2015-07-06T20:13:17.986Z</time>
      </trkpt>
      <trkpt lat="48.8851" lon="2.24875">
        <ele>91</ele>
        <time>2015-07-06T20:13:18.991Z</time>
      </trkpt>
      <trkpt lat="48.88513" lon="2.24882">
        <ele>91</ele>
        <time>2015-07-06T20:13:20.012Z</time>
      </trkpt>
      <trkpt lat="48.88516" lon="2.24889">
        <ele>91.1</ele>
        <time>2015-07-06T20:13:21.011Z</time>
      </trkpt>
      <trkpt lat="48.88518" lon="2.24897">
        <ele>91</ele>
        <time>2015-07-06T20:13:22.021Z</time>
      </trkpt>
      <trkpt lat="48.8852" lon="2.24906">
        <ele>91.2</ele>
        <time>2015-07-06T20:13:23.029Z</time>
      </trkpt>
      <trkpt lat="48.88522" lon="2.24914">
        <ele>91.2</ele>
        <time>2015-07-06T20:13:24.036Z</time>
      </trkpt>
      <trkpt lat="48.88524" lon="2.24921">
        <ele>91.2</ele>
        <time>2015-07-06T20:13:25.040Z</time>
      </trkpt>
      <trkpt lat="48.88527" lon="2.24928">
        <ele>91.2</ele>
        <time>2015-07-06T20:13:26.045Z</time>
      </trkpt>
      <trkpt lat="48.88529" lon="2.24936">
        <ele>91.2</ele>
        <time>2015-07-06T20:13:26.964Z</time>
      </trkpt>
      <trkpt lat="48.88533" lon="2.24943">
        <ele>91.7</ele>
        <time>2015-07-06T20:13:27.965Z</time>
      </trkpt>
      <trkpt lat="48.88536" lon="2.24951">
        <ele>92.1</ele>
        <time>2015-07-06T20:13:28.975Z</time>
      </trkpt>
      <trkpt lat="48.88539" lon="2.24958">
        <ele>92.2</ele>
        <time>2015-07-06T20:13:30.004Z</time>
      </trkpt>
      <trkpt lat="48.88541" lon="2.24965">
        <ele>92.6</ele>
        <time>2015-07-06T20:13:31.007Z</time>
      </trkpt>
      <trkpt lat="48.88543" lon="2.24973">
        <ele>93</ele>
        <time>2015-07-06T20:13:32.024Z</time>
      </trkpt>
      <trkpt lat="48.88546" lon="2.2498">
        <ele>93.6</ele>
        <time>2015-07-06T20:13:33.025Z</time>
      </trkpt>
      <trkpt lat="48.88549" lon="2.24987">
        <ele>94.4</ele>
        <time>2015-07-06T20:13:33.999Z</time>
      </trkpt>
      <trkpt lat="48.88552" lon="2.24993">
        <ele>94.2</ele>
        <time>2015-07-06T20:13:35.000Z</time>
      </trkpt>
      <trkpt lat="48.88553" lon="2.25">
        <ele>94</ele>
        <time>2015-07-06T20:13:36.025Z</time>
      </trkpt>
      <trkpt lat="48.88556" lon="2.25008">
        <ele>94.4</ele>
        <time>2015-07-06T20:13:37.032Z</time>
      </trkpt>
      <trkpt lat="48.88558" lon="2.25015">
        <ele>94.5</ele>
        <time>2015-07-06T20:13:38.040Z</time>
      </trkpt>
      <trkpt lat="48.8856" lon="2.25022">
        <ele>94.6</ele>
        <time>2015-07-06T20:13:39.053Z</time>
      </trkpt>
      <trkpt lat="48.88562" lon="2.25029">
        <ele>94.9</ele>
        <time>2015-07-06T20:13:40.246Z</time>
      </trkpt>
      <trkpt lat="48.88565" lon="2.25036">
        <ele>96.2</ele>
        <time>2015-07-06T20:13:40.974Z</time>
      </trkpt>
      <trkpt lat="48.88568" lon="2.25042">
        <ele>96.8</ele>
        <time>2015-07-06T20:13:41.986Z</time>
      </trkpt>
      <trkpt lat="48.88571" lon="2.25047">
        <ele>97.2</ele>
        <time>2015-07-06T20:13:42.988Z</time>
      </trkpt>
      <trkpt lat="48.88577" lon="2.25057">
        <ele>97.1</ele>
        <time>2015-07-06T20:13:45.024Z</time>
      </trkpt>
      <trkpt lat="48.8858" lon="2.2506">
        <ele>97.4</ele>
        <time>2015-07-06T20:13:46.039Z</time>
      </trkpt>
      <trkpt lat="48.88588" lon="2.25066">
        <ele>99.1</ele>
        <time>2015-07-06T20:13:48.058Z</time>
      </trkpt>
      <trkpt lat="48.8859" lon="2.2507">
        <ele>99.9</ele>
        <time>2015-07-06T20:13:49.066Z</time>
      </trkpt>
      <trkpt lat="48.88595" lon="2.2508">
        <ele>99.8</ele>
        <time>2015-07-06T20:13:52.014Z</time>
      </trkpt>
      <trkpt lat="48.88596" lon="2.25082">
        <ele>99.9</ele>
        <time>2015-07-06T20:13:52.986Z</time>
      </trkpt>
      <trkpt lat="48.88593" lon="2.25092">
        <ele>94.8</ele>
        <time>2015-07-06T20:14:16.022Z</time>
      </trkpt>
      <trkpt lat="48.88593" lon="2.25096">
        <ele>94.2</ele>
        <time>2015-07-06T20:14:17.068Z</time>
      </trkpt>
      <trkpt lat="48.88595" lon="2.25107">
        <ele>92</ele>
        <time>2015-07-06T20:14:20.124Z</time>
      </trkpt>
      <trkpt lat="48.88597" lon="2.25111">
        <ele>91.2</ele>
        <time>2015-07-06T20:14:21.011Z</time>
      </trkpt>
      <trkpt lat="48.88599" lon="2.25118">
        <ele>90.4</ele>
        <time>2015-07-06T20:14:23.010Z</time>
      </trkpt>
      <trkpt lat="48.88601" lon="2.25123">
        <ele>90.5</ele>
        <time>2015-07-06T20:14:24.018Z</time>
      </trkpt>
      <trkpt lat="48.88605" lon="2.25133">
        <ele>89.8</ele>
        <time>2015-07-06T20:14:27.057Z</time>
      </trkpt>
      <trkpt lat="48.88608" lon="2.25136">
        <ele>89.3</ele>
        <time>2015-07-06T20:14:27.997Z</time>
      </trkpt>
      <trkpt lat="48.88613" lon="2.25145">
        <ele>90.1</ele>
        <time>2015-07-06T20:14:29.996Z</time>
      </trkpt>
      <trkpt lat="48.88616" lon="2.25149">
        <ele>90</ele>
        <time>2015-07-06T20:14:31.017Z</time>
      </trkpt>
      <trkpt lat="48.88624" lon="2.25153">
        <ele>89.1</ele>
        <time>2015-07-06T20:14:34.189Z</time>
      </trkpt>
      <trkpt lat="48.88625" lon="2.25151">
        <ele>88.3</ele>
        <time>2015-07-06T20:14:34.991Z</time>
      </trkpt>
      <trkpt lat="48.88627" lon="2.25149">
        <ele>87</ele>
        <time>2015-07-06T20:14:57.982Z</time>
      </trkpt>
      <trkpt lat="48.88639" lon="2.25157">
        <ele>82.6</ele>
        <time>2015-07-06T20:14:59.026Z</time>
      </trkpt>
      <trkpt lat="48.88641" lon="2.25169">
        <ele>82.3</ele>
        <time>2015-07-06T20:15:02.716Z</time>
      </trkpt>
      <trkpt lat="48.88641" lon="2.25174">
        <ele>82.3</ele>
        <time>2015-07-06T20:15:04.004Z</time>
      </trkpt>
      <trkpt lat="48.88641" lon="2.25188">
        <ele>82</ele>
        <time>2015-07-06T20:15:06.021Z</time>
      </trkpt>
      <trkpt lat="48.88642" lon="2.25194">
        <ele>81.9</ele>
        <time>2015-07-06T20:15:07.231Z</time>
      </trkpt>
      <trkpt lat="48.88649" lon="2.25192">
        <ele>81.8</ele>
        <time>2015-07-06T20:15:10.301Z</time>
      </trkpt>
      <trkpt lat="48.88654" lon="2.25182">
        <ele>82.1</ele>
        <time>2015-07-06T20:15:11.027Z</time>
      </trkpt>
      <trkpt lat="48.8866" lon="2.25174">
        <ele>82.1</ele>
        <time>2015-07-06T20:15:13.005Z</time>
      </trkpt>
      <trkpt lat="48.88662" lon="2.25175">
        <ele>81.9</ele>
        <time>2015-07-06T20:15:14.112Z</time>
      </trkpt>
      <trkpt lat="48.88668" lon="2.25185">
        <ele>80.9</ele>
        <time>2015-07-06T20:15:18.009Z</time>
      </trkpt>
      <trkpt lat="48.88669" lon="2.25185">
        <ele>81</ele>
        <time>2015-07-06T20:15:19.042Z</time>
      </trkpt>
      <trkpt lat="48.88674" lon="2.25193">
        <ele>81.2</ele>
        <time>2015-07-06T20:15:23.072Z</time>
      </trkpt>
      <trkpt lat="48.88676" lon="2.25195">
        <ele>81.3</ele>
        <time>2015-07-06T20:15:24.091Z</time>
      </trkpt>
      <trkpt lat="48.88682" lon="2.25201">
        <ele>81.8</ele>
        <time>2015-07-06T20:15:26.987Z</time>
      </trkpt>
      <trkpt lat="48.88685" lon="2.25203">
        <ele>82.2</ele>
        <time>2015-07-06T20:15:27.974Z</time>
      </trkpt>
      <trkpt lat="48.88693" lon="2.25207">
        <ele>87.5</ele>
        <time>2015-07-06T20:15:39.020Z</time>
      </trkpt>
      <trkpt lat="48.88705" lon="2.25216">
        <ele>90.4</ele>
        <time>2015-07-06T20:15:40.007Z</time>
      </trkpt>
      <trkpt lat="48.88702" lon="2.25224">
        <ele>90.2</ele>
        <time>2015-07-06T20:15:42.042Z</time>
      </trkpt>
      <trkpt lat="48.887" lon="2.25227">
        <ele>90.2</ele>
        <time>2015-07-06T20:15:43.116Z</time>
      </trkpt>
      <trkpt lat="48.88697" lon="2.2524">
        <ele>90.7</ele>
        <time>2015-07-06T20:15:48.001Z</time>
      </trkpt>
      <trkpt lat="48.88698" lon="2.25243">
        <ele>90.8</ele>
        <time>2015-07-06T20:15:49.012Z</time>
      </trkpt>
      <trkpt lat="48.88701" lon="2.25242">
        <ele>90.2</ele>
        <time>2015-07-06T20:16:30.038Z</time>
      </trkpt>
      <trkpt lat="48.88712" lon="2.2524">
        <ele>88.9</ele>
        <time>2015-07-06T20:16:31.054Z</time>
      </trkpt>
      <trkpt lat="48.8871" lon="2.25252">
        <ele>88.2</ele>
        <time>2015-07-06T20:16:34.954Z</time>
      </trkpt>
      <trkpt lat="48.88709" lon="2.25255">
        <ele>88.2</ele>
        <time>2015-07-06T20:16:36.065Z</time>
      </trkpt>
      <trkpt lat="48.88705" lon="2.25267">
        <ele>87.4</ele>
        <time>2015-07-06T20:16:39.005Z</time>
      </trkpt>
      <trkpt lat="48.88703" lon="2.25271">
        <ele>87.6</ele>
        <time>2015-07-06T20:16:39.993Z</time>
      </trkpt>
      <trkpt lat="48.88701" lon="2.25281">
        <ele>87.3</ele>
        <time>2015-07-06T20:16:42.003Z</time>
      </trkpt>
      <trkpt lat="48.88699" lon="2.25286">
        <ele>86.9</ele>
        <time>2015-07-06T20:16:43.023Z</time>
      </trkpt>
      <trkpt lat="48.88696" lon="2.25295">
        <ele>86.8</ele>
        <time>2015-07-06T20:16:45.068Z</time>
      </trkpt>
      <trkpt lat="48.88695" lon="2.253">
        <ele>86.6</ele>
        <time>2015-07-06T20:16:46.008Z</time>
      </trkpt>
      <trkpt lat="48.88692" lon="2.25311">
        <ele>86</ele>
        <time>2015-07-06T20:16:49.020Z</time>
      </trkpt>
      <trkpt lat="48.8869" lon="2.25314">
        <ele>85.8</ele>
        <time>2015-07-06T20:16:50.075Z</time>
      </trkpt>
      <trkpt lat="48.88686" lon="2.25324">
        <ele>86.2</ele>
        <time>2015-07-06T20:16:53.108Z</time>
      </trkpt>
      <trkpt lat="48.88685" lon="2.25329">
        <ele>85.9</ele>
        <time>2015-07-06T20:16:54.021Z</time>
      </trkpt>
      <trkpt lat="48.88681" lon="2.2534">
        <ele>85.4</ele>
        <time>2015-07-06T20:16:56.975Z</time>
      </trkpt>
      <trkpt lat="48.8868" lon="2.25345">
        <ele>85.4</ele>
        <time>2015-07-06T20:16:58.020Z</time>
      </trkpt>
      <trkpt lat="48.88677" lon="2.25353">
        <ele>85.2</ele>
        <time>2015-07-06T20:17:00.127Z</time>
      </trkpt>
      <trkpt lat="48.88675" lon="2.25357">
        <ele>85.2</ele>
        <time>2015-07-06T20:17:01.018Z</time>
      </trkpt>
      <trkpt lat="48.88672" lon="2.25366">
        <ele>85.1</ele>
        <time>2015-07-06T20:17:03.060Z</time>
      </trkpt>
      <trkpt lat="48.88671" lon="2.25371">
        <ele>85.3</ele>
        <time>2015-07-06T20:17:04.013Z</time>
      </trkpt>
      <trkpt lat="48.88668" lon="2.2538">
        <ele>85</ele>
        <time>2015-07-06T20:17:06.032Z</time>
      </trkpt>
      <trkpt lat="48.88666" lon="2.25385">
        <ele>84.6</ele>
        <time>2015-07-06T20:17:07.090Z</time>
      </trkpt>
      <trkpt lat="48.88664" lon="2.25394">
        <ele>84.4</ele>
        <time>2015-07-06T20:17:09.013Z</time>
      </trkpt>
      <trkpt lat="48.88663" lon="2.25398">
        <ele>84.4</ele>
        <time>2015-07-06T20:17:10.014Z</time>
      </trkpt>
      <trkpt lat="48.8866" lon="2.25407">
        <ele>84.1</ele>
        <time>2015-07-06T20:17:12.023Z</time>
      </trkpt>
      <trkpt lat="48.88659" lon="2.25411">
        <ele>84</ele>
        <time>2015-07-06T20:17:13.050Z</time>
      </trkpt>
      <trkpt lat="48.88655" lon="2.2542">
        <ele>83.9</ele>
        <time>2015-07-06T20:17:14.992Z</time>
      </trkpt>
      <trkpt lat="48.88654" lon="2.25424">
        <ele>83.9</ele>
        <time>2015-07-06T20:17:16.023Z</time>
      </trkpt>
      <trkpt lat="48.8865" lon="2.25435">
        <ele>84.1</ele>
        <time>2015-07-06T20:17:17.992Z</time>
      </trkpt>
      <trkpt lat="48.88649" lon="2.25441">
        <ele>84.2</ele>
        <time>2015-07-06T20:17:19.021Z</time>
      </trkpt>
      <trkpt lat="48.88646" lon="2.25451">
        <ele>84.6</ele>
        <time>2015-07-06T20:17:21.052Z</time>
      </trkpt>
      <trkpt lat="48.88646" lon="2.25455">
        <ele>84.6</ele>
        <time>2015-07-06T20:17:22.092Z</time>
      </trkpt>
      <trkpt lat="48.88641" lon="2.25466">
        <ele>84.4</ele>
        <time>2015-07-06T20:17:25.018Z</time>
      </trkpt>
      <trkpt lat="48.8864" lon="2.2547">
        <ele>84.3</ele>
        <time>2015-07-06T20:17:26.130Z</time>
      </trkpt>
      <trkpt lat="48.88637" lon="2.25478">
        <ele>84.3</ele>
        <time>2015-07-06T20:17:27.996Z</time>
      </trkpt>
      <trkpt lat="48.88636" lon="2.25483">
        <ele>84.1</ele>
        <time>2015-07-06T20:17:29.025Z</time>
      </trkpt>
      <trkpt lat="48.88632" lon="2.25492">
        <ele>84.2</ele>
        <time>2015-07-06T20:17:30.989Z</time>
      </trkpt>
      <trkpt lat="48.88631" lon="2.25497">
        <ele>84.3</ele>
        <time>2015-07-06T20:17:32.086Z</time>
      </trkpt>
      <trkpt lat="48.88627" lon="2.25506">
        <ele>84.2</ele>
        <time>2015-07-06T20:17:34.023Z</time>
      </trkpt>
      <trkpt lat="48.88626" lon="2.25511">
        <ele>84.1</ele>
        <time>2015-07-06T20:17:35.141Z</time>
      </trkpt>
      <trkpt lat="48.88622" lon="2.25521">
        <ele>83.9</ele>
        <time>2015-07-06T20:17:36.996Z</time>
      </trkpt>
      <trkpt lat="48.88621" lon="2.25527">
        <ele>83.9</ele>
        <time>2015-07-06T20:17:38.071Z</time>
      </trkpt>
      <trkpt lat="48.88617" lon="2.25537">
        <ele>84.3</ele>
        <time>2015-07-06T20:17:39.993Z</time>
      </trkpt>
      <trkpt lat="48.88616" lon="2.25541">
        <ele>84.5</ele>
        <time>2015-07-06T20:17:41.025Z</time>
      </trkpt>
      <trkpt lat="48.88613" lon="2.25551">
        <ele>84.8</ele>
        <time>2015-07-06T20:17:43.045Z</time>
      </trkpt>
      <trkpt lat="48.88612" lon="2.25557">
        <ele>84.7</ele>
        <time>2015-07-06T20:17:44.080Z</time>
      </trkpt>
      <trkpt lat="48.8861" lon="2.25567">
        <ele>84.5</ele>
        <time>2015-07-06T20:17:45.994Z</time>
      </trkpt>
      <trkpt lat="48.88608" lon="2.25571">
        <ele>84.5</ele>
        <time>2015-07-06T20:17:47.014Z</time>
      </trkpt>
      <trkpt lat="48.88605" lon="2.2558">
        <ele>84.5</ele>
        <time>2015-07-06T20:17:49.041Z</time>
      </trkpt>
      <trkpt lat="48.88603" lon="2.25584">
        <ele>84.3</ele>
        <time>2015-07-06T20:17:50.087Z</time>
      </trkpt>
      <trkpt lat="48.886" lon="2.25594">
        <ele>84.8</ele>
        <time>2015-07-06T20:17:52.014Z</time>
      </trkpt>
      <trkpt lat="48.88598" lon="2.25599">
        <ele>84.9</ele>
        <time>2015-07-06T20:17:53.021Z</time>
      </trkpt>
      <trkpt lat="48.88595" lon="2.25607">
        <ele>85.1</ele>
        <time>2015-07-06T20:17:55.080Z</time>
      </trkpt>
      <trkpt lat="48.88593" lon="2.2561">
        <ele>85.2</ele>
        <time>2015-07-06T20:17:56.085Z</time>
      </trkpt>
      <trkpt lat="48.88587" lon="2.25617">
        <ele>85.4</ele>
        <time>2015-07-06T20:17:59.034Z</time>
      </trkpt>
      <trkpt lat="48.88585" lon="2.2562">
        <ele>85.5</ele>
        <time>2015-07-06T20:18:00.019Z</time>
      </trkpt>
      <trkpt lat="48.88583" lon="2.2563">
        <ele>85.4</ele>
        <time>2015-07-06T20:18:03.015Z</time>
      </trkpt>
      <trkpt lat="48.88583" lon="2.25633">
        <ele>85.5</ele>
        <time>2015-07-06T20:18:04.108Z</time>
      </trkpt>
      <trkpt lat="48.88579" lon="2.25646">
        <ele>85.6</ele>
        <time>2015-07-06T20:18:07.091Z</time>
      </trkpt>
      <trkpt lat="48.88577" lon="2.25651">
        <ele>85.5</ele>
        <time>2015-07-06T20:18:08.103Z</time>
      </trkpt>
      <trkpt lat="48.88573" lon="2.25662">
        <ele>85.2</ele>
        <time>2015-07-06T20:18:10.032Z</time>
      </trkpt>
      <trkpt lat="48.88571" lon="2.25668">
        <ele>85.3</ele>
        <time>2015-07-06T20:18:11.049Z</time>
      </trkpt>
      <trkpt lat="48.88569" lon="2.25674">
        <ele>85</ele>
        <time>2015-07-06T20:18:12.081Z</time>
      </trkpt>
      <trkpt lat="48.88566" lon="2.2568">
        <ele>84.9</ele>
        <time>2015-07-06T20:18:13.097Z</time>
      </trkpt>
      <trkpt lat="48.88563" lon="2.25689">
        <ele>84.9</ele>
        <time>2015-07-06T20:18:14.988Z</time>
      </trkpt>
      <trkpt lat="48.88562" lon="2.25693">
        <ele>85</ele>
        <time>2015-07-06T20:18:16.008Z</time>
      </trkpt>
      <trkpt lat="48.88554" lon="2.25694">
        <ele>85.5</ele>
        <time>2015-07-06T20:18:22.022Z</time>
      </trkpt>
      <trkpt lat="48.88549" lon="2.2569">
        <ele>84</ele>
        <time>2015-07-06T20:18:23.004Z</time>
      </trkpt>
      <trkpt lat="48.88545" lon="2.25685">
        <ele>83.4</ele>
        <time>2015-07-06T20:18:23.997Z</time>
      </trkpt>
      <trkpt lat="48.88543" lon="2.25679">
        <ele>83.6</ele>
        <time>2015-07-06T20:18:25.033Z</time>
      </trkpt>
      <trkpt lat="48.88538" lon="2.25668">
        <ele>83.5</ele>
        <time>2015-07-06T20:18:27.072Z</time>
      </trkpt>
      <trkpt lat="48.88537" lon="2.25662">
        <ele>83.4</ele>
        <time>2015-07-06T20:18:28.083Z</time>
      </trkpt>
      <trkpt lat="48.88534" lon="2.25656">
        <ele>83.1</ele>
        <time>2015-07-06T20:18:28.999Z</time>
      </trkpt>
      <trkpt lat="48.88531" lon="2.25649">
        <ele>82.7</ele>
        <time>2015-07-06T20:18:30.001Z</time>
      </trkpt>
      <trkpt lat="48.88525" lon="2.25643">
        <ele>83</ele>
        <time>2015-07-06T20:18:32.073Z</time>
      </trkpt>
      <trkpt lat="48.88522" lon="2.25642">
        <ele>83.5</ele>
        <time>2015-07-06T20:18:32.999Z</time>
      </trkpt>
      <trkpt lat="48.88516" lon="2.25643">
        <ele>84.3</ele>
        <time>2015-07-06T20:18:35.996Z</time>
      </trkpt>
      <trkpt lat="48.88513" lon="2.25647">
        <ele>84.5</ele>
        <time>2015-07-06T20:18:36.976Z</time>
      </trkpt>
      <trkpt lat="48.88507" lon="2.25653">
        <ele>85.1</ele>
        <time>2015-07-06T20:18:39.013Z</time>
      </trkpt>
      <trkpt lat="48.88505" lon="2.25657">
        <ele>85.4</ele>
        <time>2015-07-06T20:18:40.030Z</time>
      </trkpt>
      <trkpt lat="48.88501" lon="2.25668">
        <ele>86.2</ele>
        <time>2015-07-06T20:18:41.977Z</time>
      </trkpt>
      <trkpt lat="48.885" lon="2.25678">
        <ele>86.4</ele>
        <time>2015-07-06T20:18:43.045Z</time>
      </trkpt>
      <trkpt lat="48.88498" lon="2.25686">
        <ele>86.7</ele>
        <time>2015-07-06T20:18:44.021Z</time>
      </trkpt>
      <trkpt lat="48.88495" lon="2.25694">
        <ele>86.6</ele>
        <time>2015-07-06T20:18:45.040Z</time>
      </trkpt>
      <trkpt lat="48.88492" lon="2.25702">
        <ele>86.4</ele>
        <time>2015-07-06T20:18:46.051Z</time>
      </trkpt>
      <trkpt lat="48.8849" lon="2.25711">
        <ele>86.4</ele>
        <time>2015-07-06T20:18:46.963Z</time>
      </trkpt>
      <trkpt lat="48.88482" lon="2.25706">
        <ele>86.6</ele>
        <time>2015-07-06T20:18:51.042Z</time>
      </trkpt>
      <trkpt lat="48.88478" lon="2.25703">
        <ele>86.6</ele>
        <time>2015-07-06T20:18:51.984Z</time>
      </trkpt>
      <trkpt lat="48.88474" lon="2.25699">
        <ele>86.4</ele>
        <time>2015-07-06T20:18:52.967Z</time>
      </trkpt>
      <trkpt lat="48.88468" lon="2.25693">
        <ele>86.3</ele>
        <time>2015-07-06T20:18:53.958Z</time>
      </trkpt>
      <trkpt lat="48.88464" lon="2.25688">
        <ele>86.1</ele>
        <time>2015-07-06T20:18:54.991Z</time>
      </trkpt>
      <trkpt lat="48.8846" lon="2.25684">
        <ele>86.1</ele>
        <time>2015-07-06T20:18:56.004Z</time>
      </trkpt>
      <trkpt lat="48.88453" lon="2.2568">
        <ele>86.6</ele>
        <time>2015-07-06T20:18:58.039Z</time>
      </trkpt>
      <trkpt lat="48.88449" lon="2.25678">
        <ele>86.6</ele>
        <time>2015-07-06T20:18:58.986Z</time>
      </trkpt>
      <trkpt lat="48.88443" lon="2.2568">
        <ele>87.2</ele>
        <time>2015-07-06T20:19:00.967Z</time>
      </trkpt>
      <trkpt lat="48.88439" lon="2.25683">
        <ele>87.3</ele>
        <time>2015-07-06T20:19:01.998Z</time>
      </trkpt>
      <trkpt lat="48.88433" lon="2.25692">
        <ele>87.8</ele>
        <time>2015-07-06T20:19:04.023Z</time>
      </trkpt>
      <trkpt lat="48.8843" lon="2.25696">
        <ele>88</ele>
        <time>2015-07-06T20:19:04.945Z</time>
      </trkpt>
      <trkpt lat="48.88427" lon="2.257">
        <ele>88.3</ele>
        <time>2015-07-06T20:19:05.971Z</time>
      </trkpt>
      <trkpt lat="48.88422" lon="2.25707">
        <ele>88.4</ele>
        <time>2015-07-06T20:19:06.986Z</time>
      </trkpt>
      <trkpt lat="48.88418" lon="2.25714">
        <ele>88.6</ele>
        <time>2015-07-06T20:19:08.005Z</time>
      </trkpt>
      <trkpt lat="48.88414" lon="2.2572">
        <ele>88.8</ele>
        <time>2015-07-06T20:19:09.013Z</time>
      </trkpt>
      <trkpt lat="48.88411" lon="2.25725">
        <ele>88.8</ele>
        <time>2015-07-06T20:19:10.022Z</time>
      </trkpt>
      <trkpt lat="48.88408" lon="2.25732">
        <ele>88.9</ele>
        <time>2015-07-06T20:19:11.025Z</time>
      </trkpt>
      <trkpt lat="48.88409" lon="2.25742">
        <ele>87.4</ele>
        <time>2015-07-06T20:19:12.032Z</time>
      </trkpt>
      <trkpt lat="48.88407" lon="2.25747">
        <ele>86.9</ele>
        <time>2015-07-06T20:19:13.045Z</time>
      </trkpt>
      <trkpt lat="48.884" lon="2.25755">
        <ele>86.7</ele>
        <time>2015-07-06T20:19:16.026Z</time>
      </trkpt>
      <trkpt lat="48.88398" lon="2.25759">
        <ele>86.8</ele>
        <time>2015-07-06T20:19:17.039Z</time>
      </trkpt>
      <trkpt lat="48.88394" lon="2.25767">
        <ele>86.9</ele>
        <time>2015-07-06T20:19:18.943Z</time>
      </trkpt>
      <trkpt lat="48.8839" lon="2.25771">
        <ele>87</ele>
        <time>2015-07-06T20:19:20.013Z</time>
      </trkpt>
      <trkpt lat="48.88385" lon="2.25781">
        <ele>88</ele>
        <time>2015-07-06T20:19:22.047Z</time>
      </trkpt>
      <trkpt lat="48.88384" lon="2.25786">
        <ele>88.2</ele>
        <time>2015-07-06T20:19:23.058Z</time>
      </trkpt>
      <trkpt lat="48.88383" lon="2.25796">
        <ele>89.7</ele>
        <time>2015-07-06T20:19:24.987Z</time>
      </trkpt>
      <trkpt lat="48.88383" lon="2.25802">
        <ele>89.9</ele>
        <time>2015-07-06T20:19:26.105Z</time>
      </trkpt>
      <trkpt lat="48.88376" lon="2.25808">
        <ele>89.8</ele>
        <time>2015-07-06T20:19:29.053Z</time>
      </trkpt>
      <trkpt lat="48.88373" lon="2.25812">
        <ele>90</ele>
        <time>2015-07-06T20:19:29.985Z</time>
      </trkpt>
      <trkpt lat="48.88369" lon="2.25819">
        <ele>89.8</ele>
        <time>2015-07-06T20:19:32.064Z</time>
      </trkpt>
      <trkpt lat="48.88367" lon="2.25823">
        <ele>89.8</ele>
        <time>2015-07-06T20:19:33.046Z</time>
      </trkpt>
      <trkpt lat="48.88362" lon="2.25833">
        <ele>90.3</ele>
        <time>2015-07-06T20:19:35.008Z</time>
      </trkpt>
      <trkpt lat="48.88361" lon="2.25839">
        <ele>90.5</ele>
        <time>2015-07-06T20:19:35.933Z</time>
      </trkpt>
      <trkpt lat="48.88356" lon="2.25847">
        <ele>90.6</ele>
        <time>2015-07-06T20:19:37.995Z</time>
      </trkpt>
      <trkpt lat="48.88353" lon="2.25852">
        <ele>90.4</ele>
        <time>2015-07-06T20:19:39.007Z</time>
      </trkpt>
      <trkpt lat="48.88351" lon="2.25858">
        <ele>90.4</ele>
        <time>2015-07-06T20:19:39.934Z</time>
      </trkpt>
      <trkpt lat="48.8835" lon="2.25866">
        <ele>90.6</ele>
        <time>2015-07-06T20:19:41.007Z</time>
      </trkpt>
      <trkpt lat="48.88349" lon="2.25873">
        <ele>90.7</ele>
        <time>2015-07-06T20:19:41.971Z</time>
      </trkpt>
      <trkpt lat="48.88347" lon="2.25881">
        <ele>90.9</ele>
        <time>2015-07-06T20:19:42.999Z</time>
      </trkpt>
      <trkpt lat="48.88346" lon="2.25887">
        <ele>90.9</ele>
        <time>2015-07-06T20:19:44.776Z</time>
      </trkpt>
      <trkpt lat="48.88345" lon="2.25894">
        <ele>90.6</ele>
        <time>2015-07-06T20:19:44.937Z</time>
      </trkpt>
      <trkpt lat="48.88344" lon="2.25904">
        <ele>90.5</ele>
        <time>2015-07-06T20:19:45.993Z</time>
      </trkpt>
      <trkpt lat="48.88342" lon="2.25913">
        <ele>90.7</ele>
        <time>2015-07-06T20:19:47.007Z</time>
      </trkpt>
      <trkpt lat="48.88341" lon="2.25921">
        <ele>90.9</ele>
        <time>2015-07-06T20:19:48.032Z</time>
      </trkpt>
      <trkpt lat="48.88341" lon="2.2593">
        <ele>91</ele>
        <time>2015-07-06T20:19:49.043Z</time>
      </trkpt>
      <trkpt lat="48.8834" lon="2.25936">
        <ele>91.2</ele>
        <time>2015-07-06T20:19:50.079Z</time>
      </trkpt>
      <trkpt lat="48.88339" lon="2.25944">
        <ele>91.3</ele>
        <time>2015-07-06T20:19:50.962Z</time>
      </trkpt>
      <trkpt lat="48.88336" lon="2.25953">
        <ele>90.8</ele>
        <time>2015-07-06T20:19:52.974Z</time>
      </trkpt>
      <trkpt lat="48.88334" lon="2.25957">
        <ele>90.9</ele>
        <time>2015-07-06T20:19:54.035Z</time>
      </trkpt>
      <trkpt lat="48.88332" lon="2.25968">
        <ele>91.6</ele>
        <time>2015-07-06T20:19:55.998Z</time>
      </trkpt>
      <trkpt lat="48.88331" lon="2.25975">
        <ele>92.4</ele>
        <time>2015-07-06T20:19:57.006Z</time>
      </trkpt>
      <trkpt lat="48.88329" lon="2.25985">
        <ele>93</ele>
        <time>2015-07-06T20:19:59.031Z</time>
      </trkpt>
      <trkpt lat="48.88328" lon="2.25988">
        <ele>93.3</ele>
        <time>2015-07-06T20:20:00.073Z</time>
      </trkpt>
      <trkpt lat="48.88322" lon="2.25995">
        <ele>92.9</ele>
        <time>2015-07-06T20:20:03.019Z</time>
      </trkpt>
      <trkpt lat="48.88319" lon="2.25997">
        <ele>92.8</ele>
        <time>2015-07-06T20:20:04.038Z</time>
      </trkpt>
      <trkpt lat="48.88312" lon="2.26007">
        <ele>92.4</ele>
        <time>2015-07-06T20:20:05.989Z</time>
      </trkpt>
      <trkpt lat="48.88309" lon="2.26011">
        <ele>92.4</ele>
        <time>2015-07-06T20:20:06.999Z</time>
      </trkpt>
      <trkpt lat="48.88304" lon="2.26016">
        <ele>92.3</ele>
        <time>2015-07-06T20:20:08.234Z</time>
      </trkpt>
      <trkpt lat="48.88301" lon="2.2602">
        <ele>92.3</ele>
        <time>2015-07-06T20:20:08.975Z</time>
      </trkpt>
      <trkpt lat="48.88294" lon="2.26028">
        <ele>91.9</ele>
        <time>2015-07-06T20:20:10.976Z</time>
      </trkpt>
      <trkpt lat="48.8829" lon="2.26033">
        <ele>91.8</ele>
        <time>2015-07-06T20:20:11.979Z</time>
      </trkpt>
      <trkpt lat="48.88284" lon="2.26041">
        <ele>91.8</ele>
        <time>2015-07-06T20:20:14.452Z</time>
      </trkpt>
      <trkpt lat="48.8828" lon="2.26045">
        <ele>91.8</ele>
        <time>2015-07-06T20:20:15.040Z</time>
      </trkpt>
      <trkpt lat="48.88273" lon="2.26054">
        <ele>91.7</ele>
        <time>2015-07-06T20:20:17.006Z</time>
      </trkpt>
      <trkpt lat="48.8827" lon="2.26059">
        <ele>91.4</ele>
        <time>2015-07-06T20:20:18.065Z</time>
      </trkpt>
      <trkpt lat="48.88266" lon="2.26063">
        <ele>91.5</ele>
        <time>2015-07-06T20:20:19.657Z</time>
      </trkpt>
      <trkpt lat="48.88262" lon="2.26067">
        <ele>91.4</ele>
        <time>2015-07-06T20:20:20.069Z</time>
      </trkpt>
      <trkpt lat="48.88256" lon="2.26076">
        <ele>91.2</ele>
        <time>2015-07-06T20:20:21.997Z</time>
      </trkpt>
      <trkpt lat="48.88251" lon="2.26077">
        <ele>92.4</ele>
        <time>2015-07-06T20:20:23.071Z</time>
      </trkpt>
      <trkpt lat="48.88244" lon="2.26081">
        <ele>93.3</ele>
        <time>2015-07-06T20:20:24.966Z</time>
      </trkpt>
      <trkpt lat="48.88239" lon="2.26083">
        <ele>93.9</ele>
        <time>2015-07-06T20:20:26.028Z</time>
      </trkpt>
      <trkpt lat="48.88231" lon="2.26088">
        <ele>94.3</ele>
        <time>2015-07-06T20:20:28.033Z</time>
      </trkpt>
      <trkpt lat="48.88227" lon="2.26091">
        <ele>94.7</ele>
        <time>2015-07-06T20:20:29.059Z</time>
      </trkpt>
      <trkpt lat="48.8822" lon="2.26098">
        <ele>95.3</ele>
        <time>2015-07-06T20:20:30.995Z</time>
      </trkpt>
      <trkpt lat="48.88216" lon="2.26101">
        <ele>95.6</ele>
        <time>2015-07-06T20:20:32.113Z</time>
      </trkpt>
      <trkpt lat="48.88213" lon="2.26107">
        <ele>96.2</ele>
        <time>2015-07-06T20:20:32.999Z</time>
      </trkpt>
      <trkpt lat="48.88209" lon="2.2611">
        <ele>95.9</ele>
        <time>2015-07-06T20:20:33.996Z</time>
      </trkpt>
      <trkpt lat="48.88205" lon="2.26114">
        <ele>95.1</ele>
        <time>2015-07-06T20:20:35.720Z</time>
      </trkpt>
      <trkpt lat="48.88201" lon="2.26118">
        <ele>94.8</ele>
        <time>2015-07-06T20:20:36.005Z</time>
      </trkpt>
      <trkpt lat="48.88196" lon="2.26121">
        <ele>95.2</ele>
        <time>2015-07-06T20:20:37.019Z</time>
      </trkpt>
      <trkpt lat="48.88192" lon="2.26125">
        <ele>94.7</ele>
        <time>2015-07-06T20:20:38.065Z</time>
      </trkpt>
      <trkpt lat="48.88188" lon="2.2613">
        <ele>94.1</ele>
        <time>2015-07-06T20:20:39.074Z</time>
      </trkpt>
      <trkpt lat="48.88183" lon="2.26133">
        <ele>94</ele>
        <time>2015-07-06T20:20:39.993Z</time>
      </trkpt>
      <trkpt lat="48.88179" lon="2.26138">
        <ele>93.6</ele>
        <time>2015-07-06T20:20:40.980Z</time>
      </trkpt>
      <trkpt lat="48.88175" lon="2.26143">
        <ele>93.6</ele>
        <time>2015-07-06T20:20:41.995Z</time>
      </trkpt>
      <trkpt lat="48.8817" lon="2.26148">
        <ele>92.5</ele>
        <time>2015-07-06T20:20:43.014Z</time>
      </trkpt>
      <trkpt lat="48.88166" lon="2.26153">
        <ele>91.8</ele>
        <time>2015-07-06T20:20:44.110Z</time>
      </trkpt>
      <trkpt lat="48.88161" lon="2.26157">
        <ele>91.1</ele>
        <time>2015-07-06T20:20:45.778Z</time>
      </trkpt>
      <trkpt lat="48.88157" lon="2.26162">
        <ele>90.7</ele>
        <time>2015-07-06T20:20:45.984Z</time>
      </trkpt>
      <trkpt lat="48.88152" lon="2.26166">
        <ele>90.4</ele>
        <time>2015-07-06T20:20:47.019Z</time>
      </trkpt>
      <trkpt lat="48.88148" lon="2.26169">
        <ele>90.4</ele>
        <time>2015-07-06T20:20:48.046Z</time>
      </trkpt>
      <trkpt lat="48.88144" lon="2.26174">
        <ele>91</ele>
        <time>2015-07-06T20:20:49.062Z</time>
      </trkpt>
      <trkpt lat="48.8814" lon="2.26179">
        <ele>91.6</ele>
        <time>2015-07-06T20:20:50.068Z</time>
      </trkpt>
      <trkpt lat="48.88138" lon="2.26187">
        <ele>91.2</ele>
        <time>2015-07-06T20:20:51.002Z</time>
      </trkpt>
      <trkpt lat="48.88139" lon="2.26196">
        <ele>90.2</ele>
        <time>2015-07-06T20:20:51.980Z</time>
      </trkpt>
      <trkpt lat="48.88139" lon="2.26205">
        <ele>89.6</ele>
        <time>2015-07-06T20:20:52.980Z</time>
      </trkpt>
      <trkpt lat="48.88138" lon="2.26211">
        <ele>89.5</ele>
        <time>2015-07-06T20:20:54.078Z</time>
      </trkpt>
      <trkpt lat="48.88138" lon="2.26218">
        <ele>89.6</ele>
        <time>2015-07-06T20:20:54.992Z</time>
      </trkpt>
      <trkpt lat="48.88137" lon="2.26225">
        <ele>89.7</ele>
        <time>2015-07-06T20:20:56.068Z</time>
      </trkpt>
      <trkpt lat="48.88137" lon="2.26239">
        <ele>89.5</ele>
        <time>2015-07-06T20:20:58.024Z</time>
      </trkpt>
      <trkpt lat="48.88136" lon="2.26246">
        <ele>89</ele>
        <time>2015-07-06T20:20:59.052Z</time>
      </trkpt>
      <trkpt lat="48.88136" lon="2.26259">
        <ele>89.5</ele>
        <time>2015-07-06T20:21:00.984Z</time>
      </trkpt>
      <trkpt lat="48.88135" lon="2.26266">
        <ele>89.7</ele>
        <time>2015-07-06T20:21:01.995Z</time>
      </trkpt>
      <trkpt lat="48.88134" lon="2.26273">
        <ele>89.9</ele>
        <time>2015-07-06T20:21:03.005Z</time>
      </trkpt>
      <trkpt lat="48.88133" lon="2.26281">
        <ele>90.1</ele>
        <time>2015-07-06T20:21:04.009Z</time>
      </trkpt>
      <trkpt lat="48.88132" lon="2.26289">
        <ele>90</ele>
        <time>2015-07-06T20:21:05.021Z</time>
      </trkpt>
      <trkpt lat="48.88131" lon="2.26296">
        <ele>89.7</ele>
        <time>2015-07-06T20:21:06.017Z</time>
      </trkpt>
      <trkpt lat="48.88131" lon="2.26303">
        <ele>89.7</ele>
        <time>2015-07-06T20:21:07.032Z</time>
      </trkpt>
      <trkpt lat="48.8813" lon="2.26311">
        <ele>89.6</ele>
        <time>2015-07-06T20:21:08.045Z</time>
      </trkpt>
      <trkpt lat="48.8813" lon="2.26318">
        <ele>89.6</ele>
        <time>2015-07-06T20:21:08.960Z</time>
      </trkpt>
      <trkpt lat="48.8813" lon="2.26326">
        <ele>89.6</ele>
        <time>2015-07-06T20:21:10.010Z</time>
      </trkpt>
      <trkpt lat="48.8813" lon="2.26333">
        <ele>89.8</ele>
        <time>2015-07-06T20:21:11.029Z</time>
      </trkpt>
      <trkpt lat="48.88131" lon="2.26341">
        <ele>89.5</ele>
        <time>2015-07-06T20:21:12.070Z</time>
      </trkpt>
      <trkpt lat="48.88132" lon="2.26348">
        <ele>89.5</ele>
        <time>2015-07-06T20:21:13.106Z</time>
      </trkpt>
      <trkpt lat="48.8813" lon="2.26357">
        <ele>89.7</ele>
        <time>2015-07-06T20:21:14.033Z</time>
      </trkpt>
      <trkpt lat="48.88128" lon="2.26368">
        <ele>89.8</ele>
        <time>2015-07-06T20:21:15.021Z</time>
      </trkpt>
      <trkpt lat="48.88126" lon="2.26379">
        <ele>89.8</ele>
        <time>2015-07-06T20:21:16.029Z</time>
      </trkpt>
      <trkpt lat="48.88125" lon="2.26388">
        <ele>89.8</ele>
        <time>2015-07-06T20:21:16.955Z</time>
      </trkpt>
      <trkpt lat="48.88124" lon="2.26398">
        <ele>89.8</ele>
        <time>2015-07-06T20:21:17.978Z</time>
      </trkpt>
      <trkpt lat="48.88122" lon="2.26409">
        <ele>89.6</ele>
        <time>2015-07-06T20:21:19.016Z</time>
      </trkpt>
      <trkpt lat="48.8812" lon="2.26419">
        <ele>89.4</ele>
        <time>2015-07-06T20:21:20.053Z</time>
      </trkpt>
      <trkpt lat="48.88119" lon="2.26428">
        <ele>89</ele>
        <time>2015-07-06T20:21:20.982Z</time>
      </trkpt>
      <trkpt lat="48.88117" lon="2.26438">
        <ele>88.5</ele>
        <time>2015-07-06T20:21:21.975Z</time>
      </trkpt>
      <trkpt lat="48.88115" lon="2.26448">
        <ele>87.9</ele>
        <time>2015-07-06T20:21:22.986Z</time>
      </trkpt>
      <trkpt lat="48.88114" lon="2.26457">
        <ele>87.7</ele>
        <time>2015-07-06T20:21:23.994Z</time>
      </trkpt>
      <trkpt lat="48.88112" lon="2.26465">
        <ele>87.7</ele>
        <time>2015-07-06T20:21:25.008Z</time>
      </trkpt>
      <trkpt lat="48.8811" lon="2.26473">
        <ele>87.5</ele>
        <time>2015-07-06T20:21:26.024Z</time>
      </trkpt>
      <trkpt lat="48.88109" lon="2.26483">
        <ele>87.4</ele>
        <time>2015-07-06T20:21:27.036Z</time>
      </trkpt>
      <trkpt lat="48.88108" lon="2.26491">
        <ele>87</ele>
        <time>2015-07-06T20:21:27.945Z</time>
      </trkpt>
      <trkpt lat="48.88108" lon="2.26498">
        <ele>87.5</ele>
        <time>2015-07-06T20:21:29.054Z</time>
      </trkpt>
      <trkpt lat="48.88106" lon="2.26506">
        <ele>87.7</ele>
        <time>2015-07-06T20:21:30.066Z</time>
      </trkpt>
      <trkpt lat="48.88104" lon="2.26515">
        <ele>87.8</ele>
        <time>2015-07-06T20:21:30.983Z</time>
      </trkpt>
      <trkpt lat="48.88103" lon="2.26523">
        <ele>87.9</ele>
        <time>2015-07-06T20:21:32.028Z</time>
      </trkpt>
      <trkpt lat="48.88103" lon="2.26536">
        <ele>87.9</ele>
        <time>2015-07-06T20:21:34.041Z</time>
      </trkpt>
      <trkpt lat="48.88102" lon="2.26543">
        <ele>87.5</ele>
        <time>2015-07-06T20:21:35.046Z</time>
      </trkpt>
      <trkpt lat="48.88101" lon="2.26551">
        <ele>86.9</ele>
        <time>2015-07-06T20:21:35.984Z</time>
      </trkpt>
      <trkpt lat="48.881" lon="2.26558">
        <ele>86.7</ele>
        <time>2015-07-06T20:21:36.986Z</time>
      </trkpt>
      <trkpt lat="48.881" lon="2.26566">
        <ele>86.8</ele>
        <time>2015-07-06T20:21:38.029Z</time>
      </trkpt>
      <trkpt lat="48.88099" lon="2.26574">
        <ele>86.7</ele>
        <time>2015-07-06T20:21:39.039Z</time>
      </trkpt>
      <trkpt lat="48.88098" lon="2.26582">
        <ele>86.4</ele>
        <time>2015-07-06T20:21:40.050Z</time>
      </trkpt>
      <trkpt lat="48.88098" lon="2.26588">
        <ele>86.4</ele>
        <time>2015-07-06T20:21:41.051Z</time>
      </trkpt>
      <trkpt lat="48.88094" lon="2.26599">
        <ele>86.8</ele>
        <time>2015-07-06T20:21:42.981Z</time>
      </trkpt>
      <trkpt lat="48.88094" lon="2.26605">
        <ele>87.2</ele>
        <time>2015-07-06T20:21:44.083Z</time>
      </trkpt>
      <trkpt lat="48.88092" lon="2.26613">
        <ele>87.4</ele>
        <time>2015-07-06T20:21:44.989Z</time>
      </trkpt>
      <trkpt lat="48.88091" lon="2.26619">
        <ele>87.6</ele>
        <time>2015-07-06T20:21:45.997Z</time>
      </trkpt>
      <trkpt lat="48.88091" lon="2.26628">
        <ele>88.1</ele>
        <time>2015-07-06T20:21:47.008Z</time>
      </trkpt>
      <trkpt lat="48.88091" lon="2.26638">
        <ele>88.7</ele>
        <time>2015-07-06T20:21:48.014Z</time>
      </trkpt>
      <trkpt lat="48.8809" lon="2.26647">
        <ele>88.8</ele>
        <time>2015-07-06T20:21:49.020Z</time>
      </trkpt>
      <trkpt lat="48.88089" lon="2.26655">
        <ele>88.7</ele>
        <time>2015-07-06T20:21:50.028Z</time>
      </trkpt>
      <trkpt lat="48.88088" lon="2.26663">
        <ele>89</ele>
        <time>2015-07-06T20:21:51.031Z</time>
      </trkpt>
      <trkpt lat="48.88088" lon="2.26672">
        <ele>89.4</ele>
        <time>2015-07-06T20:21:52.035Z</time>
      </trkpt>
      <trkpt lat="48.88088" lon="2.26681">
        <ele>89.7</ele>
        <time>2015-07-06T20:21:53.050Z</time>
      </trkpt>
      <trkpt lat="48.88088" lon="2.2669">
        <ele>90.1</ele>
        <time>2015-07-06T20:21:53.978Z</time>
      </trkpt>
      <trkpt lat="48.88089" lon="2.267">
        <ele>90.5</ele>
        <time>2015-07-06T20:21:54.971Z</time>
      </trkpt>
      <trkpt lat="48.88089" lon="2.2671">
        <ele>90.9</ele>
        <time>2015-07-06T20:21:56.020Z</time>
      </trkpt>
      <trkpt lat="48.88088" lon="2.26718">
        <ele>91.1</ele>
        <time>2015-07-06T20:21:57.018Z</time>
      </trkpt>
      <trkpt lat="48.88088" lon="2.26726">
        <ele>91.3</ele>
        <time>2015-07-06T20:21:58.022Z</time>
      </trkpt>
      <trkpt lat="48.88087" lon="2.26735">
        <ele>91.7</ele>
        <time>2015-07-06T20:21:59.029Z</time>
      </trkpt>
      <trkpt lat="48.88086" lon="2.26742">
        <ele>92.1</ele>
        <time>2015-07-06T20:22:00.066Z</time>
      </trkpt>
      <trkpt lat="48.88085" lon="2.26749">
        <ele>92.6</ele>
        <time>2015-07-06T20:22:00.987Z</time>
      </trkpt>
      <trkpt lat="48.88084" lon="2.26757">
        <ele>92.8</ele>
        <time>2015-07-06T20:22:02.073Z</time>
      </trkpt>
      <trkpt lat="48.88083" lon="2.26766">
        <ele>92.8</ele>
        <time>2015-07-06T20:22:02.974Z</time>
      </trkpt>
      <trkpt lat="48.88083" lon="2.26775">
        <ele>92.8</ele>
        <time>2015-07-06T20:22:03.983Z</time>
      </trkpt>
      <trkpt lat="48.88082" lon="2.26784">
        <ele>93.1</ele>
        <time>2015-07-06T20:22:04.995Z</time>
      </trkpt>
      <trkpt lat="48.88081" lon="2.26793">
        <ele>93.4</ele>
        <time>2015-07-06T20:22:05.997Z</time>
      </trkpt>
      <trkpt lat="48.88078" lon="2.26802">
        <ele>93.2</ele>
        <time>2015-07-06T20:22:07.010Z</time>
      </trkpt>
      <trkpt lat="48.88076" lon="2.26811">
        <ele>93.6</ele>
        <time>2015-07-06T20:22:08.022Z</time>
      </trkpt>
      <trkpt lat="48.88074" lon="2.26819">
        <ele>94.1</ele>
        <time>2015-07-06T20:22:09.022Z</time>
      </trkpt>
      <trkpt lat="48.88072" lon="2.26827">
        <ele>94.7</ele>
        <time>2015-07-06T20:22:10.028Z</time>
      </trkpt>
      <trkpt lat="48.8807" lon="2.26835">
        <ele>94.9</ele>
        <time>2015-07-06T20:22:11.038Z</time>
      </trkpt>
      <trkpt lat="48.88069" lon="2.26843">
        <ele>95.4</ele>
        <time>2015-07-06T20:22:12.040Z</time>
      </trkpt>
      <trkpt lat="48.88068" lon="2.2685">
        <ele>95.8</ele>
        <time>2015-07-06T20:22:13.078Z</time>
      </trkpt>
      <trkpt lat="48.88066" lon="2.26858">
        <ele>96.1</ele>
        <time>2015-07-06T20:22:14.079Z</time>
      </trkpt>
      <trkpt lat="48.88065" lon="2.26865">
        <ele>96.5</ele>
        <time>2015-07-06T20:22:14.947Z</time>
      </trkpt>
      <trkpt lat="48.88063" lon="2.26871">
        <ele>96.5</ele>
        <time>2015-07-06T20:22:16.004Z</time>
      </trkpt>
      <trkpt lat="48.88062" lon="2.26877">
        <ele>96.6</ele>
        <time>2015-07-06T20:22:16.984Z</time>
      </trkpt>
      <trkpt lat="48.88062" lon="2.26888">
        <ele>96.5</ele>
        <time>2015-07-06T20:22:18.008Z</time>
      </trkpt>
      <trkpt lat="48.88063" lon="2.26898">
        <ele>96.2</ele>
        <time>2015-07-06T20:22:19.016Z</time>
      </trkpt>
      <trkpt lat="48.88062" lon="2.26906">
        <ele>96.4</ele>
        <time>2015-07-06T20:22:20.027Z</time>
      </trkpt>
      <trkpt lat="48.8806" lon="2.26918">
        <ele>96.4</ele>
        <time>2015-07-06T20:22:22.038Z</time>
      </trkpt>
      <trkpt lat="48.8806" lon="2.26925">
        <ele>96.6</ele>
        <time>2015-07-06T20:22:23.108Z</time>
      </trkpt>
      <trkpt lat="48.88059" lon="2.26933">
        <ele>96.4</ele>
        <time>2015-07-06T20:22:23.978Z</time>
      </trkpt>
      <trkpt lat="48.88059" lon="2.2694">
        <ele>96.7</ele>
        <time>2015-07-06T20:22:24.988Z</time>
      </trkpt>
      <trkpt lat="48.88059" lon="2.26948">
        <ele>96.7</ele>
        <time>2015-07-06T20:22:26.077Z</time>
      </trkpt>
      <trkpt lat="48.88057" lon="2.26956">
        <ele>96.9</ele>
        <time>2015-07-06T20:22:26.980Z</time>
      </trkpt>
      <trkpt lat="48.88057" lon="2.26966">
        <ele>96.9</ele>
        <time>2015-07-06T20:22:27.994Z</time>
      </trkpt>
      <trkpt lat="48.88057" lon="2.26976">
        <ele>96.4</ele>
        <time>2015-07-06T20:22:29.005Z</time>
      </trkpt>
      <trkpt lat="48.88056" lon="2.26985">
        <ele>96.9</ele>
        <time>2015-07-06T20:22:30.048Z</time>
      </trkpt>
      <trkpt lat="48.88055" lon="2.26993">
        <ele>97</ele>
        <time>2015-07-06T20:22:30.965Z</time>
      </trkpt>
      <trkpt lat="48.88053" lon="2.27002">
        <ele>97.6</ele>
        <time>2015-07-06T20:22:32.011Z</time>
      </trkpt>
      <trkpt lat="48.88051" lon="2.27012">
        <ele>98</ele>
        <time>2015-07-06T20:22:33.024Z</time>
      </trkpt>
      <trkpt lat="48.8805" lon="2.27023">
        <ele>98.8</ele>
        <time>2015-07-06T20:22:34.033Z</time>
      </trkpt>
      <trkpt lat="48.8805" lon="2.27032">
        <ele>99.3</ele>
        <time>2015-07-06T20:22:35.040Z</time>
      </trkpt>
      <trkpt lat="48.88051" lon="2.2704">
        <ele>99.5</ele>
        <time>2015-07-06T20:22:36.043Z</time>
      </trkpt>
      <trkpt lat="48.8805" lon="2.27048">
        <ele>99.2</ele>
        <time>2015-07-06T20:22:37.051Z</time>
      </trkpt>
      <trkpt lat="48.88052" lon="2.27059">
        <ele>97.9</ele>
        <time>2015-07-06T20:22:38.068Z</time>
      </trkpt>
      <trkpt lat="48.88051" lon="2.27065">
        <ele>98.2</ele>
        <time>2015-07-06T20:22:39.002Z</time>
      </trkpt>
      <trkpt lat="48.88049" lon="2.27078">
        <ele>98.6</ele>
        <time>2015-07-06T20:22:41.011Z</time>
      </trkpt>
      <trkpt lat="48.88046" lon="2.27084">
        <ele>98.9</ele>
        <time>2015-07-06T20:22:41.952Z</time>
      </trkpt>
      <trkpt lat="48.88043" lon="2.27089">
        <ele>98.8</ele>
        <time>2015-07-06T20:22:42.974Z</time>
      </trkpt>
      <trkpt lat="48.8804" lon="2.27096">
        <ele>98.6</ele>
        <time>2015-07-06T20:22:44.020Z</time>
      </trkpt>
      <trkpt lat="48.88038" lon="2.27103">
        <ele>98.8</ele>
        <time>2015-07-06T20:22:45.014Z</time>
      </trkpt>
      <trkpt lat="48.88037" lon="2.27111">
        <ele>99.4</ele>
        <time>2015-07-06T20:22:46.026Z</time>
      </trkpt>
      <trkpt lat="48.88036" lon="2.27119">
        <ele>99.4</ele>
        <time>2015-07-06T20:22:46.977Z</time>
      </trkpt>
      <trkpt lat="48.88035" lon="2.2713">
        <ele>100.2</ele>
        <time>2015-07-06T20:22:47.990Z</time>
      </trkpt>
      <trkpt lat="48.88033" lon="2.27139">
        <ele>100.5</ele>
        <time>2015-07-06T20:22:49.011Z</time>
      </trkpt>
      <trkpt lat="48.88032" lon="2.27146">
        <ele>100.3</ele>
        <time>2015-07-06T20:22:50.058Z</time>
      </trkpt>
      <trkpt lat="48.88029" lon="2.27157">
        <ele>100.1</ele>
        <time>2015-07-06T20:22:52.069Z</time>
      </trkpt>
      <trkpt lat="48.88026" lon="2.27159">
        <ele>100.4</ele>
        <time>2015-07-06T20:22:53.086Z</time>
      </trkpt>
      <trkpt lat="48.88025" lon="2.27156">
        <ele>99.7</ele>
        <time>2015-07-06T20:22:53.987Z</time>
      </trkpt>
      <trkpt lat="48.88025" lon="2.27153">
        <ele>99</ele>
        <time>2015-07-06T20:22:55.003Z</time>
      </trkpt>
      <trkpt lat="48.88025" lon="2.27151">
        <ele>98.7</ele>
        <time>2015-07-06T20:23:10.950Z</time>
      </trkpt>
      <trkpt lat="48.88026" lon="2.2715">
        <ele>97.6</ele>
        <time>2015-07-06T20:23:11.956Z</time>
      </trkpt>
      <trkpt lat="48.88029" lon="2.27161">
        <ele>98.2</ele>
        <time>2015-07-06T20:23:14.045Z</time>
      </trkpt>
      <trkpt lat="48.88031" lon="2.27168">
        <ele>97.2</ele>
        <time>2015-07-06T20:23:14.952Z</time>
      </trkpt>
      <trkpt lat="48.88033" lon="2.27175">
        <ele>96.8</ele>
        <time>2015-07-06T20:23:15.981Z</time>
      </trkpt>
      <trkpt lat="48.88035" lon="2.27183">
        <ele>95.4</ele>
        <time>2015-07-06T20:23:16.973Z</time>
      </trkpt>
      <trkpt lat="48.88038" lon="2.27195">
        <ele>95</ele>
        <time>2015-07-06T20:23:18.981Z</time>
      </trkpt>
      <trkpt lat="48.88038" lon="2.27201">
        <ele>95.4</ele>
        <time>2015-07-06T20:23:20.110Z</time>
      </trkpt>
      <trkpt lat="48.88038" lon="2.27207">
        <ele>95.6</ele>
        <time>2015-07-06T20:23:20.981Z</time>
      </trkpt>
      <trkpt lat="48.88036" lon="2.27215">
        <ele>95.9</ele>
        <time>2015-07-06T20:23:22.000Z</time>
      </trkpt>
      <trkpt lat="48.88036" lon="2.27224">
        <ele>95.8</ele>
        <time>2015-07-06T20:23:23.023Z</time>
      </trkpt>
      <trkpt lat="48.88032" lon="2.27233">
        <ele>95.5</ele>
        <time>2015-07-06T20:23:24.032Z</time>
      </trkpt>
      <trkpt lat="48.88031" lon="2.27243">
        <ele>95.6</ele>
        <time>2015-07-06T20:23:24.969Z</time>
      </trkpt>
      <trkpt lat="48.8803" lon="2.27251">
        <ele>95.9</ele>
        <time>2015-07-06T20:23:26.077Z</time>
      </trkpt>
      <trkpt lat="48.88027" lon="2.27259">
        <ele>96.3</ele>
        <time>2015-07-06T20:23:26.965Z</time>
      </trkpt>
      <trkpt lat="48.88024" lon="2.27269">
        <ele>96.6</ele>
        <time>2015-07-06T20:23:27.975Z</time>
      </trkpt>
      <trkpt lat="48.88023" lon="2.27278">
        <ele>96.8</ele>
        <time>2015-07-06T20:23:28.977Z</time>
      </trkpt>
      <trkpt lat="48.88021" lon="2.27287">
        <ele>96.7</ele>
        <time>2015-07-06T20:23:29.976Z</time>
      </trkpt>
      <trkpt lat="48.8802" lon="2.27296">
        <ele>96.6</ele>
        <time>2015-07-06T20:23:30.987Z</time>
      </trkpt>
      <trkpt lat="48.88018" lon="2.27306">
        <ele>96.3</ele>
        <time>2015-07-06T20:23:32.016Z</time>
      </trkpt>
      <trkpt lat="48.88018" lon="2.27317">
        <ele>96.4</ele>
        <time>2015-07-06T20:23:33.049Z</time>
      </trkpt>
      <trkpt lat="48.88017" lon="2.27326">
        <ele>96.3</ele>
        <time>2015-07-06T20:23:34.055Z</time>
      </trkpt>
      <trkpt lat="48.88016" lon="2.27337">
        <ele>96.3</ele>
        <time>2015-07-06T20:23:35.003Z</time>
      </trkpt>
      <trkpt lat="48.88015" lon="2.27348">
        <ele>96</ele>
        <time>2015-07-06T20:23:36.009Z</time>
      </trkpt>
      <trkpt lat="48.88015" lon="2.27358">
        <ele>95.3</ele>
        <time>2015-07-06T20:23:37.091Z</time>
      </trkpt>
      <trkpt lat="48.88015" lon="2.27369">
        <ele>94.6</ele>
        <time>2015-07-06T20:23:38.084Z</time>
      </trkpt>
      <trkpt lat="48.88014" lon="2.27379">
        <ele>94.3</ele>
        <time>2015-07-06T20:23:39.033Z</time>
      </trkpt>
      <trkpt lat="48.88013" lon="2.27388">
        <ele>93.7</ele>
        <time>2015-07-06T20:23:40.042Z</time>
      </trkpt>
      <trkpt lat="48.88014" lon="2.27398">
        <ele>93.7</ele>
        <time>2015-07-06T20:23:40.960Z</time>
      </trkpt>
      <trkpt lat="48.88015" lon="2.27406">
        <ele>93.7</ele>
        <time>2015-07-06T20:23:41.969Z</time>
      </trkpt>
      <trkpt lat="48.88017" lon="2.27413">
        <ele>93.8</ele>
        <time>2015-07-06T20:23:43.002Z</time>
      </trkpt>
      <trkpt lat="48.88018" lon="2.2742">
        <ele>94.1</ele>
        <time>2015-07-06T20:23:44.015Z</time>
      </trkpt>
      <trkpt lat="48.88019" lon="2.27428">
        <ele>94.7</ele>
        <time>2015-07-06T20:23:45.034Z</time>
      </trkpt>
      <trkpt lat="48.88019" lon="2.27435">
        <ele>95.1</ele>
        <time>2015-07-06T20:23:46.093Z</time>
      </trkpt>
      <trkpt lat="48.88019" lon="2.27448">
        <ele>95.4</ele>
        <time>2015-07-06T20:23:47.979Z</time>
      </trkpt>
      <trkpt lat="48.88016" lon="2.27454">
        <ele>95.4</ele>
        <time>2015-07-06T20:23:49.010Z</time>
      </trkpt>
      <trkpt lat="48.88012" lon="2.27461">
        <ele>94.8</ele>
        <time>2015-07-06T20:23:50.045Z</time>
      </trkpt>
      <trkpt lat="48.88008" lon="2.27468">
        <ele>94.4</ele>
        <time>2015-07-06T20:23:51.058Z</time>
      </trkpt>
      <trkpt lat="48.88005" lon="2.27475">
        <ele>93.9</ele>
        <time>2015-07-06T20:23:52.067Z</time>
      </trkpt>
      <trkpt lat="48.88003" lon="2.27482">
        <ele>93.5</ele>
        <time>2015-07-06T20:23:52.987Z</time>
      </trkpt>
      <trkpt lat="48.88001" lon="2.27489">
        <ele>93.6</ele>
        <time>2015-07-06T20:23:53.986Z</time>
      </trkpt>
      <trkpt lat="48.88" lon="2.27495">
        <ele>93.5</ele>
        <time>2015-07-06T20:23:54.996Z</time>
      </trkpt>
      <trkpt lat="48.87998" lon="2.27506">
        <ele>94.4</ele>
        <time>2015-07-06T20:23:57.039Z</time>
      </trkpt>
      <trkpt lat="48.87999" lon="2.2751">
        <ele>95</ele>
        <time>2015-07-06T20:23:58.057Z</time>
      </trkpt>
      <trkpt lat="48.87997" lon="2.2752">
        <ele>96.2</ele>
        <time>2015-07-06T20:23:59.992Z</time>
      </trkpt>
      <trkpt lat="48.87996" lon="2.27526">
        <ele>96.6</ele>
        <time>2015-07-06T20:24:01.015Z</time>
      </trkpt>
      <trkpt lat="48.87993" lon="2.27535">
        <ele>97.5</ele>
        <time>2015-07-06T20:24:03.004Z</time>
      </trkpt>
      <trkpt lat="48.87992" lon="2.27541">
        <ele>97.5</ele>
        <time>2015-07-06T20:24:04.265Z</time>
      </trkpt>
      <trkpt lat="48.87988" lon="2.27552">
        <ele>97.6</ele>
        <time>2015-07-06T20:24:05.980Z</time>
      </trkpt>
      <trkpt lat="48.87986" lon="2.27557">
        <ele>97.8</ele>
        <time>2015-07-06T20:24:07.042Z</time>
      </trkpt>
      <trkpt lat="48.87984" lon="2.27568">
        <ele>98</ele>
        <time>2015-07-06T20:24:09.071Z</time>
      </trkpt>
      <trkpt lat="48.87984" lon="2.27572">
        <ele>98.2</ele>
        <time>2015-07-06T20:24:10.079Z</time>
      </trkpt>
      <trkpt lat="48.87984" lon="2.27582">
        <ele>98.2</ele>
        <time>2015-07-06T20:24:12.015Z</time>
      </trkpt>
      <trkpt lat="48.87983" lon="2.27588">
        <ele>98.1</ele>
        <time>2015-07-06T20:24:13.036Z</time>
      </trkpt>
      <trkpt lat="48.8798" lon="2.27596">
        <ele>98.5</ele>
        <time>2015-07-06T20:24:14.078Z</time>
      </trkpt>
      <trkpt lat="48.87976" lon="2.27603">
        <ele>99</ele>
        <time>2015-07-06T20:24:14.960Z</time>
      </trkpt>
      <trkpt lat="48.87973" lon="2.27612">
        <ele>99.6</ele>
        <time>2015-07-06T20:24:16.005Z</time>
      </trkpt>
      <trkpt lat="48.87969" lon="2.2762">
        <ele>100</ele>
        <time>2015-07-06T20:24:16.987Z</time>
      </trkpt>
      <trkpt lat="48.87966" lon="2.27628">
        <ele>100.1</ele>
        <time>2015-07-06T20:24:17.986Z</time>
      </trkpt>
      <trkpt lat="48.87964" lon="2.27634">
        <ele>100.4</ele>
        <time>2015-07-06T20:24:19.016Z</time>
      </trkpt>
      <trkpt lat="48.8796" lon="2.27646">
        <ele>100.9</ele>
        <time>2015-07-06T20:24:21.079Z</time>
      </trkpt>
      <trkpt lat="48.87958" lon="2.27653">
        <ele>101.1</ele>
        <time>2015-07-06T20:24:21.961Z</time>
      </trkpt>
      <trkpt lat="48.87957" lon="2.27664">
        <ele>101.6</ele>
        <time>2015-07-06T20:24:23.987Z</time>
      </trkpt>
      <trkpt lat="48.87956" lon="2.2767">
        <ele>102</ele>
        <time>2015-07-06T20:24:25.000Z</time>
      </trkpt>
      <trkpt lat="48.87953" lon="2.27683">
        <ele>102.8</ele>
        <time>2015-07-06T20:24:27.051Z</time>
      </trkpt>
      <trkpt lat="48.87952" lon="2.27688">
        <ele>103</ele>
        <time>2015-07-06T20:24:27.964Z</time>
      </trkpt>
      <trkpt lat="48.8795" lon="2.27695">
        <ele>103.3</ele>
        <time>2015-07-06T20:24:28.995Z</time>
      </trkpt>
      <trkpt lat="48.87947" lon="2.27702">
        <ele>103.4</ele>
        <time>2015-07-06T20:24:30.020Z</time>
      </trkpt>
      <trkpt lat="48.87944" lon="2.27714">
        <ele>103.5</ele>
        <time>2015-07-06T20:24:32.054Z</time>
      </trkpt>
      <trkpt lat="48.87942" lon="2.2772">
        <ele>104</ele>
        <time>2015-07-06T20:24:33.067Z</time>
      </trkpt>
      <trkpt lat="48.87938" lon="2.27732">
        <ele>104.3</ele>
        <time>2015-07-06T20:24:35.001Z</time>
      </trkpt>
      <trkpt lat="48.87936" lon="2.27738">
        <ele>104.4</ele>
        <time>2015-07-06T20:24:36.013Z</time>
      </trkpt>
      <trkpt lat="48.87932" lon="2.27749">
        <ele>104.6</ele>
        <time>2015-07-06T20:24:38.051Z</time>
      </trkpt>
      <trkpt lat="48.87931" lon="2.27754">
        <ele>104.5</ele>
        <time>2015-07-06T20:24:39.038Z</time>
      </trkpt>
      <trkpt lat="48.87927" lon="2.27761">
        <ele>103.9</ele>
        <time>2015-07-06T20:24:40.052Z</time>
      </trkpt>
      <trkpt lat="48.87923" lon="2.27769">
        <ele>103.3</ele>
        <time>2015-07-06T20:24:41.064Z</time>
      </trkpt>
      <trkpt lat="48.87919" lon="2.27777">
        <ele>102.8</ele>
        <time>2015-07-06T20:24:42.072Z</time>
      </trkpt>
      <trkpt lat="48.87915" lon="2.27785">
        <ele>102.3</ele>
        <time>2015-07-06T20:24:42.998Z</time>
      </trkpt>
      <trkpt lat="48.87912" lon="2.27791">
        <ele>101.8</ele>
        <time>2015-07-06T20:24:44.052Z</time>
      </trkpt>
      <trkpt lat="48.8791" lon="2.27798">
        <ele>101.7</ele>
        <time>2015-07-06T20:24:45.064Z</time>
      </trkpt>
      <trkpt lat="48.87907" lon="2.2781">
        <ele>101.7</ele>
        <time>2015-07-06T20:24:47.014Z</time>
      </trkpt>
      <trkpt lat="48.87905" lon="2.27816">
        <ele>102</ele>
        <time>2015-07-06T20:24:48.021Z</time>
      </trkpt>
      <trkpt lat="48.87904" lon="2.27828">
        <ele>102.8</ele>
        <time>2015-07-06T20:24:50.055Z</time>
      </trkpt>
      <trkpt lat="48.87903" lon="2.27833">
        <ele>103.2</ele>
        <time>2015-07-06T20:24:51.064Z</time>
      </trkpt>
      <trkpt lat="48.87902" lon="2.27845">
        <ele>104.8</ele>
        <time>2015-07-06T20:24:53.003Z</time>
      </trkpt>
      <trkpt lat="48.87901" lon="2.2785">
        <ele>105.4</ele>
        <time>2015-07-06T20:24:54.049Z</time>
      </trkpt>
      <trkpt lat="48.87899" lon="2.27862">
        <ele>106.2</ele>
        <time>2015-07-06T20:24:56.084Z</time>
      </trkpt>
      <trkpt lat="48.87899" lon="2.27868">
        <ele>106.6</ele>
        <time>2015-07-06T20:24:57.018Z</time>
      </trkpt>
      <trkpt lat="48.87897" lon="2.2788">
        <ele>107.3</ele>
        <time>2015-07-06T20:24:59.009Z</time>
      </trkpt>
      <trkpt lat="48.87895" lon="2.27886">
        <ele>107.6</ele>
        <time>2015-07-06T20:25:00.047Z</time>
      </trkpt>
      <trkpt lat="48.87894" lon="2.27897">
        <ele>108.5</ele>
        <time>2015-07-06T20:25:02.111Z</time>
      </trkpt>
      <trkpt lat="48.87893" lon="2.27903">
        <ele>108.6</ele>
        <time>2015-07-06T20:25:03.027Z</time>
      </trkpt>
      <trkpt lat="48.87892" lon="2.27914">
        <ele>108.4</ele>
        <time>2015-07-06T20:25:05.036Z</time>
      </trkpt>
      <trkpt lat="48.8789" lon="2.27921">
        <ele>108.6</ele>
        <time>2015-07-06T20:25:06.057Z</time>
      </trkpt>
      <trkpt lat="48.87885" lon="2.27928">
        <ele>107.7</ele>
        <time>2015-07-06T20:25:07.068Z</time>
      </trkpt>
      <trkpt lat="48.87879" lon="2.27936">
        <ele>106.8</ele>
        <time>2015-07-06T20:25:08.076Z</time>
      </trkpt>
      <trkpt lat="48.87873" lon="2.27944">
        <ele>105.9</ele>
        <time>2015-07-06T20:25:09.001Z</time>
      </trkpt>
      <trkpt lat="48.87866" lon="2.27952">
        <ele>103.8</ele>
        <time>2015-07-06T20:25:10.005Z</time>
      </trkpt>
      <trkpt lat="48.8786" lon="2.2796">
        <ele>102.1</ele>
        <time>2015-07-06T20:25:11.009Z</time>
      </trkpt>
      <trkpt lat="48.87855" lon="2.27967">
        <ele>100.6</ele>
        <time>2015-07-06T20:25:12.008Z</time>
      </trkpt>
      <trkpt lat="48.87851" lon="2.27977">
        <ele>100.9</ele>
        <time>2015-07-06T20:25:14.058Z</time>
      </trkpt>
      <trkpt lat="48.87849" lon="2.27982">
        <ele>100.8</ele>
        <time>2015-07-06T20:25:15.057Z</time>
      </trkpt>
      <trkpt lat="48.87849" lon="2.27995">
        <ele>100.3</ele>
        <time>2015-07-06T20:25:18.023Z</time>
      </trkpt>
      <trkpt lat="48.87849" lon="2.27999">
        <ele>99.7</ele>
        <time>2015-07-06T20:25:19.031Z</time>
      </trkpt>
      <trkpt lat="48.87845" lon="2.28011">
        <ele>98.4</ele>
        <time>2015-07-06T20:25:22.069Z</time>
      </trkpt>
      <trkpt lat="48.87843" lon="2.28015">
        <ele>97.9</ele>
        <time>2015-07-06T20:25:23.066Z</time>
      </trkpt>
      <trkpt lat="48.8784" lon="2.28026">
        <ele>97</ele>
        <time>2015-07-06T20:25:25.009Z</time>
      </trkpt>
      <trkpt lat="48.87839" lon="2.28031">
        <ele>96.8</ele>
        <time>2015-07-06T20:25:26.043Z</time>
      </trkpt>
      <trkpt lat="48.87835" lon="2.2804">
        <ele>96.6</ele>
        <time>2015-07-06T20:25:28.091Z</time>
      </trkpt>
      <trkpt lat="48.87834" lon="2.28045">
        <ele>96.3</ele>
        <time>2015-07-06T20:25:29.007Z</time>
      </trkpt>
      <trkpt lat="48.87828" lon="2.28054">
        <ele>95.1</ele>
        <time>2015-07-06T20:25:31.020Z</time>
      </trkpt>
      <trkpt lat="48.87825" lon="2.28059">
        <ele>94.8</ele>
        <time>2015-07-06T20:25:32.054Z</time>
      </trkpt>
      <trkpt lat="48.8782" lon="2.28069">
        <ele>94.6</ele>
        <time>2015-07-06T20:25:35.049Z</time>
      </trkpt>
      <trkpt lat="48.87817" lon="2.28073">
        <ele>94.5</ele>
        <time>2015-07-06T20:25:35.205Z</time>
      </trkpt>
      <trkpt lat="48.87814" lon="2.28077">
        <ele>94.3</ele>
        <time>2015-07-06T20:25:35.977Z</time>
      </trkpt>
      <trkpt lat="48.8781" lon="2.28082">
        <ele>93.4</ele>
        <time>2015-07-06T20:25:36.974Z</time>
      </trkpt>
      <trkpt lat="48.87802" lon="2.28089">
        <ele>92.7</ele>
        <time>2015-07-06T20:25:39.046Z</time>
      </trkpt>
      <trkpt lat="48.87798" lon="2.28091">
        <ele>92.9</ele>
        <time>2015-07-06T20:25:39.960Z</time>
      </trkpt>
      <trkpt lat="48.8779" lon="2.28097">
        <ele>92.7</ele>
        <time>2015-07-06T20:25:41.957Z</time>
      </trkpt>
      <trkpt lat="48.87787" lon="2.281">
        <ele>92.8</ele>
        <time>2015-07-06T20:25:42.961Z</time>
      </trkpt>
      <trkpt lat="48.87779" lon="2.28102">
        <ele>92.6</ele>
        <time>2015-07-06T20:25:45.093Z</time>
      </trkpt>
      <trkpt lat="48.87775" lon="2.28103">
        <ele>92.4</ele>
        <time>2015-07-06T20:25:46.047Z</time>
      </trkpt>
      <trkpt lat="48.87766" lon="2.28106">
        <ele>92</ele>
        <time>2015-07-06T20:25:48.017Z</time>
      </trkpt>
      <trkpt lat="48.87762" lon="2.28109">
        <ele>91.9</ele>
        <time>2015-07-06T20:25:49.003Z</time>
      </trkpt>
      <trkpt lat="48.87754" lon="2.28115">
        <ele>91.6</ele>
        <time>2015-07-06T20:25:51.045Z</time>
      </trkpt>
      <trkpt lat="48.8775" lon="2.28119">
        <ele>91.6</ele>
        <time>2015-07-06T20:25:52.113Z</time>
      </trkpt>
      <trkpt lat="48.87743" lon="2.28126">
        <ele>91.3</ele>
        <time>2015-07-06T20:25:53.985Z</time>
      </trkpt>
      <trkpt lat="48.87739" lon="2.2813">
        <ele>91.3</ele>
        <time>2015-07-06T20:25:54.989Z</time>
      </trkpt>
      <trkpt lat="48.87735" lon="2.28134">
        <ele>91.3</ele>
        <time>2015-07-06T20:25:56.037Z</time>
      </trkpt>
      <trkpt lat="48.87732" lon="2.2814">
        <ele>91.2</ele>
        <time>2015-07-06T20:25:57.025Z</time>
      </trkpt>
      <trkpt lat="48.87728" lon="2.28145">
        <ele>91.4</ele>
        <time>2015-07-06T20:25:57.958Z</time>
      </trkpt>
      <trkpt lat="48.87725" lon="2.2815">
        <ele>91.1</ele>
        <time>2015-07-06T20:25:59.076Z</time>
      </trkpt>
      <trkpt lat="48.87719" lon="2.28159">
        <ele>90.5</ele>
        <time>2015-07-06T20:26:01.005Z</time>
      </trkpt>
      <trkpt lat="48.87717" lon="2.28163">
        <ele>90.2</ele>
        <time>2015-07-06T20:26:02.029Z</time>
      </trkpt>
      <trkpt lat="48.87713" lon="2.28175">
        <ele>90</ele>
        <time>2015-07-06T20:26:03.987Z</time>
      </trkpt>
      <trkpt lat="48.87711" lon="2.28181">
        <ele>89.9</ele>
        <time>2015-07-06T20:26:05.014Z</time>
      </trkpt>
      <trkpt lat="48.87707" lon="2.28193">
        <ele>89.7</ele>
        <time>2015-07-06T20:26:07.041Z</time>
      </trkpt>
      <trkpt lat="48.87705" lon="2.28198">
        <ele>89.5</ele>
        <time>2015-07-06T20:26:08.040Z</time>
      </trkpt>
      <trkpt lat="48.87703" lon="2.2821">
        <ele>89.1</ele>
        <time>2015-07-06T20:26:10.077Z</time>
      </trkpt>
      <trkpt lat="48.87702" lon="2.28216">
        <ele>89.3</ele>
        <time>2015-07-06T20:26:11.018Z</time>
      </trkpt>
      <trkpt lat="48.87701" lon="2.28227">
        <ele>89.2</ele>
        <time>2015-07-06T20:26:13.019Z</time>
      </trkpt>
      <trkpt lat="48.877" lon="2.28233">
        <ele>89.3</ele>
        <time>2015-07-06T20:26:14.111Z</time>
      </trkpt>
      <trkpt lat="48.87699" lon="2.28245">
        <ele>89.4</ele>
        <time>2015-07-06T20:26:16.017Z</time>
      </trkpt>
      <trkpt lat="48.87699" lon="2.28251">
        <ele>89.3</ele>
        <time>2015-07-06T20:26:17.045Z</time>
      </trkpt>
      <trkpt lat="48.87699" lon="2.28263">
        <ele>89</ele>
        <time>2015-07-06T20:26:19.103Z</time>
      </trkpt>
      <trkpt lat="48.87699" lon="2.2827">
        <ele>88.9</ele>
        <time>2015-07-06T20:26:20.119Z</time>
      </trkpt>
      <trkpt lat="48.87701" lon="2.2828">
        <ele>89.1</ele>
        <time>2015-07-06T20:26:19.539Z</time>
      </trkpt>
      <trkpt lat="48.87702" lon="2.28285">
        <ele>89.3</ele>
        <time>2015-07-06T20:26:22.958Z</time>
      </trkpt>
      <trkpt lat="48.87701" lon="2.28296">
        <ele>89.3</ele>
        <time>2015-07-06T20:26:25.188Z</time>
      </trkpt>
      <trkpt lat="48.87702" lon="2.283">
        <ele>89.2</ele>
        <time>2015-07-06T20:26:26.050Z</time>
      </trkpt>
      <trkpt lat="48.87703" lon="2.28311">
        <ele>89.6</ele>
        <time>2015-07-06T20:26:27.959Z</time>
      </trkpt>
      <trkpt lat="48.87704" lon="2.28316">
        <ele>90.1</ele>
        <time>2015-07-06T20:26:28.958Z</time>
      </trkpt>
      <trkpt lat="48.87706" lon="2.28326">
        <ele>90.6</ele>
        <time>2015-07-06T20:26:30.963Z</time>
      </trkpt>
      <trkpt lat="48.87708" lon="2.2833">
        <ele>90.7</ele>
        <time>2015-07-06T20:26:32.063Z</time>
      </trkpt>
      <trkpt lat="48.87712" lon="2.28338">
        <ele>91.2</ele>
        <time>2015-07-06T20:26:33.983Z</time>
      </trkpt>
      <trkpt lat="48.87713" lon="2.28343">
        <ele>91.7</ele>
        <time>2015-07-06T20:26:35.157Z</time>
      </trkpt>
      <trkpt lat="48.87716" lon="2.28352">
        <ele>92.4</ele>
        <time>2015-07-06T20:26:37.053Z</time>
      </trkpt>
      <trkpt lat="48.87717" lon="2.28358">
        <ele>92.9</ele>
        <time>2015-07-06T20:26:38.064Z</time>
      </trkpt>
      <trkpt lat="48.87721" lon="2.28369">
        <ele>93.9</ele>
        <time>2015-07-06T20:26:39.983Z</time>
      </trkpt>
      <trkpt lat="48.87723" lon="2.28374">
        <ele>94.6</ele>
        <time>2015-07-06T20:26:40.999Z</time>
      </trkpt>
      <trkpt lat="48.87723" lon="2.28385">
        <ele>95.5</ele>
        <time>2015-07-06T20:26:42.998Z</time>
      </trkpt>
      <trkpt lat="48.87723" lon="2.2839">
        <ele>95.8</ele>
        <time>2015-07-06T20:26:44.008Z</time>
      </trkpt>
      <trkpt lat="48.87721" lon="2.28402">
        <ele>98.2</ele>
        <time>2015-07-06T20:26:52.029Z</time>
      </trkpt>
      <trkpt lat="48.87721" lon="2.28404">
        <ele>98.6</ele>
        <time>2015-07-06T20:26:53.064Z</time>
      </trkpt>
      <trkpt lat="48.87723" lon="2.28417">
        <ele>101.3</ele>
        <time>2015-07-06T20:26:57.042Z</time>
      </trkpt>
      <trkpt lat="48.87721" lon="2.28421">
        <ele>102</ele>
        <time>2015-07-06T20:26:58.039Z</time>
      </trkpt>
      <trkpt lat="48.87718" lon="2.28427">
        <ele>102.6</ele>
        <time>2015-07-06T20:26:59.063Z</time>
      </trkpt>
      <trkpt lat="48.87715" lon="2.28433">
        <ele>103.3</ele>
        <time>2015-07-06T20:27:00.079Z</time>
      </trkpt>
      <trkpt lat="48.87712" lon="2.28444">
        <ele>103.8</ele>
        <time>2015-07-06T20:27:02.046Z</time>
      </trkpt>
      <trkpt lat="48.8771" lon="2.2845">
        <ele>104.2</ele>
        <time>2015-07-06T20:27:03.080Z</time>
      </trkpt>
      <trkpt lat="48.87709" lon="2.28462">
        <ele>105.2</ele>
        <time>2015-07-06T20:27:05.754Z</time>
      </trkpt>
      <trkpt lat="48.87707" lon="2.28469">
        <ele>105.9</ele>
        <time>2015-07-06T20:27:05.953Z</time>
      </trkpt>
      <trkpt lat="48.87705" lon="2.28482">
        <ele>106.8</ele>
        <time>2015-07-06T20:27:08.030Z</time>
      </trkpt>
      <trkpt lat="48.87704" lon="2.28488">
        <ele>107.2</ele>
        <time>2015-07-06T20:27:08.991Z</time>
      </trkpt>
      <trkpt lat="48.87703" lon="2.28494">
        <ele>107.8</ele>
        <time>2015-07-06T20:27:10.871Z</time>
      </trkpt>
      <trkpt lat="48.87702" lon="2.28501">
        <ele>108.3</ele>
        <time>2015-07-06T20:27:11.020Z</time>
      </trkpt>
      <trkpt lat="48.877" lon="2.28514">
        <ele>109.3</ele>
        <time>2015-07-06T20:27:13.026Z</time>
      </trkpt>
      <trkpt lat="48.87699" lon="2.28521">
        <ele>109.8</ele>
        <time>2015-07-06T20:27:14.053Z</time>
      </trkpt>
      <trkpt lat="48.87697" lon="2.28529">
        <ele>110.1</ele>
        <time>2015-07-06T20:27:14.973Z</time>
      </trkpt>
      <trkpt lat="48.87695" lon="2.28535">
        <ele>110.6</ele>
        <time>2015-07-06T20:27:15.961Z</time>
      </trkpt>
      <trkpt lat="48.87693" lon="2.28542">
        <ele>110.9</ele>
        <time>2015-07-06T20:27:16.977Z</time>
      </trkpt>
      <trkpt lat="48.87692" lon="2.28549">
        <ele>110.7</ele>
        <time>2015-07-06T20:27:18.049Z</time>
      </trkpt>
      <trkpt lat="48.8769" lon="2.28561">
        <ele>110.7</ele>
        <time>2015-07-06T20:27:20.143Z</time>
      </trkpt>
      <trkpt lat="48.87686" lon="2.28569">
        <ele>110.8</ele>
        <time>2015-07-06T20:27:21.028Z</time>
      </trkpt>
      <trkpt lat="48.87687" lon="2.28575">
        <ele>110.9</ele>
        <time>2015-07-06T20:27:22.031Z</time>
      </trkpt>
      <trkpt lat="48.87685" lon="2.28582">
        <ele>110.9</ele>
        <time>2015-07-06T20:27:23.042Z</time>
      </trkpt>
      <trkpt lat="48.87683" lon="2.2859">
        <ele>111</ele>
        <time>2015-07-06T20:27:24.630Z</time>
      </trkpt>
      <trkpt lat="48.87681" lon="2.28598">
        <ele>111.4</ele>
        <time>2015-07-06T20:27:25.075Z</time>
      </trkpt>
      <trkpt lat="48.87679" lon="2.28606">
        <ele>111.4</ele>
        <time>2015-07-06T20:27:26.068Z</time>
      </trkpt>
      <trkpt lat="48.87676" lon="2.28612">
        <ele>111.6</ele>
        <time>2015-07-06T20:27:27.028Z</time>
      </trkpt>
      <trkpt lat="48.87674" lon="2.28617">
        <ele>112.1</ele>
        <time>2015-07-06T20:27:28.065Z</time>
      </trkpt>
      <trkpt lat="48.87671" lon="2.28624">
        <ele>112.6</ele>
        <time>2015-07-06T20:27:29.067Z</time>
      </trkpt>
      <trkpt lat="48.87668" lon="2.28632">
        <ele>112.9</ele>
        <time>2015-07-06T20:27:30.118Z</time>
      </trkpt>
      <trkpt lat="48.87665" lon="2.28641">
        <ele>113.3</ele>
        <time>2015-07-06T20:27:30.993Z</time>
      </trkpt>
      <trkpt lat="48.87661" lon="2.2865">
        <ele>113.3</ele>
        <time>2015-07-06T20:27:32.043Z</time>
      </trkpt>
      <trkpt lat="48.87658" lon="2.28657">
        <ele>113.7</ele>
        <time>2015-07-06T20:27:33.053Z</time>
      </trkpt>
      <trkpt lat="48.87652" lon="2.28666">
        <ele>113.4</ele>
        <time>2015-07-06T20:27:33.977Z</time>
      </trkpt>
      <trkpt lat="48.87648" lon="2.28672">
        <ele>113.1</ele>
        <time>2015-07-06T20:27:34.994Z</time>
      </trkpt>
      <trkpt lat="48.87643" lon="2.28679">
        <ele>112.9</ele>
        <time>2015-07-06T20:27:35.984Z</time>
      </trkpt>
      <trkpt lat="48.87639" lon="2.28685">
        <ele>112.6</ele>
        <time>2015-07-06T20:27:36.976Z</time>
      </trkpt>
      <trkpt lat="48.87635" lon="2.28691">
        <ele>111.9</ele>
        <time>2015-07-06T20:27:38.038Z</time>
      </trkpt>
      <trkpt lat="48.8763" lon="2.28697">
        <ele>111.6</ele>
        <time>2015-07-06T20:27:39.023Z</time>
      </trkpt>
      <trkpt lat="48.87629" lon="2.28709">
        <ele>111.8</ele>
        <time>2015-07-06T20:27:41.046Z</time>
      </trkpt>
      <trkpt lat="48.87629" lon="2.28716">
        <ele>111.9</ele>
        <time>2015-07-06T20:27:42.058Z</time>
      </trkpt>
      <trkpt lat="48.87628" lon="2.28726">
        <ele>112.6</ele>
        <time>2015-07-06T20:27:44.032Z</time>
      </trkpt>
      <trkpt lat="48.87627" lon="2.2873">
        <ele>113</ele>
        <time>2015-07-06T20:27:45.004Z</time>
      </trkpt>
      <trkpt lat="48.87622" lon="2.28741">
        <ele>113.2</ele>
        <time>2015-07-06T20:27:47.064Z</time>
      </trkpt>
      <trkpt lat="48.87619" lon="2.28747">
        <ele>113.5</ele>
        <time>2015-07-06T20:27:47.971Z</time>
      </trkpt>
      <trkpt lat="48.87616" lon="2.28754">
        <ele>113.7</ele>
        <time>2015-07-06T20:27:49.072Z</time>
      </trkpt>
      <trkpt lat="48.87612" lon="2.28762">
        <ele>114.3</ele>
        <time>2015-07-06T20:27:50.012Z</time>
      </trkpt>
      <trkpt lat="48.87609" lon="2.2877">
        <ele>114.5</ele>
        <time>2015-07-06T20:27:51.021Z</time>
      </trkpt>
      <trkpt lat="48.87606" lon="2.2878">
        <ele>114.8</ele>
        <time>2015-07-06T20:27:52.092Z</time>
      </trkpt>
      <trkpt lat="48.87603" lon="2.28789">
        <ele>115.2</ele>
        <time>2015-07-06T20:27:52.985Z</time>
      </trkpt>
      <trkpt lat="48.87601" lon="2.28798">
        <ele>115.3</ele>
        <time>2015-07-06T20:27:54.012Z</time>
      </trkpt>
      <trkpt lat="48.87596" lon="2.28808">
        <ele>115.5</ele>
        <time>2015-07-06T20:27:55.018Z</time>
      </trkpt>
      <trkpt lat="48.87592" lon="2.28817">
        <ele>115.5</ele>
        <time>2015-07-06T20:27:56.076Z</time>
      </trkpt>
      <trkpt lat="48.87588" lon="2.28826">
        <ele>115.5</ele>
        <time>2015-07-06T20:27:56.971Z</time>
      </trkpt>
      <trkpt lat="48.87586" lon="2.28835">
        <ele>115.5</ele>
        <time>2015-07-06T20:27:57.982Z</time>
      </trkpt>
      <trkpt lat="48.87584" lon="2.28843">
        <ele>115.8</ele>
        <time>2015-07-06T20:27:58.997Z</time>
      </trkpt>
      <trkpt lat="48.87582" lon="2.28852">
        <ele>115.4</ele>
        <time>2015-07-06T20:28:00.025Z</time>
      </trkpt>
      <trkpt lat="48.87579" lon="2.28865">
        <ele>115.7</ele>
        <time>2015-07-06T20:28:02.041Z</time>
      </trkpt>
      <trkpt lat="48.87579" lon="2.2887">
        <ele>116.2</ele>
        <time>2015-07-06T20:28:03.051Z</time>
      </trkpt>
      <trkpt lat="48.87577" lon="2.28883">
        <ele>117.1</ele>
        <time>2015-07-06T20:28:05.002Z</time>
      </trkpt>
      <trkpt lat="48.87575" lon="2.28888">
        <ele>117.6</ele>
        <time>2015-07-06T20:28:06.018Z</time>
      </trkpt>
      <trkpt lat="48.87573" lon="2.28901">
        <ele>118.9</ele>
        <time>2015-07-06T20:28:08.058Z</time>
      </trkpt>
      <trkpt lat="48.87572" lon="2.28906">
        <ele>119.8</ele>
        <time>2015-07-06T20:28:09.069Z</time>
      </trkpt>
      <trkpt lat="48.87571" lon="2.28916">
        <ele>120.3</ele>
        <time>2015-07-06T20:28:11.005Z</time>
      </trkpt>
      <trkpt lat="48.87571" lon="2.28921">
        <ele>120.6</ele>
        <time>2015-07-06T20:28:12.022Z</time>
      </trkpt>
      <trkpt lat="48.87569" lon="2.28932">
        <ele>121.5</ele>
        <time>2015-07-06T20:28:14.054Z</time>
      </trkpt>
      <trkpt lat="48.87569" lon="2.28936">
        <ele>122</ele>
        <time>2015-07-06T20:28:15.061Z</time>
      </trkpt>
      <trkpt lat="48.87568" lon="2.28949">
        <ele>122.5</ele>
        <time>2015-07-06T20:28:17.007Z</time>
      </trkpt>
      <trkpt lat="48.87564" lon="2.28957">
        <ele>123</ele>
        <time>2015-07-06T20:28:18.047Z</time>
      </trkpt>
      <trkpt lat="48.87561" lon="2.28966">
        <ele>123.6</ele>
        <time>2015-07-06T20:28:18.989Z</time>
      </trkpt>
      <trkpt lat="48.87558" lon="2.28973">
        <ele>124.1</ele>
        <time>2015-07-06T20:28:20.035Z</time>
      </trkpt>
      <trkpt lat="48.87557" lon="2.28981">
        <ele>124.3</ele>
        <time>2015-07-06T20:28:21.021Z</time>
      </trkpt>
      <trkpt lat="48.87553" lon="2.28989">
        <ele>124.5</ele>
        <time>2015-07-06T20:28:22.036Z</time>
      </trkpt>
      <trkpt lat="48.87549" lon="2.28997">
        <ele>124.7</ele>
        <time>2015-07-06T20:28:23.045Z</time>
      </trkpt>
      <trkpt lat="48.87546" lon="2.29006">
        <ele>124.6</ele>
        <time>2015-07-06T20:28:24.054Z</time>
      </trkpt>
      <trkpt lat="48.87542" lon="2.29014">
        <ele>124.6</ele>
        <time>2015-07-06T20:28:24.986Z</time>
      </trkpt>
      <trkpt lat="48.8754" lon="2.2902">
        <ele>124.7</ele>
        <time>2015-07-06T20:28:26.032Z</time>
      </trkpt>
      <trkpt lat="48.87539" lon="2.29027">
        <ele>125</ele>
        <time>2015-07-06T20:28:27.027Z</time>
      </trkpt>
      <trkpt lat="48.87537" lon="2.29034">
        <ele>125.5</ele>
        <time>2015-07-06T20:28:28.057Z</time>
      </trkpt>
      <trkpt lat="48.87535" lon="2.29042">
        <ele>125.9</ele>
        <time>2015-07-06T20:28:28.956Z</time>
      </trkpt>
      <trkpt lat="48.87533" lon="2.29048">
        <ele>126.4</ele>
        <time>2015-07-06T20:28:29.981Z</time>
      </trkpt>
      <trkpt lat="48.8753" lon="2.2906">
        <ele>127.2</ele>
        <time>2015-07-06T20:28:32.044Z</time>
      </trkpt>
      <trkpt lat="48.87527" lon="2.29064">
        <ele>127.3</ele>
        <time>2015-07-06T20:28:33.044Z</time>
      </trkpt>
      <trkpt lat="48.87523" lon="2.29072">
        <ele>127.5</ele>
        <time>2015-07-06T20:28:34.069Z</time>
      </trkpt>
      <trkpt lat="48.87519" lon="2.29084">
        <ele>127.9</ele>
        <time>2015-07-06T20:28:34.981Z</time>
      </trkpt>
      <trkpt lat="48.87516" lon="2.29093">
        <ele>128.5</ele>
        <time>2015-07-06T20:28:36.051Z</time>
      </trkpt>
      <trkpt lat="48.87513" lon="2.29103">
        <ele>129</ele>
        <time>2015-07-06T20:28:37.046Z</time>
      </trkpt>
      <trkpt lat="48.8751" lon="2.29112">
        <ele>129.6</ele>
        <time>2015-07-06T20:28:38.062Z</time>
      </trkpt>
      <trkpt lat="48.87507" lon="2.29121">
        <ele>129.6</ele>
        <time>2015-07-06T20:28:39.064Z</time>
      </trkpt>
      <trkpt lat="48.87504" lon="2.29129">
        <ele>129.9</ele>
        <time>2015-07-06T20:28:39.981Z</time>
      </trkpt>
      <trkpt lat="48.87503" lon="2.29136">
        <ele>129.9</ele>
        <time>2015-07-06T20:28:41.011Z</time>
      </trkpt>
      <trkpt lat="48.875" lon="2.29143">
        <ele>129.9</ele>
        <time>2015-07-06T20:28:42.170Z</time>
      </trkpt>
      <trkpt lat="48.87493" lon="2.29153">
        <ele>129.5</ele>
        <time>2015-07-06T20:28:43.052Z</time>
      </trkpt>
      <trkpt lat="48.87491" lon="2.29164">
        <ele>130.1</ele>
        <time>2015-07-06T20:28:45.041Z</time>
      </trkpt>
      <trkpt lat="48.87489" lon="2.29171">
        <ele>130.3</ele>
        <time>2015-07-06T20:28:46.053Z</time>
      </trkpt>
      <trkpt lat="48.87485" lon="2.29183">
        <ele>130.9</ele>
        <time>2015-07-06T20:28:48.026Z</time>
      </trkpt>
      <trkpt lat="48.87482" lon="2.29189">
        <ele>130.5</ele>
        <time>2015-07-06T20:28:49.131Z</time>
      </trkpt>
      <trkpt lat="48.87478" lon="2.29201">
        <ele>130.5</ele>
        <time>2015-07-06T20:28:50.979Z</time>
      </trkpt>
      <trkpt lat="48.87475" lon="2.29208">
        <ele>130.3</ele>
        <time>2015-07-06T20:28:52.046Z</time>
      </trkpt>
      <trkpt lat="48.87473" lon="2.29221">
        <ele>130.5</ele>
        <time>2015-07-06T20:28:54.089Z</time>
      </trkpt>
      <trkpt lat="48.87471" lon="2.29227">
        <ele>130.8</ele>
        <time>2015-07-06T20:28:55.086Z</time>
      </trkpt>
      <trkpt lat="48.87469" lon="2.29233">
        <ele>131</ele>
        <time>2015-07-06T20:28:56.113Z</time>
      </trkpt>
      <trkpt lat="48.87466" lon="2.29239">
        <ele>130.8</ele>
        <time>2015-07-06T20:28:56.999Z</time>
      </trkpt>
      <trkpt lat="48.87463" lon="2.29244">
        <ele>130.8</ele>
        <time>2015-07-06T20:28:58.062Z</time>
      </trkpt>
      <trkpt lat="48.87461" lon="2.29251">
        <ele>130.5</ele>
        <time>2015-07-06T20:28:59.007Z</time>
      </trkpt>
      <trkpt lat="48.87457" lon="2.29259">
        <ele>130.1</ele>
        <time>2015-07-06T20:29:00.019Z</time>
      </trkpt>
      <trkpt lat="48.87456" lon="2.29267">
        <ele>129.6</ele>
        <time>2015-07-06T20:29:01.036Z</time>
      </trkpt>
      <trkpt lat="48.87454" lon="2.29277">
        <ele>129.6</ele>
        <time>2015-07-06T20:29:03.130Z</time>
      </trkpt>
      <trkpt lat="48.87449" lon="2.29282">
        <ele>129.7</ele>
        <time>2015-07-06T20:29:04.031Z</time>
      </trkpt>
      <trkpt lat="48.87444" lon="2.29285">
        <ele>130.2</ele>
        <time>2015-07-06T20:29:11.072Z</time>
      </trkpt>
      <trkpt lat="48.87429" lon="2.29288">
        <ele>129.8</ele>
        <time>2015-07-06T20:29:12.039Z</time>
      </trkpt>
      <trkpt lat="48.87421" lon="2.2929">
        <ele>128.1</ele>
        <time>2015-07-06T20:29:14.060Z</time>
      </trkpt>
      <trkpt lat="48.8742" lon="2.2929">
        <ele>128.1</ele>
        <time>2015-07-06T20:29:15.046Z</time>
      </trkpt>
      <trkpt lat="48.8742" lon="2.29291">
        <ele>128.2</ele>
        <time>2015-07-06T20:30:02.089Z</time>
      </trkpt>
      <trkpt lat="48.87432" lon="2.29284">
        <ele>117.7</ele>
        <time>2015-07-06T20:30:02.968Z</time>
      </trkpt>
      <trkpt lat="48.87435" lon="2.29289">
        <ele>118</ele>
        <time>2015-07-06T20:30:17.068Z</time>
      </trkpt>
      <trkpt lat="48.87437" lon="2.29308">
        <ele>117.7</ele>
        <time>2015-07-06T20:30:17.992Z</time>
      </trkpt>
      <trkpt lat="48.8743" lon="2.29315">
        <ele>116.1</ele>
        <time>2015-07-06T20:30:20.104Z</time>
      </trkpt>
      <trkpt lat="48.87428" lon="2.29318">
        <ele>116.4</ele>
        <time>2015-07-06T20:30:21.070Z</time>
      </trkpt>
      <trkpt lat="48.87424" lon="2.29327">
        <ele>115.6</ele>
        <time>2015-07-06T20:30:22.996Z</time>
      </trkpt>
      <trkpt lat="48.87422" lon="2.29331">
        <ele>115.2</ele>
        <time>2015-07-06T20:30:24.009Z</time>
      </trkpt>
      <trkpt lat="48.87419" lon="2.29342">
        <ele>115</ele>
        <time>2015-07-06T20:30:26.989Z</time>
      </trkpt>
      <trkpt lat="48.87418" lon="2.29345">
        <ele>115</ele>
        <time>2015-07-06T20:30:28.005Z</time>
      </trkpt>
      <trkpt lat="48.87415" lon="2.29353">
        <ele>114.4</ele>
        <time>2015-07-06T20:31:01.022Z</time>
      </trkpt>
      <trkpt lat="48.87425" lon="2.29358">
        <ele>107.5</ele>
        <time>2015-07-06T20:31:02.055Z</time>
      </trkpt>
      <trkpt lat="48.87434" lon="2.29361">
        <ele>106.8</ele>
        <time>2015-07-06T20:31:05.587Z</time>
      </trkpt>
      <trkpt lat="48.87436" lon="2.29361">
        <ele>107</ele>
        <time>2015-07-06T20:31:05.991Z</time>
      </trkpt>
      <trkpt lat="48.87443" lon="2.29371">
        <ele>107.2</ele>
        <time>2015-07-06T20:31:10.616Z</time>
      </trkpt>
      <trkpt lat="48.87442" lon="2.29374">
        <ele>107.2</ele>
        <time>2015-07-06T20:31:10.978Z</time>
      </trkpt>
      <trkpt lat="48.87438" lon="2.29383">
        <ele>107</ele>
        <time>2015-07-06T20:31:14.046Z</time>
      </trkpt>
      <trkpt lat="48.87437" lon="2.29386">
        <ele>106.6</ele>
        <time>2015-07-06T20:31:15.055Z</time>
      </trkpt>
      <trkpt lat="48.87431" lon="2.29395">
        <ele>105.5</ele>
        <time>2015-07-06T20:31:19.941Z</time>
      </trkpt>
      <trkpt lat="48.8743" lon="2.29396">
        <ele>105.6</ele>
        <time>2015-07-06T20:31:20.041Z</time>
      </trkpt>
      <trkpt lat="48.8743" lon="2.29396">
        <ele>105.6</ele>
        <time>2015-07-06T20:31:33.998Z</time>
      </trkpt>
      <trkpt lat="48.87364" lon="2.29633">
        <ele>106.3</ele>
        <time>2015-07-06T20:32:34.950Z</time>
      </trkpt>
      <trkpt lat="48.87364" lon="2.29633">
        <ele>106.3</ele>
        <time>2015-07-06T20:33:28.046Z</time>
      </trkpt>
      <trkpt lat="48.87341" lon="2.29651">
        <ele>110</ele>
        <time>2015-07-06T20:33:28.990Z</time>
      </trkpt>
      <trkpt lat="48.87333" lon="2.29654">
        <ele>109.8</ele>
        <time>2015-07-06T20:33:32.065Z</time>
      </trkpt>
      <trkpt lat="48.87331" lon="2.29655">
        <ele>109.6</ele>
        <time>2015-07-06T20:33:33.074Z</time>
      </trkpt>
      <trkpt lat="48.87326" lon="2.29662">
        <ele>110.5</ele>
        <time>2015-07-06T20:33:35.016Z</time>
      </trkpt>
      <trkpt lat="48.87324" lon="2.29664">
        <ele>111</ele>
        <time>2015-07-06T20:33:36.043Z</time>
      </trkpt>
      <trkpt lat="48.8732" lon="2.29674">
        <ele>111.5</ele>
        <time>2015-07-06T20:33:39.910Z</time>
      </trkpt>
      <trkpt lat="48.87319" lon="2.29678">
        <ele>111.7</ele>
        <time>2015-07-06T20:33:40.020Z</time>
      </trkpt>
      <trkpt lat="48.87317" lon="2.29687">
        <ele>112.6</ele>
        <time>2015-07-06T20:33:42.041Z</time>
      </trkpt>
      <trkpt lat="48.87315" lon="2.29692">
        <ele>112.8</ele>
        <time>2015-07-06T20:33:43.051Z</time>
      </trkpt>
      <trkpt lat="48.8731" lon="2.29699">
        <ele>113</ele>
        <time>2015-07-06T20:33:45.072Z</time>
      </trkpt>
      <trkpt lat="48.87308" lon="2.29702">
        <ele>113.3</ele>
        <time>2015-07-06T20:33:46.015Z</time>
      </trkpt>
      <trkpt lat="48.87304" lon="2.29711">
        <ele>119.6</ele>
        <time>2015-07-06T20:34:14.031Z</time>
      </trkpt>
      <trkpt lat="48.87304" lon="2.29715">
        <ele>120</ele>
        <time>2015-07-06T20:34:15.020Z</time>
      </trkpt>
      <trkpt lat="48.87302" lon="2.29727">
        <ele>122</ele>
        <time>2015-07-06T20:34:20.061Z</time>
      </trkpt>
      <trkpt lat="48.87302" lon="2.2973">
        <ele>122.3</ele>
        <time>2015-07-06T20:34:20.974Z</time>
      </trkpt>
      <trkpt lat="48.87299" lon="2.29742">
        <ele>124</ele>
        <time>2015-07-06T20:34:24.043Z</time>
      </trkpt>
      <trkpt lat="48.87299" lon="2.29746">
        <ele>124.4</ele>
        <time>2015-07-06T20:34:25.050Z</time>
      </trkpt>
      <trkpt lat="48.87299" lon="2.29756">
        <ele>125.6</ele>
        <time>2015-07-06T20:34:26.972Z</time>
      </trkpt>
      <trkpt lat="48.87299" lon="2.2976">
        <ele>126.1</ele>
        <time>2015-07-06T20:34:27.992Z</time>
      </trkpt>
      <trkpt lat="48.87299" lon="2.29769">
        <ele>127.3</ele>
        <time>2015-07-06T20:34:31.005Z</time>
      </trkpt>
      <trkpt lat="48.87299" lon="2.29774">
        <ele>127.5</ele>
        <time>2015-07-06T20:34:32.126Z</time>
      </trkpt>
      <trkpt lat="48.87296" lon="2.29785">
        <ele>128.5</ele>
        <time>2015-07-06T20:34:33.993Z</time>
      </trkpt>
      <trkpt lat="48.87296" lon="2.29789">
        <ele>129</ele>
        <time>2015-07-06T20:34:34.995Z</time>
      </trkpt>
      <trkpt lat="48.87296" lon="2.29795">
        <ele>129.1</ele>
        <time>2015-07-06T20:34:36.000Z</time>
      </trkpt>
      <trkpt lat="48.87295" lon="2.29803">
        <ele>129.6</ele>
        <time>2015-07-06T20:34:37.070Z</time>
      </trkpt>
      <trkpt lat="48.87295" lon="2.29811">
        <ele>130</ele>
        <time>2015-07-06T20:34:38.010Z</time>
      </trkpt>
      <trkpt lat="48.87293" lon="2.29818">
        <ele>130.2</ele>
        <time>2015-07-06T20:34:39.002Z</time>
      </trkpt>
      <trkpt lat="48.87291" lon="2.29825">
        <ele>130.5</ele>
        <time>2015-07-06T20:34:40.014Z</time>
      </trkpt>
      <trkpt lat="48.87287" lon="2.29832">
        <ele>131.2</ele>
        <time>2015-07-06T20:34:41.023Z</time>
      </trkpt>
      <trkpt lat="48.87284" lon="2.2984">
        <ele>131.3</ele>
        <time>2015-07-06T20:34:42.036Z</time>
      </trkpt>
      <trkpt lat="48.87281" lon="2.29847">
        <ele>131.4</ele>
        <time>2015-07-06T20:34:43.041Z</time>
      </trkpt>
      <trkpt lat="48.87278" lon="2.29855">
        <ele>131.6</ele>
        <time>2015-07-06T20:34:44.054Z</time>
      </trkpt>
      <trkpt lat="48.87276" lon="2.29861">
        <ele>131.7</ele>
        <time>2015-07-06T20:34:44.958Z</time>
      </trkpt>
      <trkpt lat="48.87273" lon="2.29867">
        <ele>131.6</ele>
        <time>2015-07-06T20:34:46.234Z</time>
      </trkpt>
      <trkpt lat="48.87269" lon="2.29874">
        <ele>131.4</ele>
        <time>2015-07-06T20:34:46.980Z</time>
      </trkpt>
      <trkpt lat="48.87264" lon="2.29881">
        <ele>131.5</ele>
        <time>2015-07-06T20:34:47.987Z</time>
      </trkpt>
      <trkpt lat="48.87262" lon="2.29886">
        <ele>131.7</ele>
        <time>2015-07-06T20:34:49.033Z</time>
      </trkpt>
      <trkpt lat="48.87259" lon="2.29892">
        <ele>131.7</ele>
        <time>2015-07-06T20:34:50.068Z</time>
      </trkpt>
      <trkpt lat="48.87255" lon="2.29898">
        <ele>131.7</ele>
        <time>2015-07-06T20:34:50.968Z</time>
      </trkpt>
      <trkpt lat="48.87251" lon="2.29909">
        <ele>131.6</ele>
        <time>2015-07-06T20:34:52.990Z</time>
      </trkpt>
      <trkpt lat="48.87251" lon="2.29914">
        <ele>131.6</ele>
        <time>2015-07-06T20:34:53.990Z</time>
      </trkpt>
      <trkpt lat="48.87253" lon="2.29923">
        <ele>133</ele>
        <time>2015-07-06T20:34:56.052Z</time>
      </trkpt>
      <trkpt lat="48.87251" lon="2.29928">
        <ele>133.3</ele>
        <time>2015-07-06T20:34:57.063Z</time>
      </trkpt>
      <trkpt lat="48.87247" lon="2.29936">
        <ele>133.9</ele>
        <time>2015-07-06T20:34:58.979Z</time>
      </trkpt>
      <trkpt lat="48.87246" lon="2.2994">
        <ele>134.6</ele>
        <time>2015-07-06T20:35:00.140Z</time>
      </trkpt>
      <trkpt lat="48.87243" lon="2.2995">
        <ele>135.6</ele>
        <time>2015-07-06T20:35:02.026Z</time>
      </trkpt>
      <trkpt lat="48.87242" lon="2.29955">
        <ele>136.2</ele>
        <time>2015-07-06T20:35:03.035Z</time>
      </trkpt>
      <trkpt lat="48.87241" lon="2.29962">
        <ele>136.7</ele>
        <time>2015-07-06T20:35:04.046Z</time>
      </trkpt>
      <trkpt lat="48.8724" lon="2.29969">
        <ele>137.4</ele>
        <time>2015-07-06T20:35:05.056Z</time>
      </trkpt>
      <trkpt lat="48.87239" lon="2.29977">
        <ele>137.5</ele>
        <time>2015-07-06T20:35:05.970Z</time>
      </trkpt>
      <trkpt lat="48.87235" lon="2.29988">
        <ele>137.1</ele>
        <time>2015-07-06T20:35:06.963Z</time>
      </trkpt>
      <trkpt lat="48.87231" lon="2.29997">
        <ele>136.7</ele>
        <time>2015-07-06T20:35:07.988Z</time>
      </trkpt>
      <trkpt lat="48.87228" lon="2.30004">
        <ele>136</ele>
        <time>2015-07-06T20:35:09.006Z</time>
      </trkpt>
      <trkpt lat="48.87226" lon="2.30009">
        <ele>135.8</ele>
        <time>2015-07-06T20:35:09.945Z</time>
      </trkpt>
      <trkpt lat="48.87221" lon="2.30016">
        <ele>134.7</ele>
        <time>2015-07-06T20:35:10.983Z</time>
      </trkpt>
      <trkpt lat="48.8722" lon="2.30029">
        <ele>134.9</ele>
        <time>2015-07-06T20:35:13.025Z</time>
      </trkpt>
      <trkpt lat="48.87218" lon="2.30034">
        <ele>135</ele>
        <time>2015-07-06T20:35:14.034Z</time>
      </trkpt>
      <trkpt lat="48.87214" lon="2.30044">
        <ele>134.6</ele>
        <time>2015-07-06T20:35:16.012Z</time>
      </trkpt>
      <trkpt lat="48.87213" lon="2.30048">
        <ele>134.7</ele>
        <time>2015-07-06T20:35:17.033Z</time>
      </trkpt>
      <trkpt lat="48.87212" lon="2.30053">
        <ele>134.7</ele>
        <time>2015-07-06T20:35:17.986Z</time>
      </trkpt>
      <trkpt lat="48.87206" lon="2.30061">
        <ele>133.5</ele>
        <time>2015-07-06T20:35:18.983Z</time>
      </trkpt>
      <trkpt lat="48.87203" lon="2.30071">
        <ele>132.7</ele>
        <time>2015-07-06T20:35:21.021Z</time>
      </trkpt>
      <trkpt lat="48.87203" lon="2.30073">
        <ele>132.3</ele>
        <time>2015-07-06T20:35:22.028Z</time>
      </trkpt>
      <trkpt lat="48.872" lon="2.30085">
        <ele>130.1</ele>
        <time>2015-07-06T20:35:31.013Z</time>
      </trkpt>
      <trkpt lat="48.87179" lon="2.30102">
        <ele>120.7</ele>
        <time>2015-07-06T20:35:32.065Z</time>
      </trkpt>
      <trkpt lat="48.87174" lon="2.30112">
        <ele>119.5</ele>
        <time>2015-07-06T20:35:34.000Z</time>
      </trkpt>
      <trkpt lat="48.87172" lon="2.30115">
        <ele>119.1</ele>
        <time>2015-07-06T20:35:35.014Z</time>
      </trkpt>
      <trkpt lat="48.87167" lon="2.30125">
        <ele>118.3</ele>
        <time>2015-07-06T20:35:38.124Z</time>
      </trkpt>
      <trkpt lat="48.87166" lon="2.30127">
        <ele>118.2</ele>
        <time>2015-07-06T20:35:39.015Z</time>
      </trkpt>
      <trkpt lat="48.8717" lon="2.30135">
        <ele>117.6</ele>
        <time>2015-07-06T20:35:42.977Z</time>
      </trkpt>
      <trkpt lat="48.87171" lon="2.30139">
        <ele>117.5</ele>
        <time>2015-07-06T20:35:44.055Z</time>
      </trkpt>
      <trkpt lat="48.8717" lon="2.30148">
        <ele>117.7</ele>
        <time>2015-07-06T20:35:45.970Z</time>
      </trkpt>
      <trkpt lat="48.87168" lon="2.30155">
        <ele>117.8</ele>
        <time>2015-07-06T20:35:47.048Z</time>
      </trkpt>
      <trkpt lat="48.87166" lon="2.30161">
        <ele>117.4</ele>
        <time>2015-07-06T20:35:48.064Z</time>
      </trkpt>
      <trkpt lat="48.87164" lon="2.30167">
        <ele>117</ele>
        <time>2015-07-06T20:35:49.000Z</time>
      </trkpt>
      <trkpt lat="48.87161" lon="2.30176">
        <ele>117.1</ele>
        <time>2015-07-06T20:35:51.030Z</time>
      </trkpt>
      <trkpt lat="48.8716" lon="2.30181">
        <ele>117</ele>
        <time>2015-07-06T20:35:52.038Z</time>
      </trkpt>
      <trkpt lat="48.87159" lon="2.3019">
        <ele>117.4</ele>
        <time>2015-07-06T20:35:53.987Z</time>
      </trkpt>
      <trkpt lat="48.87158" lon="2.30195">
        <ele>117.9</ele>
        <time>2015-07-06T20:35:55.027Z</time>
      </trkpt>
      <trkpt lat="48.87155" lon="2.30205">
        <ele>119.1</ele>
        <time>2015-07-06T20:35:57.011Z</time>
      </trkpt>
      <trkpt lat="48.87153" lon="2.30211">
        <ele>120</ele>
        <time>2015-07-06T20:35:57.998Z</time>
      </trkpt>
      <trkpt lat="48.8715" lon="2.30222">
        <ele>121.4</ele>
        <time>2015-07-06T20:36:00.067Z</time>
      </trkpt>
      <trkpt lat="48.87149" lon="2.30228">
        <ele>121.8</ele>
        <time>2015-07-06T20:36:00.982Z</time>
      </trkpt>
      <trkpt lat="48.87148" lon="2.30239">
        <ele>123.3</ele>
        <time>2015-07-06T20:36:03.005Z</time>
      </trkpt>
      <trkpt lat="48.87148" lon="2.30243">
        <ele>123.8</ele>
        <time>2015-07-06T20:36:03.989Z</time>
      </trkpt>
      <trkpt lat="48.87147" lon="2.30254">
        <ele>124.5</ele>
        <time>2015-07-06T20:36:06.012Z</time>
      </trkpt>
      <trkpt lat="48.87145" lon="2.30261">
        <ele>124.8</ele>
        <time>2015-07-06T20:36:07.031Z</time>
      </trkpt>
      <trkpt lat="48.87145" lon="2.30271">
        <ele>125.9</ele>
        <time>2015-07-06T20:36:09.048Z</time>
      </trkpt>
      <trkpt lat="48.87143" lon="2.30276">
        <ele>126.5</ele>
        <time>2015-07-06T20:36:09.981Z</time>
      </trkpt>
      <trkpt lat="48.87139" lon="2.30287">
        <ele>126.7</ele>
        <time>2015-07-06T20:36:11.954Z</time>
      </trkpt>
      <trkpt lat="48.87136" lon="2.30292">
        <ele>127.1</ele>
        <time>2015-07-06T20:36:13.077Z</time>
      </trkpt>
      <trkpt lat="48.87133" lon="2.30304">
        <ele>127.5</ele>
        <time>2015-07-06T20:36:15.945Z</time>
      </trkpt>
      <trkpt lat="48.87132" lon="2.30307">
        <ele>127.6</ele>
        <time>2015-07-06T20:36:17.036Z</time>
      </trkpt>
      <trkpt lat="48.87129" lon="2.30319">
        <ele>128.2</ele>
        <time>2015-07-06T20:36:20.118Z</time>
      </trkpt>
      <trkpt lat="48.87128" lon="2.30321">
        <ele>128.2</ele>
        <time>2015-07-06T20:36:21.086Z</time>
      </trkpt>
      <trkpt lat="48.87126" lon="2.30332">
        <ele>129.1</ele>
        <time>2015-07-06T20:36:24.043Z</time>
      </trkpt>
      <trkpt lat="48.87125" lon="2.30337">
        <ele>129.5</ele>
        <time>2015-07-06T20:36:25.057Z</time>
      </trkpt>
      <trkpt lat="48.87123" lon="2.30346">
        <ele>130.7</ele>
        <time>2015-07-06T20:36:26.959Z</time>
      </trkpt>
      <trkpt lat="48.87122" lon="2.3035">
        <ele>131.3</ele>
        <time>2015-07-06T20:36:27.999Z</time>
      </trkpt>
      <trkpt lat="48.87119" lon="2.30356">
        <ele>131.8</ele>
        <time>2015-07-06T20:36:29.041Z</time>
      </trkpt>
      <trkpt lat="48.87117" lon="2.30362">
        <ele>131.9</ele>
        <time>2015-07-06T20:36:29.933Z</time>
      </trkpt>
      <trkpt lat="48.87115" lon="2.30374">
        <ele>132</ele>
        <time>2015-07-06T20:36:32.043Z</time>
      </trkpt>
      <trkpt lat="48.87114" lon="2.3038">
        <ele>131.8</ele>
        <time>2015-07-06T20:36:33.024Z</time>
      </trkpt>
      <trkpt lat="48.87113" lon="2.30387">
        <ele>132</ele>
        <time>2015-07-06T20:36:33.955Z</time>
      </trkpt>
      <trkpt lat="48.87112" lon="2.30395">
        <ele>132.2</ele>
        <time>2015-07-06T20:36:34.956Z</time>
      </trkpt>
      <trkpt lat="48.87111" lon="2.30402">
        <ele>132.5</ele>
        <time>2015-07-06T20:36:35.960Z</time>
      </trkpt>
      <trkpt lat="48.87109" lon="2.30411">
        <ele>132.6</ele>
        <time>2015-07-06T20:36:36.971Z</time>
      </trkpt>
      <trkpt lat="48.87108" lon="2.30419">
        <ele>132.4</ele>
        <time>2015-07-06T20:36:38.014Z</time>
      </trkpt>
      <trkpt lat="48.87109" lon="2.30425">
        <ele>132.6</ele>
        <time>2015-07-06T20:36:39.034Z</time>
      </trkpt>
      <trkpt lat="48.87108" lon="2.30438">
        <ele>132.8</ele>
        <time>2015-07-06T20:36:40.961Z</time>
      </trkpt>
      <trkpt lat="48.87107" lon="2.30443">
        <ele>132.6</ele>
        <time>2015-07-06T20:36:41.972Z</time>
      </trkpt>
      <trkpt lat="48.87105" lon="2.30456">
        <ele>133.4</ele>
        <time>2015-07-06T20:36:45.958Z</time>
      </trkpt>
      <trkpt lat="48.87104" lon="2.3046">
        <ele>133.1</ele>
        <time>2015-07-06T20:36:46.970Z</time>
      </trkpt>
      <trkpt lat="48.87102" lon="2.3047">
        <ele>133.1</ele>
        <time>2015-07-06T20:36:49.008Z</time>
      </trkpt>
      <trkpt lat="48.871" lon="2.30475">
        <ele>133</ele>
        <time>2015-07-06T20:36:50.139Z</time>
      </trkpt>
      <trkpt lat="48.87096" lon="2.30485">
        <ele>131.6</ele>
        <time>2015-07-06T20:36:51.989Z</time>
      </trkpt>
      <trkpt lat="48.87094" lon="2.30488">
        <ele>130.6</ele>
        <time>2015-07-06T20:36:53.001Z</time>
      </trkpt>
      <trkpt lat="48.87089" lon="2.30495">
        <ele>130.1</ele>
        <time>2015-07-06T20:37:01.001Z</time>
      </trkpt>
      <trkpt lat="48.87081" lon="2.30511">
        <ele>130.9</ele>
        <time>2015-07-06T20:37:02.082Z</time>
      </trkpt>
      <trkpt lat="48.87079" lon="2.30519">
        <ele>130.3</ele>
        <time>2015-07-06T20:37:03.967Z</time>
      </trkpt>
      <trkpt lat="48.87078" lon="2.30524">
        <ele>130</ele>
        <time>2015-07-06T20:37:04.959Z</time>
      </trkpt>
      <trkpt lat="48.87076" lon="2.30535">
        <ele>129.3</ele>
        <time>2015-07-06T20:37:06.967Z</time>
      </trkpt>
      <trkpt lat="48.87073" lon="2.30541">
        <ele>129.1</ele>
        <time>2015-07-06T20:37:07.986Z</time>
      </trkpt>
      <trkpt lat="48.8707" lon="2.30548">
        <ele>128.4</ele>
        <time>2015-07-06T20:37:10.049Z</time>
      </trkpt>
      <trkpt lat="48.87068" lon="2.30553">
        <ele>127.8</ele>
        <time>2015-07-06T20:37:11.050Z</time>
      </trkpt>
      <trkpt lat="48.87063" lon="2.30563">
        <ele>126.8</ele>
        <time>2015-07-06T20:37:12.959Z</time>
      </trkpt>
      <trkpt lat="48.8706" lon="2.30569">
        <ele>126</ele>
        <time>2015-07-06T20:37:14.040Z</time>
      </trkpt>
      <trkpt lat="48.87058" lon="2.30581">
        <ele>126.4</ele>
        <time>2015-07-06T20:37:15.960Z</time>
      </trkpt>
      <trkpt lat="48.87057" lon="2.30585">
        <ele>126.4</ele>
        <time>2015-07-06T20:37:16.999Z</time>
      </trkpt>
      <trkpt lat="48.87055" lon="2.30595">
        <ele>126.7</ele>
        <time>2015-07-06T20:37:19.044Z</time>
      </trkpt>
      <trkpt lat="48.87055" lon="2.30599">
        <ele>126.8</ele>
        <time>2015-07-06T20:37:20.051Z</time>
      </trkpt>
      <trkpt lat="48.87052" lon="2.30608">
        <ele>126</ele>
        <time>2015-07-06T20:37:22.009Z</time>
      </trkpt>
      <trkpt lat="48.8705" lon="2.30613">
        <ele>125.3</ele>
        <time>2015-07-06T20:37:22.985Z</time>
      </trkpt>
      <trkpt lat="48.87047" lon="2.30618">
        <ele>124.1</ele>
        <time>2015-07-06T20:37:23.997Z</time>
      </trkpt>
      <trkpt lat="48.87042" lon="2.30626">
        <ele>122.3</ele>
        <time>2015-07-06T20:37:25.012Z</time>
      </trkpt>
      <trkpt lat="48.87036" lon="2.30636">
        <ele>118.8</ele>
        <time>2015-07-06T20:37:27.046Z</time>
      </trkpt>
      <trkpt lat="48.87032" lon="2.3064">
        <ele>116.9</ele>
        <time>2015-07-06T20:37:28.026Z</time>
      </trkpt>
      <trkpt lat="48.87028" lon="2.3065">
        <ele>116.4</ele>
        <time>2015-07-06T20:37:40.037Z</time>
      </trkpt>
      <trkpt lat="48.87018" lon="2.30675">
        <ele>114.8</ele>
        <time>2015-07-06T20:37:41.060Z</time>
      </trkpt>
      <trkpt lat="48.87016" lon="2.30681">
        <ele>114.7</ele>
        <time>2015-07-06T20:37:41.983Z</time>
      </trkpt>
      <trkpt lat="48.87014" lon="2.30688">
        <ele>114.6</ele>
        <time>2015-07-06T20:37:43.073Z</time>
      </trkpt>
      <trkpt lat="48.87012" lon="2.30695">
        <ele>114.6</ele>
        <time>2015-07-06T20:37:44.081Z</time>
      </trkpt>
      <trkpt lat="48.8701" lon="2.30703">
        <ele>114.3</ele>
        <time>2015-07-06T20:37:44.997Z</time>
      </trkpt>
      <trkpt lat="48.87006" lon="2.30711">
        <ele>114.5</ele>
        <time>2015-07-06T20:37:46.009Z</time>
      </trkpt>
      <trkpt lat="48.87004" lon="2.30719">
        <ele>114.5</ele>
        <time>2015-07-06T20:37:47.014Z</time>
      </trkpt>
      <trkpt lat="48.87003" lon="2.30728">
        <ele>114.6</ele>
        <time>2015-07-06T20:37:48.042Z</time>
      </trkpt>
      <trkpt lat="48.87001" lon="2.30736">
        <ele>114.8</ele>
        <time>2015-07-06T20:37:49.068Z</time>
      </trkpt>
      <trkpt lat="48.86998" lon="2.30745">
        <ele>115.1</ele>
        <time>2015-07-06T20:37:50.091Z</time>
      </trkpt>
      <trkpt lat="48.86996" lon="2.30755">
        <ele>115.1</ele>
        <time>2015-07-06T20:37:50.984Z</time>
      </trkpt>
      <trkpt lat="48.86993" lon="2.30764">
        <ele>114.8</ele>
        <time>2015-07-06T20:37:51.998Z</time>
      </trkpt>
      <trkpt lat="48.86991" lon="2.30772">
        <ele>114.4</ele>
        <time>2015-07-06T20:37:53.004Z</time>
      </trkpt>
      <trkpt lat="48.86989" lon="2.30779">
        <ele>114.4</ele>
        <time>2015-07-06T20:37:54.032Z</time>
      </trkpt>
      <trkpt lat="48.86988" lon="2.30786">
        <ele>114</ele>
        <time>2015-07-06T20:37:55.039Z</time>
      </trkpt>
      <trkpt lat="48.86986" lon="2.30791">
        <ele>113.8</ele>
        <time>2015-07-06T20:37:56.053Z</time>
      </trkpt>
      <trkpt lat="48.8698" lon="2.30797">
        <ele>112.6</ele>
        <time>2015-07-06T20:37:57.065Z</time>
      </trkpt>
      <trkpt lat="48.86973" lon="2.30804">
        <ele>111.3</ele>
        <time>2015-07-06T20:37:57.995Z</time>
      </trkpt>
      <trkpt lat="48.86968" lon="2.30811">
        <ele>110.1</ele>
        <time>2015-07-06T20:37:58.988Z</time>
      </trkpt>
      <trkpt lat="48.86964" lon="2.30817">
        <ele>109.1</ele>
        <time>2015-07-06T20:37:59.986Z</time>
      </trkpt>
      <trkpt lat="48.86961" lon="2.30822">
        <ele>109</ele>
        <time>2015-07-06T20:38:00.992Z</time>
      </trkpt>
      <trkpt lat="48.86959" lon="2.30829">
        <ele>108.5</ele>
        <time>2015-07-06T20:38:02.044Z</time>
      </trkpt>
      <trkpt lat="48.86957" lon="2.30836">
        <ele>108.4</ele>
        <time>2015-07-06T20:38:02.980Z</time>
      </trkpt>
      <trkpt lat="48.86955" lon="2.30843">
        <ele>108</ele>
        <time>2015-07-06T20:38:03.970Z</time>
      </trkpt>
      <trkpt lat="48.86953" lon="2.3085">
        <ele>107.5</ele>
        <time>2015-07-06T20:38:04.974Z</time>
      </trkpt>
      <trkpt lat="48.8695" lon="2.30856">
        <ele>107.6</ele>
        <time>2015-07-06T20:38:05.983Z</time>
      </trkpt>
      <trkpt lat="48.86948" lon="2.30862">
        <ele>107.5</ele>
        <time>2015-07-06T20:38:06.987Z</time>
      </trkpt>
      <trkpt lat="48.86941" lon="2.30862">
        <ele>103.4</ele>
        <time>2015-07-06T20:43:17.971Z</time>
      </trkpt>
      <trkpt lat="48.86933" lon="2.30889">
        <ele>108.1</ele>
        <time>2015-07-06T20:43:19.025Z</time>
      </trkpt>
      <trkpt lat="48.8693" lon="2.30894">
        <ele>107.9</ele>
        <time>2015-07-06T20:43:21.047Z</time>
      </trkpt>
      <trkpt lat="48.86924" lon="2.309">
        <ele>106.1</ele>
        <time>2015-07-06T20:43:22.009Z</time>
      </trkpt>
      <trkpt lat="48.86914" lon="2.30908">
        <ele>102.4</ele>
        <time>2015-07-06T20:43:22.967Z</time>
      </trkpt>
      <trkpt lat="48.86908" lon="2.30911">
        <ele>100.4</ele>
        <time>2015-07-06T20:43:23.961Z</time>
      </trkpt>
      <trkpt lat="48.86902" lon="2.30913">
        <ele>98.2</ele>
        <time>2015-07-06T20:43:24.978Z</time>
      </trkpt>
      <trkpt lat="48.86895" lon="2.30917">
        <ele>96.7</ele>
        <time>2015-07-06T20:43:26.995Z</time>
      </trkpt>
      <trkpt lat="48.86892" lon="2.30919">
        <ele>96.4</ele>
        <time>2015-07-06T20:43:28.003Z</time>
      </trkpt>
      <trkpt lat="48.86887" lon="2.30922">
        <ele>95.9</ele>
        <time>2015-07-06T20:43:29.937Z</time>
      </trkpt>
      <trkpt lat="48.86883" lon="2.30923">
        <ele>95.1</ele>
        <time>2015-07-06T20:43:30.949Z</time>
      </trkpt>
      <trkpt lat="48.86877" lon="2.30925">
        <ele>93.7</ele>
        <time>2015-07-06T20:43:32.967Z</time>
      </trkpt>
      <trkpt lat="48.86873" lon="2.30926">
        <ele>93.3</ele>
        <time>2015-07-06T20:43:34.009Z</time>
      </trkpt>
      <trkpt lat="48.86866" lon="2.3093">
        <ele>93</ele>
        <time>2015-07-06T20:43:35.963Z</time>
      </trkpt>
      <trkpt lat="48.86863" lon="2.30932">
        <ele>92.9</ele>
        <time>2015-07-06T20:43:36.997Z</time>
      </trkpt>
      <trkpt lat="48.86857" lon="2.30941">
        <ele>94.1</ele>
        <time>2015-07-06T20:43:39.984Z</time>
      </trkpt>
      <trkpt lat="48.86855" lon="2.30943">
        <ele>94.4</ele>
        <time>2015-07-06T20:43:41.019Z</time>
      </trkpt>
      <trkpt lat="48.8685" lon="2.30953">
        <ele>94.6</ele>
        <time>2015-07-06T20:43:47.009Z</time>
      </trkpt>
      <trkpt lat="48.86849" lon="2.30957">
        <ele>95</ele>
        <time>2015-07-06T20:43:47.944Z</time>
      </trkpt>
      <trkpt lat="48.8685" lon="2.3097">
        <ele>93.5</ele>
        <time>2015-07-06T20:43:51.001Z</time>
      </trkpt>
      <trkpt lat="48.86849" lon="2.30973">
        <ele>93.6</ele>
        <time>2015-07-06T20:43:52.011Z</time>
      </trkpt>
      <trkpt lat="48.86846" lon="2.3098">
        <ele>93.3</ele>
        <time>2015-07-06T20:43:53.964Z</time>
      </trkpt>
      <trkpt lat="48.86841" lon="2.30986">
        <ele>92.4</ele>
        <time>2015-07-06T20:43:54.969Z</time>
      </trkpt>
      <trkpt lat="48.86839" lon="2.30999">
        <ele>92.4</ele>
        <time>2015-07-06T20:43:57.999Z</time>
      </trkpt>
      <trkpt lat="48.86834" lon="2.31004">
        <ele>91.1</ele>
        <time>2015-07-06T20:43:58.963Z</time>
      </trkpt>
      <trkpt lat="48.86829" lon="2.31008">
        <ele>90.4</ele>
        <time>2015-07-06T20:43:59.963Z</time>
      </trkpt>
      <trkpt lat="48.86824" lon="2.3101">
        <ele>89.9</ele>
        <time>2015-07-06T20:44:00.963Z</time>
      </trkpt>
      <trkpt lat="48.8682" lon="2.31012">
        <ele>89.3</ele>
        <time>2015-07-06T20:44:01.994Z</time>
      </trkpt>
      <trkpt lat="48.86814" lon="2.31013">
        <ele>89.1</ele>
        <time>2015-07-06T20:44:02.999Z</time>
      </trkpt>
      <trkpt lat="48.86808" lon="2.31014">
        <ele>88.6</ele>
        <time>2015-07-06T20:44:04.042Z</time>
      </trkpt>
      <trkpt lat="48.86803" lon="2.31015">
        <ele>88.3</ele>
        <time>2015-07-06T20:44:04.955Z</time>
      </trkpt>
      <trkpt lat="48.86798" lon="2.31016">
        <ele>88.1</ele>
        <time>2015-07-06T20:44:05.995Z</time>
      </trkpt>
      <trkpt lat="48.86792" lon="2.31016">
        <ele>88</ele>
        <time>2015-07-06T20:44:07.045Z</time>
      </trkpt>
      <trkpt lat="48.86786" lon="2.31015">
        <ele>87.9</ele>
        <time>2015-07-06T20:44:08.060Z</time>
      </trkpt>
      <trkpt lat="48.8678" lon="2.31015">
        <ele>87.7</ele>
        <time>2015-07-06T20:44:08.962Z</time>
      </trkpt>
      <trkpt lat="48.86775" lon="2.31014">
        <ele>87.7</ele>
        <time>2015-07-06T20:44:09.973Z</time>
      </trkpt>
      <trkpt lat="48.86768" lon="2.31014">
        <ele>87.4</ele>
        <time>2015-07-06T20:44:10.980Z</time>
      </trkpt>
      <trkpt lat="48.86762" lon="2.31015">
        <ele>87.3</ele>
        <time>2015-07-06T20:44:11.957Z</time>
      </trkpt>
      <trkpt lat="48.86757" lon="2.31015">
        <ele>87.2</ele>
        <time>2015-07-06T20:44:12.961Z</time>
      </trkpt>
      <trkpt lat="48.86751" lon="2.31014">
        <ele>87.5</ele>
        <time>2015-07-06T20:44:14.010Z</time>
      </trkpt>
      <trkpt lat="48.86745" lon="2.31014">
        <ele>87.7</ele>
        <time>2015-07-06T20:44:15.016Z</time>
      </trkpt>
      <trkpt lat="48.8674" lon="2.31012">
        <ele>87.8</ele>
        <time>2015-07-06T20:44:16.028Z</time>
      </trkpt>
      <trkpt lat="48.86734" lon="2.3101">
        <ele>87.4</ele>
        <time>2015-07-06T20:44:17.047Z</time>
      </trkpt>
      <trkpt lat="48.86728" lon="2.31008">
        <ele>87.2</ele>
        <time>2015-07-06T20:44:18.032Z</time>
      </trkpt>
      <trkpt lat="48.86723" lon="2.31007">
        <ele>86.9</ele>
        <time>2015-07-06T20:44:18.989Z</time>
      </trkpt>
      <trkpt lat="48.86718" lon="2.31006">
        <ele>86.6</ele>
        <time>2015-07-06T20:44:20.029Z</time>
      </trkpt>
      <trkpt lat="48.86713" lon="2.31005">
        <ele>86.5</ele>
        <time>2015-07-06T20:44:21.029Z</time>
      </trkpt>
      <trkpt lat="48.86707" lon="2.31004">
        <ele>86</ele>
        <time>2015-07-06T20:44:22.038Z</time>
      </trkpt>
      <trkpt lat="48.86702" lon="2.31003">
        <ele>85.8</ele>
        <time>2015-07-06T20:44:22.960Z</time>
      </trkpt>
      <trkpt lat="48.86697" lon="2.31002">
        <ele>85.5</ele>
        <time>2015-07-06T20:44:23.947Z</time>
      </trkpt>
      <trkpt lat="48.86691" lon="2.31003">
        <ele>85.3</ele>
        <time>2015-07-06T20:44:24.957Z</time>
      </trkpt>
      <trkpt lat="48.86686" lon="2.31005">
        <ele>85.3</ele>
        <time>2015-07-06T20:44:25.992Z</time>
      </trkpt>
      <trkpt lat="48.86681" lon="2.31011">
        <ele>85.5</ele>
        <time>2015-07-06T20:44:26.986Z</time>
      </trkpt>
      <trkpt lat="48.86677" lon="2.31016">
        <ele>85.4</ele>
        <time>2015-07-06T20:44:27.992Z</time>
      </trkpt>
      <trkpt lat="48.86672" lon="2.31021">
        <ele>85.8</ele>
        <time>2015-07-06T20:44:28.994Z</time>
      </trkpt>
      <trkpt lat="48.86667" lon="2.31022">
        <ele>85.9</ele>
        <time>2015-07-06T20:44:30.008Z</time>
      </trkpt>
      <trkpt lat="48.86663" lon="2.31022">
        <ele>86.2</ele>
        <time>2015-07-06T20:44:31.012Z</time>
      </trkpt>
      <trkpt lat="48.86658" lon="2.31024">
        <ele>86.8</ele>
        <time>2015-07-06T20:44:32.060Z</time>
      </trkpt>
      <trkpt lat="48.86652" lon="2.31026">
        <ele>87.5</ele>
        <time>2015-07-06T20:44:32.930Z</time>
      </trkpt>
      <trkpt lat="48.86647" lon="2.31028">
        <ele>88.4</ele>
        <time>2015-07-06T20:44:33.946Z</time>
      </trkpt>
      <trkpt lat="48.86642" lon="2.3103">
        <ele>89.3</ele>
        <time>2015-07-06T20:44:34.959Z</time>
      </trkpt>
      <trkpt lat="48.86638" lon="2.31032">
        <ele>90.1</ele>
        <time>2015-07-06T20:44:35.973Z</time>
      </trkpt>
      <trkpt lat="48.86633" lon="2.31034">
        <ele>90.9</ele>
        <time>2015-07-06T20:44:36.996Z</time>
      </trkpt>
      <trkpt lat="48.86628" lon="2.31036">
        <ele>91.5</ele>
        <time>2015-07-06T20:44:38.050Z</time>
      </trkpt>
      <trkpt lat="48.86622" lon="2.31037">
        <ele>92.1</ele>
        <time>2015-07-06T20:44:39.010Z</time>
      </trkpt>
      <trkpt lat="48.86617" lon="2.31038">
        <ele>92.9</ele>
        <time>2015-07-06T20:44:40.021Z</time>
      </trkpt>
      <trkpt lat="48.86612" lon="2.31038">
        <ele>93.3</ele>
        <time>2015-07-06T20:44:40.968Z</time>
      </trkpt>
      <trkpt lat="48.86606" lon="2.31038">
        <ele>93.8</ele>
        <time>2015-07-06T20:44:41.955Z</time>
      </trkpt>
      <trkpt lat="48.86601" lon="2.31039">
        <ele>94.4</ele>
        <time>2015-07-06T20:44:42.974Z</time>
      </trkpt>
      <trkpt lat="48.86596" lon="2.3104">
        <ele>94.9</ele>
        <time>2015-07-06T20:44:44.022Z</time>
      </trkpt>
      <trkpt lat="48.86591" lon="2.3104">
        <ele>95.5</ele>
        <time>2015-07-06T20:44:45.103Z</time>
      </trkpt>
      <trkpt lat="48.86587" lon="2.31039">
        <ele>96.1</ele>
        <time>2015-07-06T20:44:45.961Z</time>
      </trkpt>
      <trkpt lat="48.86582" lon="2.31038">
        <ele>96.6</ele>
        <time>2015-07-06T20:44:46.957Z</time>
      </trkpt>
      <trkpt lat="48.86578" lon="2.31038">
        <ele>96.8</ele>
        <time>2015-07-06T20:44:47.959Z</time>
      </trkpt>
      <trkpt lat="48.86573" lon="2.31037">
        <ele>97</ele>
        <time>2015-07-06T20:44:48.966Z</time>
      </trkpt>
      <trkpt lat="48.86568" lon="2.31037">
        <ele>97</ele>
        <time>2015-07-06T20:44:50.010Z</time>
      </trkpt>
      <trkpt lat="48.86564" lon="2.31036">
        <ele>97.1</ele>
        <time>2015-07-06T20:44:51.017Z</time>
      </trkpt>
      <trkpt lat="48.86559" lon="2.31035">
        <ele>97.3</ele>
        <time>2015-07-06T20:44:52.028Z</time>
      </trkpt>
      <trkpt lat="48.86554" lon="2.31035">
        <ele>97.6</ele>
        <time>2015-07-06T20:44:53.039Z</time>
      </trkpt>
      <trkpt lat="48.8655" lon="2.31036">
        <ele>97.7</ele>
        <time>2015-07-06T20:44:53.959Z</time>
      </trkpt>
      <trkpt lat="48.86545" lon="2.31036">
        <ele>97.4</ele>
        <time>2015-07-06T20:44:54.960Z</time>
      </trkpt>
      <trkpt lat="48.8654" lon="2.31036">
        <ele>97.4</ele>
        <time>2015-07-06T20:44:56.010Z</time>
      </trkpt>
      <trkpt lat="48.86535" lon="2.31036">
        <ele>97.1</ele>
        <time>2015-07-06T20:44:57.013Z</time>
      </trkpt>
      <trkpt lat="48.8653" lon="2.31037">
        <ele>97.2</ele>
        <time>2015-07-06T20:44:58.025Z</time>
      </trkpt>
      <trkpt lat="48.86526" lon="2.31038">
        <ele>97</ele>
        <time>2015-07-06T20:44:59.032Z</time>
      </trkpt>
      <trkpt lat="48.86517" lon="2.31041">
        <ele>96.4</ele>
        <time>2015-07-06T20:45:00.961Z</time>
      </trkpt>
      <trkpt lat="48.86514" lon="2.31042">
        <ele>95.9</ele>
        <time>2015-07-06T20:45:02.036Z</time>
      </trkpt>
      <trkpt lat="48.86508" lon="2.31045">
        <ele>95.5</ele>
        <time>2015-07-06T20:45:03.957Z</time>
      </trkpt>
      <trkpt lat="48.86505" lon="2.31045">
        <ele>95.2</ele>
        <time>2015-07-06T20:45:04.982Z</time>
      </trkpt>
      <trkpt lat="48.86497" lon="2.31048">
        <ele>94.3</ele>
        <time>2015-07-06T20:45:08.037Z</time>
      </trkpt>
      <trkpt lat="48.86495" lon="2.31049">
        <ele>93.2</ele>
        <time>2015-07-06T20:45:09.053Z</time>
      </trkpt>
      <trkpt lat="48.86487" lon="2.31053">
        <ele>92</ele>
        <time>2015-07-06T20:45:11.986Z</time>
      </trkpt>
      <trkpt lat="48.86485" lon="2.31052">
        <ele>91.5</ele>
        <time>2015-07-06T20:45:13.068Z</time>
      </trkpt>
      <trkpt lat="48.86478" lon="2.31052">
        <ele>91.3</ele>
        <time>2015-07-06T20:45:17.048Z</time>
      </trkpt>
      <trkpt lat="48.86476" lon="2.31052">
        <ele>91.8</ele>
        <time>2015-07-06T20:45:18.055Z</time>
      </trkpt>
      <trkpt lat="48.86468" lon="2.31051">
        <ele>90.8</ele>
        <time>2015-07-06T20:45:23.001Z</time>
      </trkpt>
      <trkpt lat="48.86467" lon="2.31051">
        <ele>90.4</ele>
        <time>2015-07-06T20:45:24.059Z</time>
      </trkpt>
      <trkpt lat="48.86459" lon="2.31055">
        <ele>87.6</ele>
        <time>2015-07-06T20:45:31.008Z</time>
      </trkpt>
      <trkpt lat="48.86458" lon="2.31057">
        <ele>87.1</ele>
        <time>2015-07-06T20:45:32.041Z</time>
      </trkpt>
      <trkpt lat="48.86453" lon="2.31068">
        <ele>84.6</ele>
        <time>2015-07-06T20:45:37.009Z</time>
      </trkpt>
      <trkpt lat="48.86453" lon="2.31071">
        <ele>84.1</ele>
        <time>2015-07-06T20:45:38.031Z</time>
      </trkpt>
      <trkpt lat="48.86456" lon="2.31083">
        <ele>82.2</ele>
        <time>2015-07-06T20:45:42.043Z</time>
      </trkpt>
      <trkpt lat="48.86456" lon="2.31089">
        <ele>81.7</ele>
        <time>2015-07-06T20:45:42.989Z</time>
      </trkpt>
      <trkpt lat="48.86457" lon="2.311">
        <ele>81.6</ele>
        <time>2015-07-06T20:45:44.997Z</time>
      </trkpt>
      <trkpt lat="48.86457" lon="2.31106">
        <ele>81.7</ele>
        <time>2015-07-06T20:45:46.042Z</time>
      </trkpt>
      <trkpt lat="48.86457" lon="2.31113">
        <ele>81.6</ele>
        <time>2015-07-06T20:45:46.964Z</time>
      </trkpt>
      <trkpt lat="48.86457" lon="2.31121">
        <ele>81.5</ele>
        <time>2015-07-06T20:45:47.960Z</time>
      </trkpt>
      <trkpt lat="48.86456" lon="2.31129">
        <ele>81.3</ele>
        <time>2015-07-06T20:45:48.965Z</time>
      </trkpt>
      <trkpt lat="48.86455" lon="2.31135">
        <ele>81.3</ele>
        <time>2015-07-06T20:45:50.005Z</time>
      </trkpt>
      <trkpt lat="48.86456" lon="2.31144">
        <ele>81.3</ele>
        <time>2015-07-06T20:45:51.990Z</time>
      </trkpt>
      <trkpt lat="48.86457" lon="2.31149">
        <ele>81.2</ele>
        <time>2015-07-06T20:45:53.010Z</time>
      </trkpt>
      <trkpt lat="48.86459" lon="2.31161">
        <ele>81.1</ele>
        <time>2015-07-06T20:45:55.040Z</time>
      </trkpt>
      <trkpt lat="48.86459" lon="2.31168">
        <ele>81.2</ele>
        <time>2015-07-06T20:45:56.081Z</time>
      </trkpt>
      <trkpt lat="48.86459" lon="2.31176">
        <ele>81.2</ele>
        <time>2015-07-06T20:45:56.961Z</time>
      </trkpt>
      <trkpt lat="48.86458" lon="2.31185">
        <ele>81.2</ele>
        <time>2015-07-06T20:45:57.991Z</time>
      </trkpt>
      <trkpt lat="48.86457" lon="2.31194">
        <ele>81.1</ele>
        <time>2015-07-06T20:45:59.007Z</time>
      </trkpt>
      <trkpt lat="48.86455" lon="2.31204">
        <ele>81</ele>
        <time>2015-07-06T20:46:00.022Z</time>
      </trkpt>
      <trkpt lat="48.86454" lon="2.31213">
        <ele>81</ele>
        <time>2015-07-06T20:46:01.031Z</time>
      </trkpt>
      <trkpt lat="48.86453" lon="2.31223">
        <ele>80.9</ele>
        <time>2015-07-06T20:46:02.039Z</time>
      </trkpt>
      <trkpt lat="48.86452" lon="2.31232">
        <ele>80.9</ele>
        <time>2015-07-06T20:46:02.953Z</time>
      </trkpt>
      <trkpt lat="48.86452" lon="2.3124">
        <ele>80.7</ele>
        <time>2015-07-06T20:46:03.974Z</time>
      </trkpt>
      <trkpt lat="48.86451" lon="2.31249">
        <ele>80.5</ele>
        <time>2015-07-06T20:46:04.980Z</time>
      </trkpt>
      <trkpt lat="48.8645" lon="2.31257">
        <ele>80.4</ele>
        <time>2015-07-06T20:46:05.984Z</time>
      </trkpt>
      <trkpt lat="48.86449" lon="2.3127">
        <ele>80.1</ele>
        <time>2015-07-06T20:46:08.009Z</time>
      </trkpt>
      <trkpt lat="48.8645" lon="2.31276">
        <ele>80.2</ele>
        <time>2015-07-06T20:46:09.025Z</time>
      </trkpt>
      <trkpt lat="48.86452" lon="2.31283">
        <ele>80.6</ele>
        <time>2015-07-06T20:46:09.966Z</time>
      </trkpt>
      <trkpt lat="48.86453" lon="2.31294">
        <ele>80.8</ele>
        <time>2015-07-06T20:46:10.967Z</time>
      </trkpt>
      <trkpt lat="48.86455" lon="2.31301">
        <ele>80.8</ele>
        <time>2015-07-06T20:46:11.976Z</time>
      </trkpt>
      <trkpt lat="48.86455" lon="2.31308">
        <ele>81</ele>
        <time>2015-07-06T20:46:12.977Z</time>
      </trkpt>
      <trkpt lat="48.86455" lon="2.31318">
        <ele>80.9</ele>
        <time>2015-07-06T20:46:14.027Z</time>
      </trkpt>
      <trkpt lat="48.86455" lon="2.31325">
        <ele>81.1</ele>
        <time>2015-07-06T20:46:15.027Z</time>
      </trkpt>
      <trkpt lat="48.86457" lon="2.31338">
        <ele>81.8</ele>
        <time>2015-07-06T20:46:17.941Z</time>
      </trkpt>
      <trkpt lat="48.86458" lon="2.31339">
        <ele>81.6</ele>
        <time>2015-07-06T20:46:19.001Z</time>
      </trkpt>
      <trkpt lat="48.86457" lon="2.31343">
        <ele>80.6</ele>
        <time>2015-07-06T20:46:46.001Z</time>
      </trkpt>
      <trkpt lat="48.86456" lon="2.31355">
        <ele>82.2</ele>
        <time>2015-07-06T20:46:47.027Z</time>
      </trkpt>
      <trkpt lat="48.86458" lon="2.31366">
        <ele>81.5</ele>
        <time>2015-07-06T20:46:50.048Z</time>
      </trkpt>
      <trkpt lat="48.86458" lon="2.3137">
        <ele>81.6</ele>
        <time>2015-07-06T20:46:50.987Z</time>
      </trkpt>
      <trkpt lat="48.86458" lon="2.3138">
        <ele>81.8</ele>
        <time>2015-07-06T20:46:54.036Z</time>
      </trkpt>
      <trkpt lat="48.86458" lon="2.31384">
        <ele>81.9</ele>
        <time>2015-07-06T20:46:55.052Z</time>
      </trkpt>
      <trkpt lat="48.86459" lon="2.31392">
        <ele>81.4</ele>
        <time>2015-07-06T20:46:56.964Z</time>
      </trkpt>
      <trkpt lat="48.8646" lon="2.31397">
        <ele>81.1</ele>
        <time>2015-07-06T20:46:57.986Z</time>
      </trkpt>
      <trkpt lat="48.86462" lon="2.31409">
        <ele>81.1</ele>
        <time>2015-07-06T20:47:00.018Z</time>
      </trkpt>
      <trkpt lat="48.86463" lon="2.31415">
        <ele>81.2</ele>
        <time>2015-07-06T20:47:00.937Z</time>
      </trkpt>
      <trkpt lat="48.86464" lon="2.31428">
        <ele>81.1</ele>
        <time>2015-07-06T20:47:02.963Z</time>
      </trkpt>
      <trkpt lat="48.86464" lon="2.31434">
        <ele>80.9</ele>
        <time>2015-07-06T20:47:03.990Z</time>
      </trkpt>
      <trkpt lat="48.86466" lon="2.31446">
        <ele>81.2</ele>
        <time>2015-07-06T20:47:05.932Z</time>
      </trkpt>
      <trkpt lat="48.86466" lon="2.31453">
        <ele>81.2</ele>
        <time>2015-07-06T20:47:07.003Z</time>
      </trkpt>
      <trkpt lat="48.86467" lon="2.31459">
        <ele>81.1</ele>
        <time>2015-07-06T20:47:08.043Z</time>
      </trkpt>
      <trkpt lat="48.86466" lon="2.31467">
        <ele>81.2</ele>
        <time>2015-07-06T20:47:09.052Z</time>
      </trkpt>
      <trkpt lat="48.86466" lon="2.3148">
        <ele>81.7</ele>
        <time>2015-07-06T20:47:10.971Z</time>
      </trkpt>
      <trkpt lat="48.86466" lon="2.31488">
        <ele>81.7</ele>
        <time>2015-07-06T20:47:12.014Z</time>
      </trkpt>
      <trkpt lat="48.86466" lon="2.31496">
        <ele>81.5</ele>
        <time>2015-07-06T20:47:13.046Z</time>
      </trkpt>
      <trkpt lat="48.86466" lon="2.31503">
        <ele>81.6</ele>
        <time>2015-07-06T20:47:14.051Z</time>
      </trkpt>
      <trkpt lat="48.86466" lon="2.31511">
        <ele>81.9</ele>
        <time>2015-07-06T20:47:14.977Z</time>
      </trkpt>
      <trkpt lat="48.86467" lon="2.31519">
        <ele>82.3</ele>
        <time>2015-07-06T20:47:15.985Z</time>
      </trkpt>
      <trkpt lat="48.86468" lon="2.31527">
        <ele>82.4</ele>
        <time>2015-07-06T20:47:17.006Z</time>
      </trkpt>
      <trkpt lat="48.86468" lon="2.31534">
        <ele>82.4</ele>
        <time>2015-07-06T20:47:18.120Z</time>
      </trkpt>
      <trkpt lat="48.86469" lon="2.31543">
        <ele>82.4</ele>
        <time>2015-07-06T20:47:18.975Z</time>
      </trkpt>
      <trkpt lat="48.86469" lon="2.31551">
        <ele>82.4</ele>
        <time>2015-07-06T20:47:20.026Z</time>
      </trkpt>
      <trkpt lat="48.8647" lon="2.31558">
        <ele>82.6</ele>
        <time>2015-07-06T20:47:21.026Z</time>
      </trkpt>
      <trkpt lat="48.86471" lon="2.31566">
        <ele>82.7</ele>
        <time>2015-07-06T20:47:22.032Z</time>
      </trkpt>
      <trkpt lat="48.86471" lon="2.31574">
        <ele>82.7</ele>
        <time>2015-07-06T20:47:22.973Z</time>
      </trkpt>
      <trkpt lat="48.8647" lon="2.31584">
        <ele>82.7</ele>
        <time>2015-07-06T20:47:24.056Z</time>
      </trkpt>
      <trkpt lat="48.86469" lon="2.31595">
        <ele>82.8</ele>
        <time>2015-07-06T20:47:24.971Z</time>
      </trkpt>
      <trkpt lat="48.86467" lon="2.31607">
        <ele>83</ele>
        <time>2015-07-06T20:47:26.034Z</time>
      </trkpt>
      <trkpt lat="48.86465" lon="2.31618">
        <ele>83.3</ele>
        <time>2015-07-06T20:47:27.020Z</time>
      </trkpt>
      <trkpt lat="48.86464" lon="2.31628">
        <ele>83.2</ele>
        <time>2015-07-06T20:47:28.041Z</time>
      </trkpt>
      <trkpt lat="48.86464" lon="2.31638">
        <ele>83.2</ele>
        <time>2015-07-06T20:47:28.965Z</time>
      </trkpt>
      <trkpt lat="48.86465" lon="2.31648">
        <ele>83.1</ele>
        <time>2015-07-06T20:47:30.066Z</time>
      </trkpt>
      <trkpt lat="48.86464" lon="2.31657">
        <ele>83.1</ele>
        <time>2015-07-06T20:47:31.045Z</time>
      </trkpt>
      <trkpt lat="48.86465" lon="2.31665">
        <ele>83.1</ele>
        <time>2015-07-06T20:47:32.049Z</time>
      </trkpt>
      <trkpt lat="48.86465" lon="2.31674">
        <ele>83.1</ele>
        <time>2015-07-06T20:47:32.963Z</time>
      </trkpt>
      <trkpt lat="48.86465" lon="2.31682">
        <ele>83</ele>
        <time>2015-07-06T20:47:33.967Z</time>
      </trkpt>
      <trkpt lat="48.86465" lon="2.31689">
        <ele>83.2</ele>
        <time>2015-07-06T20:47:34.992Z</time>
      </trkpt>
      <trkpt lat="48.86466" lon="2.31698">
        <ele>83.2</ele>
        <time>2015-07-06T20:47:36.018Z</time>
      </trkpt>
      <trkpt lat="48.86468" lon="2.31706">
        <ele>82.9</ele>
        <time>2015-07-06T20:47:36.977Z</time>
      </trkpt>
      <trkpt lat="48.86469" lon="2.31713">
        <ele>82.8</ele>
        <time>2015-07-06T20:47:38.018Z</time>
      </trkpt>
      <trkpt lat="48.86471" lon="2.31721">
        <ele>82.9</ele>
        <time>2015-07-06T20:47:39.011Z</time>
      </trkpt>
      <trkpt lat="48.86471" lon="2.3173">
        <ele>83</ele>
        <time>2015-07-06T20:47:40.025Z</time>
      </trkpt>
      <trkpt lat="48.8647" lon="2.31741">
        <ele>83.2</ele>
        <time>2015-07-06T20:47:41.047Z</time>
      </trkpt>
      <trkpt lat="48.86471" lon="2.31749">
        <ele>82.9</ele>
        <time>2015-07-06T20:47:41.973Z</time>
      </trkpt>
      <trkpt lat="48.86471" lon="2.31758">
        <ele>82.6</ele>
        <time>2015-07-06T20:47:42.966Z</time>
      </trkpt>
      <trkpt lat="48.86471" lon="2.31766">
        <ele>82.5</ele>
        <time>2015-07-06T20:47:44.046Z</time>
      </trkpt>
      <trkpt lat="48.86471" lon="2.31774">
        <ele>82.4</ele>
        <time>2015-07-06T20:47:44.968Z</time>
      </trkpt>
      <trkpt lat="48.86471" lon="2.31781">
        <ele>82.4</ele>
        <time>2015-07-06T20:47:45.973Z</time>
      </trkpt>
      <trkpt lat="48.86471" lon="2.31789">
        <ele>82.2</ele>
        <time>2015-07-06T20:47:46.988Z</time>
      </trkpt>
      <trkpt lat="48.86472" lon="2.31798">
        <ele>80.9</ele>
        <time>2015-07-06T20:47:47.992Z</time>
      </trkpt>
      <trkpt lat="48.86472" lon="2.31807">
        <ele>80.8</ele>
        <time>2015-07-06T20:47:49.001Z</time>
      </trkpt>
      <trkpt lat="48.86471" lon="2.31815">
        <ele>81</ele>
        <time>2015-07-06T20:47:50.018Z</time>
      </trkpt>
      <trkpt lat="48.8647" lon="2.31823">
        <ele>80.9</ele>
        <time>2015-07-06T20:47:51.027Z</time>
      </trkpt>
      <trkpt lat="48.86468" lon="2.31831">
        <ele>80.8</ele>
        <time>2015-07-06T20:47:52.041Z</time>
      </trkpt>
      <trkpt lat="48.86464" lon="2.31839">
        <ele>80.2</ele>
        <time>2015-07-06T20:47:53.038Z</time>
      </trkpt>
      <trkpt lat="48.86461" lon="2.31846">
        <ele>79.1</ele>
        <time>2015-07-06T20:47:54.046Z</time>
      </trkpt>
      <trkpt lat="48.86456" lon="2.31854">
        <ele>79.3</ele>
        <time>2015-07-06T20:47:54.965Z</time>
      </trkpt>
      <trkpt lat="48.86451" lon="2.31859">
        <ele>78.9</ele>
        <time>2015-07-06T20:47:56.018Z</time>
      </trkpt>
      <trkpt lat="48.86446" lon="2.31869">
        <ele>78.8</ele>
        <time>2015-07-06T20:47:58.010Z</time>
      </trkpt>
      <trkpt lat="48.86444" lon="2.31873">
        <ele>78.9</ele>
        <time>2015-07-06T20:47:59.020Z</time>
      </trkpt>
      <trkpt lat="48.86442" lon="2.31881">
        <ele>78.8</ele>
        <time>2015-07-06T20:48:00.967Z</time>
      </trkpt>
      <trkpt lat="48.86441" lon="2.31886">
        <ele>78.7</ele>
        <time>2015-07-06T20:48:02.105Z</time>
      </trkpt>
      <trkpt lat="48.86438" lon="2.31897">
        <ele>78.8</ele>
        <time>2015-07-06T20:48:03.981Z</time>
      </trkpt>
      <trkpt lat="48.86436" lon="2.31904">
        <ele>78.8</ele>
        <time>2015-07-06T20:48:04.989Z</time>
      </trkpt>
      <trkpt lat="48.86434" lon="2.31911">
        <ele>78.9</ele>
        <time>2015-07-06T20:48:06.030Z</time>
      </trkpt>
      <trkpt lat="48.86432" lon="2.31918">
        <ele>78.8</ele>
        <time>2015-07-06T20:48:07.038Z</time>
      </trkpt>
      <trkpt lat="48.8643" lon="2.31925">
        <ele>79.3</ele>
        <time>2015-07-06T20:48:08.042Z</time>
      </trkpt>
      <trkpt lat="48.86428" lon="2.31931">
        <ele>79.6</ele>
        <time>2015-07-06T20:48:08.967Z</time>
      </trkpt>
      <trkpt lat="48.86424" lon="2.31941">
        <ele>80.2</ele>
        <time>2015-07-06T20:48:10.970Z</time>
      </trkpt>
      <trkpt lat="48.86422" lon="2.31947">
        <ele>80.2</ele>
        <time>2015-07-06T20:48:12.002Z</time>
      </trkpt>
      <trkpt lat="48.86419" lon="2.31957">
        <ele>79.9</ele>
        <time>2015-07-06T20:48:14.039Z</time>
      </trkpt>
      <trkpt lat="48.86418" lon="2.3196">
        <ele>80.2</ele>
        <time>2015-07-06T20:48:14.992Z</time>
      </trkpt>
      <trkpt lat="48.86415" lon="2.31969">
        <ele>80.4</ele>
        <time>2015-07-06T20:48:16.971Z</time>
      </trkpt>
      <trkpt lat="48.86414" lon="2.31973">
        <ele>80.5</ele>
        <time>2015-07-06T20:48:17.998Z</time>
      </trkpt>
      <trkpt lat="48.86411" lon="2.31986">
        <ele>81.4</ele>
        <time>2015-07-06T20:49:15.043Z</time>
      </trkpt>
      <trkpt lat="48.86406" lon="2.32008">
        <ele>83.3</ele>
        <time>2015-07-06T20:49:15.998Z</time>
      </trkpt>
      <trkpt lat="48.86402" lon="2.32019">
        <ele>82.8</ele>
        <time>2015-07-06T20:49:21.033Z</time>
      </trkpt>
      <trkpt lat="48.86402" lon="2.32022">
        <ele>82.8</ele>
        <time>2015-07-06T20:49:22.048Z</time>
      </trkpt>
      <trkpt lat="48.86399" lon="2.32033">
        <ele>82.2</ele>
        <time>2015-07-06T20:49:26.022Z</time>
      </trkpt>
      <trkpt lat="48.86398" lon="2.32037">
        <ele>82.1</ele>
        <time>2015-07-06T20:49:27.012Z</time>
      </trkpt>
      <trkpt lat="48.86395" lon="2.32046">
        <ele>82.2</ele>
        <time>2015-07-06T20:49:29.036Z</time>
      </trkpt>
      <trkpt lat="48.86394" lon="2.3205">
        <ele>81.9</ele>
        <time>2015-07-06T20:49:30.045Z</time>
      </trkpt>
      <trkpt lat="48.86391" lon="2.32061">
        <ele>82.7</ele>
        <time>2015-07-06T20:49:32.134Z</time>
      </trkpt>
      <trkpt lat="48.8639" lon="2.32066">
        <ele>83</ele>
        <time>2015-07-06T20:49:32.999Z</time>
      </trkpt>
      <trkpt lat="48.86387" lon="2.32077">
        <ele>82.8</ele>
        <time>2015-07-06T20:49:35.022Z</time>
      </trkpt>
      <trkpt lat="48.86385" lon="2.32082">
        <ele>82.6</ele>
        <time>2015-07-06T20:49:36.028Z</time>
      </trkpt>
      <trkpt lat="48.8638" lon="2.32092">
        <ele>82.5</ele>
        <time>2015-07-06T20:49:38.073Z</time>
      </trkpt>
      <trkpt lat="48.86379" lon="2.32097">
        <ele>82.4</ele>
        <time>2015-07-06T20:49:38.976Z</time>
      </trkpt>
      <trkpt lat="48.86375" lon="2.32108">
        <ele>82.5</ele>
        <time>2015-07-06T20:49:41.372Z</time>
      </trkpt>
      <trkpt lat="48.86373" lon="2.32114">
        <ele>82.4</ele>
        <time>2015-07-06T20:49:42.058Z</time>
      </trkpt>
      <trkpt lat="48.8637" lon="2.32126">
        <ele>82.4</ele>
        <time>2015-07-06T20:49:44.099Z</time>
      </trkpt>
      <trkpt lat="48.86368" lon="2.32133">
        <ele>82.2</ele>
        <time>2015-07-06T20:49:45.017Z</time>
      </trkpt>
      <trkpt lat="48.86366" lon="2.3214">
        <ele>82.5</ele>
        <time>2015-07-06T20:49:46.413Z</time>
      </trkpt>
      <trkpt lat="48.86364" lon="2.32147">
        <ele>82.6</ele>
        <time>2015-07-06T20:49:47.035Z</time>
      </trkpt>
      <trkpt lat="48.86362" lon="2.32155">
        <ele>82.5</ele>
        <time>2015-07-06T20:49:47.969Z</time>
      </trkpt>
      <trkpt lat="48.8636" lon="2.32163">
        <ele>82.9</ele>
        <time>2015-07-06T20:49:49.011Z</time>
      </trkpt>
      <trkpt lat="48.86358" lon="2.32172">
        <ele>82.8</ele>
        <time>2015-07-06T20:49:50.214Z</time>
      </trkpt>
      <trkpt lat="48.86355" lon="2.3218">
        <ele>83.3</ele>
        <time>2015-07-06T20:49:50.994Z</time>
      </trkpt>
      <trkpt lat="48.86352" lon="2.32189">
        <ele>83.7</ele>
        <time>2015-07-06T20:49:51.966Z</time>
      </trkpt>
      <trkpt lat="48.86349" lon="2.322">
        <ele>84.3</ele>
        <time>2015-07-06T20:49:53.002Z</time>
      </trkpt>
      <trkpt lat="48.86346" lon="2.3221">
        <ele>84.7</ele>
        <time>2015-07-06T20:49:53.987Z</time>
      </trkpt>
      <trkpt lat="48.86343" lon="2.32221">
        <ele>84.9</ele>
        <time>2015-07-06T20:49:54.989Z</time>
      </trkpt>
      <trkpt lat="48.86339" lon="2.32233">
        <ele>85.1</ele>
        <time>2015-07-06T20:49:55.987Z</time>
      </trkpt>
      <trkpt lat="48.86335" lon="2.32244">
        <ele>85</ele>
        <time>2015-07-06T20:49:56.993Z</time>
      </trkpt>
      <trkpt lat="48.86331" lon="2.32256">
        <ele>84.7</ele>
        <time>2015-07-06T20:49:57.999Z</time>
      </trkpt>
      <trkpt lat="48.86327" lon="2.32268">
        <ele>84.5</ele>
        <time>2015-07-06T20:49:59.011Z</time>
      </trkpt>
      <trkpt lat="48.86323" lon="2.3228">
        <ele>84.5</ele>
        <time>2015-07-06T20:50:00.028Z</time>
      </trkpt>
      <trkpt lat="48.86319" lon="2.32293">
        <ele>84.4</ele>
        <time>2015-07-06T20:50:00.943Z</time>
      </trkpt>
      <trkpt lat="48.86315" lon="2.32305">
        <ele>83.9</ele>
        <time>2015-07-06T20:50:01.987Z</time>
      </trkpt>
      <trkpt lat="48.86311" lon="2.32316">
        <ele>84</ele>
        <time>2015-07-06T20:50:02.999Z</time>
      </trkpt>
      <trkpt lat="48.86307" lon="2.32328">
        <ele>83.9</ele>
        <time>2015-07-06T20:50:04.024Z</time>
      </trkpt>
      <trkpt lat="48.86304" lon="2.3234">
        <ele>84.2</ele>
        <time>2015-07-06T20:50:04.967Z</time>
      </trkpt>
      <trkpt lat="48.863" lon="2.32352">
        <ele>84.2</ele>
        <time>2015-07-06T20:50:05.987Z</time>
      </trkpt>
      <trkpt lat="48.86296" lon="2.32363">
        <ele>84</ele>
        <time>2015-07-06T20:50:06.994Z</time>
      </trkpt>
      <trkpt lat="48.86292" lon="2.32374">
        <ele>84</ele>
        <time>2015-07-06T20:50:08.011Z</time>
      </trkpt>
      <trkpt lat="48.86289" lon="2.32386">
        <ele>84.3</ele>
        <time>2015-07-06T20:50:09.016Z</time>
      </trkpt>
      <trkpt lat="48.86285" lon="2.32397">
        <ele>84.3</ele>
        <time>2015-07-06T20:50:10.026Z</time>
      </trkpt>
      <trkpt lat="48.86282" lon="2.32409">
        <ele>84.4</ele>
        <time>2015-07-06T20:50:11.054Z</time>
      </trkpt>
      <trkpt lat="48.86278" lon="2.32421">
        <ele>84.5</ele>
        <time>2015-07-06T20:50:11.964Z</time>
      </trkpt>
      <trkpt lat="48.86275" lon="2.32432">
        <ele>84.9</ele>
        <time>2015-07-06T20:50:12.964Z</time>
      </trkpt>
      <trkpt lat="48.86271" lon="2.32443">
        <ele>85</ele>
        <time>2015-07-06T20:50:13.988Z</time>
      </trkpt>
      <trkpt lat="48.86268" lon="2.32454">
        <ele>85.2</ele>
        <time>2015-07-06T20:50:15.006Z</time>
      </trkpt>
      <trkpt lat="48.86264" lon="2.32466">
        <ele>84.8</ele>
        <time>2015-07-06T20:50:16.010Z</time>
      </trkpt>
      <trkpt lat="48.8626" lon="2.32478">
        <ele>84.5</ele>
        <time>2015-07-06T20:50:17.025Z</time>
      </trkpt>
      <trkpt lat="48.86256" lon="2.3249">
        <ele>84.1</ele>
        <time>2015-07-06T20:50:18.027Z</time>
      </trkpt>
      <trkpt lat="48.86251" lon="2.32501">
        <ele>83.7</ele>
        <time>2015-07-06T20:50:19.049Z</time>
      </trkpt>
      <trkpt lat="48.86248" lon="2.32512">
        <ele>83.6</ele>
        <time>2015-07-06T20:50:20.059Z</time>
      </trkpt>
      <trkpt lat="48.86244" lon="2.32522">
        <ele>83.2</ele>
        <time>2015-07-06T20:50:20.994Z</time>
      </trkpt>
      <trkpt lat="48.8624" lon="2.32533">
        <ele>83.6</ele>
        <time>2015-07-06T20:50:22.008Z</time>
      </trkpt>
      <trkpt lat="48.86237" lon="2.32544">
        <ele>83.4</ele>
        <time>2015-07-06T20:50:23.018Z</time>
      </trkpt>
      <trkpt lat="48.86234" lon="2.32554">
        <ele>83.3</ele>
        <time>2015-07-06T20:50:24.033Z</time>
      </trkpt>
      <trkpt lat="48.8623" lon="2.32565">
        <ele>83.3</ele>
        <time>2015-07-06T20:50:25.037Z</time>
      </trkpt>
      <trkpt lat="48.86227" lon="2.32575">
        <ele>83.6</ele>
        <time>2015-07-06T20:50:26.049Z</time>
      </trkpt>
      <trkpt lat="48.86224" lon="2.32586">
        <ele>83.4</ele>
        <time>2015-07-06T20:50:26.961Z</time>
      </trkpt>
      <trkpt lat="48.86221" lon="2.32596">
        <ele>83.5</ele>
        <time>2015-07-06T20:50:27.956Z</time>
      </trkpt>
      <trkpt lat="48.86218" lon="2.32607">
        <ele>83.9</ele>
        <time>2015-07-06T20:50:28.969Z</time>
      </trkpt>
      <trkpt lat="48.86215" lon="2.32618">
        <ele>83.9</ele>
        <time>2015-07-06T20:50:29.983Z</time>
      </trkpt>
      <trkpt lat="48.86212" lon="2.3263">
        <ele>84</ele>
        <time>2015-07-06T20:50:30.991Z</time>
      </trkpt>
      <trkpt lat="48.86208" lon="2.3264">
        <ele>84.4</ele>
        <time>2015-07-06T20:50:32.018Z</time>
      </trkpt>
      <trkpt lat="48.86205" lon="2.3265">
        <ele>84.9</ele>
        <time>2015-07-06T20:50:33.018Z</time>
      </trkpt>
      <trkpt lat="48.86201" lon="2.3266">
        <ele>85.1</ele>
        <time>2015-07-06T20:50:34.022Z</time>
      </trkpt>
      <trkpt lat="48.86198" lon="2.3267">
        <ele>84.9</ele>
        <time>2015-07-06T20:50:35.118Z</time>
      </trkpt>
      <trkpt lat="48.86194" lon="2.3268">
        <ele>84.4</ele>
        <time>2015-07-06T20:50:35.930Z</time>
      </trkpt>
      <trkpt lat="48.86191" lon="2.32691">
        <ele>84.6</ele>
        <time>2015-07-06T20:50:36.959Z</time>
      </trkpt>
      <trkpt lat="48.86187" lon="2.327">
        <ele>84.8</ele>
        <time>2015-07-06T20:50:38.013Z</time>
      </trkpt>
      <trkpt lat="48.86184" lon="2.3271">
        <ele>85</ele>
        <time>2015-07-06T20:50:39.025Z</time>
      </trkpt>
      <trkpt lat="48.86181" lon="2.3272">
        <ele>84.6</ele>
        <time>2015-07-06T20:50:40.033Z</time>
      </trkpt>
      <trkpt lat="48.86178" lon="2.3273">
        <ele>84.2</ele>
        <time>2015-07-06T20:50:40.951Z</time>
      </trkpt>
      <trkpt lat="48.86174" lon="2.3274">
        <ele>84.1</ele>
        <time>2015-07-06T20:50:41.952Z</time>
      </trkpt>
      <trkpt lat="48.86171" lon="2.3275">
        <ele>83.9</ele>
        <time>2015-07-06T20:50:42.996Z</time>
      </trkpt>
      <trkpt lat="48.86167" lon="2.3276">
        <ele>83.7</ele>
        <time>2015-07-06T20:50:43.983Z</time>
      </trkpt>
      <trkpt lat="48.86164" lon="2.3277">
        <ele>83.5</ele>
        <time>2015-07-06T20:50:44.999Z</time>
      </trkpt>
      <trkpt lat="48.8616" lon="2.3278">
        <ele>83.3</ele>
        <time>2015-07-06T20:50:46.023Z</time>
      </trkpt>
      <trkpt lat="48.86157" lon="2.3279">
        <ele>83.4</ele>
        <time>2015-07-06T20:50:47.034Z</time>
      </trkpt>
      <trkpt lat="48.86154" lon="2.328">
        <ele>83.4</ele>
        <time>2015-07-06T20:50:47.963Z</time>
      </trkpt>
      <trkpt lat="48.86151" lon="2.32809">
        <ele>83.3</ele>
        <time>2015-07-06T20:50:48.967Z</time>
      </trkpt>
      <trkpt lat="48.86148" lon="2.32819">
        <ele>83.2</ele>
        <time>2015-07-06T20:50:50.069Z</time>
      </trkpt>
      <trkpt lat="48.86144" lon="2.32828">
        <ele>83.2</ele>
        <time>2015-07-06T20:50:50.935Z</time>
      </trkpt>
      <trkpt lat="48.8614" lon="2.32838">
        <ele>83.1</ele>
        <time>2015-07-06T20:50:51.961Z</time>
      </trkpt>
      <trkpt lat="48.86137" lon="2.32848">
        <ele>83.3</ele>
        <time>2015-07-06T20:50:52.957Z</time>
      </trkpt>
      <trkpt lat="48.86134" lon="2.32857">
        <ele>83.4</ele>
        <time>2015-07-06T20:50:53.968Z</time>
      </trkpt>
      <trkpt lat="48.86131" lon="2.32867">
        <ele>83.4</ele>
        <time>2015-07-06T20:50:54.978Z</time>
      </trkpt>
      <trkpt lat="48.86128" lon="2.32877">
        <ele>83.8</ele>
        <time>2015-07-06T20:50:56.013Z</time>
      </trkpt>
      <trkpt lat="48.86124" lon="2.32887">
        <ele>84</ele>
        <time>2015-07-06T20:50:57.036Z</time>
      </trkpt>
      <trkpt lat="48.86121" lon="2.32896">
        <ele>84.3</ele>
        <time>2015-07-06T20:50:58.045Z</time>
      </trkpt>
      <trkpt lat="48.86118" lon="2.32905">
        <ele>84.4</ele>
        <time>2015-07-06T20:50:58.961Z</time>
      </trkpt>
      <trkpt lat="48.86116" lon="2.32913">
        <ele>84.4</ele>
        <time>2015-07-06T20:50:59.955Z</time>
      </trkpt>
      <trkpt lat="48.86113" lon="2.3292">
        <ele>84.4</ele>
        <time>2015-07-06T20:51:00.965Z</time>
      </trkpt>
      <trkpt lat="48.86111" lon="2.32926">
        <ele>84.5</ele>
        <time>2015-07-06T20:51:02.019Z</time>
      </trkpt>
      <trkpt lat="48.86109" lon="2.32932">
        <ele>84.7</ele>
        <time>2015-07-06T20:51:03.047Z</time>
      </trkpt>
      <trkpt lat="48.86107" lon="2.32939">
        <ele>84.8</ele>
        <time>2015-07-06T20:51:04.036Z</time>
      </trkpt>
      <trkpt lat="48.86104" lon="2.32946">
        <ele>84.8</ele>
        <time>2015-07-06T20:51:04.939Z</time>
      </trkpt>
      <trkpt lat="48.86102" lon="2.32952">
        <ele>84.9</ele>
        <time>2015-07-06T20:51:05.941Z</time>
      </trkpt>
      <trkpt lat="48.861" lon="2.3296">
        <ele>85</ele>
        <time>2015-07-06T20:51:06.950Z</time>
      </trkpt>
      <trkpt lat="48.86098" lon="2.32966">
        <ele>84.9</ele>
        <time>2015-07-06T20:51:07.982Z</time>
      </trkpt>
      <trkpt lat="48.86096" lon="2.32971">
        <ele>85.3</ele>
        <time>2015-07-06T20:51:08.992Z</time>
      </trkpt>
      <trkpt lat="48.86093" lon="2.32978">
        <ele>85.3</ele>
        <time>2015-07-06T20:51:09.989Z</time>
      </trkpt>
      <trkpt lat="48.86091" lon="2.32986">
        <ele>85.2</ele>
        <time>2015-07-06T20:51:11.011Z</time>
      </trkpt>
      <trkpt lat="48.86089" lon="2.32992">
        <ele>85.3</ele>
        <time>2015-07-06T20:51:12.015Z</time>
      </trkpt>
      <trkpt lat="48.86083" lon="2.33002">
        <ele>85.4</ele>
        <time>2015-07-06T20:51:14.033Z</time>
      </trkpt>
      <trkpt lat="48.86081" lon="2.33005">
        <ele>85.3</ele>
        <time>2015-07-06T20:51:14.977Z</time>
      </trkpt>
      <trkpt lat="48.86078" lon="2.33005">
        <ele>85.4</ele>
        <time>2015-07-06T20:51:17.074Z</time>
      </trkpt>
      <trkpt lat="48.86078" lon="2.33003">
        <ele>85.1</ele>
        <time>2015-07-06T20:51:18.058Z</time>
      </trkpt>
      <trkpt lat="48.86078" lon="2.33001">
        <ele>84.6</ele>
        <time>2015-07-06T20:51:30.962Z</time>
      </trkpt>
      <trkpt lat="48.86086" lon="2.32989">
        <ele>84.5</ele>
        <time>2015-07-06T20:51:32.030Z</time>
      </trkpt>
      <trkpt lat="48.86095" lon="2.32992">
        <ele>84.4</ele>
        <time>2015-07-06T20:51:35.991Z</time>
      </trkpt>
      <trkpt lat="48.86097" lon="2.32993">
        <ele>84.4</ele>
        <time>2015-07-06T20:51:36.998Z</time>
      </trkpt>
      <trkpt lat="48.861" lon="2.33001">
        <ele>83.5</ele>
        <time>2015-07-06T20:52:29.004Z</time>
      </trkpt>
      <trkpt lat="48.86103" lon="2.33007">
        <ele>83.7</ele>
        <time>2015-07-06T20:52:29.986Z</time>
      </trkpt>
      <trkpt lat="48.86111" lon="2.33013">
        <ele>83.6</ele>
        <time>2015-07-06T20:52:33.038Z</time>
      </trkpt>
      <trkpt lat="48.86115" lon="2.33017">
        <ele>83.4</ele>
        <time>2015-07-06T20:52:33.993Z</time>
      </trkpt>
      <trkpt lat="48.8612" lon="2.33021">
        <ele>83.3</ele>
        <time>2015-07-06T20:52:34.965Z</time>
      </trkpt>
      <trkpt lat="48.86125" lon="2.33025">
        <ele>83.4</ele>
        <time>2015-07-06T20:52:35.962Z</time>
      </trkpt>
      <trkpt lat="48.8613" lon="2.33029">
        <ele>83.4</ele>
        <time>2015-07-06T20:52:36.975Z</time>
      </trkpt>
      <trkpt lat="48.86136" lon="2.33033">
        <ele>83.3</ele>
        <time>2015-07-06T20:52:38.012Z</time>
      </trkpt>
      <trkpt lat="48.86143" lon="2.33037">
        <ele>83.3</ele>
        <time>2015-07-06T20:52:39.015Z</time>
      </trkpt>
      <trkpt lat="48.8615" lon="2.33043">
        <ele>83.3</ele>
        <time>2015-07-06T20:52:40.024Z</time>
      </trkpt>
      <trkpt lat="48.86157" lon="2.33049">
        <ele>83.2</ele>
        <time>2015-07-06T20:52:41.040Z</time>
      </trkpt>
      <trkpt lat="48.86164" lon="2.33055">
        <ele>83</ele>
        <time>2015-07-06T20:52:42.053Z</time>
      </trkpt>
      <trkpt lat="48.86172" lon="2.3306">
        <ele>83.1</ele>
        <time>2015-07-06T20:52:42.930Z</time>
      </trkpt>
      <trkpt lat="48.86309" lon="2.33174">
        <ele>82.9</ele>
        <time>2015-07-06T20:53:00.962Z</time>
      </trkpt>
      <trkpt lat="48.86318" lon="2.33177">
        <ele>82.8</ele>
        <time>2015-07-06T20:53:01.971Z</time>
      </trkpt>
      <trkpt lat="48.86327" lon="2.33178">
        <ele>84.9</ele>
        <time>2015-07-06T20:53:04.009Z</time>
      </trkpt>
      <trkpt lat="48.8633" lon="2.33178">
        <ele>85.8</ele>
        <time>2015-07-06T20:53:05.024Z</time>
      </trkpt>
      <trkpt lat="48.86338" lon="2.33178">
        <ele>85.2</ele>
        <time>2015-07-06T20:53:06.989Z</time>
      </trkpt>
      <trkpt lat="48.86343" lon="2.33184">
        <ele>81.9</ele>
        <time>2015-07-06T20:53:08.011Z</time>
      </trkpt>
      <trkpt lat="48.86347" lon="2.33189">
        <ele>79.9</ele>
        <time>2015-07-06T20:53:09.040Z</time>
      </trkpt>
      <trkpt lat="48.86351" lon="2.33192">
        <ele>80.2</ele>
        <time>2015-07-06T20:53:09.976Z</time>
      </trkpt>
      <trkpt lat="48.86358" lon="2.33197">
        <ele>79.1</ele>
        <time>2015-07-06T20:53:12.020Z</time>
      </trkpt>
      <trkpt lat="48.86361" lon="2.33199">
        <ele>78.5</ele>
        <time>2015-07-06T20:53:13.148Z</time>
      </trkpt>
      <trkpt lat="48.86367" lon="2.33207">
        <ele>78.7</ele>
        <time>2015-07-06T20:53:16.946Z</time>
      </trkpt>
      <trkpt lat="48.86368" lon="2.33209">
        <ele>80.7</ele>
        <time>2015-07-06T20:53:17.997Z</time>
      </trkpt>
      <trkpt lat="48.86368" lon="2.33209">
        <ele>81.6</ele>
        <time>2015-07-06T20:53:41.914Z</time>
      </trkpt>
      <trkpt lat="48.8638" lon="2.33209">
        <ele>91.8</ele>
        <time>2015-07-06T20:53:42.913Z</time>
      </trkpt>
      <trkpt lat="48.86388" lon="2.33215">
        <ele>94.1</ele>
        <time>2015-07-06T20:53:47.024Z</time>
      </trkpt>
      <trkpt lat="48.86389" lon="2.33217">
        <ele>94.7</ele>
        <time>2015-07-06T20:53:48.051Z</time>
      </trkpt>
      <trkpt lat="48.86396" lon="2.3322">
        <ele>97.8</ele>
        <time>2015-07-06T20:53:52.988Z</time>
      </trkpt>
      <trkpt lat="48.86397" lon="2.33222">
        <ele>98.4</ele>
        <time>2015-07-06T20:53:54.006Z</time>
      </trkpt>
      <trkpt lat="48.86402" lon="2.33227">
        <ele>98.7</ele>
        <time>2015-07-06T20:53:56.027Z</time>
      </trkpt>
      <trkpt lat="48.86404" lon="2.33231">
        <ele>98.5</ele>
        <time>2015-07-06T20:53:56.968Z</time>
      </trkpt>
      <trkpt lat="48.8641" lon="2.33237">
        <ele>97.9</ele>
        <time>2015-07-06T20:53:58.993Z</time>
      </trkpt>
      <trkpt lat="48.86413" lon="2.33241">
        <ele>97.8</ele>
        <time>2015-07-06T20:54:00.046Z</time>
      </trkpt>
      <trkpt lat="48.86417" lon="2.3325">
        <ele>97.5</ele>
        <time>2015-07-06T20:54:02.080Z</time>
      </trkpt>
      <trkpt lat="48.8642" lon="2.33253">
        <ele>97.1</ele>
        <time>2015-07-06T20:54:02.993Z</time>
      </trkpt>
      <trkpt lat="48.86427" lon="2.33259">
        <ele>97</ele>
        <time>2015-07-06T20:54:05.087Z</time>
      </trkpt>
      <trkpt lat="48.8643" lon="2.33263">
        <ele>96.8</ele>
        <time>2015-07-06T20:54:05.948Z</time>
      </trkpt>
      <trkpt lat="48.86434" lon="2.33268">
        <ele>96.8</ele>
        <time>2015-07-06T20:54:06.941Z</time>
      </trkpt>
      <trkpt lat="48.8644" lon="2.33269">
        <ele>96.6</ele>
        <time>2015-07-06T20:54:08.069Z</time>
      </trkpt>
      <trkpt lat="48.86447" lon="2.33273">
        <ele>96.2</ele>
        <time>2015-07-06T20:54:10.109Z</time>
      </trkpt>
      <trkpt lat="48.86448" lon="2.33275">
        <ele>96.9</ele>
        <time>2015-07-06T20:54:10.961Z</time>
      </trkpt>
      <trkpt lat="48.86445" lon="2.33283">
        <ele>98.2</ele>
        <time>2015-07-06T20:54:13.012Z</time>
      </trkpt>
      <trkpt lat="48.86444" lon="2.33289">
        <ele>98.3</ele>
        <time>2015-07-06T20:54:14.036Z</time>
      </trkpt>
      <trkpt lat="48.86439" lon="2.33295">
        <ele>98.2</ele>
        <time>2015-07-06T20:54:15.122Z</time>
      </trkpt>
      <trkpt lat="48.86436" lon="2.33301">
        <ele>98.1</ele>
        <time>2015-07-06T20:54:15.931Z</time>
      </trkpt>
      <trkpt lat="48.86432" lon="2.33311">
        <ele>98</ele>
        <time>2015-07-06T20:54:17.961Z</time>
      </trkpt>
      <trkpt lat="48.8643" lon="2.33317">
        <ele>97.7</ele>
        <time>2015-07-06T20:54:18.977Z</time>
      </trkpt>
      <trkpt lat="48.86428" lon="2.33324">
        <ele>97.4</ele>
        <time>2015-07-06T20:54:20.084Z</time>
      </trkpt>
      <trkpt lat="48.86425" lon="2.3333">
        <ele>97.3</ele>
        <time>2015-07-06T20:54:20.955Z</time>
      </trkpt>
      <trkpt lat="48.86423" lon="2.33336">
        <ele>97.5</ele>
        <time>2015-07-06T20:54:21.935Z</time>
      </trkpt>
      <trkpt lat="48.86419" lon="2.33343">
        <ele>97.3</ele>
        <time>2015-07-06T20:54:22.948Z</time>
      </trkpt>
      <trkpt lat="48.86416" lon="2.3335">
        <ele>97.3</ele>
        <time>2015-07-06T20:54:23.946Z</time>
      </trkpt>
      <trkpt lat="48.86413" lon="2.33355">
        <ele>97.2</ele>
        <time>2015-07-06T20:54:24.963Z</time>
      </trkpt>
      <trkpt lat="48.86408" lon="2.33361">
        <ele>97.3</ele>
        <time>2015-07-06T20:54:25.975Z</time>
      </trkpt>
      <trkpt lat="48.86405" lon="2.33366">
        <ele>97.1</ele>
        <time>2015-07-06T20:54:26.994Z</time>
      </trkpt>
      <trkpt lat="48.86401" lon="2.3337">
        <ele>96.9</ele>
        <time>2015-07-06T20:54:27.927Z</time>
      </trkpt>
      <trkpt lat="48.86397" lon="2.33374">
        <ele>96.9</ele>
        <time>2015-07-06T20:54:28.936Z</time>
      </trkpt>
      <trkpt lat="48.86393" lon="2.3338">
        <ele>97</ele>
        <time>2015-07-06T20:54:29.950Z</time>
      </trkpt>
      <trkpt lat="48.8639" lon="2.33386">
        <ele>97</ele>
        <time>2015-07-06T20:54:30.988Z</time>
      </trkpt>
      <trkpt lat="48.86385" lon="2.33396">
        <ele>97.8</ele>
        <time>2015-07-06T20:54:33.178Z</time>
      </trkpt>
      <trkpt lat="48.8638" lon="2.33401">
        <ele>98.2</ele>
        <time>2015-07-06T20:54:33.947Z</time>
      </trkpt>
      <trkpt lat="48.86378" lon="2.33407">
        <ele>98.7</ele>
        <time>2015-07-06T20:54:34.956Z</time>
      </trkpt>
      <trkpt lat="48.86376" lon="2.33413">
        <ele>99</ele>
        <time>2015-07-06T20:54:35.956Z</time>
      </trkpt>
      <trkpt lat="48.86375" lon="2.3342">
        <ele>99.5</ele>
        <time>2015-07-06T20:54:36.983Z</time>
      </trkpt>
      <trkpt lat="48.86374" lon="2.33427">
        <ele>99.9</ele>
        <time>2015-07-06T20:54:37.998Z</time>
      </trkpt>
      <trkpt lat="48.86374" lon="2.33437">
        <ele>99.9</ele>
        <time>2015-07-06T20:54:38.937Z</time>
      </trkpt>
      <trkpt lat="48.86375" lon="2.33446">
        <ele>99.9</ele>
        <time>2015-07-06T20:54:39.970Z</time>
      </trkpt>
      <trkpt lat="48.86373" lon="2.33453">
        <ele>100.5</ele>
        <time>2015-07-06T20:54:40.963Z</time>
      </trkpt>
      <trkpt lat="48.86371" lon="2.33461">
        <ele>100.5</ele>
        <time>2015-07-06T20:54:41.968Z</time>
      </trkpt>
      <trkpt lat="48.86372" lon="2.33469">
        <ele>100.7</ele>
        <time>2015-07-06T20:54:42.891Z</time>
      </trkpt>
      <trkpt lat="48.86374" lon="2.33478">
        <ele>100.9</ele>
        <time>2015-07-06T20:54:43.941Z</time>
      </trkpt>
      <trkpt lat="48.86372" lon="2.33488">
        <ele>101.2</ele>
        <time>2015-07-06T20:54:45.957Z</time>
      </trkpt>
      <trkpt lat="48.8637" lon="2.33494">
        <ele>101.7</ele>
        <time>2015-07-06T20:54:46.919Z</time>
      </trkpt>
      <trkpt lat="48.86369" lon="2.33506">
        <ele>103</ele>
        <time>2015-07-06T20:54:48.951Z</time>
      </trkpt>
      <trkpt lat="48.86365" lon="2.3351">
        <ele>103.9</ele>
        <time>2015-07-06T20:54:49.989Z</time>
      </trkpt>
      <trkpt lat="48.86361" lon="2.33517">
        <ele>103.9</ele>
        <time>2015-07-06T20:54:50.999Z</time>
      </trkpt>
      <trkpt lat="48.86357" lon="2.33524">
        <ele>103.6</ele>
        <time>2015-07-06T20:54:52.002Z</time>
      </trkpt>
      <trkpt lat="48.86353" lon="2.3353">
        <ele>103.5</ele>
        <time>2015-07-06T20:54:52.919Z</time>
      </trkpt>
      <trkpt lat="48.86346" lon="2.33537">
        <ele>101.1</ele>
        <time>2015-07-06T20:54:53.980Z</time>
      </trkpt>
      <trkpt lat="48.86343" lon="2.33541">
        <ele>101.2</ele>
        <time>2015-07-06T20:54:55.020Z</time>
      </trkpt>
      <trkpt lat="48.86339" lon="2.33547">
        <ele>101.8</ele>
        <time>2015-07-06T20:54:56.024Z</time>
      </trkpt>
      <trkpt lat="48.86333" lon="2.33555">
        <ele>103</ele>
        <time>2015-07-06T20:54:57.952Z</time>
      </trkpt>
      <trkpt lat="48.86331" lon="2.33559">
        <ele>103.3</ele>
        <time>2015-07-06T20:54:58.960Z</time>
      </trkpt>
      <trkpt lat="48.86327" lon="2.33567">
        <ele>104.4</ele>
        <time>2015-07-06T20:55:00.979Z</time>
      </trkpt>
      <trkpt lat="48.86326" lon="2.33571">
        <ele>104.7</ele>
        <time>2015-07-06T20:55:02.006Z</time>
      </trkpt>
      <trkpt lat="48.86322" lon="2.33582">
        <ele>106.3</ele>
        <time>2015-07-06T20:55:03.934Z</time>
      </trkpt>
      <trkpt lat="48.8632" lon="2.33586">
        <ele>106.8</ele>
        <time>2015-07-06T20:55:04.944Z</time>
      </trkpt>
      <trkpt lat="48.86318" lon="2.33595">
        <ele>107</ele>
        <time>2015-07-06T20:55:06.966Z</time>
      </trkpt>
      <trkpt lat="48.86319" lon="2.33601">
        <ele>106.9</ele>
        <time>2015-07-06T20:55:08.009Z</time>
      </trkpt>
      <trkpt lat="48.86319" lon="2.33609">
        <ele>107.1</ele>
        <time>2015-07-06T20:55:09.122Z</time>
      </trkpt>
      <trkpt lat="48.86319" lon="2.33617">
        <ele>106.9</ele>
        <time>2015-07-06T20:55:09.936Z</time>
      </trkpt>
      <trkpt lat="48.86316" lon="2.33625">
        <ele>106.8</ele>
        <time>2015-07-06T20:55:10.949Z</time>
      </trkpt>
      <trkpt lat="48.86313" lon="2.33633">
        <ele>106</ele>
        <time>2015-07-06T20:55:11.957Z</time>
      </trkpt>
      <trkpt lat="48.86309" lon="2.33642">
        <ele>104.7</ele>
        <time>2015-07-06T20:55:12.960Z</time>
      </trkpt>
      <trkpt lat="48.86306" lon="2.3365">
        <ele>104.5</ele>
        <time>2015-07-06T20:55:13.967Z</time>
      </trkpt>
      <trkpt lat="48.86303" lon="2.33657">
        <ele>103.3</ele>
        <time>2015-07-06T20:55:14.969Z</time>
      </trkpt>
      <trkpt lat="48.863" lon="2.33663">
        <ele>102.4</ele>
        <time>2015-07-06T20:55:15.974Z</time>
      </trkpt>
      <trkpt lat="48.86296" lon="2.33671">
        <ele>101.3</ele>
        <time>2015-07-06T20:55:16.981Z</time>
      </trkpt>
      <trkpt lat="48.86294" lon="2.33679">
        <ele>100.6</ele>
        <time>2015-07-06T20:55:17.992Z</time>
      </trkpt>
      <trkpt lat="48.8629" lon="2.33688">
        <ele>100</ele>
        <time>2015-07-06T20:55:19.000Z</time>
      </trkpt>
      <trkpt lat="48.86287" lon="2.33697">
        <ele>99.6</ele>
        <time>2015-07-06T20:55:20.012Z</time>
      </trkpt>
      <trkpt lat="48.86285" lon="2.33707">
        <ele>99.4</ele>
        <time>2015-07-06T20:55:21.013Z</time>
      </trkpt>
      <trkpt lat="48.86284" lon="2.33716">
        <ele>99.3</ele>
        <time>2015-07-06T20:55:21.921Z</time>
      </trkpt>
      <trkpt lat="48.86281" lon="2.33724">
        <ele>99.4</ele>
        <time>2015-07-06T20:55:22.945Z</time>
      </trkpt>
      <trkpt lat="48.86276" lon="2.33731">
        <ele>99.3</ele>
        <time>2015-07-06T20:55:23.953Z</time>
      </trkpt>
      <trkpt lat="48.86273" lon="2.3374">
        <ele>99.3</ele>
        <time>2015-07-06T20:55:24.963Z</time>
      </trkpt>
      <trkpt lat="48.86273" lon="2.33752">
        <ele>99.6</ele>
        <time>2015-07-06T20:55:25.978Z</time>
      </trkpt>
      <trkpt lat="48.86271" lon="2.33761">
        <ele>99.9</ele>
        <time>2015-07-06T20:55:26.983Z</time>
      </trkpt>
      <trkpt lat="48.86267" lon="2.33769">
        <ele>99.9</ele>
        <time>2015-07-06T20:55:27.988Z</time>
      </trkpt>
      <trkpt lat="48.86264" lon="2.33777">
        <ele>100</ele>
        <time>2015-07-06T20:55:29.002Z</time>
      </trkpt>
      <trkpt lat="48.86261" lon="2.33785">
        <ele>100.2</ele>
        <time>2015-07-06T20:55:30.000Z</time>
      </trkpt>
      <trkpt lat="48.86258" lon="2.33794">
        <ele>100.3</ele>
        <time>2015-07-06T20:55:31.015Z</time>
      </trkpt>
      <trkpt lat="48.86257" lon="2.33803">
        <ele>100.4</ele>
        <time>2015-07-06T20:55:32.025Z</time>
      </trkpt>
      <trkpt lat="48.86254" lon="2.33814">
        <ele>100.6</ele>
        <time>2015-07-06T20:55:32.923Z</time>
      </trkpt>
      <trkpt lat="48.86251" lon="2.33827">
        <ele>100.7</ele>
        <time>2015-07-06T20:55:33.937Z</time>
      </trkpt>
      <trkpt lat="48.8625" lon="2.33838">
        <ele>100.6</ele>
        <time>2015-07-06T20:55:34.944Z</time>
      </trkpt>
      <trkpt lat="48.86247" lon="2.33844">
        <ele>100.4</ele>
        <time>2015-07-06T20:55:35.954Z</time>
      </trkpt>
      <trkpt lat="48.86246" lon="2.33852">
        <ele>100</ele>
        <time>2015-07-06T20:55:36.958Z</time>
      </trkpt>
      <trkpt lat="48.86244" lon="2.33861">
        <ele>100.1</ele>
        <time>2015-07-06T20:55:37.965Z</time>
      </trkpt>
      <trkpt lat="48.86241" lon="2.33871">
        <ele>100.1</ele>
        <time>2015-07-06T20:55:38.982Z</time>
      </trkpt>
      <trkpt lat="48.86237" lon="2.3388">
        <ele>100.4</ele>
        <time>2015-07-06T20:55:39.994Z</time>
      </trkpt>
      <trkpt lat="48.86236" lon="2.33892">
        <ele>99.9</ele>
        <time>2015-07-06T20:55:41.012Z</time>
      </trkpt>
      <trkpt lat="48.86232" lon="2.33901">
        <ele>100.4</ele>
        <time>2015-07-06T20:55:41.915Z</time>
      </trkpt>
      <trkpt lat="48.86227" lon="2.33909">
        <ele>101</ele>
        <time>2015-07-06T20:55:42.949Z</time>
      </trkpt>
      <trkpt lat="48.86219" lon="2.33917">
        <ele>100.8</ele>
        <time>2015-07-06T20:55:43.970Z</time>
      </trkpt>
      <trkpt lat="48.86215" lon="2.33925">
        <ele>101.6</ele>
        <time>2015-07-06T20:55:44.975Z</time>
      </trkpt>
      <trkpt lat="48.86213" lon="2.33933">
        <ele>102.3</ele>
        <time>2015-07-06T20:55:45.981Z</time>
      </trkpt>
      <trkpt lat="48.86209" lon="2.33941">
        <ele>103.1</ele>
        <time>2015-07-06T20:55:47.005Z</time>
      </trkpt>
      <trkpt lat="48.86206" lon="2.33949">
        <ele>103.5</ele>
        <time>2015-07-06T20:55:47.932Z</time>
      </trkpt>
      <trkpt lat="48.86204" lon="2.33959">
        <ele>103.9</ele>
        <time>2015-07-06T20:55:48.938Z</time>
      </trkpt>
      <trkpt lat="48.86201" lon="2.33968">
        <ele>104</ele>
        <time>2015-07-06T20:55:49.979Z</time>
      </trkpt>
      <trkpt lat="48.86199" lon="2.33977">
        <ele>104.2</ele>
        <time>2015-07-06T20:55:50.978Z</time>
      </trkpt>
      <trkpt lat="48.86194" lon="2.33986">
        <ele>104</ele>
        <time>2015-07-06T20:55:51.980Z</time>
      </trkpt>
      <trkpt lat="48.86194" lon="2.33994">
        <ele>104.3</ele>
        <time>2015-07-06T20:55:52.999Z</time>
      </trkpt>
      <trkpt lat="48.86192" lon="2.34001">
        <ele>104.3</ele>
        <time>2015-07-06T20:55:54.054Z</time>
      </trkpt>
      <trkpt lat="48.86189" lon="2.34008">
        <ele>104.3</ele>
        <time>2015-07-06T20:55:54.930Z</time>
      </trkpt>
      <trkpt lat="48.86186" lon="2.34015">
        <ele>104</ele>
        <time>2015-07-06T20:55:55.977Z</time>
      </trkpt>
      <trkpt lat="48.86184" lon="2.34023">
        <ele>103.5</ele>
        <time>2015-07-06T20:55:56.988Z</time>
      </trkpt>
      <trkpt lat="48.86182" lon="2.34031">
        <ele>103.3</ele>
        <time>2015-07-06T20:55:57.995Z</time>
      </trkpt>
      <trkpt lat="48.86183" lon="2.34041">
        <ele>103.2</ele>
        <time>2015-07-06T20:55:59.005Z</time>
      </trkpt>
      <trkpt lat="48.86183" lon="2.3405">
        <ele>102.9</ele>
        <time>2015-07-06T20:55:59.901Z</time>
      </trkpt>
      <trkpt lat="48.86181" lon="2.34057">
        <ele>102.4</ele>
        <time>2015-07-06T20:56:00.940Z</time>
      </trkpt>
      <trkpt lat="48.86181" lon="2.34065">
        <ele>102.1</ele>
        <time>2015-07-06T20:56:02.031Z</time>
      </trkpt>
      <trkpt lat="48.86181" lon="2.34072">
        <ele>101.7</ele>
        <time>2015-07-06T20:56:02.904Z</time>
      </trkpt>
      <trkpt lat="48.86181" lon="2.34079">
        <ele>101.5</ele>
        <time>2015-07-06T20:56:03.904Z</time>
      </trkpt>
      <trkpt lat="48.8618" lon="2.34087">
        <ele>101.3</ele>
        <time>2015-07-06T20:56:04.919Z</time>
      </trkpt>
      <trkpt lat="48.8618" lon="2.34096">
        <ele>101.2</ele>
        <time>2015-07-06T20:56:05.917Z</time>
      </trkpt>
      <trkpt lat="48.86183" lon="2.34106">
        <ele>101.8</ele>
        <time>2015-07-06T20:56:06.936Z</time>
      </trkpt>
      <trkpt lat="48.86187" lon="2.34114">
        <ele>102.4</ele>
        <time>2015-07-06T20:56:07.963Z</time>
      </trkpt>
      <trkpt lat="48.86188" lon="2.3412">
        <ele>104.9</ele>
        <time>2015-07-06T20:56:20.960Z</time>
      </trkpt>
      <trkpt lat="48.86181" lon="2.34126">
        <ele>107.4</ele>
        <time>2015-07-06T20:56:21.970Z</time>
      </trkpt>
      <trkpt lat="48.86174" lon="2.34132">
        <ele>108.5</ele>
        <time>2015-07-06T20:56:23.933Z</time>
      </trkpt>
      <trkpt lat="48.86171" lon="2.34136">
        <ele>108.8</ele>
        <time>2015-07-06T20:56:24.954Z</time>
      </trkpt>
      <trkpt lat="48.86165" lon="2.34145">
        <ele>109.7</ele>
        <time>2015-07-06T20:56:26.928Z</time>
      </trkpt>
      <trkpt lat="48.86161" lon="2.3415">
        <ele>110.1</ele>
        <time>2015-07-06T20:56:27.959Z</time>
      </trkpt>
      <trkpt lat="48.86158" lon="2.34161">
        <ele>110.8</ele>
        <time>2015-07-06T20:56:29.990Z</time>
      </trkpt>
      <trkpt lat="48.86158" lon="2.34166">
        <ele>111</ele>
        <time>2015-07-06T20:56:30.999Z</time>
      </trkpt>
      <trkpt lat="48.86157" lon="2.34177">
        <ele>110.9</ele>
        <time>2015-07-06T20:56:32.928Z</time>
      </trkpt>
      <trkpt lat="48.86156" lon="2.34184">
        <ele>110.9</ele>
        <time>2015-07-06T20:56:33.961Z</time>
      </trkpt>
      <trkpt lat="48.86153" lon="2.34192">
        <ele>110.9</ele>
        <time>2015-07-06T20:56:34.930Z</time>
      </trkpt>
      <trkpt lat="48.86152" lon="2.342">
        <ele>110.9</ele>
        <time>2015-07-06T20:56:35.918Z</time>
      </trkpt>
      <trkpt lat="48.86151" lon="2.34208">
        <ele>111.1</ele>
        <time>2015-07-06T20:56:36.943Z</time>
      </trkpt>
      <trkpt lat="48.8615" lon="2.34215">
        <ele>111.1</ele>
        <time>2015-07-06T20:56:37.985Z</time>
      </trkpt>
      <trkpt lat="48.86148" lon="2.34222">
        <ele>111</ele>
        <time>2015-07-06T20:56:38.920Z</time>
      </trkpt>
      <trkpt lat="48.86146" lon="2.34229">
        <ele>110.9</ele>
        <time>2015-07-06T20:56:39.920Z</time>
      </trkpt>
      <trkpt lat="48.86143" lon="2.34238">
        <ele>110.4</ele>
        <time>2015-07-06T20:56:40.955Z</time>
      </trkpt>
      <trkpt lat="48.86141" lon="2.34246">
        <ele>110.2</ele>
        <time>2015-07-06T20:56:41.967Z</time>
      </trkpt>
      <trkpt lat="48.8614" lon="2.34254">
        <ele>110.1</ele>
        <time>2015-07-06T20:56:42.983Z</time>
      </trkpt>
      <trkpt lat="48.86138" lon="2.34263">
        <ele>110</ele>
        <time>2015-07-06T20:56:43.997Z</time>
      </trkpt>
      <trkpt lat="48.86135" lon="2.34269">
        <ele>110.1</ele>
        <time>2015-07-06T20:56:45.010Z</time>
      </trkpt>
      <trkpt lat="48.86134" lon="2.34277">
        <ele>110.4</ele>
        <time>2015-07-06T20:56:45.935Z</time>
      </trkpt>
      <trkpt lat="48.86132" lon="2.34288">
        <ele>110.4</ele>
        <time>2015-07-06T20:56:46.931Z</time>
      </trkpt>
      <trkpt lat="48.86131" lon="2.34298">
        <ele>110.4</ele>
        <time>2015-07-06T20:56:47.947Z</time>
      </trkpt>
      <trkpt lat="48.86131" lon="2.34308">
        <ele>110.2</ele>
        <time>2015-07-06T20:56:48.969Z</time>
      </trkpt>
      <trkpt lat="48.86132" lon="2.34315">
        <ele>109.9</ele>
        <time>2015-07-06T20:56:49.982Z</time>
      </trkpt>
      <trkpt lat="48.86128" lon="2.34326">
        <ele>109.5</ele>
        <time>2015-07-06T20:56:51.927Z</time>
      </trkpt>
      <trkpt lat="48.86125" lon="2.34332">
        <ele>109.3</ele>
        <time>2015-07-06T20:56:52.933Z</time>
      </trkpt>
      <trkpt lat="48.8612" lon="2.34337">
        <ele>109</ele>
        <time>2015-07-06T20:56:53.959Z</time>
      </trkpt>
      <trkpt lat="48.86117" lon="2.34342">
        <ele>108.4</ele>
        <time>2015-07-06T20:56:54.968Z</time>
      </trkpt>
      <trkpt lat="48.86114" lon="2.34347">
        <ele>108</ele>
        <time>2015-07-06T20:56:55.975Z</time>
      </trkpt>
      <trkpt lat="48.8611" lon="2.34353">
        <ele>107.5</ele>
        <time>2015-07-06T20:56:56.955Z</time>
      </trkpt>
      <trkpt lat="48.86108" lon="2.34358">
        <ele>107</ele>
        <time>2015-07-06T20:56:57.973Z</time>
      </trkpt>
      <trkpt lat="48.86106" lon="2.34365">
        <ele>106.7</ele>
        <time>2015-07-06T20:56:58.990Z</time>
      </trkpt>
      <trkpt lat="48.86102" lon="2.34375">
        <ele>106</ele>
        <time>2015-07-06T20:57:00.919Z</time>
      </trkpt>
      <trkpt lat="48.861" lon="2.34383">
        <ele>105.7</ele>
        <time>2015-07-06T20:57:02.002Z</time>
      </trkpt>
      <trkpt lat="48.86096" lon="2.34389">
        <ele>105.3</ele>
        <time>2015-07-06T20:57:02.898Z</time>
      </trkpt>
      <trkpt lat="48.86094" lon="2.34397">
        <ele>104.9</ele>
        <time>2015-07-06T20:57:03.916Z</time>
      </trkpt>
      <trkpt lat="48.86092" lon="2.34405">
        <ele>104.7</ele>
        <time>2015-07-06T20:57:04.928Z</time>
      </trkpt>
      <trkpt lat="48.86088" lon="2.34412">
        <ele>104.5</ele>
        <time>2015-07-06T20:57:05.938Z</time>
      </trkpt>
      <trkpt lat="48.86087" lon="2.3442">
        <ele>104.6</ele>
        <time>2015-07-06T20:57:06.964Z</time>
      </trkpt>
      <trkpt lat="48.86095" lon="2.34433">
        <ele>105.5</ele>
        <time>2015-07-06T20:57:08.006Z</time>
      </trkpt>
      <trkpt lat="48.86097" lon="2.34447">
        <ele>106.3</ele>
        <time>2015-07-06T20:57:08.918Z</time>
      </trkpt>
      <trkpt lat="48.86098" lon="2.3446">
        <ele>107.1</ele>
        <time>2015-07-06T20:57:09.921Z</time>
      </trkpt>
      <trkpt lat="48.86101" lon="2.34474">
        <ele>106.1</ele>
        <time>2015-07-06T20:57:10.935Z</time>
      </trkpt>
      <trkpt lat="48.86101" lon="2.34483">
        <ele>106.1</ele>
        <time>2015-07-06T20:57:11.996Z</time>
      </trkpt>
      <trkpt lat="48.86101" lon="2.34491">
        <ele>106.4</ele>
        <time>2015-07-06T20:57:13.004Z</time>
      </trkpt>
      <trkpt lat="48.861" lon="2.34499">
        <ele>106.8</ele>
        <time>2015-07-06T20:57:14.013Z</time>
      </trkpt>
      <trkpt lat="48.86099" lon="2.34506">
        <ele>107.3</ele>
        <time>2015-07-06T20:57:14.944Z</time>
      </trkpt>
      <trkpt lat="48.86098" lon="2.34516">
        <ele>107.4</ele>
        <time>2015-07-06T20:57:15.932Z</time>
      </trkpt>
      <trkpt lat="48.86096" lon="2.34523">
        <ele>107.6</ele>
        <time>2015-07-06T20:57:16.936Z</time>
      </trkpt>
      <trkpt lat="48.86093" lon="2.34529">
        <ele>107.9</ele>
        <time>2015-07-06T20:57:17.954Z</time>
      </trkpt>
      <trkpt lat="48.8609" lon="2.34534">
        <ele>108.4</ele>
        <time>2015-07-06T20:57:18.967Z</time>
      </trkpt>
      <trkpt lat="48.86086" lon="2.3454">
        <ele>109.4</ele>
        <time>2015-07-06T20:57:19.992Z</time>
      </trkpt>
      <trkpt lat="48.86083" lon="2.34546">
        <ele>110.3</ele>
        <time>2015-07-06T20:57:20.918Z</time>
      </trkpt>
      <trkpt lat="48.86083" lon="2.34554">
        <ele>111.4</ele>
        <time>2015-07-06T20:57:21.917Z</time>
      </trkpt>
      <trkpt lat="48.86081" lon="2.34561">
        <ele>111.8</ele>
        <time>2015-07-06T20:57:22.942Z</time>
      </trkpt>
      <trkpt lat="48.8608" lon="2.34569">
        <ele>112.3</ele>
        <time>2015-07-06T20:57:23.980Z</time>
      </trkpt>
      <trkpt lat="48.8608" lon="2.34576">
        <ele>112.5</ele>
        <time>2015-07-06T20:57:24.980Z</time>
      </trkpt>
      <trkpt lat="48.86078" lon="2.34588">
        <ele>113.2</ele>
        <time>2015-07-06T20:57:26.995Z</time>
      </trkpt>
      <trkpt lat="48.86078" lon="2.34594">
        <ele>113.9</ele>
        <time>2015-07-06T20:57:28.005Z</time>
      </trkpt>
      <trkpt lat="48.86077" lon="2.34605">
        <ele>114.5</ele>
        <time>2015-07-06T20:57:29.934Z</time>
      </trkpt>
      <trkpt lat="48.86075" lon="2.3461">
        <ele>114.7</ele>
        <time>2015-07-06T20:57:30.953Z</time>
      </trkpt>
      <trkpt lat="48.86069" lon="2.34619">
        <ele>115</ele>
        <time>2015-07-06T20:57:32.929Z</time>
      </trkpt>
      <trkpt lat="48.86064" lon="2.34623">
        <ele>115.7</ele>
        <time>2015-07-06T20:57:33.958Z</time>
      </trkpt>
      <trkpt lat="48.86059" lon="2.34627">
        <ele>115.9</ele>
        <time>2015-07-06T20:57:34.948Z</time>
      </trkpt>
      <trkpt lat="48.86054" lon="2.34628">
        <ele>116.7</ele>
        <time>2015-07-06T20:57:35.944Z</time>
      </trkpt>
      <trkpt lat="48.8605" lon="2.34632">
        <ele>117.1</ele>
        <time>2015-07-06T20:57:36.953Z</time>
      </trkpt>
      <trkpt lat="48.86046" lon="2.34636">
        <ele>117.6</ele>
        <time>2015-07-06T20:57:37.975Z</time>
      </trkpt>
      <trkpt lat="48.86041" lon="2.34639">
        <ele>118.3</ele>
        <time>2015-07-06T20:57:38.982Z</time>
      </trkpt>
      <trkpt lat="48.86037" lon="2.34643">
        <ele>119.1</ele>
        <time>2015-07-06T20:57:39.988Z</time>
      </trkpt>
      <trkpt lat="48.86031" lon="2.34649">
        <ele>120.6</ele>
        <time>2015-07-06T20:57:41.901Z</time>
      </trkpt>
      <trkpt lat="48.86026" lon="2.34652">
        <ele>121.7</ele>
        <time>2015-07-06T20:57:42.955Z</time>
      </trkpt>
      <trkpt lat="48.86019" lon="2.34659">
        <ele>122.3</ele>
        <time>2015-07-06T20:57:44.977Z</time>
      </trkpt>
      <trkpt lat="48.86016" lon="2.34661">
        <ele>122.3</ele>
        <time>2015-07-06T20:57:45.983Z</time>
      </trkpt>
      <trkpt lat="48.86009" lon="2.34667">
        <ele>122.4</ele>
        <time>2015-07-06T20:57:47.932Z</time>
      </trkpt>
      <trkpt lat="48.86005" lon="2.3467">
        <ele>122.4</ele>
        <time>2015-07-06T20:57:48.954Z</time>
      </trkpt>
      <trkpt lat="48.86002" lon="2.34672">
        <ele>122.3</ele>
        <time>2015-07-06T20:57:49.991Z</time>
      </trkpt>
      <trkpt lat="48.85996" lon="2.34675">
        <ele>121.3</ele>
        <time>2015-07-06T20:57:50.997Z</time>
      </trkpt>
      <trkpt lat="48.85989" lon="2.34678">
        <ele>120.5</ele>
        <time>2015-07-06T20:57:52.021Z</time>
      </trkpt>
      <trkpt lat="48.85983" lon="2.34681">
        <ele>119.6</ele>
        <time>2015-07-06T20:57:52.929Z</time>
      </trkpt>
      <trkpt lat="48.85977" lon="2.34684">
        <ele>118.5</ele>
        <time>2015-07-06T20:57:53.990Z</time>
      </trkpt>
      <trkpt lat="48.85972" lon="2.34688">
        <ele>117.7</ele>
        <time>2015-07-06T20:57:54.970Z</time>
      </trkpt>
      <trkpt lat="48.85967" lon="2.3469">
        <ele>117.2</ele>
        <time>2015-07-06T20:57:55.977Z</time>
      </trkpt>
      <trkpt lat="48.85964" lon="2.34693">
        <ele>117.2</ele>
        <time>2015-07-06T20:57:56.976Z</time>
      </trkpt>
      <trkpt lat="48.8596" lon="2.34703">
        <ele>114.9</ele>
        <time>2015-07-06T20:58:03.008Z</time>
      </trkpt>
      <trkpt lat="48.85959" lon="2.34706">
        <ele>115.1</ele>
        <time>2015-07-06T20:58:03.933Z</time>
      </trkpt>
      <trkpt lat="48.85958" lon="2.34717">
        <ele>115.8</ele>
        <time>2015-07-06T20:58:06.945Z</time>
      </trkpt>
      <trkpt lat="48.85959" lon="2.34722">
        <ele>115.9</ele>
        <time>2015-07-06T20:58:08.076Z</time>
      </trkpt>
      <trkpt lat="48.85953" lon="2.34732">
        <ele>117.3</ele>
        <time>2015-07-06T20:58:14.017Z</time>
      </trkpt>
      <trkpt lat="48.85952" lon="2.34733">
        <ele>117.4</ele>
        <time>2015-07-06T20:58:14.959Z</time>
      </trkpt>
      <trkpt lat="48.85953" lon="2.34732">
        <ele>117.7</ele>
        <time>2015-07-06T20:59:16.932Z</time>
      </trkpt>
      <trkpt lat="48.85975" lon="2.34726">
        <ele>115.7</ele>
        <time>2015-07-06T20:59:17.943Z</time>
      </trkpt>
      <trkpt lat="48.8597" lon="2.34727">
        <ele>115.8</ele>
        <time>2015-07-06T20:59:26.265Z</time>
      </trkpt>
    </trkseg>
  </trk>
</gpx>